<?xml version="1.0" encoding="UTF-8"?>
<gpx version="1.1" creator="Endomondo.com" xsi:schemaLocation="http://www.topografix.com/GPX/1/1 http://www.topografix.com/GPX/1/1/gpx.xsd http://www.garmin.com/xmlschemas/GpxExtensions/v3 http://www.garmin.com/xmlschemas/GpxExtensionsv3.xsd http://www.garmin.com/xmlschemas/TrackPointExtension/v1 http://www.garmin.com/xmlschemas/TrackPointExtensionv1.xsd" xmlns="http://www.topografix.com/GPX/1/1" xmlns:gpxtpx="http://www.garmin.com/xmlschemas/TrackPointExtension/v1" xmlns:gpxx="http://www.garmin.com/xmlschemas/GpxExtensions/v3" xmlns:xsi="http://www.w3.org/2001/XMLSchema-instance">
  <metadata>
    <author>
      <name>Stas Trostanetsky</name>
      <email id="stastro" domain="gmail.com"/>
    </author>
    <link href="http://www.endomondo.com">
      <text>Endomondo</text>
    </link>
    <time>2015-06-21T07:36:14Z</time>
  </metadata>
  <trk>
    <src>http://www.endomondo.com/</src>
    <link href="https://www.endomondo.com/workouts/536863717/2627324">
      <text>endomondo</text>
    </link>
    <type>MOUNTAIN_BIKING</type>
    <trkseg>
      <trkpt lat="31.6852885" lon="34.9473914">
        <time>2015-06-06T04:25:13Z</time>
      </trkpt>
      <trkpt lat="31.6852885" lon="34.9473914">
        <ele>274.3</ele>
        <time>2015-06-06T04:25:18Z</time>
      </trkpt>
      <trkpt lat="31.6852885" lon="34.9473914">
        <ele>276.8</ele>
        <time>2015-06-06T04:25:19Z</time>
      </trkpt>
      <trkpt lat="31.6852863" lon="34.947335">
        <ele>279.6</ele>
        <time>2015-06-06T04:25:23Z</time>
      </trkpt>
      <trkpt lat="31.6852863" lon="34.947335">
        <time>2015-06-06T04:25:23Z</time>
      </trkpt>
    </trkseg>
    <trkseg>
      <trkpt lat="31.6852863" lon="34.947335">
        <time>2015-06-06T04:27:08Z</time>
      </trkpt>
      <trkpt lat="31.685416" lon="34.9472349">
        <ele>277.3</ele>
        <time>2015-06-06T04:27:09Z</time>
      </trkpt>
      <trkpt lat="31.685416" lon="34.9472349">
        <ele>277.3</ele>
        <time>2015-06-06T04:27:10Z</time>
      </trkpt>
      <trkpt lat="31.685416" lon="34.9472349">
        <ele>277.2</ele>
        <time>2015-06-06T04:27:13Z</time>
      </trkpt>
      <trkpt lat="31.685416" lon="34.9472349">
        <time>2015-06-06T04:27:13Z</time>
      </trkpt>
    </trkseg>
    <trkseg>
      <trkpt lat="31.685416" lon="34.9472349">
        <time>2015-06-06T04:33:45Z</time>
      </trkpt>
      <trkpt lat="31.6854592" lon="34.9473658">
        <ele>276.3</ele>
        <time>2015-06-06T04:33:46Z</time>
      </trkpt>
      <trkpt lat="31.6854337" lon="34.9474258">
        <ele>276.3</ele>
        <time>2015-06-06T04:33:50Z</time>
      </trkpt>
      <trkpt lat="31.6854367" lon="34.947481">
        <ele>276.3</ele>
        <time>2015-06-06T04:33:54Z</time>
      </trkpt>
      <trkpt lat="31.685454" lon="34.9475955">
        <ele>276.4</ele>
        <time>2015-06-06T04:34:04Z</time>
      </trkpt>
      <trkpt lat="31.6854695" lon="34.9476466">
        <ele>276.8</ele>
        <time>2015-06-06T04:34:06Z</time>
      </trkpt>
      <trkpt lat="31.685467" lon="34.9477149">
        <ele>276.8</ele>
        <time>2015-06-06T04:34:09Z</time>
      </trkpt>
      <trkpt lat="31.6854296" lon="34.9478688">
        <ele>278.3</ele>
        <time>2015-06-06T04:34:18Z</time>
      </trkpt>
      <trkpt lat="31.6854689" lon="34.9480066">
        <ele>279.2</ele>
        <time>2015-06-06T04:34:24Z</time>
      </trkpt>
      <trkpt lat="31.685491" lon="34.9481494">
        <ele>279.7</ele>
        <time>2015-06-06T04:34:31Z</time>
      </trkpt>
      <trkpt lat="31.6855009" lon="34.9482026">
        <ele>280.3</ele>
        <time>2015-06-06T04:34:33Z</time>
      </trkpt>
      <trkpt lat="31.6855344" lon="34.9482583">
        <ele>280.3</ele>
        <time>2015-06-06T04:34:36Z</time>
      </trkpt>
      <trkpt lat="31.6855698" lon="34.9483036">
        <ele>282.0</ele>
        <time>2015-06-06T04:34:40Z</time>
      </trkpt>
      <trkpt lat="31.6855585" lon="34.9482906">
        <ele>282.5</ele>
        <time>2015-06-06T04:34:44Z</time>
      </trkpt>
      <trkpt lat="31.6855585" lon="34.9482906">
        <time>2015-06-06T04:34:44Z</time>
      </trkpt>
    </trkseg>
    <trkseg>
      <trkpt lat="31.6855585" lon="34.9482906">
        <time>2015-06-06T04:34:55Z</time>
      </trkpt>
      <trkpt lat="31.6856528" lon="34.9484015">
        <ele>282.3</ele>
        <time>2015-06-06T04:34:56Z</time>
      </trkpt>
      <trkpt lat="31.6857091" lon="34.9485">
        <ele>282.4</ele>
        <time>2015-06-06T04:35:04Z</time>
      </trkpt>
      <trkpt lat="31.6857321" lon="34.9485547">
        <ele>282.5</ele>
        <time>2015-06-06T04:35:08Z</time>
      </trkpt>
      <trkpt lat="31.6857737" lon="34.9486578">
        <ele>282.5</ele>
        <time>2015-06-06T04:35:14Z</time>
      </trkpt>
      <trkpt lat="31.6858215" lon="34.9487561">
        <ele>282.6</ele>
        <time>2015-06-06T04:35:20Z</time>
      </trkpt>
      <trkpt lat="31.685861" lon="34.9487923">
        <ele>282.6</ele>
        <time>2015-06-06T04:35:23Z</time>
      </trkpt>
      <trkpt lat="31.6859151" lon="34.948801">
        <ele>282.6</ele>
        <time>2015-06-06T04:35:26Z</time>
      </trkpt>
      <trkpt lat="31.6860165" lon="34.9488226">
        <ele>283.1</ele>
        <time>2015-06-06T04:35:31Z</time>
      </trkpt>
      <trkpt lat="31.6860805" lon="34.9488755">
        <ele>283.7</ele>
        <time>2015-06-06T04:35:37Z</time>
      </trkpt>
      <trkpt lat="31.6861291" lon="34.9488841">
        <ele>283.7</ele>
        <time>2015-06-06T04:35:40Z</time>
      </trkpt>
      <trkpt lat="31.6861841" lon="34.9489073">
        <ele>284.0</ele>
        <time>2015-06-06T04:35:43Z</time>
      </trkpt>
      <trkpt lat="31.686213" lon="34.9489685">
        <ele>284.2</ele>
        <time>2015-06-06T04:35:46Z</time>
      </trkpt>
      <trkpt lat="31.6862208" lon="34.9490276">
        <ele>284.2</ele>
        <time>2015-06-06T04:35:48Z</time>
      </trkpt>
      <trkpt lat="31.6862094" lon="34.9491043">
        <ele>284.9</ele>
        <time>2015-06-06T04:35:51Z</time>
      </trkpt>
      <trkpt lat="31.6861606" lon="34.9492633">
        <ele>285.3</ele>
        <time>2015-06-06T04:35:58Z</time>
      </trkpt>
      <trkpt lat="31.6861444" lon="34.9493469">
        <ele>285.5</ele>
        <time>2015-06-06T04:36:01Z</time>
      </trkpt>
      <trkpt lat="31.6861303" lon="34.9493994">
        <ele>285.5</ele>
        <time>2015-06-06T04:36:03Z</time>
      </trkpt>
      <trkpt lat="31.6861171" lon="34.9494499">
        <ele>285.7</ele>
        <time>2015-06-06T04:36:05Z</time>
      </trkpt>
      <trkpt lat="31.6861368" lon="34.9495225">
        <ele>285.7</ele>
        <time>2015-06-06T04:36:08Z</time>
      </trkpt>
      <trkpt lat="31.6861703" lon="34.9495639">
        <ele>285.8</ele>
        <time>2015-06-06T04:36:10Z</time>
      </trkpt>
      <trkpt lat="31.686214" lon="34.9495959">
        <ele>285.8</ele>
        <time>2015-06-06T04:36:12Z</time>
      </trkpt>
      <trkpt lat="31.6862585" lon="34.9496244">
        <ele>285.8</ele>
        <time>2015-06-06T04:36:14Z</time>
      </trkpt>
      <trkpt lat="31.6863488" lon="34.9496677">
        <ele>286.2</ele>
        <time>2015-06-06T04:36:18Z</time>
      </trkpt>
      <trkpt lat="31.686389" lon="34.9496963">
        <ele>287.6</ele>
        <time>2015-06-06T04:36:20Z</time>
      </trkpt>
      <trkpt lat="31.6864207" lon="34.949741">
        <ele>287.6</ele>
        <time>2015-06-06T04:36:22Z</time>
      </trkpt>
      <trkpt lat="31.6864432" lon="34.9497936">
        <ele>287.7</ele>
        <time>2015-06-06T04:36:24Z</time>
      </trkpt>
      <trkpt lat="31.6864572" lon="34.9498486">
        <ele>287.7</ele>
        <time>2015-06-06T04:36:26Z</time>
      </trkpt>
      <trkpt lat="31.6864693" lon="34.950027">
        <ele>287.8</ele>
        <time>2015-06-06T04:36:32Z</time>
      </trkpt>
      <trkpt lat="31.6864933" lon="34.950184">
        <ele>288.5</ele>
        <time>2015-06-06T04:36:38Z</time>
      </trkpt>
      <trkpt lat="31.6865221" lon="34.9502406">
        <ele>288.6</ele>
        <time>2015-06-06T04:36:40Z</time>
      </trkpt>
      <trkpt lat="31.6865423" lon="34.9502973">
        <ele>288.6</ele>
        <time>2015-06-06T04:36:42Z</time>
      </trkpt>
      <trkpt lat="31.6865673" lon="34.9504397">
        <ele>288.8</ele>
        <time>2015-06-06T04:36:46Z</time>
      </trkpt>
      <trkpt lat="31.6865558" lon="34.9505687">
        <ele>289.0</ele>
        <time>2015-06-06T04:36:51Z</time>
      </trkpt>
      <trkpt lat="31.6865532" lon="34.9506897">
        <ele>290.1</ele>
        <time>2015-06-06T04:36:55Z</time>
      </trkpt>
      <trkpt lat="31.6865653" lon="34.9507473">
        <ele>290.2</ele>
        <time>2015-06-06T04:36:57Z</time>
      </trkpt>
      <trkpt lat="31.6865853" lon="34.9508023">
        <ele>290.2</ele>
        <time>2015-06-06T04:36:59Z</time>
      </trkpt>
      <trkpt lat="31.6866126" lon="34.9508507">
        <ele>290.2</ele>
        <time>2015-06-06T04:37:01Z</time>
      </trkpt>
      <trkpt lat="31.6866393" lon="34.9509031">
        <ele>290.3</ele>
        <time>2015-06-06T04:37:03Z</time>
      </trkpt>
      <trkpt lat="31.6866558" lon="34.9509556">
        <ele>290.3</ele>
        <time>2015-06-06T04:37:05Z</time>
      </trkpt>
      <trkpt lat="31.6866872" lon="34.9510809">
        <ele>290.3</ele>
        <time>2015-06-06T04:37:10Z</time>
      </trkpt>
      <trkpt lat="31.6866858" lon="34.9511898">
        <ele>290.5</ele>
        <time>2015-06-06T04:37:14Z</time>
      </trkpt>
      <trkpt lat="31.6866974" lon="34.9513294">
        <ele>290.6</ele>
        <time>2015-06-06T04:37:19Z</time>
      </trkpt>
      <trkpt lat="31.6867138" lon="34.9515112">
        <ele>291.0</ele>
        <time>2015-06-06T04:37:26Z</time>
      </trkpt>
      <trkpt lat="31.6867424" lon="34.9516193">
        <ele>291.5</ele>
        <time>2015-06-06T04:37:31Z</time>
      </trkpt>
      <trkpt lat="31.6868444" lon="34.9517405">
        <ele>292.2</ele>
        <time>2015-06-06T04:37:38Z</time>
      </trkpt>
      <trkpt lat="31.6868461" lon="34.9518383">
        <ele>293.4</ele>
        <time>2015-06-06T04:37:43Z</time>
      </trkpt>
      <trkpt lat="31.6868471" lon="34.9518549">
        <ele>296.6</ele>
        <time>2015-06-06T04:37:47Z</time>
      </trkpt>
      <trkpt lat="31.6868471" lon="34.9518549">
        <time>2015-06-06T04:37:47Z</time>
      </trkpt>
    </trkseg>
    <trkseg>
      <trkpt lat="31.6868471" lon="34.9518549">
        <time>2015-06-06T04:38:36Z</time>
      </trkpt>
      <trkpt lat="31.6868884" lon="34.9520039">
        <ele>297.4</ele>
        <time>2015-06-06T04:38:38Z</time>
      </trkpt>
      <trkpt lat="31.6869142" lon="34.9521165">
        <ele>297.4</ele>
        <time>2015-06-06T04:38:44Z</time>
      </trkpt>
      <trkpt lat="31.6869252" lon="34.9521908">
        <ele>297.4</ele>
        <time>2015-06-06T04:38:47Z</time>
      </trkpt>
      <trkpt lat="31.6869261" lon="34.9522577">
        <ele>297.4</ele>
        <time>2015-06-06T04:38:49Z</time>
      </trkpt>
      <trkpt lat="31.686988" lon="34.9524008">
        <ele>297.5</ele>
        <time>2015-06-06T04:38:56Z</time>
      </trkpt>
      <trkpt lat="31.6869837" lon="34.9524552">
        <ele>297.6</ele>
        <time>2015-06-06T04:38:58Z</time>
      </trkpt>
      <trkpt lat="31.6869682" lon="34.952529">
        <ele>297.6</ele>
        <time>2015-06-06T04:39:01Z</time>
      </trkpt>
      <trkpt lat="31.6868889" lon="34.9525873">
        <ele>297.6</ele>
        <time>2015-06-06T04:39:05Z</time>
      </trkpt>
      <trkpt lat="31.6868397" lon="34.9526412">
        <ele>298.0</ele>
        <time>2015-06-06T04:39:08Z</time>
      </trkpt>
      <trkpt lat="31.6868172" lon="34.9526878">
        <ele>298.0</ele>
        <time>2015-06-06T04:39:10Z</time>
      </trkpt>
      <trkpt lat="31.6868018" lon="34.9527593">
        <ele>298.6</ele>
        <time>2015-06-06T04:39:13Z</time>
      </trkpt>
      <trkpt lat="31.6868115" lon="34.9528297">
        <ele>298.6</ele>
        <time>2015-06-06T04:39:16Z</time>
      </trkpt>
      <trkpt lat="31.6868603" lon="34.9529187">
        <ele>299.2</ele>
        <time>2015-06-06T04:39:21Z</time>
      </trkpt>
      <trkpt lat="31.6869344" lon="34.9529706">
        <ele>300.6</ele>
        <time>2015-06-06T04:39:26Z</time>
      </trkpt>
      <trkpt lat="31.6869536" lon="34.9530261">
        <ele>300.6</ele>
        <time>2015-06-06T04:39:29Z</time>
      </trkpt>
      <trkpt lat="31.6869369" lon="34.9530886">
        <ele>301.2</ele>
        <time>2015-06-06T04:39:32Z</time>
      </trkpt>
      <trkpt lat="31.6869079" lon="34.953138">
        <ele>301.2</ele>
        <time>2015-06-06T04:39:34Z</time>
      </trkpt>
      <trkpt lat="31.6868765" lon="34.9531817">
        <ele>301.7</ele>
        <time>2015-06-06T04:39:36Z</time>
      </trkpt>
      <trkpt lat="31.68683" lon="34.9532186">
        <ele>301.7</ele>
        <time>2015-06-06T04:39:39Z</time>
      </trkpt>
      <trkpt lat="31.686788" lon="34.9532714">
        <ele>302.5</ele>
        <time>2015-06-06T04:39:42Z</time>
      </trkpt>
      <trkpt lat="31.6867698" lon="34.9533199">
        <ele>302.5</ele>
        <time>2015-06-06T04:39:45Z</time>
      </trkpt>
      <trkpt lat="31.6867483" lon="34.9533931">
        <ele>304.8</ele>
        <time>2015-06-06T04:39:49Z</time>
      </trkpt>
      <trkpt lat="31.6867143" lon="34.9534613">
        <ele>304.8</ele>
        <time>2015-06-06T04:39:53Z</time>
      </trkpt>
      <trkpt lat="31.6866693" lon="34.9535005">
        <ele>306.0</ele>
        <time>2015-06-06T04:39:56Z</time>
      </trkpt>
      <trkpt lat="31.686646" lon="34.9535634">
        <ele>306.0</ele>
        <time>2015-06-06T04:40:00Z</time>
      </trkpt>
      <trkpt lat="31.6866449" lon="34.9536276">
        <ele>306.8</ele>
        <time>2015-06-06T04:40:04Z</time>
      </trkpt>
      <trkpt lat="31.6866613" lon="34.9536845">
        <ele>307.1</ele>
        <time>2015-06-06T04:40:07Z</time>
      </trkpt>
      <trkpt lat="31.6866624" lon="34.9537901">
        <ele>307.4</ele>
        <time>2015-06-06T04:40:13Z</time>
      </trkpt>
      <trkpt lat="31.686694" lon="34.9538378">
        <ele>307.7</ele>
        <time>2015-06-06T04:40:16Z</time>
      </trkpt>
      <trkpt lat="31.6867022" lon="34.9538966">
        <ele>308.2</ele>
        <time>2015-06-06T04:40:19Z</time>
      </trkpt>
      <trkpt lat="31.6867028" lon="34.9540166">
        <ele>308.7</ele>
        <time>2015-06-06T04:40:25Z</time>
      </trkpt>
      <trkpt lat="31.6867352" lon="34.9541298">
        <ele>309.5</ele>
        <time>2015-06-06T04:40:32Z</time>
      </trkpt>
      <trkpt lat="31.686697" lon="34.9541664">
        <ele>311.2</ele>
        <time>2015-06-06T04:40:38Z</time>
      </trkpt>
      <trkpt lat="31.68666" lon="34.9542185">
        <ele>311.2</ele>
        <time>2015-06-06T04:40:41Z</time>
      </trkpt>
      <trkpt lat="31.6865427" lon="34.9543177">
        <ele>311.8</ele>
        <time>2015-06-06T04:40:49Z</time>
      </trkpt>
      <trkpt lat="31.6865018" lon="34.9543646">
        <ele>312.0</ele>
        <time>2015-06-06T04:40:52Z</time>
      </trkpt>
      <trkpt lat="31.6864802" lon="34.954431">
        <ele>312.0</ele>
        <time>2015-06-06T04:40:55Z</time>
      </trkpt>
      <trkpt lat="31.6864575" lon="34.9544941">
        <ele>312.1</ele>
        <time>2015-06-06T04:40:59Z</time>
      </trkpt>
      <trkpt lat="31.6863023" lon="34.9545499">
        <ele>312.3</ele>
        <time>2015-06-06T04:41:06Z</time>
      </trkpt>
      <trkpt lat="31.686212" lon="34.9545276">
        <ele>312.3</ele>
        <time>2015-06-06T04:41:09Z</time>
      </trkpt>
      <trkpt lat="31.6861268" lon="34.9545907">
        <ele>312.3</ele>
        <time>2015-06-06T04:41:14Z</time>
      </trkpt>
      <trkpt lat="31.686069" lon="34.9545906">
        <ele>312.3</ele>
        <time>2015-06-06T04:41:18Z</time>
      </trkpt>
      <trkpt lat="31.6860161" lon="34.9545742">
        <ele>312.2</ele>
        <time>2015-06-06T04:41:20Z</time>
      </trkpt>
      <trkpt lat="31.6859702" lon="34.9545958">
        <ele>312.2</ele>
        <time>2015-06-06T04:41:23Z</time>
      </trkpt>
      <trkpt lat="31.6859357" lon="34.9547226">
        <ele>312.1</ele>
        <time>2015-06-06T04:41:29Z</time>
      </trkpt>
      <trkpt lat="31.6859474" lon="34.9548309">
        <ele>312.1</ele>
        <time>2015-06-06T04:41:34Z</time>
      </trkpt>
      <trkpt lat="31.6859556" lon="34.9549562">
        <ele>311.2</ele>
        <time>2015-06-06T04:41:42Z</time>
      </trkpt>
      <trkpt lat="31.6859904" lon="34.9550598">
        <ele>309.9</ele>
        <time>2015-06-06T04:41:46Z</time>
      </trkpt>
      <trkpt lat="31.6860234" lon="34.9551063">
        <ele>308.1</ele>
        <time>2015-06-06T04:41:48Z</time>
      </trkpt>
      <trkpt lat="31.6860658" lon="34.9551385">
        <ele>308.1</ele>
        <time>2015-06-06T04:41:50Z</time>
      </trkpt>
      <trkpt lat="31.6861118" lon="34.9551878">
        <ele>307.4</ele>
        <time>2015-06-06T04:41:54Z</time>
      </trkpt>
      <trkpt lat="31.6861318" lon="34.9552363">
        <ele>307.1</ele>
        <time>2015-06-06T04:41:56Z</time>
      </trkpt>
      <trkpt lat="31.6861317" lon="34.9552991">
        <ele>307.1</ele>
        <time>2015-06-06T04:41:59Z</time>
      </trkpt>
      <trkpt lat="31.6860748" lon="34.9554694">
        <ele>306.8</ele>
        <time>2015-06-06T04:42:03Z</time>
      </trkpt>
      <trkpt lat="31.6860617" lon="34.9555018">
        <ele>306.2</ele>
        <time>2015-06-06T04:42:05Z</time>
      </trkpt>
      <trkpt lat="31.6860617" lon="34.9555018">
        <ele>303.6</ele>
        <time>2015-06-06T04:42:09Z</time>
      </trkpt>
      <trkpt lat="31.6860617" lon="34.9555018">
        <time>2015-06-06T04:42:09Z</time>
      </trkpt>
    </trkseg>
    <trkseg>
      <trkpt lat="31.6860617" lon="34.9555018">
        <time>2015-06-06T04:43:13Z</time>
      </trkpt>
      <trkpt lat="31.6859449" lon="34.955636">
        <ele>304.1</ele>
        <time>2015-06-06T04:43:14Z</time>
      </trkpt>
      <trkpt lat="31.6858514" lon="34.9556309">
        <ele>304.1</ele>
        <time>2015-06-06T04:43:16Z</time>
      </trkpt>
      <trkpt lat="31.6857624" lon="34.955538">
        <ele>304.1</ele>
        <time>2015-06-06T04:43:19Z</time>
      </trkpt>
      <trkpt lat="31.6857088" lon="34.955489">
        <ele>304.1</ele>
        <time>2015-06-06T04:43:21Z</time>
      </trkpt>
      <trkpt lat="31.685659" lon="34.9554552">
        <ele>304.1</ele>
        <time>2015-06-06T04:43:23Z</time>
      </trkpt>
      <trkpt lat="31.6856001" lon="34.9554459">
        <ele>304.1</ele>
        <time>2015-06-06T04:43:26Z</time>
      </trkpt>
      <trkpt lat="31.6855549" lon="34.955451">
        <ele>304.1</ele>
        <time>2015-06-06T04:43:28Z</time>
      </trkpt>
      <trkpt lat="31.6854867" lon="34.9554646">
        <ele>304.1</ele>
        <time>2015-06-06T04:43:31Z</time>
      </trkpt>
      <trkpt lat="31.685442" lon="34.9554803">
        <ele>304.1</ele>
        <time>2015-06-06T04:43:33Z</time>
      </trkpt>
      <trkpt lat="31.6853821" lon="34.9555141">
        <ele>304.1</ele>
        <time>2015-06-06T04:43:36Z</time>
      </trkpt>
      <trkpt lat="31.6853449" lon="34.9555484">
        <ele>304.1</ele>
        <time>2015-06-06T04:43:38Z</time>
      </trkpt>
      <trkpt lat="31.6852562" lon="34.9556517">
        <ele>304.2</ele>
        <time>2015-06-06T04:43:43Z</time>
      </trkpt>
      <trkpt lat="31.6851866" lon="34.9557322">
        <ele>304.3</ele>
        <time>2015-06-06T04:43:47Z</time>
      </trkpt>
      <trkpt lat="31.6851392" lon="34.9558327">
        <ele>304.3</ele>
        <time>2015-06-06T04:43:53Z</time>
      </trkpt>
      <trkpt lat="31.6851035" lon="34.9559026">
        <ele>304.4</ele>
        <time>2015-06-06T04:43:56Z</time>
      </trkpt>
      <trkpt lat="31.6850711" lon="34.955987">
        <ele>304.4</ele>
        <time>2015-06-06T04:43:59Z</time>
      </trkpt>
      <trkpt lat="31.685044" lon="34.9560902">
        <ele>304.5</ele>
        <time>2015-06-06T04:44:03Z</time>
      </trkpt>
      <trkpt lat="31.685042" lon="34.9561493">
        <ele>304.8</ele>
        <time>2015-06-06T04:44:06Z</time>
      </trkpt>
      <trkpt lat="31.6850273" lon="34.9562642">
        <ele>305.1</ele>
        <time>2015-06-06T04:44:11Z</time>
      </trkpt>
      <trkpt lat="31.6850063" lon="34.9563849">
        <ele>306.1</ele>
        <time>2015-06-06T04:44:17Z</time>
      </trkpt>
      <trkpt lat="31.6849766" lon="34.9564987">
        <ele>306.6</ele>
        <time>2015-06-06T04:44:22Z</time>
      </trkpt>
      <trkpt lat="31.684935" lon="34.9566185">
        <ele>307.1</ele>
        <time>2015-06-06T04:44:27Z</time>
      </trkpt>
      <trkpt lat="31.684879" lon="34.9567297">
        <ele>307.4</ele>
        <time>2015-06-06T04:44:32Z</time>
      </trkpt>
      <trkpt lat="31.6848475" lon="34.9568898">
        <ele>308.5</ele>
        <time>2015-06-06T04:44:38Z</time>
      </trkpt>
      <trkpt lat="31.6848327" lon="34.9569438">
        <ele>309.4</ele>
        <time>2015-06-06T04:44:40Z</time>
      </trkpt>
      <trkpt lat="31.684803" lon="34.9570032">
        <ele>309.4</ele>
        <time>2015-06-06T04:44:43Z</time>
      </trkpt>
      <trkpt lat="31.6847805" lon="34.9570559">
        <ele>310.5</ele>
        <time>2015-06-06T04:44:45Z</time>
      </trkpt>
      <trkpt lat="31.6847693" lon="34.9571116">
        <ele>310.5</ele>
        <time>2015-06-06T04:44:47Z</time>
      </trkpt>
      <trkpt lat="31.6847711" lon="34.9571714">
        <ele>310.5</ele>
        <time>2015-06-06T04:44:49Z</time>
      </trkpt>
      <trkpt lat="31.6847639" lon="34.9572879">
        <ele>311.5</ele>
        <time>2015-06-06T04:44:54Z</time>
      </trkpt>
      <trkpt lat="31.6847632" lon="34.9573827">
        <ele>311.8</ele>
        <time>2015-06-06T04:44:58Z</time>
      </trkpt>
      <trkpt lat="31.6847495" lon="34.957512">
        <ele>312.3</ele>
        <time>2015-06-06T04:45:03Z</time>
      </trkpt>
      <trkpt lat="31.6847267" lon="34.9576957">
        <ele>313.2</ele>
        <time>2015-06-06T04:45:09Z</time>
      </trkpt>
      <trkpt lat="31.6847263" lon="34.9577649">
        <ele>313.7</ele>
        <time>2015-06-06T04:45:12Z</time>
      </trkpt>
      <trkpt lat="31.6847101" lon="34.9578142">
        <ele>313.7</ele>
        <time>2015-06-06T04:45:14Z</time>
      </trkpt>
      <trkpt lat="31.6846869" lon="34.9578745">
        <ele>314.7</ele>
        <time>2015-06-06T04:45:16Z</time>
      </trkpt>
      <trkpt lat="31.6846696" lon="34.9579389">
        <ele>314.7</ele>
        <time>2015-06-06T04:45:18Z</time>
      </trkpt>
      <trkpt lat="31.6846588" lon="34.9580001">
        <ele>314.7</ele>
        <time>2015-06-06T04:45:20Z</time>
      </trkpt>
      <trkpt lat="31.6846346" lon="34.9581129">
        <ele>315.7</ele>
        <time>2015-06-06T04:45:24Z</time>
      </trkpt>
      <trkpt lat="31.6846171" lon="34.9581732">
        <ele>315.9</ele>
        <time>2015-06-06T04:45:26Z</time>
      </trkpt>
      <trkpt lat="31.6846079" lon="34.9582347">
        <ele>315.9</ele>
        <time>2015-06-06T04:45:28Z</time>
      </trkpt>
      <trkpt lat="31.6846023" lon="34.9582984">
        <ele>315.9</ele>
        <time>2015-06-06T04:45:30Z</time>
      </trkpt>
      <trkpt lat="31.6845899" lon="34.9584808">
        <ele>316.1</ele>
        <time>2015-06-06T04:45:36Z</time>
      </trkpt>
      <trkpt lat="31.6846003" lon="34.9585909">
        <ele>316.2</ele>
        <time>2015-06-06T04:45:40Z</time>
      </trkpt>
      <trkpt lat="31.6845979" lon="34.9586526">
        <ele>316.3</ele>
        <time>2015-06-06T04:45:42Z</time>
      </trkpt>
      <trkpt lat="31.6845881" lon="34.9587083">
        <ele>316.3</ele>
        <time>2015-06-06T04:45:44Z</time>
      </trkpt>
      <trkpt lat="31.6845765" lon="34.9588687">
        <ele>316.5</ele>
        <time>2015-06-06T04:45:51Z</time>
      </trkpt>
      <trkpt lat="31.6845784" lon="34.9589809">
        <ele>316.6</ele>
        <time>2015-06-06T04:45:56Z</time>
      </trkpt>
      <trkpt lat="31.6845964" lon="34.9590857">
        <ele>316.6</ele>
        <time>2015-06-06T04:46:01Z</time>
      </trkpt>
      <trkpt lat="31.6846021" lon="34.9592136">
        <ele>316.7</ele>
        <time>2015-06-06T04:46:07Z</time>
      </trkpt>
      <trkpt lat="31.6845989" lon="34.9593892">
        <ele>317.7</ele>
        <time>2015-06-06T04:46:16Z</time>
      </trkpt>
      <trkpt lat="31.6846035" lon="34.959509">
        <ele>318.5</ele>
        <time>2015-06-06T04:46:23Z</time>
      </trkpt>
      <trkpt lat="31.6845769" lon="34.9596131">
        <ele>319.5</ele>
        <time>2015-06-06T04:46:31Z</time>
      </trkpt>
      <trkpt lat="31.6845194" lon="34.959707">
        <ele>320.4</ele>
        <time>2015-06-06T04:46:37Z</time>
      </trkpt>
      <trkpt lat="31.6844472" lon="34.9598011">
        <ele>321.5</ele>
        <time>2015-06-06T04:46:42Z</time>
      </trkpt>
      <trkpt lat="31.6844274" lon="34.9598628">
        <ele>322.5</ele>
        <time>2015-06-06T04:46:45Z</time>
      </trkpt>
      <trkpt lat="31.6844135" lon="34.9599202">
        <ele>322.5</ele>
        <time>2015-06-06T04:46:48Z</time>
      </trkpt>
      <trkpt lat="31.684369" lon="34.9600224">
        <ele>324.4</ele>
        <time>2015-06-06T04:46:54Z</time>
      </trkpt>
      <trkpt lat="31.6843434" lon="34.9600809">
        <ele>325.4</ele>
        <time>2015-06-06T04:46:57Z</time>
      </trkpt>
      <trkpt lat="31.684265" lon="34.9602219">
        <ele>326.4</ele>
        <time>2015-06-06T04:47:04Z</time>
      </trkpt>
      <trkpt lat="31.6842245" lon="34.9603288">
        <ele>327.0</ele>
        <time>2015-06-06T04:47:09Z</time>
      </trkpt>
      <trkpt lat="31.6841978" lon="34.9603743">
        <ele>327.7</ele>
        <time>2015-06-06T04:47:12Z</time>
      </trkpt>
      <trkpt lat="31.6841904" lon="34.9604072">
        <ele>328.3</ele>
        <time>2015-06-06T04:47:15Z</time>
      </trkpt>
      <trkpt lat="31.6841961" lon="34.9604236">
        <ele>331.1</ele>
        <time>2015-06-06T04:47:19Z</time>
      </trkpt>
      <trkpt lat="31.6841961" lon="34.9604236">
        <time>2015-06-06T04:47:19Z</time>
      </trkpt>
    </trkseg>
    <trkseg>
      <trkpt lat="31.6841961" lon="34.9604236">
        <time>2015-06-06T04:47:32Z</time>
      </trkpt>
      <trkpt lat="31.6840962" lon="34.9605255">
        <ele>329.5</ele>
        <time>2015-06-06T04:47:33Z</time>
      </trkpt>
      <trkpt lat="31.6840199" lon="34.9606609">
        <ele>330.2</ele>
        <time>2015-06-06T04:47:37Z</time>
      </trkpt>
      <trkpt lat="31.683955" lon="34.9608248">
        <ele>330.7</ele>
        <time>2015-06-06T04:47:41Z</time>
      </trkpt>
      <trkpt lat="31.6839085" lon="34.960919">
        <ele>330.8</ele>
        <time>2015-06-06T04:47:44Z</time>
      </trkpt>
      <trkpt lat="31.6838927" lon="34.9609911">
        <ele>330.8</ele>
        <time>2015-06-06T04:47:47Z</time>
      </trkpt>
      <trkpt lat="31.6838635" lon="34.9611506">
        <ele>331.0</ele>
        <time>2015-06-06T04:47:53Z</time>
      </trkpt>
      <trkpt lat="31.6838506" lon="34.9612171">
        <ele>331.0</ele>
        <time>2015-06-06T04:47:56Z</time>
      </trkpt>
      <trkpt lat="31.6838511" lon="34.9612819">
        <ele>331.0</ele>
        <time>2015-06-06T04:47:59Z</time>
      </trkpt>
      <trkpt lat="31.6838707" lon="34.9614039">
        <ele>331.1</ele>
        <time>2015-06-06T04:48:05Z</time>
      </trkpt>
      <trkpt lat="31.6838669" lon="34.961464">
        <ele>331.1</ele>
        <time>2015-06-06T04:48:08Z</time>
      </trkpt>
      <trkpt lat="31.6838358" lon="34.9616377">
        <ele>331.2</ele>
        <time>2015-06-06T04:48:16Z</time>
      </trkpt>
      <trkpt lat="31.6838366" lon="34.961706">
        <ele>332.1</ele>
        <time>2015-06-06T04:48:19Z</time>
      </trkpt>
      <trkpt lat="31.6838283" lon="34.9618116">
        <ele>333.1</ele>
        <time>2015-06-06T04:48:24Z</time>
      </trkpt>
      <trkpt lat="31.68383" lon="34.9618745">
        <ele>334.0</ele>
        <time>2015-06-06T04:48:27Z</time>
      </trkpt>
      <trkpt lat="31.6838116" lon="34.9619826">
        <ele>334.5</ele>
        <time>2015-06-06T04:48:32Z</time>
      </trkpt>
      <trkpt lat="31.683755" lon="34.9621396">
        <ele>335.5</ele>
        <time>2015-06-06T04:48:39Z</time>
      </trkpt>
      <trkpt lat="31.6837502" lon="34.9622038">
        <ele>336.7</ele>
        <time>2015-06-06T04:48:42Z</time>
      </trkpt>
      <trkpt lat="31.6837716" lon="34.9622591">
        <ele>336.7</ele>
        <time>2015-06-06T04:48:45Z</time>
      </trkpt>
      <trkpt lat="31.6837854" lon="34.9623218">
        <ele>337.6</ele>
        <time>2015-06-06T04:48:48Z</time>
      </trkpt>
      <trkpt lat="31.6837919" lon="34.9624317">
        <ele>338.2</ele>
        <time>2015-06-06T04:48:54Z</time>
      </trkpt>
      <trkpt lat="31.6837951" lon="34.9625462">
        <ele>338.7</ele>
        <time>2015-06-06T04:48:59Z</time>
      </trkpt>
      <trkpt lat="31.6838052" lon="34.9626038">
        <ele>339.7</ele>
        <time>2015-06-06T04:49:03Z</time>
      </trkpt>
      <trkpt lat="31.6838987" lon="34.9627259">
        <ele>341.2</ele>
        <time>2015-06-06T04:49:14Z</time>
      </trkpt>
      <trkpt lat="31.6839314" lon="34.9627685">
        <ele>342.0</ele>
        <time>2015-06-06T04:49:18Z</time>
      </trkpt>
      <trkpt lat="31.6839772" lon="34.9627837">
        <ele>342.4</ele>
        <time>2015-06-06T04:49:23Z</time>
      </trkpt>
      <trkpt lat="31.684014" lon="34.9627944">
        <ele>343.4</ele>
        <time>2015-06-06T04:49:27Z</time>
      </trkpt>
      <trkpt lat="31.6840109" lon="34.9628031">
        <ele>347.4</ele>
        <time>2015-06-06T04:49:31Z</time>
      </trkpt>
      <trkpt lat="31.6840109" lon="34.9628031">
        <time>2015-06-06T04:49:31Z</time>
      </trkpt>
    </trkseg>
    <trkseg>
      <trkpt lat="31.6840109" lon="34.9628031">
        <time>2015-06-06T04:50:04Z</time>
      </trkpt>
      <trkpt lat="31.6840795" lon="34.9629519">
        <ele>347.2</ele>
        <time>2015-06-06T04:50:07Z</time>
      </trkpt>
      <trkpt lat="31.6840749" lon="34.9630189">
        <ele>347.3</ele>
        <time>2015-06-06T04:50:11Z</time>
      </trkpt>
      <trkpt lat="31.6840598" lon="34.9631298">
        <ele>347.5</ele>
        <time>2015-06-06T04:50:17Z</time>
      </trkpt>
      <trkpt lat="31.6840185" lon="34.9631698">
        <ele>348.0</ele>
        <time>2015-06-06T04:50:20Z</time>
      </trkpt>
      <trkpt lat="31.6838944" lon="34.9632395">
        <ele>348.4</ele>
        <time>2015-06-06T04:50:28Z</time>
      </trkpt>
      <trkpt lat="31.6837904" lon="34.9632318">
        <ele>348.5</ele>
        <time>2015-06-06T04:50:31Z</time>
      </trkpt>
      <trkpt lat="31.6836198" lon="34.9631767">
        <ele>348.9</ele>
        <time>2015-06-06T04:50:35Z</time>
      </trkpt>
      <trkpt lat="31.6835118" lon="34.9631552">
        <ele>349.0</ele>
        <time>2015-06-06T04:50:37Z</time>
      </trkpt>
      <trkpt lat="31.6833789" lon="34.963155">
        <ele>349.9</ele>
        <time>2015-06-06T04:50:39Z</time>
      </trkpt>
      <trkpt lat="31.6833246" lon="34.9631796">
        <ele>349.9</ele>
        <time>2015-06-06T04:50:40Z</time>
      </trkpt>
      <trkpt lat="31.6832712" lon="34.9632101">
        <ele>349.9</ele>
        <time>2015-06-06T04:50:41Z</time>
      </trkpt>
      <trkpt lat="31.683231" lon="34.9632342">
        <ele>349.9</ele>
        <time>2015-06-06T04:50:42Z</time>
      </trkpt>
      <trkpt lat="31.6831837" lon="34.9632579">
        <ele>349.9</ele>
        <time>2015-06-06T04:50:43Z</time>
      </trkpt>
      <trkpt lat="31.6831134" lon="34.9633055">
        <ele>350.8</ele>
        <time>2015-06-06T04:50:45Z</time>
      </trkpt>
      <trkpt lat="31.6830479" lon="34.9633555">
        <ele>350.8</ele>
        <time>2015-06-06T04:50:48Z</time>
      </trkpt>
      <trkpt lat="31.6829724" lon="34.9634341">
        <ele>351.5</ele>
        <time>2015-06-06T04:50:52Z</time>
      </trkpt>
      <trkpt lat="31.6828599" lon="34.9635224">
        <ele>351.9</ele>
        <time>2015-06-06T04:50:57Z</time>
      </trkpt>
      <trkpt lat="31.6828204" lon="34.9635625">
        <ele>352.1</ele>
        <time>2015-06-06T04:50:59Z</time>
      </trkpt>
      <trkpt lat="31.6827894" lon="34.9636046">
        <ele>352.1</ele>
        <time>2015-06-06T04:51:01Z</time>
      </trkpt>
      <trkpt lat="31.6827565" lon="34.963651">
        <ele>352.1</ele>
        <time>2015-06-06T04:51:03Z</time>
      </trkpt>
      <trkpt lat="31.682728" lon="34.9636986">
        <ele>352.1</ele>
        <time>2015-06-06T04:51:05Z</time>
      </trkpt>
      <trkpt lat="31.6827021" lon="34.9637515">
        <ele>352.1</ele>
        <time>2015-06-06T04:51:07Z</time>
      </trkpt>
      <trkpt lat="31.6826783" lon="34.9638022">
        <ele>352.1</ele>
        <time>2015-06-06T04:51:09Z</time>
      </trkpt>
      <trkpt lat="31.6826531" lon="34.963857">
        <ele>352.1</ele>
        <time>2015-06-06T04:51:11Z</time>
      </trkpt>
      <trkpt lat="31.6826338" lon="34.963914">
        <ele>352.1</ele>
        <time>2015-06-06T04:51:13Z</time>
      </trkpt>
      <trkpt lat="31.6826181" lon="34.9639784">
        <ele>352.1</ele>
        <time>2015-06-06T04:51:15Z</time>
      </trkpt>
      <trkpt lat="31.6825979" lon="34.9640427">
        <ele>352.3</ele>
        <time>2015-06-06T04:51:17Z</time>
      </trkpt>
      <trkpt lat="31.6825649" lon="34.9640969">
        <ele>352.3</ele>
        <time>2015-06-06T04:51:19Z</time>
      </trkpt>
      <trkpt lat="31.6825132" lon="34.9641971">
        <ele>352.6</ele>
        <time>2015-06-06T04:51:23Z</time>
      </trkpt>
      <trkpt lat="31.6824802" lon="34.9642609">
        <ele>352.9</ele>
        <time>2015-06-06T04:51:26Z</time>
      </trkpt>
      <trkpt lat="31.6824029" lon="34.9644015">
        <ele>353.3</ele>
        <time>2015-06-06T04:51:33Z</time>
      </trkpt>
      <trkpt lat="31.6823623" lon="34.964445">
        <ele>353.8</ele>
        <time>2015-06-06T04:51:36Z</time>
      </trkpt>
      <trkpt lat="31.6823355" lon="34.9644976">
        <ele>353.8</ele>
        <time>2015-06-06T04:51:39Z</time>
      </trkpt>
      <trkpt lat="31.6823326" lon="34.9645508">
        <ele>353.8</ele>
        <time>2015-06-06T04:51:42Z</time>
      </trkpt>
      <trkpt lat="31.6823475" lon="34.9646065">
        <ele>353.8</ele>
        <time>2015-06-06T04:51:45Z</time>
      </trkpt>
      <trkpt lat="31.6823604" lon="34.9646708">
        <ele>354.3</ele>
        <time>2015-06-06T04:51:48Z</time>
      </trkpt>
      <trkpt lat="31.6823318" lon="34.964773">
        <ele>355.3</ele>
        <time>2015-06-06T04:51:55Z</time>
      </trkpt>
      <trkpt lat="31.6822867" lon="34.9648693">
        <ele>358.5</ele>
        <time>2015-06-06T04:52:01Z</time>
      </trkpt>
      <trkpt lat="31.6822515" lon="34.9649441">
        <ele>360.5</ele>
        <time>2015-06-06T04:52:06Z</time>
      </trkpt>
      <trkpt lat="31.6822097" lon="34.9649892">
        <ele>360.5</ele>
        <time>2015-06-06T04:52:09Z</time>
      </trkpt>
      <trkpt lat="31.6821476" lon="34.9650812">
        <ele>362.1</ele>
        <time>2015-06-06T04:52:15Z</time>
      </trkpt>
      <trkpt lat="31.6820864" lon="34.9651722">
        <ele>363.8</ele>
        <time>2015-06-06T04:52:21Z</time>
      </trkpt>
      <trkpt lat="31.6820542" lon="34.9652193">
        <ele>364.5</ele>
        <time>2015-06-06T04:52:24Z</time>
      </trkpt>
      <trkpt lat="31.6819397" lon="34.9653294">
        <ele>365.8</ele>
        <time>2015-06-06T04:52:33Z</time>
      </trkpt>
      <trkpt lat="31.681893" lon="34.9653674">
        <ele>366.6</ele>
        <time>2015-06-06T04:52:36Z</time>
      </trkpt>
      <trkpt lat="31.6818068" lon="34.9654044">
        <ele>366.8</ele>
        <time>2015-06-06T04:52:40Z</time>
      </trkpt>
      <trkpt lat="31.6817125" lon="34.9654408">
        <ele>367.5</ele>
        <time>2015-06-06T04:52:43Z</time>
      </trkpt>
      <trkpt lat="31.6816683" lon="34.9654663">
        <ele>367.5</ele>
        <time>2015-06-06T04:52:45Z</time>
      </trkpt>
      <trkpt lat="31.6815499" lon="34.965584">
        <ele>368.6</ele>
        <time>2015-06-06T04:52:53Z</time>
      </trkpt>
      <trkpt lat="31.6815123" lon="34.9656194">
        <ele>368.9</ele>
        <time>2015-06-06T04:52:55Z</time>
      </trkpt>
      <trkpt lat="31.6814682" lon="34.9656495">
        <ele>368.9</ele>
        <time>2015-06-06T04:52:57Z</time>
      </trkpt>
      <trkpt lat="31.6814226" lon="34.9656822">
        <ele>369.0</ele>
        <time>2015-06-06T04:52:59Z</time>
      </trkpt>
      <trkpt lat="31.681351" lon="34.9657465">
        <ele>369.0</ele>
        <time>2015-06-06T04:53:03Z</time>
      </trkpt>
      <trkpt lat="31.681304" lon="34.965795">
        <ele>369.2</ele>
        <time>2015-06-06T04:53:06Z</time>
      </trkpt>
      <trkpt lat="31.6812709" lon="34.9658534">
        <ele>369.2</ele>
        <time>2015-06-06T04:53:09Z</time>
      </trkpt>
      <trkpt lat="31.6812661" lon="34.9659195">
        <ele>369.4</ele>
        <time>2015-06-06T04:53:13Z</time>
      </trkpt>
      <trkpt lat="31.6812632" lon="34.9659756">
        <ele>369.6</ele>
        <time>2015-06-06T04:53:17Z</time>
      </trkpt>
      <trkpt lat="31.6812541" lon="34.9659986">
        <ele>369.7</ele>
        <time>2015-06-06T04:53:19Z</time>
      </trkpt>
      <trkpt lat="31.6812511" lon="34.9660049">
        <ele>371.7</ele>
        <time>2015-06-06T04:53:23Z</time>
      </trkpt>
      <trkpt lat="31.6812511" lon="34.9660049">
        <time>2015-06-06T04:53:23Z</time>
      </trkpt>
    </trkseg>
    <trkseg>
      <trkpt lat="31.6812511" lon="34.9660049">
        <time>2015-06-06T04:54:11Z</time>
      </trkpt>
      <trkpt lat="31.6811456" lon="34.9660826">
        <ele>371.8</ele>
        <time>2015-06-06T04:54:12Z</time>
      </trkpt>
      <trkpt lat="31.6810902" lon="34.9661716">
        <ele>372.0</ele>
        <time>2015-06-06T04:54:16Z</time>
      </trkpt>
      <trkpt lat="31.6810605" lon="34.9662824">
        <ele>372.4</ele>
        <time>2015-06-06T04:54:20Z</time>
      </trkpt>
      <trkpt lat="31.6810437" lon="34.9663451">
        <ele>372.5</ele>
        <time>2015-06-06T04:54:22Z</time>
      </trkpt>
      <trkpt lat="31.6809953" lon="34.9663979">
        <ele>372.5</ele>
        <time>2015-06-06T04:54:24Z</time>
      </trkpt>
      <trkpt lat="31.6808559" lon="34.9664387">
        <ele>372.6</ele>
        <time>2015-06-06T04:54:28Z</time>
      </trkpt>
      <trkpt lat="31.6807545" lon="34.9664574">
        <ele>372.6</ele>
        <time>2015-06-06T04:54:31Z</time>
      </trkpt>
      <trkpt lat="31.6806639" lon="34.9664566">
        <ele>372.6</ele>
        <time>2015-06-06T04:54:34Z</time>
      </trkpt>
      <trkpt lat="31.6806149" lon="34.9664549">
        <ele>372.7</ele>
        <time>2015-06-06T04:54:36Z</time>
      </trkpt>
      <trkpt lat="31.6805667" lon="34.9664573">
        <ele>372.7</ele>
        <time>2015-06-06T04:54:38Z</time>
      </trkpt>
      <trkpt lat="31.6805115" lon="34.9664649">
        <ele>372.7</ele>
        <time>2015-06-06T04:54:40Z</time>
      </trkpt>
      <trkpt lat="31.6803781" lon="34.9664918">
        <ele>372.7</ele>
        <time>2015-06-06T04:54:44Z</time>
      </trkpt>
      <trkpt lat="31.6802317" lon="34.9665163">
        <ele>372.7</ele>
        <time>2015-06-06T04:54:49Z</time>
      </trkpt>
      <trkpt lat="31.680095" lon="34.9665467">
        <ele>372.9</ele>
        <time>2015-06-06T04:54:54Z</time>
      </trkpt>
      <trkpt lat="31.6799978" lon="34.9665669">
        <ele>372.9</ele>
        <time>2015-06-06T04:54:58Z</time>
      </trkpt>
      <trkpt lat="31.6798503" lon="34.9665842">
        <ele>372.9</ele>
        <time>2015-06-06T04:55:04Z</time>
      </trkpt>
      <trkpt lat="31.6797615" lon="34.9666082">
        <ele>372.9</ele>
        <time>2015-06-06T04:55:08Z</time>
      </trkpt>
      <trkpt lat="31.6796956" lon="34.9666263">
        <ele>372.9</ele>
        <time>2015-06-06T04:55:11Z</time>
      </trkpt>
      <trkpt lat="31.6796298" lon="34.9666515">
        <ele>372.9</ele>
        <time>2015-06-06T04:55:14Z</time>
      </trkpt>
      <trkpt lat="31.6795827" lon="34.9666836">
        <ele>372.9</ele>
        <time>2015-06-06T04:55:17Z</time>
      </trkpt>
      <trkpt lat="31.6795406" lon="34.966716">
        <ele>372.9</ele>
        <time>2015-06-06T04:55:20Z</time>
      </trkpt>
      <trkpt lat="31.679442" lon="34.9667533">
        <ele>373.8</ele>
        <time>2015-06-06T04:55:26Z</time>
      </trkpt>
      <trkpt lat="31.6794019" lon="34.9667812">
        <ele>374.4</ele>
        <time>2015-06-06T04:55:29Z</time>
      </trkpt>
      <trkpt lat="31.6792814" lon="34.9668394">
        <ele>375.3</ele>
        <time>2015-06-06T04:55:37Z</time>
      </trkpt>
      <trkpt lat="31.6792031" lon="34.9669048">
        <ele>377.2</ele>
        <time>2015-06-06T04:55:44Z</time>
      </trkpt>
      <trkpt lat="31.6791554" lon="34.9669382">
        <ele>378.0</ele>
        <time>2015-06-06T04:55:48Z</time>
      </trkpt>
      <trkpt lat="31.6790689" lon="34.967004">
        <ele>379.4</ele>
        <time>2015-06-06T04:55:55Z</time>
      </trkpt>
      <trkpt lat="31.6790295" lon="34.9670404">
        <ele>380.3</ele>
        <time>2015-06-06T04:55:59Z</time>
      </trkpt>
      <trkpt lat="31.6789935" lon="34.9670868">
        <ele>380.9</ele>
        <time>2015-06-06T04:56:02Z</time>
      </trkpt>
      <trkpt lat="31.6789209" lon="34.9671736">
        <ele>381.5</ele>
        <time>2015-06-06T04:56:07Z</time>
      </trkpt>
      <trkpt lat="31.6788412" lon="34.9673206">
        <ele>382.3</ele>
        <time>2015-06-06T04:56:14Z</time>
      </trkpt>
      <trkpt lat="31.678807" lon="34.9674496">
        <ele>383.0</ele>
        <time>2015-06-06T04:56:19Z</time>
      </trkpt>
      <trkpt lat="31.6787831" lon="34.9674954">
        <ele>383.6</ele>
        <time>2015-06-06T04:56:21Z</time>
      </trkpt>
      <trkpt lat="31.6787621" lon="34.9675424">
        <ele>383.6</ele>
        <time>2015-06-06T04:56:23Z</time>
      </trkpt>
      <trkpt lat="31.6787374" lon="34.9676853">
        <ele>383.9</ele>
        <time>2015-06-06T04:56:28Z</time>
      </trkpt>
      <trkpt lat="31.6787281" lon="34.9677513">
        <ele>384.4</ele>
        <time>2015-06-06T04:56:30Z</time>
      </trkpt>
      <trkpt lat="31.6787233" lon="34.9678449">
        <ele>384.4</ele>
        <time>2015-06-06T04:56:34Z</time>
      </trkpt>
      <trkpt lat="31.6787325" lon="34.968013">
        <ele>384.6</ele>
        <time>2015-06-06T04:56:40Z</time>
      </trkpt>
      <trkpt lat="31.6787483" lon="34.9681999">
        <ele>384.8</ele>
        <time>2015-06-06T04:56:45Z</time>
      </trkpt>
      <trkpt lat="31.6787438" lon="34.9683963">
        <ele>384.9</ele>
        <time>2015-06-06T04:56:49Z</time>
      </trkpt>
      <trkpt lat="31.6788126" lon="34.9685647">
        <ele>385.0</ele>
        <time>2015-06-06T04:56:53Z</time>
      </trkpt>
      <trkpt lat="31.6788689" lon="34.9687149">
        <ele>385.0</ele>
        <time>2015-06-06T04:56:57Z</time>
      </trkpt>
      <trkpt lat="31.678895" lon="34.9688301">
        <ele>385.0</ele>
        <time>2015-06-06T04:57:00Z</time>
      </trkpt>
      <trkpt lat="31.6789005" lon="34.9688899">
        <ele>385.0</ele>
        <time>2015-06-06T04:57:02Z</time>
      </trkpt>
      <trkpt lat="31.6789069" lon="34.9689493">
        <ele>385.0</ele>
        <time>2015-06-06T04:57:04Z</time>
      </trkpt>
      <trkpt lat="31.6789223" lon="34.9690078">
        <ele>385.0</ele>
        <time>2015-06-06T04:57:06Z</time>
      </trkpt>
      <trkpt lat="31.6789401" lon="34.9690684">
        <ele>385.0</ele>
        <time>2015-06-06T04:57:08Z</time>
      </trkpt>
      <trkpt lat="31.6789587" lon="34.969133">
        <ele>385.0</ele>
        <time>2015-06-06T04:57:10Z</time>
      </trkpt>
      <trkpt lat="31.6789665" lon="34.9691985">
        <ele>385.0</ele>
        <time>2015-06-06T04:57:12Z</time>
      </trkpt>
      <trkpt lat="31.6789629" lon="34.9692652">
        <ele>385.1</ele>
        <time>2015-06-06T04:57:14Z</time>
      </trkpt>
      <trkpt lat="31.6789479" lon="34.969332">
        <ele>385.1</ele>
        <time>2015-06-06T04:57:16Z</time>
      </trkpt>
      <trkpt lat="31.6788862" lon="34.9694902">
        <ele>385.0</ele>
        <time>2015-06-06T04:57:20Z</time>
      </trkpt>
      <trkpt lat="31.6788306" lon="34.9696053">
        <ele>384.7</ele>
        <time>2015-06-06T04:57:24Z</time>
      </trkpt>
      <trkpt lat="31.6787629" lon="34.9697566">
        <ele>384.6</ele>
        <time>2015-06-06T04:57:29Z</time>
      </trkpt>
      <trkpt lat="31.6786825" lon="34.9698984">
        <ele>384.6</ele>
        <time>2015-06-06T04:57:34Z</time>
      </trkpt>
      <trkpt lat="31.67862" lon="34.9700429">
        <ele>384.6</ele>
        <time>2015-06-06T04:57:39Z</time>
      </trkpt>
      <trkpt lat="31.6785882" lon="34.970097">
        <ele>384.6</ele>
        <time>2015-06-06T04:57:41Z</time>
      </trkpt>
      <trkpt lat="31.67855" lon="34.9701541">
        <ele>384.6</ele>
        <time>2015-06-06T04:57:43Z</time>
      </trkpt>
      <trkpt lat="31.6785072" lon="34.9702053">
        <ele>384.6</ele>
        <time>2015-06-06T04:57:45Z</time>
      </trkpt>
      <trkpt lat="31.6784527" lon="34.9702521">
        <ele>384.6</ele>
        <time>2015-06-06T04:57:47Z</time>
      </trkpt>
      <trkpt lat="31.6783233" lon="34.9703528">
        <ele>384.7</ele>
        <time>2015-06-06T04:57:52Z</time>
      </trkpt>
      <trkpt lat="31.6782727" lon="34.9703848">
        <ele>384.8</ele>
        <time>2015-06-06T04:57:54Z</time>
      </trkpt>
      <trkpt lat="31.678216" lon="34.9704121">
        <ele>384.8</ele>
        <time>2015-06-06T04:57:57Z</time>
      </trkpt>
      <trkpt lat="31.678126" lon="34.9704528">
        <ele>385.3</ele>
        <time>2015-06-06T04:58:02Z</time>
      </trkpt>
      <trkpt lat="31.6780033" lon="34.9705434">
        <ele>386.1</ele>
        <time>2015-06-06T04:58:10Z</time>
      </trkpt>
      <trkpt lat="31.6779676" lon="34.9705858">
        <ele>386.7</ele>
        <time>2015-06-06T04:58:13Z</time>
      </trkpt>
      <trkpt lat="31.6779249" lon="34.9706576">
        <ele>387.0</ele>
        <time>2015-06-06T04:58:18Z</time>
      </trkpt>
      <trkpt lat="31.6778865" lon="34.9706933">
        <ele>387.0</ele>
        <time>2015-06-06T04:58:21Z</time>
      </trkpt>
      <trkpt lat="31.6778436" lon="34.9707204">
        <ele>387.1</ele>
        <time>2015-06-06T04:58:24Z</time>
      </trkpt>
      <trkpt lat="31.6777616" lon="34.9707691">
        <ele>387.5</ele>
        <time>2015-06-06T04:58:29Z</time>
      </trkpt>
      <trkpt lat="31.6776677" lon="34.9708091">
        <ele>388.2</ele>
        <time>2015-06-06T04:58:35Z</time>
      </trkpt>
      <trkpt lat="31.6775297" lon="34.9707716">
        <ele>389.4</ele>
        <time>2015-06-06T04:58:43Z</time>
      </trkpt>
      <trkpt lat="31.6774777" lon="34.9707777">
        <ele>390.5</ele>
        <time>2015-06-06T04:58:46Z</time>
      </trkpt>
      <trkpt lat="31.6774338" lon="34.9707916">
        <ele>390.5</ele>
        <time>2015-06-06T04:58:49Z</time>
      </trkpt>
      <trkpt lat="31.6773031" lon="34.9708655">
        <ele>392.3</ele>
        <time>2015-06-06T04:58:58Z</time>
      </trkpt>
      <trkpt lat="31.6772533" lon="34.9708903">
        <ele>394.1</ele>
        <time>2015-06-06T04:59:02Z</time>
      </trkpt>
      <trkpt lat="31.6772166" lon="34.9709226">
        <ele>394.1</ele>
        <time>2015-06-06T04:59:05Z</time>
      </trkpt>
      <trkpt lat="31.6771004" lon="34.9710076">
        <ele>394.9</ele>
        <time>2015-06-06T04:59:14Z</time>
      </trkpt>
      <trkpt lat="31.6770119" lon="34.9710551">
        <ele>395.9</ele>
        <time>2015-06-06T04:59:20Z</time>
      </trkpt>
      <trkpt lat="31.6769689" lon="34.9710747">
        <ele>396.8</ele>
        <time>2015-06-06T04:59:23Z</time>
      </trkpt>
      <trkpt lat="31.676915" lon="34.9711092">
        <ele>396.8</ele>
        <time>2015-06-06T04:59:26Z</time>
      </trkpt>
      <trkpt lat="31.6768269" lon="34.971147">
        <ele>397.5</ele>
        <time>2015-06-06T04:59:31Z</time>
      </trkpt>
      <trkpt lat="31.6767707" lon="34.9711706">
        <ele>398.5</ele>
        <time>2015-06-06T04:59:34Z</time>
      </trkpt>
      <trkpt lat="31.6767257" lon="34.9712094">
        <ele>398.5</ele>
        <time>2015-06-06T04:59:37Z</time>
      </trkpt>
      <trkpt lat="31.676682" lon="34.9712502">
        <ele>399.4</ele>
        <time>2015-06-06T04:59:40Z</time>
      </trkpt>
      <trkpt lat="31.6766316" lon="34.971292">
        <ele>400.0</ele>
        <time>2015-06-06T04:59:43Z</time>
      </trkpt>
      <trkpt lat="31.6765906" lon="34.9713336">
        <ele>400.0</ele>
        <time>2015-06-06T04:59:46Z</time>
      </trkpt>
      <trkpt lat="31.6764788" lon="34.9714252">
        <ele>401.0</ele>
        <time>2015-06-06T04:59:54Z</time>
      </trkpt>
      <trkpt lat="31.6764303" lon="34.9714603">
        <ele>401.5</ele>
        <time>2015-06-06T04:59:58Z</time>
      </trkpt>
      <trkpt lat="31.6763467" lon="34.971508">
        <ele>401.8</ele>
        <time>2015-06-06T05:00:04Z</time>
      </trkpt>
      <trkpt lat="31.6762618" lon="34.9716348">
        <ele>402.3</ele>
        <time>2015-06-06T05:00:13Z</time>
      </trkpt>
      <trkpt lat="31.6762143" lon="34.9717017">
        <ele>403.1</ele>
        <time>2015-06-06T05:00:18Z</time>
      </trkpt>
      <trkpt lat="31.6761456" lon="34.9717855">
        <ele>404.0</ele>
        <time>2015-06-06T05:00:25Z</time>
      </trkpt>
      <trkpt lat="31.6760973" lon="34.9717961">
        <ele>404.4</ele>
        <time>2015-06-06T05:00:29Z</time>
      </trkpt>
      <trkpt lat="31.6759761" lon="34.9717847">
        <ele>405.2</ele>
        <time>2015-06-06T05:00:37Z</time>
      </trkpt>
      <trkpt lat="31.6759319" lon="34.9718194">
        <ele>405.7</ele>
        <time>2015-06-06T05:00:41Z</time>
      </trkpt>
      <trkpt lat="31.6758537" lon="34.9718913">
        <ele>406.7</ele>
        <time>2015-06-06T05:00:48Z</time>
      </trkpt>
      <trkpt lat="31.6758125" lon="34.9719861">
        <ele>407.1</ele>
        <time>2015-06-06T05:00:54Z</time>
      </trkpt>
      <trkpt lat="31.6757458" lon="34.9720573">
        <ele>407.1</ele>
        <time>2015-06-06T05:00:59Z</time>
      </trkpt>
      <trkpt lat="31.675655" lon="34.9720923">
        <ele>407.4</ele>
        <time>2015-06-06T05:01:05Z</time>
      </trkpt>
      <trkpt lat="31.6756003" lon="34.9720624">
        <ele>408.6</ele>
        <time>2015-06-06T05:01:09Z</time>
      </trkpt>
      <trkpt lat="31.6755493" lon="34.9720172">
        <ele>409.3</ele>
        <time>2015-06-06T05:01:13Z</time>
      </trkpt>
      <trkpt lat="31.6754218" lon="34.9719383">
        <ele>411.0</ele>
        <time>2015-06-06T05:01:23Z</time>
      </trkpt>
      <trkpt lat="31.6753378" lon="34.9718893">
        <ele>412.5</ele>
        <time>2015-06-06T05:01:29Z</time>
      </trkpt>
      <trkpt lat="31.6752625" lon="34.9718146">
        <ele>413.5</ele>
        <time>2015-06-06T05:01:36Z</time>
      </trkpt>
      <trkpt lat="31.6752166" lon="34.9717962">
        <ele>414.0</ele>
        <time>2015-06-06T05:01:40Z</time>
      </trkpt>
      <trkpt lat="31.6750953" lon="34.9717135">
        <ele>415.3</ele>
        <time>2015-06-06T05:01:50Z</time>
      </trkpt>
      <trkpt lat="31.6750121" lon="34.9716377">
        <ele>416.8</ele>
        <time>2015-06-06T05:01:57Z</time>
      </trkpt>
      <trkpt lat="31.6749858" lon="34.9715946">
        <ele>417.8</ele>
        <time>2015-06-06T05:02:00Z</time>
      </trkpt>
      <trkpt lat="31.6749625" lon="34.9715443">
        <ele>419.0</ele>
        <time>2015-06-06T05:02:03Z</time>
      </trkpt>
      <trkpt lat="31.6749206" lon="34.9714982">
        <ele>419.4</ele>
        <time>2015-06-06T05:02:07Z</time>
      </trkpt>
      <trkpt lat="31.6748993" lon="34.9714507">
        <ele>420.4</ele>
        <time>2015-06-06T05:02:10Z</time>
      </trkpt>
      <trkpt lat="31.6748833" lon="34.9714004">
        <ele>421.3</ele>
        <time>2015-06-06T05:02:13Z</time>
      </trkpt>
      <trkpt lat="31.6748588" lon="34.9713473">
        <ele>421.3</ele>
        <time>2015-06-06T05:02:16Z</time>
      </trkpt>
      <trkpt lat="31.6748071" lon="34.9712546">
        <ele>423.2</ele>
        <time>2015-06-06T05:02:21Z</time>
      </trkpt>
      <trkpt lat="31.6747347" lon="34.9711159">
        <ele>424.8</ele>
        <time>2015-06-06T05:02:29Z</time>
      </trkpt>
      <trkpt lat="31.6747315" lon="34.9710597">
        <ele>425.3</ele>
        <time>2015-06-06T05:02:33Z</time>
      </trkpt>
      <trkpt lat="31.6747276" lon="34.9709995">
        <ele>425.7</ele>
        <time>2015-06-06T05:02:35Z</time>
      </trkpt>
      <trkpt lat="31.6747202" lon="34.9709286">
        <ele>425.7</ele>
        <time>2015-06-06T05:02:37Z</time>
      </trkpt>
      <trkpt lat="31.6746989" lon="34.9708449">
        <ele>425.7</ele>
        <time>2015-06-06T05:02:39Z</time>
      </trkpt>
      <trkpt lat="31.674683" lon="34.9707737">
        <ele>426.1</ele>
        <time>2015-06-06T05:02:41Z</time>
      </trkpt>
      <trkpt lat="31.6746787" lon="34.9707053">
        <ele>426.1</ele>
        <time>2015-06-06T05:02:43Z</time>
      </trkpt>
      <trkpt lat="31.674676" lon="34.970617">
        <ele>426.4</ele>
        <time>2015-06-06T05:02:46Z</time>
      </trkpt>
      <trkpt lat="31.6746665" lon="34.9705571">
        <ele>426.4</ele>
        <time>2015-06-06T05:02:48Z</time>
      </trkpt>
      <trkpt lat="31.6746547" lon="34.9704912">
        <ele>426.9</ele>
        <time>2015-06-06T05:02:50Z</time>
      </trkpt>
      <trkpt lat="31.6746404" lon="34.9703922">
        <ele>426.9</ele>
        <time>2015-06-06T05:02:53Z</time>
      </trkpt>
      <trkpt lat="31.6746187" lon="34.9702292">
        <ele>427.5</ele>
        <time>2015-06-06T05:02:58Z</time>
      </trkpt>
      <trkpt lat="31.6745943" lon="34.9701058">
        <ele>427.6</ele>
        <time>2015-06-06T05:03:02Z</time>
      </trkpt>
      <trkpt lat="31.6745495" lon="34.9699463">
        <ele>427.7</ele>
        <time>2015-06-06T05:03:06Z</time>
      </trkpt>
      <trkpt lat="31.6745258" lon="34.9698775">
        <ele>427.9</ele>
        <time>2015-06-06T05:03:08Z</time>
      </trkpt>
      <trkpt lat="31.6745062" lon="34.9698045">
        <ele>427.9</ele>
        <time>2015-06-06T05:03:10Z</time>
      </trkpt>
      <trkpt lat="31.674445" lon="34.9696628">
        <ele>428.0</ele>
        <time>2015-06-06T05:03:14Z</time>
      </trkpt>
      <trkpt lat="31.6743288" lon="34.9695713">
        <ele>428.2</ele>
        <time>2015-06-06T05:03:18Z</time>
      </trkpt>
      <trkpt lat="31.6742187" lon="34.9696112">
        <ele>428.2</ele>
        <time>2015-06-06T05:03:20Z</time>
      </trkpt>
      <trkpt lat="31.6740899" lon="34.9696639">
        <ele>428.3</ele>
        <time>2015-06-06T05:03:22Z</time>
      </trkpt>
      <trkpt lat="31.6740475" lon="34.9696978">
        <ele>428.3</ele>
        <time>2015-06-06T05:03:23Z</time>
      </trkpt>
      <trkpt lat="31.6740229" lon="34.9697427">
        <ele>428.3</ele>
        <time>2015-06-06T05:03:24Z</time>
      </trkpt>
      <trkpt lat="31.673968" lon="34.969799">
        <ele>428.3</ele>
        <time>2015-06-06T05:03:26Z</time>
      </trkpt>
      <trkpt lat="31.6739496" lon="34.9699082">
        <ele>428.5</ele>
        <time>2015-06-06T05:03:31Z</time>
      </trkpt>
      <trkpt lat="31.6739398" lon="34.9699619">
        <ele>428.5</ele>
        <time>2015-06-06T05:03:34Z</time>
      </trkpt>
      <trkpt lat="31.6739489" lon="34.9700183">
        <ele>428.5</ele>
        <time>2015-06-06T05:03:37Z</time>
      </trkpt>
      <trkpt lat="31.67397" lon="34.9700821">
        <ele>428.8</ele>
        <time>2015-06-06T05:03:41Z</time>
      </trkpt>
      <trkpt lat="31.6739893" lon="34.9701339">
        <ele>428.9</ele>
        <time>2015-06-06T05:03:44Z</time>
      </trkpt>
      <trkpt lat="31.673965" lon="34.9702424">
        <ele>429.1</ele>
        <time>2015-06-06T05:03:50Z</time>
      </trkpt>
      <trkpt lat="31.6739575" lon="34.9703086">
        <ele>429.2</ele>
        <time>2015-06-06T05:03:53Z</time>
      </trkpt>
      <trkpt lat="31.6739185" lon="34.9704215">
        <ele>429.3</ele>
        <time>2015-06-06T05:03:59Z</time>
      </trkpt>
      <trkpt lat="31.6739001" lon="34.9704774">
        <ele>429.5</ele>
        <time>2015-06-06T05:04:02Z</time>
      </trkpt>
      <trkpt lat="31.6738709" lon="34.9705902">
        <ele>429.5</ele>
        <time>2015-06-06T05:04:08Z</time>
      </trkpt>
      <trkpt lat="31.6738755" lon="34.9706605">
        <ele>430.9</ele>
        <time>2015-06-06T05:04:11Z</time>
      </trkpt>
      <trkpt lat="31.6738911" lon="34.9707026">
        <ele>431.6</ele>
        <time>2015-06-06T05:04:14Z</time>
      </trkpt>
      <trkpt lat="31.6738958" lon="34.9707037">
        <ele>432.9</ele>
        <time>2015-06-06T05:04:18Z</time>
      </trkpt>
      <trkpt lat="31.6738958" lon="34.9707037">
        <time>2015-06-06T05:04:18Z</time>
      </trkpt>
    </trkseg>
    <trkseg>
      <trkpt lat="31.6738958" lon="34.9707037">
        <time>2015-06-06T05:10:33Z</time>
      </trkpt>
      <trkpt lat="31.6738919" lon="34.9708451">
        <ele>435.9</ele>
        <time>2015-06-06T05:10:34Z</time>
      </trkpt>
      <trkpt lat="31.6738019" lon="34.9709698">
        <ele>435.7</ele>
        <time>2015-06-06T05:10:39Z</time>
      </trkpt>
      <trkpt lat="31.6737813" lon="34.971133">
        <ele>435.6</ele>
        <time>2015-06-06T05:10:43Z</time>
      </trkpt>
      <trkpt lat="31.67373" lon="34.971302">
        <ele>435.5</ele>
        <time>2015-06-06T05:10:47Z</time>
      </trkpt>
      <trkpt lat="31.6736926" lon="34.9714844">
        <ele>435.5</ele>
        <time>2015-06-06T05:10:51Z</time>
      </trkpt>
      <trkpt lat="31.6736823" lon="34.9716633">
        <ele>435.4</ele>
        <time>2015-06-06T05:10:55Z</time>
      </trkpt>
      <trkpt lat="31.6736702" lon="34.9717285">
        <ele>435.4</ele>
        <time>2015-06-06T05:10:57Z</time>
      </trkpt>
      <trkpt lat="31.6736534" lon="34.9717929">
        <ele>435.4</ele>
        <time>2015-06-06T05:11:00Z</time>
      </trkpt>
      <trkpt lat="31.6736033" lon="34.9718974">
        <ele>433.8</ele>
        <time>2015-06-06T05:11:12Z</time>
      </trkpt>
      <trkpt lat="31.6735829" lon="34.9719542">
        <ele>432.3</ele>
        <time>2015-06-06T05:11:15Z</time>
      </trkpt>
      <trkpt lat="31.6735409" lon="34.9719268">
        <ele>430.6</ele>
        <time>2015-06-06T05:11:18Z</time>
      </trkpt>
      <trkpt lat="31.6735118" lon="34.9718831">
        <ele>430.6</ele>
        <time>2015-06-06T05:11:20Z</time>
      </trkpt>
      <trkpt lat="31.6734602" lon="34.9718834">
        <ele>427.9</ele>
        <time>2015-06-06T05:11:24Z</time>
      </trkpt>
      <trkpt lat="31.673343" lon="34.9719646">
        <ele>427.3</ele>
        <time>2015-06-06T05:11:30Z</time>
      </trkpt>
      <trkpt lat="31.673305" lon="34.9721219">
        <ele>427.1</ele>
        <time>2015-06-06T05:11:35Z</time>
      </trkpt>
      <trkpt lat="31.6732661" lon="34.9723009">
        <ele>426.6</ele>
        <time>2015-06-06T05:11:41Z</time>
      </trkpt>
      <trkpt lat="31.6732899" lon="34.9724337">
        <ele>426.0</ele>
        <time>2015-06-06T05:11:45Z</time>
      </trkpt>
      <trkpt lat="31.6732938" lon="34.972606">
        <ele>425.4</ele>
        <time>2015-06-06T05:11:49Z</time>
      </trkpt>
      <trkpt lat="31.6732892" lon="34.9726747">
        <ele>423.9</ele>
        <time>2015-06-06T05:11:51Z</time>
      </trkpt>
      <trkpt lat="31.6732545" lon="34.972754">
        <ele>423.9</ele>
        <time>2015-06-06T05:11:54Z</time>
      </trkpt>
      <trkpt lat="31.6732096" lon="34.9729177">
        <ele>422.6</ele>
        <time>2015-06-06T05:11:58Z</time>
      </trkpt>
      <trkpt lat="31.6731529" lon="34.9730948">
        <ele>420.5</ele>
        <time>2015-06-06T05:12:03Z</time>
      </trkpt>
      <trkpt lat="31.6731324" lon="34.9731483">
        <ele>418.8</ele>
        <time>2015-06-06T05:12:05Z</time>
      </trkpt>
      <trkpt lat="31.673104" lon="34.9731942">
        <ele>418.8</ele>
        <time>2015-06-06T05:12:07Z</time>
      </trkpt>
      <trkpt lat="31.6730162" lon="34.9733256">
        <ele>417.4</ele>
        <time>2015-06-06T05:12:13Z</time>
      </trkpt>
      <trkpt lat="31.6729747" lon="34.9734394">
        <ele>417.2</ele>
        <time>2015-06-06T05:12:19Z</time>
      </trkpt>
      <trkpt lat="31.6729335" lon="34.9734688">
        <ele>417.2</ele>
        <time>2015-06-06T05:12:22Z</time>
      </trkpt>
      <trkpt lat="31.6728855" lon="34.9734931">
        <ele>417.2</ele>
        <time>2015-06-06T05:12:25Z</time>
      </trkpt>
      <trkpt lat="31.6728374" lon="34.9735342">
        <ele>417.2</ele>
        <time>2015-06-06T05:12:28Z</time>
      </trkpt>
      <trkpt lat="31.6727952" lon="34.9735759">
        <ele>417.2</ele>
        <time>2015-06-06T05:12:31Z</time>
      </trkpt>
      <trkpt lat="31.6727133" lon="34.9736372">
        <ele>417.2</ele>
        <time>2015-06-06T05:12:36Z</time>
      </trkpt>
      <trkpt lat="31.6726911" lon="34.9736873">
        <ele>417.2</ele>
        <time>2015-06-06T05:12:38Z</time>
      </trkpt>
      <trkpt lat="31.6726515" lon="34.9737161">
        <ele>417.2</ele>
        <time>2015-06-06T05:12:40Z</time>
      </trkpt>
      <trkpt lat="31.6726059" lon="34.9737239">
        <ele>417.3</ele>
        <time>2015-06-06T05:12:43Z</time>
      </trkpt>
      <trkpt lat="31.6726059" lon="34.9737239">
        <ele>417.4</ele>
        <time>2015-06-06T05:12:44Z</time>
      </trkpt>
      <trkpt lat="31.6726225" lon="34.9737191">
        <ele>418.2</ele>
        <time>2015-06-06T05:12:47Z</time>
      </trkpt>
      <trkpt lat="31.6726225" lon="34.9737191">
        <time>2015-06-06T05:12:47Z</time>
      </trkpt>
    </trkseg>
    <trkseg>
      <trkpt lat="31.6726225" lon="34.9737191">
        <time>2015-06-06T05:12:56Z</time>
      </trkpt>
      <trkpt lat="31.6724673" lon="34.973703">
        <ele>417.7</ele>
        <time>2015-06-06T05:12:58Z</time>
      </trkpt>
      <trkpt lat="31.6724193" lon="34.9737107">
        <ele>417.8</ele>
        <time>2015-06-06T05:13:01Z</time>
      </trkpt>
      <trkpt lat="31.672388" lon="34.9737599">
        <ele>417.8</ele>
        <time>2015-06-06T05:13:04Z</time>
      </trkpt>
      <trkpt lat="31.6722936" lon="34.9738086">
        <ele>417.8</ele>
        <time>2015-06-06T05:13:09Z</time>
      </trkpt>
      <trkpt lat="31.6722257" lon="34.9739043">
        <ele>417.9</ele>
        <time>2015-06-06T05:13:14Z</time>
      </trkpt>
      <trkpt lat="31.6721831" lon="34.9739418">
        <ele>417.9</ele>
        <time>2015-06-06T05:13:17Z</time>
      </trkpt>
      <trkpt lat="31.6721507" lon="34.9739989">
        <ele>417.9</ele>
        <time>2015-06-06T05:13:20Z</time>
      </trkpt>
      <trkpt lat="31.6721129" lon="34.9740463">
        <ele>418.0</ele>
        <time>2015-06-06T05:13:23Z</time>
      </trkpt>
      <trkpt lat="31.6720853" lon="34.9741061">
        <ele>418.0</ele>
        <time>2015-06-06T05:13:26Z</time>
      </trkpt>
      <trkpt lat="31.67206" lon="34.9741597">
        <ele>418.0</ele>
        <time>2015-06-06T05:13:29Z</time>
      </trkpt>
      <trkpt lat="31.6720154" lon="34.9741765">
        <ele>418.0</ele>
        <time>2015-06-06T05:13:31Z</time>
      </trkpt>
      <trkpt lat="31.6719542" lon="34.974212">
        <ele>418.0</ele>
        <time>2015-06-06T05:13:34Z</time>
      </trkpt>
      <trkpt lat="31.6719136" lon="34.9742509">
        <ele>418.0</ele>
        <time>2015-06-06T05:13:36Z</time>
      </trkpt>
      <trkpt lat="31.6717931" lon="34.9743488">
        <ele>418.0</ele>
        <time>2015-06-06T05:13:42Z</time>
      </trkpt>
      <trkpt lat="31.6716703" lon="34.9744412">
        <ele>417.9</ele>
        <time>2015-06-06T05:13:48Z</time>
      </trkpt>
      <trkpt lat="31.671606" lon="34.9744585">
        <ele>417.9</ele>
        <time>2015-06-06T05:13:51Z</time>
      </trkpt>
      <trkpt lat="31.6715498" lon="34.9744443">
        <ele>417.9</ele>
        <time>2015-06-06T05:13:53Z</time>
      </trkpt>
      <trkpt lat="31.6714976" lon="34.9744267">
        <ele>417.9</ele>
        <time>2015-06-06T05:13:55Z</time>
      </trkpt>
      <trkpt lat="31.6714402" lon="34.9744219">
        <ele>417.9</ele>
        <time>2015-06-06T05:13:57Z</time>
      </trkpt>
      <trkpt lat="31.671384" lon="34.9744303">
        <ele>417.9</ele>
        <time>2015-06-06T05:13:59Z</time>
      </trkpt>
      <trkpt lat="31.6712666" lon="34.9744658">
        <ele>417.8</ele>
        <time>2015-06-06T05:14:03Z</time>
      </trkpt>
      <trkpt lat="31.6711571" lon="34.9744672">
        <ele>417.9</ele>
        <time>2015-06-06T05:14:07Z</time>
      </trkpt>
      <trkpt lat="31.6710491" lon="34.9744668">
        <ele>417.9</ele>
        <time>2015-06-06T05:14:11Z</time>
      </trkpt>
      <trkpt lat="31.6709553" lon="34.9744197">
        <ele>417.9</ele>
        <time>2015-06-06T05:14:15Z</time>
      </trkpt>
      <trkpt lat="31.6708996" lon="34.9743958">
        <ele>417.9</ele>
        <time>2015-06-06T05:14:17Z</time>
      </trkpt>
      <trkpt lat="31.6708313" lon="34.9744074">
        <ele>417.9</ele>
        <time>2015-06-06T05:14:19Z</time>
      </trkpt>
      <trkpt lat="31.6707818" lon="34.9744405">
        <ele>417.9</ele>
        <time>2015-06-06T05:14:21Z</time>
      </trkpt>
      <trkpt lat="31.6707315" lon="34.9744857">
        <ele>417.8</ele>
        <time>2015-06-06T05:14:24Z</time>
      </trkpt>
      <trkpt lat="31.670668" lon="34.9744657">
        <ele>417.8</ele>
        <time>2015-06-06T05:14:27Z</time>
      </trkpt>
      <trkpt lat="31.6706212" lon="34.9744454">
        <ele>417.8</ele>
        <time>2015-06-06T05:14:29Z</time>
      </trkpt>
      <trkpt lat="31.6705669" lon="34.9744154">
        <ele>417.7</ele>
        <time>2015-06-06T05:14:31Z</time>
      </trkpt>
      <trkpt lat="31.6705054" lon="34.9744012">
        <ele>417.7</ele>
        <time>2015-06-06T05:14:33Z</time>
      </trkpt>
      <trkpt lat="31.6704547" lon="34.974412">
        <ele>417.7</ele>
        <time>2015-06-06T05:14:35Z</time>
      </trkpt>
      <trkpt lat="31.6703888" lon="34.9744397">
        <ele>417.6</ele>
        <time>2015-06-06T05:14:38Z</time>
      </trkpt>
      <trkpt lat="31.670337" lon="34.9744825">
        <ele>417.6</ele>
        <time>2015-06-06T05:14:41Z</time>
      </trkpt>
      <trkpt lat="31.6702866" lon="34.9746657">
        <ele>417.6</ele>
        <time>2015-06-06T05:14:46Z</time>
      </trkpt>
      <trkpt lat="31.6702474" lon="34.9748602">
        <ele>417.5</ele>
        <time>2015-06-06T05:14:50Z</time>
      </trkpt>
      <trkpt lat="31.6702287" lon="34.9749681">
        <ele>417.3</ele>
        <time>2015-06-06T05:14:53Z</time>
      </trkpt>
      <trkpt lat="31.6702212" lon="34.9751335">
        <ele>417.1</ele>
        <time>2015-06-06T05:14:57Z</time>
      </trkpt>
      <trkpt lat="31.670251" lon="34.9752637">
        <ele>416.3</ele>
        <time>2015-06-06T05:15:01Z</time>
      </trkpt>
      <trkpt lat="31.6703456" lon="34.9753946">
        <ele>415.2</ele>
        <time>2015-06-06T05:15:06Z</time>
      </trkpt>
      <trkpt lat="31.6703593" lon="34.9754648">
        <ele>414.2</ele>
        <time>2015-06-06T05:15:09Z</time>
      </trkpt>
      <trkpt lat="31.6703454" lon="34.975524">
        <ele>414.2</ele>
        <time>2015-06-06T05:15:11Z</time>
      </trkpt>
      <trkpt lat="31.6703077" lon="34.9755782">
        <ele>412.4</ele>
        <time>2015-06-06T05:15:13Z</time>
      </trkpt>
      <trkpt lat="31.6702482" lon="34.9755917">
        <ele>412.4</ele>
        <time>2015-06-06T05:15:15Z</time>
      </trkpt>
      <trkpt lat="31.6701582" lon="34.9755254">
        <ele>411.5</ele>
        <time>2015-06-06T05:15:18Z</time>
      </trkpt>
      <trkpt lat="31.6700227" lon="34.975427">
        <ele>408.5</ele>
        <time>2015-06-06T05:15:23Z</time>
      </trkpt>
      <trkpt lat="31.6699831" lon="34.9753257">
        <ele>406.1</ele>
        <time>2015-06-06T05:15:26Z</time>
      </trkpt>
      <trkpt lat="31.6699543" lon="34.9752502">
        <ele>405.2</ele>
        <time>2015-06-06T05:15:28Z</time>
      </trkpt>
      <trkpt lat="31.6699196" lon="34.9751959">
        <ele>405.2</ele>
        <time>2015-06-06T05:15:30Z</time>
      </trkpt>
      <trkpt lat="31.6698688" lon="34.9751382">
        <ele>405.2</ele>
        <time>2015-06-06T05:15:32Z</time>
      </trkpt>
      <trkpt lat="31.6698084" lon="34.9750854">
        <ele>403.9</ele>
        <time>2015-06-06T05:15:34Z</time>
      </trkpt>
      <trkpt lat="31.6697513" lon="34.9750802">
        <ele>403.9</ele>
        <time>2015-06-06T05:15:36Z</time>
      </trkpt>
      <trkpt lat="31.6696851" lon="34.9750928">
        <ele>403.9</ele>
        <time>2015-06-06T05:15:38Z</time>
      </trkpt>
      <trkpt lat="31.669588" lon="34.9750284">
        <ele>403.4</ele>
        <time>2015-06-06T05:15:42Z</time>
      </trkpt>
      <trkpt lat="31.6694486" lon="34.9750721">
        <ele>402.8</ele>
        <time>2015-06-06T05:15:47Z</time>
      </trkpt>
      <trkpt lat="31.6694138" lon="34.9752527">
        <ele>402.4</ele>
        <time>2015-06-06T05:15:52Z</time>
      </trkpt>
      <trkpt lat="31.6695367" lon="34.975399">
        <ele>401.8</ele>
        <time>2015-06-06T05:15:56Z</time>
      </trkpt>
      <trkpt lat="31.6695605" lon="34.9755849">
        <ele>401.2</ele>
        <time>2015-06-06T05:16:00Z</time>
      </trkpt>
      <trkpt lat="31.6693993" lon="34.9755653">
        <ele>399.6</ele>
        <time>2015-06-06T05:16:04Z</time>
      </trkpt>
      <trkpt lat="31.6692626" lon="34.9756425">
        <ele>398.2</ele>
        <time>2015-06-06T05:16:08Z</time>
      </trkpt>
      <trkpt lat="31.6691097" lon="34.975731">
        <ele>397.1</ele>
        <time>2015-06-06T05:16:12Z</time>
      </trkpt>
      <trkpt lat="31.6689445" lon="34.9757931">
        <ele>395.6</ele>
        <time>2015-06-06T05:16:17Z</time>
      </trkpt>
      <trkpt lat="31.6688247" lon="34.9759158">
        <ele>394.0</ele>
        <time>2015-06-06T05:16:22Z</time>
      </trkpt>
      <trkpt lat="31.6686814" lon="34.9759888">
        <ele>393.0</ele>
        <time>2015-06-06T05:16:26Z</time>
      </trkpt>
      <trkpt lat="31.668571" lon="34.9759916">
        <ele>391.3</ele>
        <time>2015-06-06T05:16:30Z</time>
      </trkpt>
      <trkpt lat="31.6684489" lon="34.9759776">
        <ele>389.7</ele>
        <time>2015-06-06T05:16:35Z</time>
      </trkpt>
      <trkpt lat="31.6683599" lon="34.9759436">
        <ele>387.8</ele>
        <time>2015-06-06T05:16:39Z</time>
      </trkpt>
      <trkpt lat="31.6682702" lon="34.9759078">
        <ele>387.4</ele>
        <time>2015-06-06T05:16:42Z</time>
      </trkpt>
      <trkpt lat="31.6681974" lon="34.9758445">
        <ele>386.9</ele>
        <time>2015-06-06T05:16:45Z</time>
      </trkpt>
      <trkpt lat="31.6681585" lon="34.9758041">
        <ele>383.5</ele>
        <time>2015-06-06T05:16:47Z</time>
      </trkpt>
      <trkpt lat="31.6681192" lon="34.9757738">
        <ele>383.5</ele>
        <time>2015-06-06T05:16:49Z</time>
      </trkpt>
      <trkpt lat="31.6680718" lon="34.9757606">
        <ele>383.5</ele>
        <time>2015-06-06T05:16:51Z</time>
      </trkpt>
      <trkpt lat="31.6679219" lon="34.975707">
        <ele>382.5</ele>
        <time>2015-06-06T05:16:58Z</time>
      </trkpt>
      <trkpt lat="31.6677811" lon="34.9756508">
        <ele>382.1</ele>
        <time>2015-06-06T05:17:03Z</time>
      </trkpt>
      <trkpt lat="31.6676951" lon="34.975592">
        <ele>382.1</ele>
        <time>2015-06-06T05:17:06Z</time>
      </trkpt>
      <trkpt lat="31.6676448" lon="34.9755638">
        <ele>381.9</ele>
        <time>2015-06-06T05:17:08Z</time>
      </trkpt>
      <trkpt lat="31.6675984" lon="34.9755785">
        <ele>381.9</ele>
        <time>2015-06-06T05:17:10Z</time>
      </trkpt>
      <trkpt lat="31.6675418" lon="34.9755925">
        <ele>381.9</ele>
        <time>2015-06-06T05:17:12Z</time>
      </trkpt>
      <trkpt lat="31.6674478" lon="34.9755597">
        <ele>381.8</ele>
        <time>2015-06-06T05:17:15Z</time>
      </trkpt>
      <trkpt lat="31.6673094" lon="34.9755155">
        <ele>381.7</ele>
        <time>2015-06-06T05:17:19Z</time>
      </trkpt>
      <trkpt lat="31.6672155" lon="34.9754618">
        <ele>381.6</ele>
        <time>2015-06-06T05:17:22Z</time>
      </trkpt>
      <trkpt lat="31.6671151" lon="34.9754167">
        <ele>381.6</ele>
        <time>2015-06-06T05:17:25Z</time>
      </trkpt>
      <trkpt lat="31.667" lon="34.9752993">
        <ele>381.5</ele>
        <time>2015-06-06T05:17:29Z</time>
      </trkpt>
      <trkpt lat="31.6668845" lon="34.9752441">
        <ele>381.4</ele>
        <time>2015-06-06T05:17:32Z</time>
      </trkpt>
      <trkpt lat="31.6667536" lon="34.9751488">
        <ele>381.1</ele>
        <time>2015-06-06T05:17:36Z</time>
      </trkpt>
      <trkpt lat="31.6666252" lon="34.9750382">
        <ele>380.6</ele>
        <time>2015-06-06T05:17:39Z</time>
      </trkpt>
      <trkpt lat="31.6664927" lon="34.9749561">
        <ele>379.4</ele>
        <time>2015-06-06T05:17:43Z</time>
      </trkpt>
      <trkpt lat="31.6664111" lon="34.9749023">
        <ele>378.8</ele>
        <time>2015-06-06T05:17:47Z</time>
      </trkpt>
      <trkpt lat="31.6663628" lon="34.9748088">
        <ele>377.5</ele>
        <time>2015-06-06T05:17:50Z</time>
      </trkpt>
      <trkpt lat="31.6663465" lon="34.9746479">
        <ele>377.1</ele>
        <time>2015-06-06T05:17:54Z</time>
      </trkpt>
      <trkpt lat="31.6663307" lon="34.9744888">
        <ele>374.0</ele>
        <time>2015-06-06T05:17:58Z</time>
      </trkpt>
      <trkpt lat="31.666279" lon="34.9743569">
        <ele>371.3</ele>
        <time>2015-06-06T05:18:02Z</time>
      </trkpt>
      <trkpt lat="31.6663302" lon="34.97419">
        <ele>371.1</ele>
        <time>2015-06-06T05:18:06Z</time>
      </trkpt>
      <trkpt lat="31.6663312" lon="34.9739864">
        <ele>370.7</ele>
        <time>2015-06-06T05:18:10Z</time>
      </trkpt>
      <trkpt lat="31.6663063" lon="34.9738183">
        <ele>370.3</ele>
        <time>2015-06-06T05:18:14Z</time>
      </trkpt>
      <trkpt lat="31.6662037" lon="34.9739375">
        <ele>368.8</ele>
        <time>2015-06-06T05:18:19Z</time>
      </trkpt>
      <trkpt lat="31.6661341" lon="34.9740752">
        <ele>366.5</ele>
        <time>2015-06-06T05:18:23Z</time>
      </trkpt>
      <trkpt lat="31.6660867" lon="34.973946">
        <ele>364.5</ele>
        <time>2015-06-06T05:18:27Z</time>
      </trkpt>
      <trkpt lat="31.666092" lon="34.9737639">
        <ele>364.1</ele>
        <time>2015-06-06T05:18:30Z</time>
      </trkpt>
      <trkpt lat="31.6661133" lon="34.9735919">
        <ele>363.5</ele>
        <time>2015-06-06T05:18:34Z</time>
      </trkpt>
      <trkpt lat="31.6661787" lon="34.973481">
        <ele>362.0</ele>
        <time>2015-06-06T05:18:38Z</time>
      </trkpt>
      <trkpt lat="31.6660782" lon="34.9735075">
        <ele>361.2</ele>
        <time>2015-06-06T05:18:41Z</time>
      </trkpt>
      <trkpt lat="31.6660072" lon="34.9736001">
        <ele>361.2</ele>
        <time>2015-06-06T05:18:44Z</time>
      </trkpt>
      <trkpt lat="31.6659597" lon="34.9736384">
        <ele>360.1</ele>
        <time>2015-06-06T05:18:46Z</time>
      </trkpt>
      <trkpt lat="31.6659058" lon="34.9736517">
        <ele>360.1</ele>
        <time>2015-06-06T05:18:48Z</time>
      </trkpt>
      <trkpt lat="31.6658531" lon="34.9735248">
        <ele>359.3</ele>
        <time>2015-06-06T05:18:52Z</time>
      </trkpt>
      <trkpt lat="31.6658449" lon="34.9733522">
        <ele>358.7</ele>
        <time>2015-06-06T05:18:56Z</time>
      </trkpt>
      <trkpt lat="31.6659291" lon="34.973185">
        <ele>358.2</ele>
        <time>2015-06-06T05:19:00Z</time>
      </trkpt>
      <trkpt lat="31.6658547" lon="34.9730358">
        <ele>357.6</ele>
        <time>2015-06-06T05:19:05Z</time>
      </trkpt>
      <trkpt lat="31.6657347" lon="34.9731172">
        <ele>355.6</ele>
        <time>2015-06-06T05:19:10Z</time>
      </trkpt>
      <trkpt lat="31.6657306" lon="34.9731731">
        <ele>354.5</ele>
        <time>2015-06-06T05:19:11Z</time>
      </trkpt>
      <trkpt lat="31.6657039" lon="34.973231">
        <ele>354.5</ele>
        <time>2015-06-06T05:19:13Z</time>
      </trkpt>
      <trkpt lat="31.6656353" lon="34.9732361">
        <ele>354.5</ele>
        <time>2015-06-06T05:19:15Z</time>
      </trkpt>
      <trkpt lat="31.665425" lon="34.973287">
        <ele>352.6</ele>
        <time>2015-06-06T05:19:20Z</time>
      </trkpt>
      <trkpt lat="31.665314" lon="34.973221">
        <ele>351.5</ele>
        <time>2015-06-06T05:19:23Z</time>
      </trkpt>
      <trkpt lat="31.665226" lon="34.9730466">
        <ele>350.5</ele>
        <time>2015-06-06T05:19:27Z</time>
      </trkpt>
      <trkpt lat="31.6651477" lon="34.9728971">
        <ele>349.6</ele>
        <time>2015-06-06T05:19:31Z</time>
      </trkpt>
      <trkpt lat="31.665055" lon="34.9727738">
        <ele>347.6</ele>
        <time>2015-06-06T05:19:37Z</time>
      </trkpt>
      <trkpt lat="31.6649589" lon="34.9726499">
        <ele>346.8</ele>
        <time>2015-06-06T05:19:43Z</time>
      </trkpt>
      <trkpt lat="31.6649081" lon="34.9726156">
        <ele>345.2</ele>
        <time>2015-06-06T05:19:46Z</time>
      </trkpt>
      <trkpt lat="31.6648743" lon="34.9725687">
        <ele>344.4</ele>
        <time>2015-06-06T05:19:49Z</time>
      </trkpt>
      <trkpt lat="31.6648194" lon="34.9725678">
        <ele>344.4</ele>
        <time>2015-06-06T05:19:54Z</time>
      </trkpt>
      <trkpt lat="31.6647611" lon="34.9725412">
        <ele>344.4</ele>
        <time>2015-06-06T05:19:59Z</time>
      </trkpt>
      <trkpt lat="31.6647158" lon="34.9725324">
        <ele>344.4</ele>
        <time>2015-06-06T05:20:02Z</time>
      </trkpt>
      <trkpt lat="31.6646073" lon="34.9725226">
        <ele>344.4</ele>
        <time>2015-06-06T05:20:08Z</time>
      </trkpt>
      <trkpt lat="31.6645281" lon="34.9725792">
        <ele>344.4</ele>
        <time>2015-06-06T05:20:13Z</time>
      </trkpt>
      <trkpt lat="31.664492" lon="34.9726276">
        <ele>344.4</ele>
        <time>2015-06-06T05:20:17Z</time>
      </trkpt>
      <trkpt lat="31.6644727" lon="34.9726909">
        <ele>345.1</ele>
        <time>2015-06-06T05:20:21Z</time>
      </trkpt>
      <trkpt lat="31.6644808" lon="34.9728517">
        <ele>346.4</ele>
        <time>2015-06-06T05:20:30Z</time>
      </trkpt>
      <trkpt lat="31.6644874" lon="34.9729062">
        <ele>347.0</ele>
        <time>2015-06-06T05:20:33Z</time>
      </trkpt>
      <trkpt lat="31.6644512" lon="34.9729467">
        <ele>347.2</ele>
        <time>2015-06-06T05:20:36Z</time>
      </trkpt>
      <trkpt lat="31.6644061" lon="34.9729631">
        <ele>347.2</ele>
        <time>2015-06-06T05:20:38Z</time>
      </trkpt>
      <trkpt lat="31.6643456" lon="34.9729627">
        <ele>348.2</ele>
        <time>2015-06-06T05:20:41Z</time>
      </trkpt>
      <trkpt lat="31.6643005" lon="34.9729427">
        <ele>348.6</ele>
        <time>2015-06-06T05:20:44Z</time>
      </trkpt>
      <trkpt lat="31.6642631" lon="34.972983">
        <ele>349.1</ele>
        <time>2015-06-06T05:20:48Z</time>
      </trkpt>
      <trkpt lat="31.6641843" lon="34.9730542">
        <ele>349.5</ele>
        <time>2015-06-06T05:20:55Z</time>
      </trkpt>
      <trkpt lat="31.6641364" lon="34.9730402">
        <ele>350.5</ele>
        <time>2015-06-06T05:20:57Z</time>
      </trkpt>
      <trkpt lat="31.6640828" lon="34.973038">
        <ele>350.5</ele>
        <time>2015-06-06T05:21:00Z</time>
      </trkpt>
      <trkpt lat="31.6639333" lon="34.9730668">
        <ele>351.6</ele>
        <time>2015-06-06T05:21:08Z</time>
      </trkpt>
      <trkpt lat="31.6638747" lon="34.9730732">
        <ele>352.0</ele>
        <time>2015-06-06T05:21:10Z</time>
      </trkpt>
      <trkpt lat="31.6638255" lon="34.9730946">
        <ele>352.0</ele>
        <time>2015-06-06T05:21:12Z</time>
      </trkpt>
      <trkpt lat="31.6637431" lon="34.9731757">
        <ele>352.2</ele>
        <time>2015-06-06T05:21:18Z</time>
      </trkpt>
      <trkpt lat="31.6636751" lon="34.9732658">
        <ele>352.8</ele>
        <time>2015-06-06T05:21:24Z</time>
      </trkpt>
      <trkpt lat="31.663646" lon="34.9733219">
        <ele>353.0</ele>
        <time>2015-06-06T05:21:27Z</time>
      </trkpt>
      <trkpt lat="31.6636234" lon="34.9733838">
        <ele>353.0</ele>
        <time>2015-06-06T05:21:30Z</time>
      </trkpt>
      <trkpt lat="31.6635816" lon="34.9734772">
        <ele>353.1</ele>
        <time>2015-06-06T05:21:35Z</time>
      </trkpt>
      <trkpt lat="31.6635449" lon="34.9735326">
        <ele>353.2</ele>
        <time>2015-06-06T05:21:38Z</time>
      </trkpt>
      <trkpt lat="31.6635196" lon="34.9735927">
        <ele>353.2</ele>
        <time>2015-06-06T05:21:41Z</time>
      </trkpt>
      <trkpt lat="31.663472" lon="34.9737522">
        <ele>353.4</ele>
        <time>2015-06-06T05:21:50Z</time>
      </trkpt>
      <trkpt lat="31.6634484" lon="34.973873">
        <ele>354.1</ele>
        <time>2015-06-06T05:21:56Z</time>
      </trkpt>
      <trkpt lat="31.6634273" lon="34.9739717">
        <ele>355.0</ele>
        <time>2015-06-06T05:22:02Z</time>
      </trkpt>
      <trkpt lat="31.6634314" lon="34.9740923">
        <ele>355.5</ele>
        <time>2015-06-06T05:22:09Z</time>
      </trkpt>
      <trkpt lat="31.6634004" lon="34.9741613">
        <ele>356.7</ele>
        <time>2015-06-06T05:22:12Z</time>
      </trkpt>
      <trkpt lat="31.663395" lon="34.9742198">
        <ele>356.7</ele>
        <time>2015-06-06T05:22:15Z</time>
      </trkpt>
      <trkpt lat="31.6634083" lon="34.9742734">
        <ele>358.2</ele>
        <time>2015-06-06T05:22:19Z</time>
      </trkpt>
      <trkpt lat="31.6634168" lon="34.974332">
        <ele>358.2</ele>
        <time>2015-06-06T05:22:22Z</time>
      </trkpt>
      <trkpt lat="31.6634081" lon="34.974392">
        <ele>359.3</ele>
        <time>2015-06-06T05:22:25Z</time>
      </trkpt>
      <trkpt lat="31.6633978" lon="34.9744469">
        <ele>360.2</ele>
        <time>2015-06-06T05:22:28Z</time>
      </trkpt>
      <trkpt lat="31.6633976" lon="34.974505">
        <ele>360.2</ele>
        <time>2015-06-06T05:22:31Z</time>
      </trkpt>
      <trkpt lat="31.6634034" lon="34.9745722">
        <ele>361.3</ele>
        <time>2015-06-06T05:22:35Z</time>
      </trkpt>
      <trkpt lat="31.663391" lon="34.9746307">
        <ele>361.3</ele>
        <time>2015-06-06T05:22:38Z</time>
      </trkpt>
      <trkpt lat="31.6633364" lon="34.9747387">
        <ele>362.5</ele>
        <time>2015-06-06T05:22:44Z</time>
      </trkpt>
      <trkpt lat="31.6632794" lon="34.9747742">
        <ele>362.8</ele>
        <time>2015-06-06T05:22:47Z</time>
      </trkpt>
      <trkpt lat="31.6632253" lon="34.9747789">
        <ele>363.4</ele>
        <time>2015-06-06T05:22:50Z</time>
      </trkpt>
      <trkpt lat="31.663167" lon="34.9747613">
        <ele>364.0</ele>
        <time>2015-06-06T05:22:53Z</time>
      </trkpt>
      <trkpt lat="31.6631084" lon="34.9747389">
        <ele>364.2</ele>
        <time>2015-06-06T05:22:56Z</time>
      </trkpt>
      <trkpt lat="31.6629924" lon="34.9746552">
        <ele>364.5</ele>
        <time>2015-06-06T05:23:03Z</time>
      </trkpt>
      <trkpt lat="31.6629471" lon="34.9746494">
        <ele>365.0</ele>
        <time>2015-06-06T05:23:06Z</time>
      </trkpt>
      <trkpt lat="31.6629035" lon="34.9746981">
        <ele>365.1</ele>
        <time>2015-06-06T05:23:10Z</time>
      </trkpt>
      <trkpt lat="31.662887" lon="34.9747474">
        <ele>365.1</ele>
        <time>2015-06-06T05:23:12Z</time>
      </trkpt>
      <trkpt lat="31.6628763" lon="34.9748136">
        <ele>365.3</ele>
        <time>2015-06-06T05:23:15Z</time>
      </trkpt>
      <trkpt lat="31.6629" lon="34.9748679">
        <ele>365.3</ele>
        <time>2015-06-06T05:23:18Z</time>
      </trkpt>
      <trkpt lat="31.6629554" lon="34.9750077">
        <ele>365.6</ele>
        <time>2015-06-06T05:23:25Z</time>
      </trkpt>
      <trkpt lat="31.6629731" lon="34.9750563">
        <ele>366.1</ele>
        <time>2015-06-06T05:23:28Z</time>
      </trkpt>
      <trkpt lat="31.6629984" lon="34.9751799">
        <ele>366.6</ele>
        <time>2015-06-06T05:23:33Z</time>
      </trkpt>
      <trkpt lat="31.6630615" lon="34.9753311">
        <ele>367.1</ele>
        <time>2015-06-06T05:23:39Z</time>
      </trkpt>
      <trkpt lat="31.6631092" lon="34.9753814">
        <ele>367.9</ele>
        <time>2015-06-06T05:23:42Z</time>
      </trkpt>
      <trkpt lat="31.6631622" lon="34.9754095">
        <ele>367.9</ele>
        <time>2015-06-06T05:23:45Z</time>
      </trkpt>
      <trkpt lat="31.6632064" lon="34.9754561">
        <ele>368.3</ele>
        <time>2015-06-06T05:23:47Z</time>
      </trkpt>
      <trkpt lat="31.6632245" lon="34.975509">
        <ele>368.3</ele>
        <time>2015-06-06T05:23:49Z</time>
      </trkpt>
      <trkpt lat="31.6631879" lon="34.9755597">
        <ele>368.4</ele>
        <time>2015-06-06T05:23:52Z</time>
      </trkpt>
      <trkpt lat="31.6631107" lon="34.9756292">
        <ele>368.6</ele>
        <time>2015-06-06T05:23:57Z</time>
      </trkpt>
      <trkpt lat="31.6630581" lon="34.9756654">
        <ele>368.8</ele>
        <time>2015-06-06T05:24:01Z</time>
      </trkpt>
      <trkpt lat="31.6630144" lon="34.9757021">
        <ele>369.0</ele>
        <time>2015-06-06T05:24:05Z</time>
      </trkpt>
      <trkpt lat="31.6629832" lon="34.9757499">
        <ele>369.1</ele>
        <time>2015-06-06T05:24:08Z</time>
      </trkpt>
      <trkpt lat="31.6629565" lon="34.9758099">
        <ele>369.1</ele>
        <time>2015-06-06T05:24:11Z</time>
      </trkpt>
      <trkpt lat="31.6629396" lon="34.9758626">
        <ele>369.5</ele>
        <time>2015-06-06T05:24:14Z</time>
      </trkpt>
      <trkpt lat="31.6629097" lon="34.9759186">
        <ele>370.5</ele>
        <time>2015-06-06T05:24:18Z</time>
      </trkpt>
      <trkpt lat="31.6628353" lon="34.9759896">
        <ele>371.3</ele>
        <time>2015-06-06T05:24:25Z</time>
      </trkpt>
      <trkpt lat="31.6628353" lon="34.9759926">
        <ele>371.8</ele>
        <time>2015-06-06T05:24:26Z</time>
      </trkpt>
      <trkpt lat="31.6628303" lon="34.9760016">
        <ele>375.6</ele>
        <time>2015-06-06T05:24:30Z</time>
      </trkpt>
      <trkpt lat="31.6628303" lon="34.9760016">
        <time>2015-06-06T05:24:30Z</time>
      </trkpt>
    </trkseg>
    <trkseg>
      <trkpt lat="31.6628303" lon="34.9760016">
        <time>2015-06-06T05:25:12Z</time>
      </trkpt>
      <trkpt lat="31.6627651" lon="34.9761006">
        <ele>375.3</ele>
        <time>2015-06-06T05:25:13Z</time>
      </trkpt>
      <trkpt lat="31.6627082" lon="34.9761949">
        <ele>375.3</ele>
        <time>2015-06-06T05:25:19Z</time>
      </trkpt>
      <trkpt lat="31.6626628" lon="34.976303">
        <ele>375.4</ele>
        <time>2015-06-06T05:25:25Z</time>
      </trkpt>
      <trkpt lat="31.6626034" lon="34.9764628">
        <ele>375.4</ele>
        <time>2015-06-06T05:25:34Z</time>
      </trkpt>
      <trkpt lat="31.6625762" lon="34.9765233">
        <ele>375.7</ele>
        <time>2015-06-06T05:25:38Z</time>
      </trkpt>
      <trkpt lat="31.6625478" lon="34.9765768">
        <ele>376.1</ele>
        <time>2015-06-06T05:25:42Z</time>
      </trkpt>
      <trkpt lat="31.6625109" lon="34.9766207">
        <ele>377.2</ele>
        <time>2015-06-06T05:25:45Z</time>
      </trkpt>
      <trkpt lat="31.6624712" lon="34.9766575">
        <ele>377.6</ele>
        <time>2015-06-06T05:25:48Z</time>
      </trkpt>
      <trkpt lat="31.662402" lon="34.9766691">
        <ele>377.9</ele>
        <time>2015-06-06T05:25:51Z</time>
      </trkpt>
      <trkpt lat="31.6623481" lon="34.9766458">
        <ele>377.9</ele>
        <time>2015-06-06T05:25:53Z</time>
      </trkpt>
      <trkpt lat="31.6622793" lon="34.9765719">
        <ele>378.4</ele>
        <time>2015-06-06T05:25:56Z</time>
      </trkpt>
      <trkpt lat="31.6622532" lon="34.9765174">
        <ele>378.9</ele>
        <time>2015-06-06T05:25:58Z</time>
      </trkpt>
      <trkpt lat="31.6622388" lon="34.9764548">
        <ele>378.9</ele>
        <time>2015-06-06T05:26:00Z</time>
      </trkpt>
      <trkpt lat="31.6622405" lon="34.9762789">
        <ele>379.3</ele>
        <time>2015-06-06T05:26:07Z</time>
      </trkpt>
      <trkpt lat="31.6621921" lon="34.9761018">
        <ele>379.9</ele>
        <time>2015-06-06T05:26:13Z</time>
      </trkpt>
      <trkpt lat="31.6621528" lon="34.9759676">
        <ele>380.2</ele>
        <time>2015-06-06T05:26:17Z</time>
      </trkpt>
      <trkpt lat="31.6621667" lon="34.9758573">
        <ele>380.3</ele>
        <time>2015-06-06T05:26:20Z</time>
      </trkpt>
      <trkpt lat="31.6621556" lon="34.9756881">
        <ele>380.3</ele>
        <time>2015-06-06T05:26:25Z</time>
      </trkpt>
      <trkpt lat="31.6621113" lon="34.9756371">
        <ele>380.4</ele>
        <time>2015-06-06T05:26:28Z</time>
      </trkpt>
      <trkpt lat="31.6620569" lon="34.9756191">
        <ele>380.4</ele>
        <time>2015-06-06T05:26:31Z</time>
      </trkpt>
      <trkpt lat="31.6620157" lon="34.9756627">
        <ele>380.6</ele>
        <time>2015-06-06T05:26:34Z</time>
      </trkpt>
      <trkpt lat="31.6619998" lon="34.9757128">
        <ele>380.6</ele>
        <time>2015-06-06T05:26:36Z</time>
      </trkpt>
      <trkpt lat="31.6619948" lon="34.9758593">
        <ele>380.8</ele>
        <time>2015-06-06T05:26:41Z</time>
      </trkpt>
      <trkpt lat="31.661962" lon="34.9760306">
        <ele>381.0</ele>
        <time>2015-06-06T05:26:48Z</time>
      </trkpt>
      <trkpt lat="31.6619519" lon="34.9761085">
        <ele>381.1</ele>
        <time>2015-06-06T05:26:51Z</time>
      </trkpt>
      <trkpt lat="31.6619383" lon="34.9761601">
        <ele>381.1</ele>
        <time>2015-06-06T05:26:53Z</time>
      </trkpt>
      <trkpt lat="31.6619094" lon="34.9762179">
        <ele>381.6</ele>
        <time>2015-06-06T05:26:56Z</time>
      </trkpt>
      <trkpt lat="31.6618791" lon="34.9762708">
        <ele>383.2</ele>
        <time>2015-06-06T05:26:59Z</time>
      </trkpt>
      <trkpt lat="31.6618674" lon="34.976337">
        <ele>383.2</ele>
        <time>2015-06-06T05:27:02Z</time>
      </trkpt>
      <trkpt lat="31.6618608" lon="34.9765098">
        <ele>384.5</ele>
        <time>2015-06-06T05:27:10Z</time>
      </trkpt>
      <trkpt lat="31.6618448" lon="34.9766214">
        <ele>385.7</ele>
        <time>2015-06-06T05:27:16Z</time>
      </trkpt>
      <trkpt lat="31.6617988" lon="34.9767267">
        <ele>386.3</ele>
        <time>2015-06-06T05:27:22Z</time>
      </trkpt>
      <trkpt lat="31.6617791" lon="34.9767909">
        <ele>387.1</ele>
        <time>2015-06-06T05:27:25Z</time>
      </trkpt>
      <trkpt lat="31.6617179" lon="34.9769396">
        <ele>387.9</ele>
        <time>2015-06-06T05:27:33Z</time>
      </trkpt>
      <trkpt lat="31.6616911" lon="34.9769992">
        <ele>388.5</ele>
        <time>2015-06-06T05:27:37Z</time>
      </trkpt>
      <trkpt lat="31.6616651" lon="34.9771033">
        <ele>389.4</ele>
        <time>2015-06-06T05:27:44Z</time>
      </trkpt>
      <trkpt lat="31.661685" lon="34.9771518">
        <ele>390.4</ele>
        <time>2015-06-06T05:27:46Z</time>
      </trkpt>
      <trkpt lat="31.6616989" lon="34.9772172">
        <ele>390.4</ele>
        <time>2015-06-06T05:27:49Z</time>
      </trkpt>
      <trkpt lat="31.6616847" lon="34.9772861">
        <ele>391.6</ele>
        <time>2015-06-06T05:27:53Z</time>
      </trkpt>
      <trkpt lat="31.6616728" lon="34.977344">
        <ele>392.7</ele>
        <time>2015-06-06T05:27:56Z</time>
      </trkpt>
      <trkpt lat="31.6616715" lon="34.9774036">
        <ele>392.7</ele>
        <time>2015-06-06T05:27:59Z</time>
      </trkpt>
      <trkpt lat="31.6616855" lon="34.9774665">
        <ele>393.7</ele>
        <time>2015-06-06T05:28:02Z</time>
      </trkpt>
      <trkpt lat="31.6617089" lon="34.977514">
        <ele>393.7</ele>
        <time>2015-06-06T05:28:05Z</time>
      </trkpt>
      <trkpt lat="31.6617491" lon="34.9775612">
        <ele>394.3</ele>
        <time>2015-06-06T05:28:08Z</time>
      </trkpt>
      <trkpt lat="31.6618028" lon="34.9775899">
        <ele>394.3</ele>
        <time>2015-06-06T05:28:11Z</time>
      </trkpt>
      <trkpt lat="31.6618569" lon="34.977611">
        <ele>394.9</ele>
        <time>2015-06-06T05:28:14Z</time>
      </trkpt>
      <trkpt lat="31.661896" lon="34.9776534">
        <ele>395.3</ele>
        <time>2015-06-06T05:28:17Z</time>
      </trkpt>
      <trkpt lat="31.6619219" lon="34.9777003">
        <ele>395.4</ele>
        <time>2015-06-06T05:28:20Z</time>
      </trkpt>
      <trkpt lat="31.6618963" lon="34.9777596">
        <ele>395.6</ele>
        <time>2015-06-06T05:28:24Z</time>
      </trkpt>
      <trkpt lat="31.6618518" lon="34.9777713">
        <ele>395.7</ele>
        <time>2015-06-06T05:28:27Z</time>
      </trkpt>
      <trkpt lat="31.6617656" lon="34.9777615">
        <ele>395.9</ele>
        <time>2015-06-06T05:28:31Z</time>
      </trkpt>
      <trkpt lat="31.6617113" lon="34.9777772">
        <ele>395.9</ele>
        <time>2015-06-06T05:28:34Z</time>
      </trkpt>
      <trkpt lat="31.6616588" lon="34.9777968">
        <ele>396.0</ele>
        <time>2015-06-06T05:28:37Z</time>
      </trkpt>
      <trkpt lat="31.6615969" lon="34.9777804">
        <ele>396.1</ele>
        <time>2015-06-06T05:28:41Z</time>
      </trkpt>
      <trkpt lat="31.661557" lon="34.9777556">
        <ele>396.2</ele>
        <time>2015-06-06T05:28:43Z</time>
      </trkpt>
      <trkpt lat="31.6615077" lon="34.9777066">
        <ele>396.2</ele>
        <time>2015-06-06T05:28:46Z</time>
      </trkpt>
      <trkpt lat="31.6614316" lon="34.9776265">
        <ele>397.3</ele>
        <time>2015-06-06T05:28:52Z</time>
      </trkpt>
      <trkpt lat="31.6613482" lon="34.9775816">
        <ele>398.2</ele>
        <time>2015-06-06T05:28:57Z</time>
      </trkpt>
      <trkpt lat="31.6612594" lon="34.9775202">
        <ele>398.5</ele>
        <time>2015-06-06T05:29:02Z</time>
      </trkpt>
      <trkpt lat="31.6611629" lon="34.9774634">
        <ele>399.0</ele>
        <time>2015-06-06T05:29:07Z</time>
      </trkpt>
      <trkpt lat="31.6611162" lon="34.9774415">
        <ele>399.5</ele>
        <time>2015-06-06T05:29:10Z</time>
      </trkpt>
      <trkpt lat="31.6610679" lon="34.9774591">
        <ele>399.5</ele>
        <time>2015-06-06T05:29:13Z</time>
      </trkpt>
      <trkpt lat="31.6610212" lon="34.9774585">
        <ele>400.1</ele>
        <time>2015-06-06T05:29:16Z</time>
      </trkpt>
      <trkpt lat="31.6609744" lon="34.9774446">
        <ele>400.3</ele>
        <time>2015-06-06T05:29:20Z</time>
      </trkpt>
      <trkpt lat="31.66088" lon="34.9774379">
        <ele>401.6</ele>
        <time>2015-06-06T05:29:28Z</time>
      </trkpt>
      <trkpt lat="31.660839" lon="34.9774078">
        <ele>402.2</ele>
        <time>2015-06-06T05:29:31Z</time>
      </trkpt>
      <trkpt lat="31.6608047" lon="34.9774465">
        <ele>402.2</ele>
        <time>2015-06-06T05:29:34Z</time>
      </trkpt>
      <trkpt lat="31.6607677" lon="34.9775995">
        <ele>403.6</ele>
        <time>2015-06-06T05:29:42Z</time>
      </trkpt>
      <trkpt lat="31.660668" lon="34.9776339">
        <ele>404.5</ele>
        <time>2015-06-06T05:29:47Z</time>
      </trkpt>
      <trkpt lat="31.6606008" lon="34.9776509">
        <ele>405.2</ele>
        <time>2015-06-06T05:29:50Z</time>
      </trkpt>
      <trkpt lat="31.6605528" lon="34.977668">
        <ele>405.2</ele>
        <time>2015-06-06T05:29:52Z</time>
      </trkpt>
      <trkpt lat="31.6605063" lon="34.9777161">
        <ele>406.2</ele>
        <time>2015-06-06T05:29:54Z</time>
      </trkpt>
      <trkpt lat="31.6604814" lon="34.9777799">
        <ele>406.2</ele>
        <time>2015-06-06T05:29:56Z</time>
      </trkpt>
      <trkpt lat="31.6604686" lon="34.9778377">
        <ele>406.2</ele>
        <time>2015-06-06T05:29:58Z</time>
      </trkpt>
      <trkpt lat="31.6604454" lon="34.9778888">
        <ele>406.7</ele>
        <time>2015-06-06T05:30:00Z</time>
      </trkpt>
      <trkpt lat="31.6604104" lon="34.9779347">
        <ele>406.7</ele>
        <time>2015-06-06T05:30:02Z</time>
      </trkpt>
      <trkpt lat="31.6602998" lon="34.9780732">
        <ele>407.3</ele>
        <time>2015-06-06T05:30:07Z</time>
      </trkpt>
      <trkpt lat="31.6602185" lon="34.9782361">
        <ele>407.7</ele>
        <time>2015-06-06T05:30:11Z</time>
      </trkpt>
      <trkpt lat="31.6601794" lon="34.9783996">
        <ele>408.1</ele>
        <time>2015-06-06T05:30:15Z</time>
      </trkpt>
      <trkpt lat="31.6601543" lon="34.978576">
        <ele>408.3</ele>
        <time>2015-06-06T05:30:19Z</time>
      </trkpt>
      <trkpt lat="31.6601498" lon="34.9786557">
        <ele>408.4</ele>
        <time>2015-06-06T05:30:21Z</time>
      </trkpt>
      <trkpt lat="31.6601522" lon="34.9787295">
        <ele>408.4</ele>
        <time>2015-06-06T05:30:23Z</time>
      </trkpt>
      <trkpt lat="31.6601584" lon="34.9787999">
        <ele>408.4</ele>
        <time>2015-06-06T05:30:25Z</time>
      </trkpt>
      <trkpt lat="31.6601711" lon="34.9789165">
        <ele>408.5</ele>
        <time>2015-06-06T05:30:28Z</time>
      </trkpt>
      <trkpt lat="31.660152" lon="34.979024">
        <ele>408.6</ele>
        <time>2015-06-06T05:30:31Z</time>
      </trkpt>
      <trkpt lat="31.66013" lon="34.9792149">
        <ele>408.7</ele>
        <time>2015-06-06T05:30:36Z</time>
      </trkpt>
      <trkpt lat="31.6600779" lon="34.9793715">
        <ele>408.8</ele>
        <time>2015-06-06T05:30:40Z</time>
      </trkpt>
      <trkpt lat="31.6599921" lon="34.9795387">
        <ele>409.0</ele>
        <time>2015-06-06T05:30:44Z</time>
      </trkpt>
      <trkpt lat="31.6598766" lon="34.9796689">
        <ele>409.1</ele>
        <time>2015-06-06T05:30:48Z</time>
      </trkpt>
      <trkpt lat="31.6597261" lon="34.9797135">
        <ele>409.6</ele>
        <time>2015-06-06T05:30:51Z</time>
      </trkpt>
      <trkpt lat="31.6596274" lon="34.9797602">
        <ele>410.3</ele>
        <time>2015-06-06T05:30:54Z</time>
      </trkpt>
      <trkpt lat="31.6595178" lon="34.9797658">
        <ele>410.5</ele>
        <time>2015-06-06T05:30:56Z</time>
      </trkpt>
      <trkpt lat="31.6594246" lon="34.979776">
        <ele>411.6</ele>
        <time>2015-06-06T05:30:58Z</time>
      </trkpt>
      <trkpt lat="31.6593773" lon="34.9797865">
        <ele>411.6</ele>
        <time>2015-06-06T05:30:59Z</time>
      </trkpt>
      <trkpt lat="31.6593268" lon="34.9798005">
        <ele>411.6</ele>
        <time>2015-06-06T05:31:00Z</time>
      </trkpt>
      <trkpt lat="31.659271" lon="34.979832">
        <ele>411.6</ele>
        <time>2015-06-06T05:31:02Z</time>
      </trkpt>
      <trkpt lat="31.6592032" lon="34.9798547">
        <ele>411.9</ele>
        <time>2015-06-06T05:31:04Z</time>
      </trkpt>
      <trkpt lat="31.659149" lon="34.9798948">
        <ele>411.9</ele>
        <time>2015-06-06T05:31:06Z</time>
      </trkpt>
      <trkpt lat="31.6590353" lon="34.980016">
        <ele>412.1</ele>
        <time>2015-06-06T05:31:12Z</time>
      </trkpt>
      <trkpt lat="31.6590043" lon="34.9800574">
        <ele>412.2</ele>
        <time>2015-06-06T05:31:14Z</time>
      </trkpt>
      <trkpt lat="31.6589936" lon="34.9801183">
        <ele>412.2</ele>
        <time>2015-06-06T05:31:17Z</time>
      </trkpt>
      <trkpt lat="31.6589973" lon="34.980152">
        <ele>412.3</ele>
        <time>2015-06-06T05:31:20Z</time>
      </trkpt>
      <trkpt lat="31.6590245" lon="34.9801566">
        <ele>413.7</ele>
        <time>2015-06-06T05:31:24Z</time>
      </trkpt>
      <trkpt lat="31.6590245" lon="34.9801566">
        <time>2015-06-06T05:31:24Z</time>
      </trkpt>
    </trkseg>
    <trkseg>
      <trkpt lat="31.6590245" lon="34.9801566">
        <time>2015-06-06T05:47:09Z</time>
      </trkpt>
      <trkpt lat="31.6589597" lon="34.9802671">
        <ele>417.3</ele>
        <time>2015-06-06T05:47:10Z</time>
      </trkpt>
      <trkpt lat="31.6589322" lon="34.9804267">
        <ele>417.3</ele>
        <time>2015-06-06T05:47:19Z</time>
      </trkpt>
      <trkpt lat="31.6588935" lon="34.9805255">
        <ele>417.3</ele>
        <time>2015-06-06T05:47:24Z</time>
      </trkpt>
      <trkpt lat="31.6588839" lon="34.9805906">
        <ele>417.3</ele>
        <time>2015-06-06T05:47:27Z</time>
      </trkpt>
      <trkpt lat="31.6588837" lon="34.9806505">
        <ele>417.3</ele>
        <time>2015-06-06T05:47:29Z</time>
      </trkpt>
      <trkpt lat="31.6588963" lon="34.9808089">
        <ele>417.2</ele>
        <time>2015-06-06T05:47:34Z</time>
      </trkpt>
      <trkpt lat="31.6589097" lon="34.9808599">
        <ele>417.1</ele>
        <time>2015-06-06T05:47:36Z</time>
      </trkpt>
      <trkpt lat="31.6589287" lon="34.980908">
        <ele>417.1</ele>
        <time>2015-06-06T05:47:38Z</time>
      </trkpt>
      <trkpt lat="31.6589489" lon="34.9809568">
        <ele>417.1</ele>
        <time>2015-06-06T05:47:40Z</time>
      </trkpt>
      <trkpt lat="31.6589778" lon="34.98103">
        <ele>417.0</ele>
        <time>2015-06-06T05:47:43Z</time>
      </trkpt>
      <trkpt lat="31.6589927" lon="34.9810877">
        <ele>417.0</ele>
        <time>2015-06-06T05:47:45Z</time>
      </trkpt>
      <trkpt lat="31.6590242" lon="34.9811982">
        <ele>416.8</ele>
        <time>2015-06-06T05:47:49Z</time>
      </trkpt>
      <trkpt lat="31.6590312" lon="34.9812566">
        <ele>416.5</ele>
        <time>2015-06-06T05:47:51Z</time>
      </trkpt>
      <trkpt lat="31.6590319" lon="34.9813147">
        <ele>416.5</ele>
        <time>2015-06-06T05:47:53Z</time>
      </trkpt>
      <trkpt lat="31.6590278" lon="34.9813698">
        <ele>416.2</ele>
        <time>2015-06-06T05:47:55Z</time>
      </trkpt>
      <trkpt lat="31.6590204" lon="34.9814516">
        <ele>416.2</ele>
        <time>2015-06-06T05:47:58Z</time>
      </trkpt>
      <trkpt lat="31.6590066" lon="34.9815777">
        <ele>415.6</ele>
        <time>2015-06-06T05:48:03Z</time>
      </trkpt>
      <trkpt lat="31.6589885" lon="34.9816426">
        <ele>415.2</ele>
        <time>2015-06-06T05:48:06Z</time>
      </trkpt>
      <trkpt lat="31.6589654" lon="34.9817023">
        <ele>415.1</ele>
        <time>2015-06-06T05:48:09Z</time>
      </trkpt>
      <trkpt lat="31.6589667" lon="34.9817676">
        <ele>415.1</ele>
        <time>2015-06-06T05:48:12Z</time>
      </trkpt>
      <trkpt lat="31.6589979" lon="34.9818174">
        <ele>415.1</ele>
        <time>2015-06-06T05:48:15Z</time>
      </trkpt>
      <trkpt lat="31.6590393" lon="34.9818641">
        <ele>415.1</ele>
        <time>2015-06-06T05:48:18Z</time>
      </trkpt>
      <trkpt lat="31.6590809" lon="34.9818958">
        <ele>415.1</ele>
        <time>2015-06-06T05:48:21Z</time>
      </trkpt>
      <trkpt lat="31.6590998" lon="34.9819477">
        <ele>415.1</ele>
        <time>2015-06-06T05:48:24Z</time>
      </trkpt>
      <trkpt lat="31.6591364" lon="34.9820596">
        <ele>415.1</ele>
        <time>2015-06-06T05:48:30Z</time>
      </trkpt>
      <trkpt lat="31.6591526" lon="34.982174">
        <ele>415.1</ele>
        <time>2015-06-06T05:48:36Z</time>
      </trkpt>
      <trkpt lat="31.6590645" lon="34.9823088">
        <ele>415.4</ele>
        <time>2015-06-06T05:48:43Z</time>
      </trkpt>
      <trkpt lat="31.6590331" lon="34.9824085">
        <ele>415.9</ele>
        <time>2015-06-06T05:48:48Z</time>
      </trkpt>
      <trkpt lat="31.6590207" lon="34.9825704">
        <ele>416.7</ele>
        <time>2015-06-06T05:48:56Z</time>
      </trkpt>
      <trkpt lat="31.6590642" lon="34.9826255">
        <ele>417.3</ele>
        <time>2015-06-06T05:48:59Z</time>
      </trkpt>
      <trkpt lat="31.6591134" lon="34.9826678">
        <ele>417.3</ele>
        <time>2015-06-06T05:49:02Z</time>
      </trkpt>
      <trkpt lat="31.6591959" lon="34.9827533">
        <ele>417.7</ele>
        <time>2015-06-06T05:49:06Z</time>
      </trkpt>
      <trkpt lat="31.6592317" lon="34.9829063">
        <ele>418.0</ele>
        <time>2015-06-06T05:49:13Z</time>
      </trkpt>
      <trkpt lat="31.6592626" lon="34.9829582">
        <ele>418.1</ele>
        <time>2015-06-06T05:49:16Z</time>
      </trkpt>
      <trkpt lat="31.6592758" lon="34.9830151">
        <ele>418.2</ele>
        <time>2015-06-06T05:49:19Z</time>
      </trkpt>
      <trkpt lat="31.6592612" lon="34.983078">
        <ele>418.3</ele>
        <time>2015-06-06T05:49:22Z</time>
      </trkpt>
      <trkpt lat="31.6592177" lon="34.9831841">
        <ele>418.5</ele>
        <time>2015-06-06T05:49:28Z</time>
      </trkpt>
      <trkpt lat="31.6591916" lon="34.9832886">
        <ele>418.6</ele>
        <time>2015-06-06T05:49:33Z</time>
      </trkpt>
      <trkpt lat="31.6591432" lon="34.9833435">
        <ele>418.7</ele>
        <time>2015-06-06T05:49:36Z</time>
      </trkpt>
      <trkpt lat="31.659097" lon="34.9833769">
        <ele>418.7</ele>
        <time>2015-06-06T05:49:38Z</time>
      </trkpt>
      <trkpt lat="31.6590685" lon="34.9834339">
        <ele>418.7</ele>
        <time>2015-06-06T05:49:41Z</time>
      </trkpt>
      <trkpt lat="31.6590689" lon="34.9835024">
        <ele>418.7</ele>
        <time>2015-06-06T05:49:44Z</time>
      </trkpt>
      <trkpt lat="31.6591427" lon="34.9836351">
        <ele>418.7</ele>
        <time>2015-06-06T05:49:49Z</time>
      </trkpt>
      <trkpt lat="31.6591627" lon="34.983683">
        <ele>418.7</ele>
        <time>2015-06-06T05:49:51Z</time>
      </trkpt>
      <trkpt lat="31.6591797" lon="34.983742">
        <ele>418.7</ele>
        <time>2015-06-06T05:49:53Z</time>
      </trkpt>
      <trkpt lat="31.6592209" lon="34.9839045">
        <ele>418.7</ele>
        <time>2015-06-06T05:49:57Z</time>
      </trkpt>
      <trkpt lat="31.6592489" lon="34.9840757">
        <ele>418.7</ele>
        <time>2015-06-06T05:50:01Z</time>
      </trkpt>
      <trkpt lat="31.6593326" lon="34.9842422">
        <ele>418.7</ele>
        <time>2015-06-06T05:50:05Z</time>
      </trkpt>
      <trkpt lat="31.65938" lon="34.9843155">
        <ele>418.6</ele>
        <time>2015-06-06T05:50:07Z</time>
      </trkpt>
      <trkpt lat="31.6593706" lon="34.9843906">
        <ele>418.6</ele>
        <time>2015-06-06T05:50:09Z</time>
      </trkpt>
      <trkpt lat="31.659412" lon="34.9845511">
        <ele>418.4</ele>
        <time>2015-06-06T05:50:14Z</time>
      </trkpt>
      <trkpt lat="31.6595599" lon="34.9846249">
        <ele>418.2</ele>
        <time>2015-06-06T05:50:19Z</time>
      </trkpt>
      <trkpt lat="31.6596196" lon="34.9846489">
        <ele>418.0</ele>
        <time>2015-06-06T05:50:21Z</time>
      </trkpt>
      <trkpt lat="31.6596631" lon="34.9847081">
        <ele>418.0</ele>
        <time>2015-06-06T05:50:23Z</time>
      </trkpt>
      <trkpt lat="31.6597792" lon="34.9848449">
        <ele>417.9</ele>
        <time>2015-06-06T05:50:27Z</time>
      </trkpt>
      <trkpt lat="31.6598556" lon="34.9849761">
        <ele>417.8</ele>
        <time>2015-06-06T05:50:30Z</time>
      </trkpt>
      <trkpt lat="31.659838" lon="34.9850822">
        <ele>417.7</ele>
        <time>2015-06-06T05:50:33Z</time>
      </trkpt>
      <trkpt lat="31.6597852" lon="34.9852349">
        <ele>417.5</ele>
        <time>2015-06-06T05:50:37Z</time>
      </trkpt>
      <trkpt lat="31.6596706" lon="34.9852888">
        <ele>417.1</ele>
        <time>2015-06-06T05:50:40Z</time>
      </trkpt>
      <trkpt lat="31.6596107" lon="34.9853158">
        <ele>416.2</ele>
        <time>2015-06-06T05:50:42Z</time>
      </trkpt>
      <trkpt lat="31.659573" lon="34.9853736">
        <ele>416.2</ele>
        <time>2015-06-06T05:50:44Z</time>
      </trkpt>
      <trkpt lat="31.6595555" lon="34.9854429">
        <ele>416.2</ele>
        <time>2015-06-06T05:50:46Z</time>
      </trkpt>
      <trkpt lat="31.6594499" lon="34.9855763">
        <ele>416.0</ele>
        <time>2015-06-06T05:50:50Z</time>
      </trkpt>
      <trkpt lat="31.6593037" lon="34.9856222">
        <ele>415.6</ele>
        <time>2015-06-06T05:50:53Z</time>
      </trkpt>
      <trkpt lat="31.6591905" lon="34.9856091">
        <ele>415.1</ele>
        <time>2015-06-06T05:50:56Z</time>
      </trkpt>
      <trkpt lat="31.6590835" lon="34.985552">
        <ele>413.7</ele>
        <time>2015-06-06T05:51:01Z</time>
      </trkpt>
      <trkpt lat="31.659022" lon="34.9855664">
        <ele>411.5</ele>
        <time>2015-06-06T05:51:03Z</time>
      </trkpt>
      <trkpt lat="31.658864" lon="34.9856099">
        <ele>411.5</ele>
        <time>2015-06-06T05:51:07Z</time>
      </trkpt>
      <trkpt lat="31.6587647" lon="34.9856218">
        <ele>410.9</ele>
        <time>2015-06-06T05:51:10Z</time>
      </trkpt>
      <trkpt lat="31.6586781" lon="34.9856251">
        <ele>409.3</ele>
        <time>2015-06-06T05:51:12Z</time>
      </trkpt>
      <trkpt lat="31.6586125" lon="34.9856425">
        <ele>409.3</ele>
        <time>2015-06-06T05:51:14Z</time>
      </trkpt>
      <trkpt lat="31.6585691" lon="34.9856697">
        <ele>409.3</ele>
        <time>2015-06-06T05:51:15Z</time>
      </trkpt>
      <trkpt lat="31.6584862" lon="34.9858294">
        <ele>408.7</ele>
        <time>2015-06-06T05:51:19Z</time>
      </trkpt>
      <trkpt lat="31.6583499" lon="34.9859306">
        <ele>406.7</ele>
        <time>2015-06-06T05:51:23Z</time>
      </trkpt>
      <trkpt lat="31.6581991" lon="34.9860456">
        <ele>405.3</ele>
        <time>2015-06-06T05:51:27Z</time>
      </trkpt>
      <trkpt lat="31.6580678" lon="34.9861418">
        <ele>404.7</ele>
        <time>2015-06-06T05:51:30Z</time>
      </trkpt>
      <trkpt lat="31.6579314" lon="34.9861998">
        <ele>404.4</ele>
        <time>2015-06-06T05:51:33Z</time>
      </trkpt>
      <trkpt lat="31.6578202" lon="34.9863198">
        <ele>404.0</ele>
        <time>2015-06-06T05:51:36Z</time>
      </trkpt>
      <trkpt lat="31.6577304" lon="34.9864934">
        <ele>403.1</ele>
        <time>2015-06-06T05:51:40Z</time>
      </trkpt>
      <trkpt lat="31.6576321" lon="34.986628">
        <ele>402.2</ele>
        <time>2015-06-06T05:51:43Z</time>
      </trkpt>
      <trkpt lat="31.6575121" lon="34.9867249">
        <ele>401.1</ele>
        <time>2015-06-06T05:51:45Z</time>
      </trkpt>
      <trkpt lat="31.6573531" lon="34.9868164">
        <ele>397.4</ele>
        <time>2015-06-06T05:51:48Z</time>
      </trkpt>
      <trkpt lat="31.6572373" lon="34.9869128">
        <ele>393.9</ele>
        <time>2015-06-06T05:51:52Z</time>
      </trkpt>
      <trkpt lat="31.6571573" lon="34.9870053">
        <ele>392.1</ele>
        <time>2015-06-06T05:51:56Z</time>
      </trkpt>
      <trkpt lat="31.6571077" lon="34.9870314">
        <ele>389.4</ele>
        <time>2015-06-06T05:51:59Z</time>
      </trkpt>
      <trkpt lat="31.6570578" lon="34.9870747">
        <ele>389.4</ele>
        <time>2015-06-06T05:52:02Z</time>
      </trkpt>
      <trkpt lat="31.6570222" lon="34.9871142">
        <ele>385.8</ele>
        <time>2015-06-06T05:52:05Z</time>
      </trkpt>
      <trkpt lat="31.6569309" lon="34.9871867">
        <ele>385.6</ele>
        <time>2015-06-06T05:52:11Z</time>
      </trkpt>
      <trkpt lat="31.6568865" lon="34.9871968">
        <ele>385.6</ele>
        <time>2015-06-06T05:52:13Z</time>
      </trkpt>
      <trkpt lat="31.6568414" lon="34.9871891">
        <ele>385.6</ele>
        <time>2015-06-06T05:52:15Z</time>
      </trkpt>
      <trkpt lat="31.6567942" lon="34.9871806">
        <ele>385.6</ele>
        <time>2015-06-06T05:52:17Z</time>
      </trkpt>
      <trkpt lat="31.6567451" lon="34.9871759">
        <ele>385.6</ele>
        <time>2015-06-06T05:52:19Z</time>
      </trkpt>
      <trkpt lat="31.656693" lon="34.9871808">
        <ele>385.6</ele>
        <time>2015-06-06T05:52:21Z</time>
      </trkpt>
      <trkpt lat="31.6565921" lon="34.9871909">
        <ele>385.6</ele>
        <time>2015-06-06T05:52:25Z</time>
      </trkpt>
      <trkpt lat="31.656533" lon="34.987207">
        <ele>385.6</ele>
        <time>2015-06-06T05:52:28Z</time>
      </trkpt>
      <trkpt lat="31.6564859" lon="34.9872415">
        <ele>385.6</ele>
        <time>2015-06-06T05:52:31Z</time>
      </trkpt>
      <trkpt lat="31.656416" lon="34.9873129">
        <ele>387.1</ele>
        <time>2015-06-06T05:52:36Z</time>
      </trkpt>
      <trkpt lat="31.6563533" lon="34.9873395">
        <ele>388.2</ele>
        <time>2015-06-06T05:52:40Z</time>
      </trkpt>
      <trkpt lat="31.6562501" lon="34.9873137">
        <ele>388.8</ele>
        <time>2015-06-06T05:52:44Z</time>
      </trkpt>
      <trkpt lat="31.6561858" lon="34.9872935">
        <ele>389.1</ele>
        <time>2015-06-06T05:52:46Z</time>
      </trkpt>
      <trkpt lat="31.6561295" lon="34.987301">
        <ele>389.1</ele>
        <time>2015-06-06T05:52:48Z</time>
      </trkpt>
      <trkpt lat="31.6560873" lon="34.987326">
        <ele>389.1</ele>
        <time>2015-06-06T05:52:50Z</time>
      </trkpt>
      <trkpt lat="31.6560508" lon="34.9873699">
        <ele>389.5</ele>
        <time>2015-06-06T05:52:52Z</time>
      </trkpt>
      <trkpt lat="31.6560226" lon="34.9874179">
        <ele>389.5</ele>
        <time>2015-06-06T05:52:54Z</time>
      </trkpt>
      <trkpt lat="31.6559978" lon="34.9874648">
        <ele>389.5</ele>
        <time>2015-06-06T05:52:56Z</time>
      </trkpt>
      <trkpt lat="31.6559702" lon="34.9875118">
        <ele>389.7</ele>
        <time>2015-06-06T05:52:58Z</time>
      </trkpt>
      <trkpt lat="31.6559312" lon="34.987558">
        <ele>389.7</ele>
        <time>2015-06-06T05:53:00Z</time>
      </trkpt>
      <trkpt lat="31.6558339" lon="34.9876727">
        <ele>390.0</ele>
        <time>2015-06-06T05:53:06Z</time>
      </trkpt>
      <trkpt lat="31.6558094" lon="34.9877172">
        <ele>390.2</ele>
        <time>2015-06-06T05:53:08Z</time>
      </trkpt>
      <trkpt lat="31.6557735" lon="34.987759">
        <ele>390.2</ele>
        <time>2015-06-06T05:53:10Z</time>
      </trkpt>
      <trkpt lat="31.6556675" lon="34.9878805">
        <ele>390.5</ele>
        <time>2015-06-06T05:53:16Z</time>
      </trkpt>
      <trkpt lat="31.6556011" lon="34.9879789">
        <ele>390.7</ele>
        <time>2015-06-06T05:53:21Z</time>
      </trkpt>
      <trkpt lat="31.6555787" lon="34.988026">
        <ele>391.0</ele>
        <time>2015-06-06T05:53:23Z</time>
      </trkpt>
      <trkpt lat="31.6555653" lon="34.9880777">
        <ele>391.0</ele>
        <time>2015-06-06T05:53:25Z</time>
      </trkpt>
      <trkpt lat="31.6555492" lon="34.9881515">
        <ele>391.5</ele>
        <time>2015-06-06T05:53:28Z</time>
      </trkpt>
      <trkpt lat="31.6555332" lon="34.9882032">
        <ele>391.5</ele>
        <time>2015-06-06T05:53:30Z</time>
      </trkpt>
      <trkpt lat="31.6554573" lon="34.988342">
        <ele>392.0</ele>
        <time>2015-06-06T05:53:35Z</time>
      </trkpt>
      <trkpt lat="31.6554282" lon="34.9884125">
        <ele>392.5</ele>
        <time>2015-06-06T05:53:37Z</time>
      </trkpt>
      <trkpt lat="31.6554161" lon="34.9884828">
        <ele>392.5</ele>
        <time>2015-06-06T05:53:39Z</time>
      </trkpt>
      <trkpt lat="31.6554091" lon="34.9885453">
        <ele>392.5</ele>
        <time>2015-06-06T05:53:41Z</time>
      </trkpt>
      <trkpt lat="31.6553943" lon="34.9886063">
        <ele>393.3</ele>
        <time>2015-06-06T05:53:43Z</time>
      </trkpt>
      <trkpt lat="31.6553658" lon="34.9886638">
        <ele>393.3</ele>
        <time>2015-06-06T05:53:45Z</time>
      </trkpt>
      <trkpt lat="31.6553014" lon="34.988816">
        <ele>393.7</ele>
        <time>2015-06-06T05:53:50Z</time>
      </trkpt>
      <trkpt lat="31.6552225" lon="34.9889558">
        <ele>394.0</ele>
        <time>2015-06-06T05:53:54Z</time>
      </trkpt>
      <trkpt lat="31.655147" lon="34.9890931">
        <ele>394.4</ele>
        <time>2015-06-06T05:53:58Z</time>
      </trkpt>
      <trkpt lat="31.6550682" lon="34.9892448">
        <ele>394.6</ele>
        <time>2015-06-06T05:54:02Z</time>
      </trkpt>
      <trkpt lat="31.6550089" lon="34.9893869">
        <ele>394.7</ele>
        <time>2015-06-06T05:54:06Z</time>
      </trkpt>
      <trkpt lat="31.6549399" lon="34.9895311">
        <ele>394.8</ele>
        <time>2015-06-06T05:54:10Z</time>
      </trkpt>
      <trkpt lat="31.6549168" lon="34.9895968">
        <ele>394.9</ele>
        <time>2015-06-06T05:54:12Z</time>
      </trkpt>
      <trkpt lat="31.6548845" lon="34.9896676">
        <ele>394.9</ele>
        <time>2015-06-06T05:54:14Z</time>
      </trkpt>
      <trkpt lat="31.6548404" lon="34.989719">
        <ele>395.0</ele>
        <time>2015-06-06T05:54:16Z</time>
      </trkpt>
      <trkpt lat="31.6547868" lon="34.9897661">
        <ele>395.0</ele>
        <time>2015-06-06T05:54:18Z</time>
      </trkpt>
      <trkpt lat="31.6546596" lon="34.9898458">
        <ele>395.0</ele>
        <time>2015-06-06T05:54:21Z</time>
      </trkpt>
      <trkpt lat="31.6544919" lon="34.9899286">
        <ele>395.0</ele>
        <time>2015-06-06T05:54:24Z</time>
      </trkpt>
      <trkpt lat="31.654403" lon="34.9900373">
        <ele>395.2</ele>
        <time>2015-06-06T05:54:26Z</time>
      </trkpt>
      <trkpt lat="31.6543387" lon="34.9901284">
        <ele>395.2</ele>
        <time>2015-06-06T05:54:28Z</time>
      </trkpt>
      <trkpt lat="31.6543125" lon="34.9901741">
        <ele>395.2</ele>
        <time>2015-06-06T05:54:29Z</time>
      </trkpt>
      <trkpt lat="31.6542052" lon="34.9903259">
        <ele>395.2</ele>
        <time>2015-06-06T05:54:33Z</time>
      </trkpt>
      <trkpt lat="31.6540631" lon="34.9904182">
        <ele>395.3</ele>
        <time>2015-06-06T05:54:36Z</time>
      </trkpt>
      <trkpt lat="31.6539275" lon="34.990508">
        <ele>395.3</ele>
        <time>2015-06-06T05:54:39Z</time>
      </trkpt>
      <trkpt lat="31.6538107" lon="34.9906182">
        <ele>395.5</ele>
        <time>2015-06-06T05:54:42Z</time>
      </trkpt>
      <trkpt lat="31.6537202" lon="34.9907731">
        <ele>395.6</ele>
        <time>2015-06-06T05:54:45Z</time>
      </trkpt>
      <trkpt lat="31.6536224" lon="34.9909324">
        <ele>395.6</ele>
        <time>2015-06-06T05:54:48Z</time>
      </trkpt>
      <trkpt lat="31.6535337" lon="34.9910662">
        <ele>395.7</ele>
        <time>2015-06-06T05:54:51Z</time>
      </trkpt>
      <trkpt lat="31.6534344" lon="34.9912345">
        <ele>395.8</ele>
        <time>2015-06-06T05:54:55Z</time>
      </trkpt>
      <trkpt lat="31.6533345" lon="34.9913603">
        <ele>395.8</ele>
        <time>2015-06-06T05:54:58Z</time>
      </trkpt>
      <trkpt lat="31.6532477" lon="34.9914987">
        <ele>395.8</ele>
        <time>2015-06-06T05:55:02Z</time>
      </trkpt>
      <trkpt lat="31.6531988" lon="34.991526">
        <ele>395.6</ele>
        <time>2015-06-06T05:55:05Z</time>
      </trkpt>
      <trkpt lat="31.6531981" lon="34.9915297">
        <ele>391.0</ele>
        <time>2015-06-06T05:55:09Z</time>
      </trkpt>
      <trkpt lat="31.6531981" lon="34.9915297">
        <time>2015-06-06T05:55:09Z</time>
      </trkpt>
    </trkseg>
    <trkseg>
      <trkpt lat="31.6531981" lon="34.9915297">
        <time>2015-06-06T05:55:18Z</time>
      </trkpt>
      <trkpt lat="31.6530631" lon="34.9914986">
        <ele>394.9</ele>
        <time>2015-06-06T05:55:19Z</time>
      </trkpt>
      <trkpt lat="31.6529666" lon="34.9914583">
        <ele>394.1</ele>
        <time>2015-06-06T05:55:22Z</time>
      </trkpt>
      <trkpt lat="31.6528617" lon="34.9913972">
        <ele>393.5</ele>
        <time>2015-06-06T05:55:25Z</time>
      </trkpt>
      <trkpt lat="31.6527656" lon="34.9912953">
        <ele>391.7</ele>
        <time>2015-06-06T05:55:28Z</time>
      </trkpt>
      <trkpt lat="31.6526667" lon="34.9911522">
        <ele>391.0</ele>
        <time>2015-06-06T05:55:32Z</time>
      </trkpt>
      <trkpt lat="31.6526119" lon="34.9911142">
        <ele>390.8</ele>
        <time>2015-06-06T05:55:34Z</time>
      </trkpt>
      <trkpt lat="31.6525699" lon="34.9911342">
        <ele>390.8</ele>
        <time>2015-06-06T05:55:37Z</time>
      </trkpt>
      <trkpt lat="31.6525531" lon="34.9912471">
        <ele>390.6</ele>
        <time>2015-06-06T05:55:42Z</time>
      </trkpt>
      <trkpt lat="31.6525528" lon="34.99131">
        <ele>390.5</ele>
        <time>2015-06-06T05:55:45Z</time>
      </trkpt>
      <trkpt lat="31.6525401" lon="34.9913734">
        <ele>390.5</ele>
        <time>2015-06-06T05:55:48Z</time>
      </trkpt>
      <trkpt lat="31.6524965" lon="34.9914815">
        <ele>390.5</ele>
        <time>2015-06-06T05:55:54Z</time>
      </trkpt>
      <trkpt lat="31.6524609" lon="34.9915322">
        <ele>390.6</ele>
        <time>2015-06-06T05:55:57Z</time>
      </trkpt>
      <trkpt lat="31.6524069" lon="34.9915664">
        <ele>390.6</ele>
        <time>2015-06-06T05:56:00Z</time>
      </trkpt>
      <trkpt lat="31.652326" lon="34.9915888">
        <ele>390.7</ele>
        <time>2015-06-06T05:56:04Z</time>
      </trkpt>
      <trkpt lat="31.6522279" lon="34.9916226">
        <ele>390.8</ele>
        <time>2015-06-06T05:56:09Z</time>
      </trkpt>
      <trkpt lat="31.6521354" lon="34.9916352">
        <ele>390.9</ele>
        <time>2015-06-06T05:56:14Z</time>
      </trkpt>
      <trkpt lat="31.6519811" lon="34.9916609">
        <ele>391.8</ele>
        <time>2015-06-06T05:56:21Z</time>
      </trkpt>
      <trkpt lat="31.6519349" lon="34.9916948">
        <ele>392.9</ele>
        <time>2015-06-06T05:56:24Z</time>
      </trkpt>
      <trkpt lat="31.6519016" lon="34.9917358">
        <ele>392.9</ele>
        <time>2015-06-06T05:56:27Z</time>
      </trkpt>
      <trkpt lat="31.6518707" lon="34.9917763">
        <ele>393.7</ele>
        <time>2015-06-06T05:56:30Z</time>
      </trkpt>
      <trkpt lat="31.6518345" lon="34.9918134">
        <ele>394.3</ele>
        <time>2015-06-06T05:56:33Z</time>
      </trkpt>
      <trkpt lat="31.6518013" lon="34.9918634">
        <ele>394.9</ele>
        <time>2015-06-06T05:56:37Z</time>
      </trkpt>
      <trkpt lat="31.6517899" lon="34.9919197">
        <ele>394.9</ele>
        <time>2015-06-06T05:56:40Z</time>
      </trkpt>
      <trkpt lat="31.6518015" lon="34.9920301">
        <ele>395.7</ele>
        <time>2015-06-06T05:56:45Z</time>
      </trkpt>
      <trkpt lat="31.6518062" lon="34.9921422">
        <ele>396.5</ele>
        <time>2015-06-06T05:56:51Z</time>
      </trkpt>
      <trkpt lat="31.6518108" lon="34.9922724">
        <ele>398.1</ele>
        <time>2015-06-06T05:56:58Z</time>
      </trkpt>
      <trkpt lat="31.6518296" lon="34.9923911">
        <ele>399.3</ele>
        <time>2015-06-06T05:57:04Z</time>
      </trkpt>
      <trkpt lat="31.6518402" lon="34.9924639">
        <ele>400.0</ele>
        <time>2015-06-06T05:57:07Z</time>
      </trkpt>
      <trkpt lat="31.6518628" lon="34.9925332">
        <ele>400.0</ele>
        <time>2015-06-06T05:57:10Z</time>
      </trkpt>
      <trkpt lat="31.6518832" lon="34.992598">
        <ele>400.8</ele>
        <time>2015-06-06T05:57:13Z</time>
      </trkpt>
      <trkpt lat="31.6519343" lon="34.9927488">
        <ele>401.2</ele>
        <time>2015-06-06T05:57:20Z</time>
      </trkpt>
      <trkpt lat="31.6519597" lon="34.9928228">
        <ele>401.6</ele>
        <time>2015-06-06T05:57:23Z</time>
      </trkpt>
      <trkpt lat="31.6520079" lon="34.9929948">
        <ele>402.3</ele>
        <time>2015-06-06T05:57:30Z</time>
      </trkpt>
      <trkpt lat="31.6520203" lon="34.9931105">
        <ele>402.7</ele>
        <time>2015-06-06T05:57:35Z</time>
      </trkpt>
      <trkpt lat="31.6519852" lon="34.9932095">
        <ele>403.2</ele>
        <time>2015-06-06T05:57:40Z</time>
      </trkpt>
      <trkpt lat="31.6519987" lon="34.9932802">
        <ele>403.9</ele>
        <time>2015-06-06T05:57:43Z</time>
      </trkpt>
      <trkpt lat="31.6520226" lon="34.9933439">
        <ele>403.9</ele>
        <time>2015-06-06T05:57:46Z</time>
      </trkpt>
      <trkpt lat="31.6520736" lon="34.993494">
        <ele>405.0</ele>
        <time>2015-06-06T05:57:53Z</time>
      </trkpt>
      <trkpt lat="31.652097" lon="34.993564">
        <ele>405.9</ele>
        <time>2015-06-06T05:57:56Z</time>
      </trkpt>
      <trkpt lat="31.6521268" lon="34.9936871">
        <ele>406.4</ele>
        <time>2015-06-06T05:58:01Z</time>
      </trkpt>
      <trkpt lat="31.6521529" lon="34.9938521">
        <ele>407.9</ele>
        <time>2015-06-06T05:58:08Z</time>
      </trkpt>
      <trkpt lat="31.6521717" lon="34.993929">
        <ele>408.8</ele>
        <time>2015-06-06T05:58:11Z</time>
      </trkpt>
      <trkpt lat="31.6521785" lon="34.9940023">
        <ele>409.4</ele>
        <time>2015-06-06T05:58:14Z</time>
      </trkpt>
      <trkpt lat="31.6521932" lon="34.9940717">
        <ele>409.4</ele>
        <time>2015-06-06T05:58:17Z</time>
      </trkpt>
      <trkpt lat="31.652246" lon="34.9941779">
        <ele>409.9</ele>
        <time>2015-06-06T05:58:22Z</time>
      </trkpt>
      <trkpt lat="31.6522682" lon="34.9942984">
        <ele>410.2</ele>
        <time>2015-06-06T05:58:27Z</time>
      </trkpt>
      <trkpt lat="31.6522573" lon="34.9943685">
        <ele>410.9</ele>
        <time>2015-06-06T05:58:30Z</time>
      </trkpt>
      <trkpt lat="31.652232" lon="34.9944266">
        <ele>411.4</ele>
        <time>2015-06-06T05:58:33Z</time>
      </trkpt>
      <trkpt lat="31.6522295" lon="34.9944952">
        <ele>411.4</ele>
        <time>2015-06-06T05:58:36Z</time>
      </trkpt>
      <trkpt lat="31.6522573" lon="34.9946151">
        <ele>412.0</ele>
        <time>2015-06-06T05:58:41Z</time>
      </trkpt>
      <trkpt lat="31.6523022" lon="34.9947249">
        <ele>412.4</ele>
        <time>2015-06-06T05:58:45Z</time>
      </trkpt>
      <trkpt lat="31.6523239" lon="34.9947887">
        <ele>412.9</ele>
        <time>2015-06-06T05:58:47Z</time>
      </trkpt>
      <trkpt lat="31.6523351" lon="34.9948414">
        <ele>412.9</ele>
        <time>2015-06-06T05:58:49Z</time>
      </trkpt>
      <trkpt lat="31.6523534" lon="34.9950001">
        <ele>413.7</ele>
        <time>2015-06-06T05:58:56Z</time>
      </trkpt>
      <trkpt lat="31.652352" lon="34.995073">
        <ele>414.7</ele>
        <time>2015-06-06T05:59:00Z</time>
      </trkpt>
      <trkpt lat="31.6523253" lon="34.9951916">
        <ele>415.3</ele>
        <time>2015-06-06T05:59:06Z</time>
      </trkpt>
      <trkpt lat="31.652295" lon="34.9952476">
        <ele>415.6</ele>
        <time>2015-06-06T05:59:09Z</time>
      </trkpt>
      <trkpt lat="31.6522564" lon="34.9952921">
        <ele>415.8</ele>
        <time>2015-06-06T05:59:12Z</time>
      </trkpt>
      <trkpt lat="31.6522504" lon="34.9953579">
        <ele>415.8</ele>
        <time>2015-06-06T05:59:15Z</time>
      </trkpt>
      <trkpt lat="31.6522533" lon="34.9954156">
        <ele>416.3</ele>
        <time>2015-06-06T05:59:18Z</time>
      </trkpt>
      <trkpt lat="31.6522326" lon="34.9956005">
        <ele>417.0</ele>
        <time>2015-06-06T05:59:25Z</time>
      </trkpt>
      <trkpt lat="31.6522743" lon="34.9957634">
        <ele>417.5</ele>
        <time>2015-06-06T05:59:30Z</time>
      </trkpt>
      <trkpt lat="31.6522697" lon="34.9958358">
        <ele>418.7</ele>
        <time>2015-06-06T05:59:32Z</time>
      </trkpt>
      <trkpt lat="31.6522315" lon="34.9958894">
        <ele>418.7</ele>
        <time>2015-06-06T05:59:34Z</time>
      </trkpt>
      <trkpt lat="31.6521523" lon="34.9959415">
        <ele>419.2</ele>
        <time>2015-06-06T05:59:37Z</time>
      </trkpt>
      <trkpt lat="31.6520466" lon="34.9960179">
        <ele>419.5</ele>
        <time>2015-06-06T05:59:41Z</time>
      </trkpt>
      <trkpt lat="31.6519606" lon="34.9960609">
        <ele>419.8</ele>
        <time>2015-06-06T05:59:44Z</time>
      </trkpt>
      <trkpt lat="31.6518809" lon="34.9961817">
        <ele>420.1</ele>
        <time>2015-06-06T05:59:49Z</time>
      </trkpt>
      <trkpt lat="31.6517422" lon="34.9962202">
        <ele>420.2</ele>
        <time>2015-06-06T05:59:55Z</time>
      </trkpt>
      <trkpt lat="31.6516057" lon="34.9962644">
        <ele>420.2</ele>
        <time>2015-06-06T06:00:01Z</time>
      </trkpt>
      <trkpt lat="31.6514765" lon="34.9963627">
        <ele>420.4</ele>
        <time>2015-06-06T06:00:06Z</time>
      </trkpt>
      <trkpt lat="31.651418" lon="34.9964649">
        <ele>420.4</ele>
        <time>2015-06-06T06:00:10Z</time>
      </trkpt>
      <trkpt lat="31.6513714" lon="34.9965171">
        <ele>420.4</ele>
        <time>2015-06-06T06:00:13Z</time>
      </trkpt>
      <trkpt lat="31.6513184" lon="34.9965091">
        <ele>420.4</ele>
        <time>2015-06-06T06:00:15Z</time>
      </trkpt>
      <trkpt lat="31.6512638" lon="34.9965131">
        <ele>420.3</ele>
        <time>2015-06-06T06:00:17Z</time>
      </trkpt>
      <trkpt lat="31.6512098" lon="34.9965292">
        <ele>420.3</ele>
        <time>2015-06-06T06:00:19Z</time>
      </trkpt>
      <trkpt lat="31.6511296" lon="34.9965809">
        <ele>420.3</ele>
        <time>2015-06-06T06:00:21Z</time>
      </trkpt>
      <trkpt lat="31.6510747" lon="34.9966256">
        <ele>420.2</ele>
        <time>2015-06-06T06:00:23Z</time>
      </trkpt>
      <trkpt lat="31.6510205" lon="34.9966294">
        <ele>420.2</ele>
        <time>2015-06-06T06:00:25Z</time>
      </trkpt>
      <trkpt lat="31.6509273" lon="34.9966174">
        <ele>420.2</ele>
        <time>2015-06-06T06:00:29Z</time>
      </trkpt>
      <trkpt lat="31.6508381" lon="34.9967123">
        <ele>420.0</ele>
        <time>2015-06-06T06:00:34Z</time>
      </trkpt>
      <trkpt lat="31.6507507" lon="34.9967126">
        <ele>418.5</ele>
        <time>2015-06-06T06:00:38Z</time>
      </trkpt>
      <trkpt lat="31.6507215" lon="34.996755">
        <ele>418.5</ele>
        <time>2015-06-06T06:00:41Z</time>
      </trkpt>
      <trkpt lat="31.6506305" lon="34.9967935">
        <ele>417.8</ele>
        <time>2015-06-06T06:00:44Z</time>
      </trkpt>
      <trkpt lat="31.6505379" lon="34.9968404">
        <ele>417.7</ele>
        <time>2015-06-06T06:00:47Z</time>
      </trkpt>
      <trkpt lat="31.6504442" lon="34.9968042">
        <ele>417.6</ele>
        <time>2015-06-06T06:00:51Z</time>
      </trkpt>
      <trkpt lat="31.6503216" lon="34.9968139">
        <ele>417.0</ele>
        <time>2015-06-06T06:00:56Z</time>
      </trkpt>
      <trkpt lat="31.6502285" lon="34.9967745">
        <ele>416.3</ele>
        <time>2015-06-06T06:00:59Z</time>
      </trkpt>
      <trkpt lat="31.6501656" lon="34.9967516">
        <ele>415.3</ele>
        <time>2015-06-06T06:01:01Z</time>
      </trkpt>
      <trkpt lat="31.6501086" lon="34.9967433">
        <ele>415.3</ele>
        <time>2015-06-06T06:01:03Z</time>
      </trkpt>
      <trkpt lat="31.6500419" lon="34.9967392">
        <ele>415.3</ele>
        <time>2015-06-06T06:01:05Z</time>
      </trkpt>
      <trkpt lat="31.6499276" lon="34.9967394">
        <ele>414.5</ele>
        <time>2015-06-06T06:01:08Z</time>
      </trkpt>
      <trkpt lat="31.6498259" lon="34.99667">
        <ele>414.4</ele>
        <time>2015-06-06T06:01:11Z</time>
      </trkpt>
      <trkpt lat="31.6497655" lon="34.9966912">
        <ele>414.0</ele>
        <time>2015-06-06T06:01:13Z</time>
      </trkpt>
      <trkpt lat="31.6497637" lon="34.9967557">
        <ele>414.0</ele>
        <time>2015-06-06T06:01:15Z</time>
      </trkpt>
      <trkpt lat="31.6498099" lon="34.9968103">
        <ele>414.0</ele>
        <time>2015-06-06T06:01:17Z</time>
      </trkpt>
      <trkpt lat="31.6499232" lon="34.9969087">
        <ele>413.2</ele>
        <time>2015-06-06T06:01:21Z</time>
      </trkpt>
      <trkpt lat="31.6500675" lon="34.9970285">
        <ele>412.3</ele>
        <time>2015-06-06T06:01:25Z</time>
      </trkpt>
      <trkpt lat="31.6501131" lon="34.9970489">
        <ele>411.4</ele>
        <time>2015-06-06T06:01:26Z</time>
      </trkpt>
      <trkpt lat="31.6501665" lon="34.9970936">
        <ele>411.4</ele>
        <time>2015-06-06T06:01:28Z</time>
      </trkpt>
      <trkpt lat="31.6501665" lon="34.9971528">
        <ele>411.4</ele>
        <time>2015-06-06T06:01:30Z</time>
      </trkpt>
      <trkpt lat="31.6501035" lon="34.9971871">
        <ele>410.4</ele>
        <time>2015-06-06T06:01:32Z</time>
      </trkpt>
      <trkpt lat="31.6500375" lon="34.9971689">
        <ele>410.4</ele>
        <time>2015-06-06T06:01:34Z</time>
      </trkpt>
      <trkpt lat="31.6499449" lon="34.997092">
        <ele>409.9</ele>
        <time>2015-06-06T06:01:37Z</time>
      </trkpt>
      <trkpt lat="31.6498984" lon="34.9970622">
        <ele>408.5</ele>
        <time>2015-06-06T06:01:39Z</time>
      </trkpt>
      <trkpt lat="31.6498452" lon="34.9970412">
        <ele>408.5</ele>
        <time>2015-06-06T06:01:41Z</time>
      </trkpt>
      <trkpt lat="31.6497946" lon="34.9970371">
        <ele>408.5</ele>
        <time>2015-06-06T06:01:43Z</time>
      </trkpt>
      <trkpt lat="31.649747" lon="34.997062">
        <ele>403.9</ele>
        <time>2015-06-06T06:01:45Z</time>
      </trkpt>
      <trkpt lat="31.6497472" lon="34.9971314">
        <ele>403.9</ele>
        <time>2015-06-06T06:01:48Z</time>
      </trkpt>
      <trkpt lat="31.6497714" lon="34.9971772">
        <ele>403.2</ele>
        <time>2015-06-06T06:01:50Z</time>
      </trkpt>
      <trkpt lat="31.6497617" lon="34.9972298">
        <ele>403.2</ele>
        <time>2015-06-06T06:01:52Z</time>
      </trkpt>
      <trkpt lat="31.6497311" lon="34.9973859">
        <ele>402.8</ele>
        <time>2015-06-06T06:01:56Z</time>
      </trkpt>
      <trkpt lat="31.6498227" lon="34.997533">
        <ele>402.1</ele>
        <time>2015-06-06T06:01:58Z</time>
      </trkpt>
      <trkpt lat="31.6498546" lon="34.997705">
        <ele>400.9</ele>
        <time>2015-06-06T06:02:02Z</time>
      </trkpt>
      <trkpt lat="31.6497877" lon="34.9978793">
        <ele>400.3</ele>
        <time>2015-06-06T06:02:06Z</time>
      </trkpt>
      <trkpt lat="31.6497921" lon="34.9980733">
        <ele>400.1</ele>
        <time>2015-06-06T06:02:10Z</time>
      </trkpt>
      <trkpt lat="31.6497689" lon="34.9982969">
        <ele>399.7</ele>
        <time>2015-06-06T06:02:13Z</time>
      </trkpt>
      <trkpt lat="31.649742" lon="34.9984574">
        <ele>399.3</ele>
        <time>2015-06-06T06:02:15Z</time>
      </trkpt>
      <trkpt lat="31.6497176" lon="34.9985272">
        <ele>397.5</ele>
        <time>2015-06-06T06:02:17Z</time>
      </trkpt>
      <trkpt lat="31.6497126" lon="34.9986021">
        <ele>397.5</ele>
        <time>2015-06-06T06:02:20Z</time>
      </trkpt>
      <trkpt lat="31.6497126" lon="34.9986021">
        <ele>397.2</ele>
        <time>2015-06-06T06:02:21Z</time>
      </trkpt>
      <trkpt lat="31.6497126" lon="34.9986021">
        <ele>380.5</ele>
        <time>2015-06-06T06:02:24Z</time>
      </trkpt>
      <trkpt lat="31.6497126" lon="34.9986021">
        <time>2015-06-06T06:02:24Z</time>
      </trkpt>
    </trkseg>
    <trkseg>
      <trkpt lat="31.6497126" lon="34.9986021">
        <time>2015-06-06T06:03:33Z</time>
      </trkpt>
      <trkpt lat="31.6495913" lon="34.9985962">
        <ele>380.6</ele>
        <time>2015-06-06T06:03:34Z</time>
      </trkpt>
      <trkpt lat="31.6494772" lon="34.9985686">
        <ele>380.7</ele>
        <time>2015-06-06T06:03:41Z</time>
      </trkpt>
      <trkpt lat="31.649339" lon="34.9985245">
        <ele>380.7</ele>
        <time>2015-06-06T06:03:48Z</time>
      </trkpt>
      <trkpt lat="31.6492779" lon="34.9984311">
        <ele>380.9</ele>
        <time>2015-06-06T06:03:51Z</time>
      </trkpt>
      <trkpt lat="31.6492622" lon="34.9983483">
        <ele>381.0</ele>
        <time>2015-06-06T06:03:53Z</time>
      </trkpt>
      <trkpt lat="31.6492749" lon="34.998276">
        <ele>381.0</ele>
        <time>2015-06-06T06:03:55Z</time>
      </trkpt>
      <trkpt lat="31.6492893" lon="34.9982074">
        <ele>381.2</ele>
        <time>2015-06-06T06:03:57Z</time>
      </trkpt>
      <trkpt lat="31.6492885" lon="34.9981508">
        <ele>381.2</ele>
        <time>2015-06-06T06:03:59Z</time>
      </trkpt>
      <trkpt lat="31.6492768" lon="34.9980979">
        <ele>381.2</ele>
        <time>2015-06-06T06:04:01Z</time>
      </trkpt>
      <trkpt lat="31.6492685" lon="34.9980365">
        <ele>381.4</ele>
        <time>2015-06-06T06:04:03Z</time>
      </trkpt>
      <trkpt lat="31.6492692" lon="34.9979728">
        <ele>381.4</ele>
        <time>2015-06-06T06:04:06Z</time>
      </trkpt>
      <trkpt lat="31.6492833" lon="34.997897">
        <ele>381.6</ele>
        <time>2015-06-06T06:04:09Z</time>
      </trkpt>
      <trkpt lat="31.6492742" lon="34.9978245">
        <ele>381.6</ele>
        <time>2015-06-06T06:04:12Z</time>
      </trkpt>
      <trkpt lat="31.6492528" lon="34.9977041">
        <ele>381.9</ele>
        <time>2015-06-06T06:04:16Z</time>
      </trkpt>
      <trkpt lat="31.649243" lon="34.9975947">
        <ele>382.1</ele>
        <time>2015-06-06T06:04:21Z</time>
      </trkpt>
      <trkpt lat="31.649184" lon="34.9974892">
        <ele>383.9</ele>
        <time>2015-06-06T06:04:27Z</time>
      </trkpt>
      <trkpt lat="31.64916" lon="34.9974445">
        <ele>384.8</ele>
        <time>2015-06-06T06:04:30Z</time>
      </trkpt>
      <trkpt lat="31.6491413" lon="34.9973374">
        <ele>385.7</ele>
        <time>2015-06-06T06:04:38Z</time>
      </trkpt>
      <trkpt lat="31.649109" lon="34.9972818">
        <ele>385.7</ele>
        <time>2015-06-06T06:04:42Z</time>
      </trkpt>
      <trkpt lat="31.6490814" lon="34.9972293">
        <ele>386.9</ele>
        <time>2015-06-06T06:04:47Z</time>
      </trkpt>
      <trkpt lat="31.6490753" lon="34.9971089">
        <ele>388.5</ele>
        <time>2015-06-06T06:04:54Z</time>
      </trkpt>
      <trkpt lat="31.6491104" lon="34.9970496">
        <ele>389.7</ele>
        <time>2015-06-06T06:04:57Z</time>
      </trkpt>
      <trkpt lat="31.649122" lon="34.9969769">
        <ele>389.7</ele>
        <time>2015-06-06T06:05:00Z</time>
      </trkpt>
      <trkpt lat="31.6490859" lon="34.9968125">
        <ele>391.4</ele>
        <time>2015-06-06T06:05:08Z</time>
      </trkpt>
      <trkpt lat="31.6490541" lon="34.9967108">
        <ele>393.0</ele>
        <time>2015-06-06T06:05:14Z</time>
      </trkpt>
      <trkpt lat="31.6490008" lon="34.9967185">
        <ele>394.4</ele>
        <time>2015-06-06T06:05:18Z</time>
      </trkpt>
      <trkpt lat="31.648922" lon="34.9967904">
        <ele>395.1</ele>
        <time>2015-06-06T06:05:25Z</time>
      </trkpt>
      <trkpt lat="31.6488866" lon="34.9968237">
        <ele>395.6</ele>
        <time>2015-06-06T06:05:28Z</time>
      </trkpt>
      <trkpt lat="31.6488536" lon="34.9968764">
        <ele>396.7</ele>
        <time>2015-06-06T06:05:32Z</time>
      </trkpt>
      <trkpt lat="31.6488054" lon="34.9969057">
        <ele>397.1</ele>
        <time>2015-06-06T06:05:36Z</time>
      </trkpt>
      <trkpt lat="31.6487725" lon="34.9968577">
        <ele>397.8</ele>
        <time>2015-06-06T06:05:40Z</time>
      </trkpt>
      <trkpt lat="31.6487833" lon="34.9968022">
        <ele>398.5</ele>
        <time>2015-06-06T06:05:43Z</time>
      </trkpt>
      <trkpt lat="31.6488131" lon="34.9967014">
        <ele>400.3</ele>
        <time>2015-06-06T06:05:49Z</time>
      </trkpt>
      <trkpt lat="31.6488237" lon="34.9965936">
        <ele>401.5</ele>
        <time>2015-06-06T06:05:55Z</time>
      </trkpt>
      <trkpt lat="31.6488215" lon="34.9965319">
        <ele>402.2</ele>
        <time>2015-06-06T06:05:58Z</time>
      </trkpt>
      <trkpt lat="31.6488202" lon="34.9964646">
        <ele>402.5</ele>
        <time>2015-06-06T06:06:01Z</time>
      </trkpt>
      <trkpt lat="31.6488039" lon="34.9964053">
        <ele>402.5</ele>
        <time>2015-06-06T06:06:04Z</time>
      </trkpt>
      <trkpt lat="31.6487866" lon="34.996356">
        <ele>403.1</ele>
        <time>2015-06-06T06:06:08Z</time>
      </trkpt>
      <trkpt lat="31.64877" lon="34.9962938">
        <ele>403.1</ele>
        <time>2015-06-06T06:06:11Z</time>
      </trkpt>
      <trkpt lat="31.6487374" lon="34.9962297">
        <ele>403.3</ele>
        <time>2015-06-06T06:06:15Z</time>
      </trkpt>
      <trkpt lat="31.6487" lon="34.9961851">
        <ele>403.5</ele>
        <time>2015-06-06T06:06:18Z</time>
      </trkpt>
      <trkpt lat="31.6486805" lon="34.9961297">
        <ele>403.5</ele>
        <time>2015-06-06T06:06:21Z</time>
      </trkpt>
      <trkpt lat="31.6486641" lon="34.996047">
        <ele>403.9</ele>
        <time>2015-06-06T06:06:25Z</time>
      </trkpt>
      <trkpt lat="31.6486412" lon="34.9959878">
        <ele>404.1</ele>
        <time>2015-06-06T06:06:28Z</time>
      </trkpt>
      <trkpt lat="31.6486518" lon="34.9959011">
        <ele>405.3</ele>
        <time>2015-06-06T06:06:32Z</time>
      </trkpt>
      <trkpt lat="31.6486234" lon="34.995847">
        <ele>405.3</ele>
        <time>2015-06-06T06:06:35Z</time>
      </trkpt>
      <trkpt lat="31.6485486" lon="34.9957682">
        <ele>406.6</ele>
        <time>2015-06-06T06:06:41Z</time>
      </trkpt>
      <trkpt lat="31.6485188" lon="34.9957122">
        <ele>407.6</ele>
        <time>2015-06-06T06:06:44Z</time>
      </trkpt>
      <trkpt lat="31.6484795" lon="34.9956718">
        <ele>407.6</ele>
        <time>2015-06-06T06:06:47Z</time>
      </trkpt>
      <trkpt lat="31.6483665" lon="34.9955787">
        <ele>408.8</ele>
        <time>2015-06-06T06:06:56Z</time>
      </trkpt>
      <trkpt lat="31.6483303" lon="34.9955396">
        <ele>409.2</ele>
        <time>2015-06-06T06:06:59Z</time>
      </trkpt>
      <trkpt lat="31.6482574" lon="34.9954497">
        <ele>409.9</ele>
        <time>2015-06-06T06:07:06Z</time>
      </trkpt>
      <trkpt lat="31.6481832" lon="34.9953776">
        <ele>411.5</ele>
        <time>2015-06-06T06:07:12Z</time>
      </trkpt>
      <trkpt lat="31.6480893" lon="34.9953773">
        <ele>412.9</ele>
        <time>2015-06-06T06:07:19Z</time>
      </trkpt>
      <trkpt lat="31.6480328" lon="34.9953752">
        <ele>413.4</ele>
        <time>2015-06-06T06:07:23Z</time>
      </trkpt>
      <trkpt lat="31.6479828" lon="34.9953903">
        <ele>413.9</ele>
        <time>2015-06-06T06:07:26Z</time>
      </trkpt>
      <trkpt lat="31.6478916" lon="34.9953986">
        <ele>414.3</ele>
        <time>2015-06-06T06:07:31Z</time>
      </trkpt>
      <trkpt lat="31.6477539" lon="34.9954412">
        <ele>415.0</ele>
        <time>2015-06-06T06:07:39Z</time>
      </trkpt>
      <trkpt lat="31.6477034" lon="34.9954548">
        <ele>415.2</ele>
        <time>2015-06-06T06:07:42Z</time>
      </trkpt>
      <trkpt lat="31.6476547" lon="34.9954391">
        <ele>415.3</ele>
        <time>2015-06-06T06:07:45Z</time>
      </trkpt>
      <trkpt lat="31.6476207" lon="34.9954012">
        <ele>415.3</ele>
        <time>2015-06-06T06:07:47Z</time>
      </trkpt>
      <trkpt lat="31.647576" lon="34.9953714">
        <ele>415.7</ele>
        <time>2015-06-06T06:07:49Z</time>
      </trkpt>
      <trkpt lat="31.6475207" lon="34.9953569">
        <ele>415.7</ele>
        <time>2015-06-06T06:07:52Z</time>
      </trkpt>
      <trkpt lat="31.6474146" lon="34.9953469">
        <ele>416.8</ele>
        <time>2015-06-06T06:07:58Z</time>
      </trkpt>
      <trkpt lat="31.6473358" lon="34.995293">
        <ele>417.0</ele>
        <time>2015-06-06T06:08:01Z</time>
      </trkpt>
      <trkpt lat="31.6472061" lon="34.9952411">
        <ele>417.4</ele>
        <time>2015-06-06T06:08:05Z</time>
      </trkpt>
      <trkpt lat="31.6471166" lon="34.9951847">
        <ele>417.6</ele>
        <time>2015-06-06T06:08:08Z</time>
      </trkpt>
      <trkpt lat="31.6470648" lon="34.9951367">
        <ele>417.9</ele>
        <time>2015-06-06T06:08:10Z</time>
      </trkpt>
      <trkpt lat="31.6470135" lon="34.9950817">
        <ele>417.9</ele>
        <time>2015-06-06T06:08:13Z</time>
      </trkpt>
      <trkpt lat="31.6469745" lon="34.9950321">
        <ele>418.0</ele>
        <time>2015-06-06T06:08:16Z</time>
      </trkpt>
      <trkpt lat="31.6469205" lon="34.9949228">
        <ele>418.1</ele>
        <time>2015-06-06T06:08:23Z</time>
      </trkpt>
      <trkpt lat="31.6468615" lon="34.9947608">
        <ele>418.3</ele>
        <time>2015-06-06T06:08:31Z</time>
      </trkpt>
      <trkpt lat="31.6468271" lon="34.9946974">
        <ele>418.6</ele>
        <time>2015-06-06T06:08:34Z</time>
      </trkpt>
      <trkpt lat="31.6467851" lon="34.9946418">
        <ele>418.6</ele>
        <time>2015-06-06T06:08:37Z</time>
      </trkpt>
      <trkpt lat="31.6467387" lon="34.9946011">
        <ele>419.0</ele>
        <time>2015-06-06T06:08:40Z</time>
      </trkpt>
      <trkpt lat="31.6466818" lon="34.9945737">
        <ele>419.0</ele>
        <time>2015-06-06T06:08:43Z</time>
      </trkpt>
      <trkpt lat="31.6465471" lon="34.9945051">
        <ele>420.0</ele>
        <time>2015-06-06T06:08:51Z</time>
      </trkpt>
      <trkpt lat="31.6464276" lon="34.9944071">
        <ele>420.8</ele>
        <time>2015-06-06T06:08:59Z</time>
      </trkpt>
      <trkpt lat="31.6463363" lon="34.9943616">
        <ele>421.8</ele>
        <time>2015-06-06T06:09:04Z</time>
      </trkpt>
      <trkpt lat="31.6462884" lon="34.9943439">
        <ele>422.7</ele>
        <time>2015-06-06T06:09:06Z</time>
      </trkpt>
      <trkpt lat="31.6462312" lon="34.9943509">
        <ele>422.7</ele>
        <time>2015-06-06T06:09:09Z</time>
      </trkpt>
      <trkpt lat="31.6461769" lon="34.9943452">
        <ele>423.5</ele>
        <time>2015-06-06T06:09:12Z</time>
      </trkpt>
      <trkpt lat="31.6460868" lon="34.9943175">
        <ele>424.0</ele>
        <time>2015-06-06T06:09:17Z</time>
      </trkpt>
      <trkpt lat="31.6460294" lon="34.994294">
        <ele>425.1</ele>
        <time>2015-06-06T06:09:20Z</time>
      </trkpt>
      <trkpt lat="31.6459749" lon="34.9942966">
        <ele>425.1</ele>
        <time>2015-06-06T06:09:23Z</time>
      </trkpt>
      <trkpt lat="31.6458364" lon="34.9942718">
        <ele>425.7</ele>
        <time>2015-06-06T06:09:28Z</time>
      </trkpt>
      <trkpt lat="31.6457428" lon="34.994266">
        <ele>426.0</ele>
        <time>2015-06-06T06:09:31Z</time>
      </trkpt>
      <trkpt lat="31.6456878" lon="34.9942874">
        <ele>426.0</ele>
        <time>2015-06-06T06:09:33Z</time>
      </trkpt>
      <trkpt lat="31.6455966" lon="34.9942903">
        <ele>426.3</ele>
        <time>2015-06-06T06:09:37Z</time>
      </trkpt>
      <trkpt lat="31.6455375" lon="34.9942817">
        <ele>426.6</ele>
        <time>2015-06-06T06:09:39Z</time>
      </trkpt>
      <trkpt lat="31.6454883" lon="34.9942867">
        <ele>426.6</ele>
        <time>2015-06-06T06:09:41Z</time>
      </trkpt>
      <trkpt lat="31.6454317" lon="34.9943036">
        <ele>426.6</ele>
        <time>2015-06-06T06:09:43Z</time>
      </trkpt>
      <trkpt lat="31.6453113" lon="34.994347">
        <ele>426.9</ele>
        <time>2015-06-06T06:09:47Z</time>
      </trkpt>
      <trkpt lat="31.6452383" lon="34.99436">
        <ele>427.0</ele>
        <time>2015-06-06T06:09:49Z</time>
      </trkpt>
      <trkpt lat="31.6451612" lon="34.9943878">
        <ele>427.0</ele>
        <time>2015-06-06T06:09:51Z</time>
      </trkpt>
      <trkpt lat="31.6451104" lon="34.9944168">
        <ele>427.0</ele>
        <time>2015-06-06T06:09:53Z</time>
      </trkpt>
      <trkpt lat="31.6450185" lon="34.9943841">
        <ele>427.0</ele>
        <time>2015-06-06T06:09:57Z</time>
      </trkpt>
      <trkpt lat="31.6450025" lon="34.9943264">
        <ele>427.0</ele>
        <time>2015-06-06T06:09:59Z</time>
      </trkpt>
      <trkpt lat="31.6449905" lon="34.994264">
        <ele>427.0</ele>
        <time>2015-06-06T06:10:01Z</time>
      </trkpt>
      <trkpt lat="31.6450251" lon="34.9940772">
        <ele>427.0</ele>
        <time>2015-06-06T06:10:05Z</time>
      </trkpt>
      <trkpt lat="31.6450514" lon="34.993907">
        <ele>427.0</ele>
        <time>2015-06-06T06:10:10Z</time>
      </trkpt>
      <trkpt lat="31.6451197" lon="34.9938894">
        <ele>426.8</ele>
        <time>2015-06-06T06:10:12Z</time>
      </trkpt>
      <trkpt lat="31.6451677" lon="34.9938989">
        <ele>426.8</ele>
        <time>2015-06-06T06:10:14Z</time>
      </trkpt>
      <trkpt lat="31.6452495" lon="34.9938344">
        <ele>426.6</ele>
        <time>2015-06-06T06:10:20Z</time>
      </trkpt>
      <trkpt lat="31.6452915" lon="34.993789">
        <ele>425.9</ele>
        <time>2015-06-06T06:10:22Z</time>
      </trkpt>
      <trkpt lat="31.6453234" lon="34.9937379">
        <ele>425.9</ele>
        <time>2015-06-06T06:10:24Z</time>
      </trkpt>
      <trkpt lat="31.6453454" lon="34.9936871">
        <ele>425.9</ele>
        <time>2015-06-06T06:10:26Z</time>
      </trkpt>
      <trkpt lat="31.6454475" lon="34.9935767">
        <ele>424.6</ele>
        <time>2015-06-06T06:10:30Z</time>
      </trkpt>
      <trkpt lat="31.6455407" lon="34.9935323">
        <ele>421.8</ele>
        <time>2015-06-06T06:10:33Z</time>
      </trkpt>
      <trkpt lat="31.6456811" lon="34.9935069">
        <ele>420.1</ele>
        <time>2015-06-06T06:10:39Z</time>
      </trkpt>
      <trkpt lat="31.6457305" lon="34.9934843">
        <ele>418.7</ele>
        <time>2015-06-06T06:10:41Z</time>
      </trkpt>
      <trkpt lat="31.6457426" lon="34.9934862">
        <ele>418.6</ele>
        <time>2015-06-06T06:10:42Z</time>
      </trkpt>
      <trkpt lat="31.6457531" lon="34.9934885">
        <ele>413.8</ele>
        <time>2015-06-06T06:10:45Z</time>
      </trkpt>
      <trkpt lat="31.6457531" lon="34.9934885">
        <time>2015-06-06T06:10:45Z</time>
      </trkpt>
    </trkseg>
    <trkseg>
      <trkpt lat="31.6457531" lon="34.9934885">
        <time>2015-06-06T06:11:05Z</time>
      </trkpt>
      <trkpt lat="31.6458973" lon="34.9934319">
        <ele>414.9</ele>
        <time>2015-06-06T06:11:07Z</time>
      </trkpt>
      <trkpt lat="31.645941" lon="34.9934158">
        <ele>414.0</ele>
        <time>2015-06-06T06:11:08Z</time>
      </trkpt>
      <trkpt lat="31.6459859" lon="34.9933999">
        <ele>414.0</ele>
        <time>2015-06-06T06:11:09Z</time>
      </trkpt>
      <trkpt lat="31.6460313" lon="34.9933898">
        <ele>414.0</ele>
        <time>2015-06-06T06:11:10Z</time>
      </trkpt>
      <trkpt lat="31.6460765" lon="34.9933879">
        <ele>414.0</ele>
        <time>2015-06-06T06:11:11Z</time>
      </trkpt>
      <trkpt lat="31.646134" lon="34.9934261">
        <ele>414.0</ele>
        <time>2015-06-06T06:11:12Z</time>
      </trkpt>
      <trkpt lat="31.6462467" lon="34.9934263">
        <ele>413.8</ele>
        <time>2015-06-06T06:11:15Z</time>
      </trkpt>
      <trkpt lat="31.6463646" lon="34.9934267">
        <ele>413.8</ele>
        <time>2015-06-06T06:11:17Z</time>
      </trkpt>
      <trkpt lat="31.646511" lon="34.993477">
        <ele>413.8</ele>
        <time>2015-06-06T06:11:19Z</time>
      </trkpt>
      <trkpt lat="31.6466497" lon="34.9935092">
        <ele>413.7</ele>
        <time>2015-06-06T06:11:22Z</time>
      </trkpt>
      <trkpt lat="31.6467774" lon="34.9934926">
        <ele>413.7</ele>
        <time>2015-06-06T06:11:24Z</time>
      </trkpt>
      <trkpt lat="31.6469498" lon="34.9934704">
        <ele>413.7</ele>
        <time>2015-06-06T06:11:27Z</time>
      </trkpt>
      <trkpt lat="31.6470406" lon="34.9933459">
        <ele>413.7</ele>
        <time>2015-06-06T06:11:31Z</time>
      </trkpt>
      <trkpt lat="31.6469229" lon="34.9932304">
        <ele>413.7</ele>
        <time>2015-06-06T06:11:35Z</time>
      </trkpt>
      <trkpt lat="31.6468331" lon="34.9931662">
        <ele>413.7</ele>
        <time>2015-06-06T06:11:36Z</time>
      </trkpt>
      <trkpt lat="31.6466937" lon="34.9931081">
        <ele>413.6</ele>
        <time>2015-06-06T06:11:39Z</time>
      </trkpt>
      <trkpt lat="31.6466013" lon="34.9930936">
        <ele>413.3</ele>
        <time>2015-06-06T06:11:42Z</time>
      </trkpt>
      <trkpt lat="31.6466061" lon="34.9931174">
        <ele>413.2</ele>
        <time>2015-06-06T06:11:44Z</time>
      </trkpt>
      <trkpt lat="31.6466055" lon="34.9931157">
        <ele>412.3</ele>
        <time>2015-06-06T06:11:48Z</time>
      </trkpt>
      <trkpt lat="31.6466055" lon="34.9931157">
        <time>2015-06-06T06:11:48Z</time>
      </trkpt>
    </trkseg>
    <trkseg>
      <trkpt lat="31.6466055" lon="34.9931157">
        <time>2015-06-06T06:11:56Z</time>
      </trkpt>
      <trkpt lat="31.6464636" lon="34.9930973">
        <ele>412.3</ele>
        <time>2015-06-06T06:11:57Z</time>
      </trkpt>
      <trkpt lat="31.6463113" lon="34.9931061">
        <ele>411.9</ele>
        <time>2015-06-06T06:12:02Z</time>
      </trkpt>
      <trkpt lat="31.6462207" lon="34.9931109">
        <ele>411.8</ele>
        <time>2015-06-06T06:12:05Z</time>
      </trkpt>
      <trkpt lat="31.6460617" lon="34.9931167">
        <ele>411.6</ele>
        <time>2015-06-06T06:12:10Z</time>
      </trkpt>
      <trkpt lat="31.6458959" lon="34.9931491">
        <ele>411.4</ele>
        <time>2015-06-06T06:12:15Z</time>
      </trkpt>
      <trkpt lat="31.6458059" lon="34.9931688">
        <ele>411.3</ele>
        <time>2015-06-06T06:12:18Z</time>
      </trkpt>
      <trkpt lat="31.6456595" lon="34.9932121">
        <ele>409.2</ele>
        <time>2015-06-06T06:12:23Z</time>
      </trkpt>
      <trkpt lat="31.645569" lon="34.9932398">
        <ele>409.0</ele>
        <time>2015-06-06T06:12:26Z</time>
      </trkpt>
      <trkpt lat="31.645448" lon="34.9932769">
        <ele>408.7</ele>
        <time>2015-06-06T06:12:30Z</time>
      </trkpt>
      <trkpt lat="31.6453548" lon="34.9933142">
        <ele>408.4</ele>
        <time>2015-06-06T06:12:33Z</time>
      </trkpt>
      <trkpt lat="31.6452594" lon="34.9933804">
        <ele>408.4</ele>
        <time>2015-06-06T06:12:37Z</time>
      </trkpt>
      <trkpt lat="31.6451278" lon="34.9934539">
        <ele>408.3</ele>
        <time>2015-06-06T06:12:42Z</time>
      </trkpt>
      <trkpt lat="31.6450292" lon="34.993505">
        <ele>408.2</ele>
        <time>2015-06-06T06:12:46Z</time>
      </trkpt>
      <trkpt lat="31.6449053" lon="34.9935874">
        <ele>408.2</ele>
        <time>2015-06-06T06:12:52Z</time>
      </trkpt>
      <trkpt lat="31.6448122" lon="34.9936533">
        <ele>408.3</ele>
        <time>2015-06-06T06:12:57Z</time>
      </trkpt>
      <trkpt lat="31.6447016" lon="34.9937257">
        <ele>408.3</ele>
        <time>2015-06-06T06:13:02Z</time>
      </trkpt>
      <trkpt lat="31.6446513" lon="34.9937526">
        <ele>408.5</ele>
        <time>2015-06-06T06:13:04Z</time>
      </trkpt>
      <trkpt lat="31.6445993" lon="34.9937868">
        <ele>408.5</ele>
        <time>2015-06-06T06:13:06Z</time>
      </trkpt>
      <trkpt lat="31.6445559" lon="34.9938255">
        <ele>408.5</ele>
        <time>2015-06-06T06:13:08Z</time>
      </trkpt>
      <trkpt lat="31.6444964" lon="34.9939004">
        <ele>408.6</ele>
        <time>2015-06-06T06:13:11Z</time>
      </trkpt>
      <trkpt lat="31.6444537" lon="34.9939376">
        <ele>408.6</ele>
        <time>2015-06-06T06:13:13Z</time>
      </trkpt>
      <trkpt lat="31.6443673" lon="34.9940194">
        <ele>408.9</ele>
        <time>2015-06-06T06:13:17Z</time>
      </trkpt>
      <trkpt lat="31.6443318" lon="34.9940751">
        <ele>408.9</ele>
        <time>2015-06-06T06:13:19Z</time>
      </trkpt>
      <trkpt lat="31.6442907" lon="34.9941261">
        <ele>408.9</ele>
        <time>2015-06-06T06:13:21Z</time>
      </trkpt>
      <trkpt lat="31.6442075" lon="34.9942078">
        <ele>409.2</ele>
        <time>2015-06-06T06:13:25Z</time>
      </trkpt>
      <trkpt lat="31.6441069" lon="34.9941654">
        <ele>409.5</ele>
        <time>2015-06-06T06:13:29Z</time>
      </trkpt>
      <trkpt lat="31.6440502" lon="34.9941739">
        <ele>409.9</ele>
        <time>2015-06-06T06:13:33Z</time>
      </trkpt>
      <trkpt lat="31.6440083" lon="34.9942051">
        <ele>409.9</ele>
        <time>2015-06-06T06:13:35Z</time>
      </trkpt>
      <trkpt lat="31.6439531" lon="34.9941933">
        <ele>410.1</ele>
        <time>2015-06-06T06:13:38Z</time>
      </trkpt>
      <trkpt lat="31.6438815" lon="34.9941162">
        <ele>410.4</ele>
        <time>2015-06-06T06:13:43Z</time>
      </trkpt>
      <trkpt lat="31.6438216" lon="34.994114">
        <ele>410.6</ele>
        <time>2015-06-06T06:13:46Z</time>
      </trkpt>
      <trkpt lat="31.6437599" lon="34.9941307">
        <ele>410.6</ele>
        <time>2015-06-06T06:13:49Z</time>
      </trkpt>
      <trkpt lat="31.6436558" lon="34.9941416">
        <ele>410.8</ele>
        <time>2015-06-06T06:13:53Z</time>
      </trkpt>
      <trkpt lat="31.6435551" lon="34.9941478">
        <ele>411.0</ele>
        <time>2015-06-06T06:13:58Z</time>
      </trkpt>
      <trkpt lat="31.6435082" lon="34.9941502">
        <ele>411.2</ele>
        <time>2015-06-06T06:14:01Z</time>
      </trkpt>
      <trkpt lat="31.6434207" lon="34.9941134">
        <ele>412.4</ele>
        <time>2015-06-06T06:14:06Z</time>
      </trkpt>
      <trkpt lat="31.6432919" lon="34.9941207">
        <ele>413.8</ele>
        <time>2015-06-06T06:14:14Z</time>
      </trkpt>
      <trkpt lat="31.6432455" lon="34.9940948">
        <ele>414.0</ele>
        <time>2015-06-06T06:14:17Z</time>
      </trkpt>
      <trkpt lat="31.6431552" lon="34.9940359">
        <ele>414.8</ele>
        <time>2015-06-06T06:14:23Z</time>
      </trkpt>
      <trkpt lat="31.6430998" lon="34.9940225">
        <ele>415.8</ele>
        <time>2015-06-06T06:14:26Z</time>
      </trkpt>
      <trkpt lat="31.6430438" lon="34.9940055">
        <ele>416.5</ele>
        <time>2015-06-06T06:14:29Z</time>
      </trkpt>
      <trkpt lat="31.6429864" lon="34.9940173">
        <ele>416.5</ele>
        <time>2015-06-06T06:14:32Z</time>
      </trkpt>
      <trkpt lat="31.6428927" lon="34.9940286">
        <ele>417.4</ele>
        <time>2015-06-06T06:14:37Z</time>
      </trkpt>
      <trkpt lat="31.642845" lon="34.994026">
        <ele>418.3</ele>
        <time>2015-06-06T06:14:40Z</time>
      </trkpt>
      <trkpt lat="31.6427955" lon="34.994014">
        <ele>418.7</ele>
        <time>2015-06-06T06:14:43Z</time>
      </trkpt>
      <trkpt lat="31.6427432" lon="34.993994">
        <ele>418.7</ele>
        <time>2015-06-06T06:14:46Z</time>
      </trkpt>
      <trkpt lat="31.6426877" lon="34.9939598">
        <ele>419.4</ele>
        <time>2015-06-06T06:14:49Z</time>
      </trkpt>
      <trkpt lat="31.6426569" lon="34.9939204">
        <ele>419.4</ele>
        <time>2015-06-06T06:14:51Z</time>
      </trkpt>
      <trkpt lat="31.6426176" lon="34.9938816">
        <ele>421.0</ele>
        <time>2015-06-06T06:14:54Z</time>
      </trkpt>
      <trkpt lat="31.6425676" lon="34.9938889">
        <ele>421.0</ele>
        <time>2015-06-06T06:14:57Z</time>
      </trkpt>
      <trkpt lat="31.6425126" lon="34.9938869">
        <ele>422.3</ele>
        <time>2015-06-06T06:15:00Z</time>
      </trkpt>
      <trkpt lat="31.6424208" lon="34.9938552">
        <ele>423.5</ele>
        <time>2015-06-06T06:15:06Z</time>
      </trkpt>
      <trkpt lat="31.6423143" lon="34.9937407">
        <ele>424.7</ele>
        <time>2015-06-06T06:15:16Z</time>
      </trkpt>
      <trkpt lat="31.6422672" lon="34.9936982">
        <ele>425.5</ele>
        <time>2015-06-06T06:15:19Z</time>
      </trkpt>
      <trkpt lat="31.6422405" lon="34.9936454">
        <ele>426.3</ele>
        <time>2015-06-06T06:15:22Z</time>
      </trkpt>
      <trkpt lat="31.6422762" lon="34.9935974">
        <ele>426.8</ele>
        <time>2015-06-06T06:15:26Z</time>
      </trkpt>
      <trkpt lat="31.6423668" lon="34.9935462">
        <ele>427.7</ele>
        <time>2015-06-06T06:15:33Z</time>
      </trkpt>
      <trkpt lat="31.6424683" lon="34.993528">
        <ele>428.4</ele>
        <time>2015-06-06T06:15:37Z</time>
      </trkpt>
      <trkpt lat="31.642618" lon="34.9934802">
        <ele>430.3</ele>
        <time>2015-06-06T06:15:45Z</time>
      </trkpt>
      <trkpt lat="31.6427074" lon="34.9934123">
        <ele>431.5</ele>
        <time>2015-06-06T06:15:50Z</time>
      </trkpt>
      <trkpt lat="31.6428369" lon="34.9933389">
        <ele>433.8</ele>
        <time>2015-06-06T06:15:58Z</time>
      </trkpt>
      <trkpt lat="31.6429434" lon="34.9932367">
        <ele>434.8</ele>
        <time>2015-06-06T06:16:07Z</time>
      </trkpt>
      <trkpt lat="31.643036" lon="34.9931953">
        <ele>435.8</ele>
        <time>2015-06-06T06:16:14Z</time>
      </trkpt>
      <trkpt lat="31.6430401" lon="34.9930738">
        <ele>437.2</ele>
        <time>2015-06-06T06:16:20Z</time>
      </trkpt>
      <trkpt lat="31.6430544" lon="34.9930179">
        <ele>437.8</ele>
        <time>2015-06-06T06:16:23Z</time>
      </trkpt>
      <trkpt lat="31.6430824" lon="34.9929569">
        <ele>439.1</ele>
        <time>2015-06-06T06:16:26Z</time>
      </trkpt>
      <trkpt lat="31.6431347" lon="34.9928526">
        <ele>439.7</ele>
        <time>2015-06-06T06:16:32Z</time>
      </trkpt>
      <trkpt lat="31.6431245" lon="34.9927917">
        <ele>440.5</ele>
        <time>2015-06-06T06:16:35Z</time>
      </trkpt>
      <trkpt lat="31.6431021" lon="34.9927344">
        <ele>440.5</ele>
        <time>2015-06-06T06:16:38Z</time>
      </trkpt>
      <trkpt lat="31.6430639" lon="34.9926254">
        <ele>441.4</ele>
        <time>2015-06-06T06:16:44Z</time>
      </trkpt>
      <trkpt lat="31.6429909" lon="34.992538">
        <ele>441.9</ele>
        <time>2015-06-06T06:16:49Z</time>
      </trkpt>
      <trkpt lat="31.6429218" lon="34.992397">
        <ele>443.0</ele>
        <time>2015-06-06T06:16:56Z</time>
      </trkpt>
      <trkpt lat="31.6428254" lon="34.9923533">
        <ele>443.9</ele>
        <time>2015-06-06T06:17:00Z</time>
      </trkpt>
      <trkpt lat="31.642723" lon="34.9923523">
        <ele>444.2</ele>
        <time>2015-06-06T06:17:04Z</time>
      </trkpt>
      <trkpt lat="31.6426642" lon="34.9923526">
        <ele>444.3</ele>
        <time>2015-06-06T06:17:07Z</time>
      </trkpt>
      <trkpt lat="31.6426132" lon="34.9923459">
        <ele>444.3</ele>
        <time>2015-06-06T06:17:09Z</time>
      </trkpt>
      <trkpt lat="31.6425218" lon="34.992301">
        <ele>444.3</ele>
        <time>2015-06-06T06:17:13Z</time>
      </trkpt>
      <trkpt lat="31.6424735" lon="34.9922774">
        <ele>444.3</ele>
        <time>2015-06-06T06:17:15Z</time>
      </trkpt>
      <trkpt lat="31.6424203" lon="34.9922706">
        <ele>444.3</ele>
        <time>2015-06-06T06:17:17Z</time>
      </trkpt>
      <trkpt lat="31.642372" lon="34.9922725">
        <ele>444.3</ele>
        <time>2015-06-06T06:17:19Z</time>
      </trkpt>
      <trkpt lat="31.6422447" lon="34.9922899">
        <ele>444.4</ele>
        <time>2015-06-06T06:17:24Z</time>
      </trkpt>
      <trkpt lat="31.6421457" lon="34.992236">
        <ele>444.4</ele>
        <time>2015-06-06T06:17:28Z</time>
      </trkpt>
      <trkpt lat="31.6420633" lon="34.9921884">
        <ele>444.5</ele>
        <time>2015-06-06T06:17:32Z</time>
      </trkpt>
      <trkpt lat="31.6420337" lon="34.992141">
        <ele>444.6</ele>
        <time>2015-06-06T06:17:34Z</time>
      </trkpt>
      <trkpt lat="31.6420128" lon="34.9920695">
        <ele>444.6</ele>
        <time>2015-06-06T06:17:36Z</time>
      </trkpt>
      <trkpt lat="31.641922" lon="34.991949">
        <ele>444.6</ele>
        <time>2015-06-06T06:17:40Z</time>
      </trkpt>
      <trkpt lat="31.6418431" lon="34.9918113">
        <ele>444.6</ele>
        <time>2015-06-06T06:17:45Z</time>
      </trkpt>
      <trkpt lat="31.6416689" lon="34.9917951">
        <ele>444.5</ele>
        <time>2015-06-06T06:17:49Z</time>
      </trkpt>
      <trkpt lat="31.6415151" lon="34.9918263">
        <ele>444.4</ele>
        <time>2015-06-06T06:17:53Z</time>
      </trkpt>
      <trkpt lat="31.6414142" lon="34.9918136">
        <ele>444.3</ele>
        <time>2015-06-06T06:17:55Z</time>
      </trkpt>
      <trkpt lat="31.6412799" lon="34.9918062">
        <ele>444.2</ele>
        <time>2015-06-06T06:17:58Z</time>
      </trkpt>
      <trkpt lat="31.6412746" lon="34.9917334">
        <ele>444.1</ele>
        <time>2015-06-06T06:18:04Z</time>
      </trkpt>
      <trkpt lat="31.6413201" lon="34.9916748">
        <ele>443.3</ele>
        <time>2015-06-06T06:18:06Z</time>
      </trkpt>
      <trkpt lat="31.6413825" lon="34.9916497">
        <ele>443.3</ele>
        <time>2015-06-06T06:18:08Z</time>
      </trkpt>
      <trkpt lat="31.6414971" lon="34.9915593">
        <ele>441.9</ele>
        <time>2015-06-06T06:18:12Z</time>
      </trkpt>
      <trkpt lat="31.6416058" lon="34.9914499">
        <ele>439.3</ele>
        <time>2015-06-06T06:18:16Z</time>
      </trkpt>
      <trkpt lat="31.6416747" lon="34.9912983">
        <ele>437.2</ele>
        <time>2015-06-06T06:18:21Z</time>
      </trkpt>
      <trkpt lat="31.6417709" lon="34.9911615">
        <ele>435.3</ele>
        <time>2015-06-06T06:18:25Z</time>
      </trkpt>
      <trkpt lat="31.641863" lon="34.9910312">
        <ele>431.0</ele>
        <time>2015-06-06T06:18:28Z</time>
      </trkpt>
      <trkpt lat="31.64199" lon="34.9908897">
        <ele>429.9</ele>
        <time>2015-06-06T06:18:31Z</time>
      </trkpt>
      <trkpt lat="31.6421458" lon="34.9907779">
        <ele>426.6</ele>
        <time>2015-06-06T06:18:35Z</time>
      </trkpt>
      <trkpt lat="31.6422493" lon="34.9906472">
        <ele>424.6</ele>
        <time>2015-06-06T06:18:39Z</time>
      </trkpt>
      <trkpt lat="31.6423445" lon="34.9905241">
        <ele>422.4</ele>
        <time>2015-06-06T06:18:48Z</time>
      </trkpt>
      <trkpt lat="31.6423905" lon="34.9904736">
        <ele>417.8</ele>
        <time>2015-06-06T06:18:50Z</time>
      </trkpt>
      <trkpt lat="31.6424438" lon="34.99044">
        <ele>417.8</ele>
        <time>2015-06-06T06:18:52Z</time>
      </trkpt>
      <trkpt lat="31.6425275" lon="34.9903513">
        <ele>414.8</ele>
        <time>2015-06-06T06:18:56Z</time>
      </trkpt>
      <trkpt lat="31.6425622" lon="34.9902923">
        <ele>413.9</ele>
        <time>2015-06-06T06:18:59Z</time>
      </trkpt>
      <trkpt lat="31.6426101" lon="34.9902601">
        <ele>413.9</ele>
        <time>2015-06-06T06:19:02Z</time>
      </trkpt>
      <trkpt lat="31.6426992" lon="34.990212">
        <ele>413.9</ele>
        <time>2015-06-06T06:19:06Z</time>
      </trkpt>
      <trkpt lat="31.6427388" lon="34.9901667">
        <ele>413.9</ele>
        <time>2015-06-06T06:19:08Z</time>
      </trkpt>
      <trkpt lat="31.6427667" lon="34.9901182">
        <ele>413.9</ele>
        <time>2015-06-06T06:19:10Z</time>
      </trkpt>
      <trkpt lat="31.6427992" lon="34.990044">
        <ele>413.9</ele>
        <time>2015-06-06T06:19:13Z</time>
      </trkpt>
      <trkpt lat="31.6428172" lon="34.9899865">
        <ele>413.9</ele>
        <time>2015-06-06T06:19:16Z</time>
      </trkpt>
      <trkpt lat="31.6428172" lon="34.9899865">
        <ele>413.9</ele>
        <time>2015-06-06T06:19:17Z</time>
      </trkpt>
      <trkpt lat="31.6428172" lon="34.9899865">
        <ele>414.7</ele>
        <time>2015-06-06T06:19:19Z</time>
      </trkpt>
      <trkpt lat="31.6428172" lon="34.9899865">
        <time>2015-06-06T06:19:19Z</time>
      </trkpt>
    </trkseg>
    <trkseg>
      <trkpt lat="31.6428172" lon="34.9899865">
        <time>2015-06-06T06:20:02Z</time>
      </trkpt>
      <trkpt lat="31.6429111" lon="34.9899248">
        <ele>414.3</ele>
        <time>2015-06-06T06:20:03Z</time>
      </trkpt>
      <trkpt lat="31.6429655" lon="34.9898863">
        <ele>414.3</ele>
        <time>2015-06-06T06:20:05Z</time>
      </trkpt>
      <trkpt lat="31.6430962" lon="34.9897621">
        <ele>414.1</ele>
        <time>2015-06-06T06:20:09Z</time>
      </trkpt>
      <trkpt lat="31.6431924" lon="34.9896453">
        <ele>413.9</ele>
        <time>2015-06-06T06:20:12Z</time>
      </trkpt>
      <trkpt lat="31.6433188" lon="34.9895179">
        <ele>413.7</ele>
        <time>2015-06-06T06:20:16Z</time>
      </trkpt>
      <trkpt lat="31.6433971" lon="34.9894221">
        <ele>413.4</ele>
        <time>2015-06-06T06:20:20Z</time>
      </trkpt>
      <trkpt lat="31.6434534" lon="34.9893885">
        <ele>413.3</ele>
        <time>2015-06-06T06:20:22Z</time>
      </trkpt>
      <trkpt lat="31.6435166" lon="34.9893775">
        <ele>413.3</ele>
        <time>2015-06-06T06:20:24Z</time>
      </trkpt>
      <trkpt lat="31.6436328" lon="34.9893556">
        <ele>413.1</ele>
        <time>2015-06-06T06:20:28Z</time>
      </trkpt>
      <trkpt lat="31.6437839" lon="34.989322">
        <ele>412.8</ele>
        <time>2015-06-06T06:20:35Z</time>
      </trkpt>
      <trkpt lat="31.643892" lon="34.9891875">
        <ele>412.7</ele>
        <time>2015-06-06T06:20:39Z</time>
      </trkpt>
      <trkpt lat="31.6440395" lon="34.9891143">
        <ele>412.5</ele>
        <time>2015-06-06T06:20:41Z</time>
      </trkpt>
      <trkpt lat="31.6441493" lon="34.9891148">
        <ele>412.4</ele>
        <time>2015-06-06T06:20:43Z</time>
      </trkpt>
      <trkpt lat="31.6443054" lon="34.9890553">
        <ele>412.1</ele>
        <time>2015-06-06T06:20:47Z</time>
      </trkpt>
      <trkpt lat="31.6444738" lon="34.9890279">
        <ele>411.6</ele>
        <time>2015-06-06T06:20:51Z</time>
      </trkpt>
      <trkpt lat="31.6445806" lon="34.9888954">
        <ele>411.2</ele>
        <time>2015-06-06T06:20:55Z</time>
      </trkpt>
      <trkpt lat="31.6447358" lon="34.9888376">
        <ele>411.0</ele>
        <time>2015-06-06T06:20:58Z</time>
      </trkpt>
      <trkpt lat="31.6448798" lon="34.9888154">
        <ele>410.6</ele>
        <time>2015-06-06T06:21:03Z</time>
      </trkpt>
      <trkpt lat="31.645021" lon="34.9887159">
        <ele>409.1</ele>
        <time>2015-06-06T06:21:08Z</time>
      </trkpt>
      <trkpt lat="31.6450682" lon="34.9886566">
        <ele>408.2</ele>
        <time>2015-06-06T06:21:11Z</time>
      </trkpt>
      <trkpt lat="31.6451354" lon="34.9885967">
        <ele>408.2</ele>
        <time>2015-06-06T06:21:13Z</time>
      </trkpt>
      <trkpt lat="31.6452482" lon="34.9884859">
        <ele>407.3</ele>
        <time>2015-06-06T06:21:17Z</time>
      </trkpt>
      <trkpt lat="31.6453595" lon="34.9884763">
        <ele>406.8</ele>
        <time>2015-06-06T06:21:19Z</time>
      </trkpt>
      <trkpt lat="31.6455586" lon="34.9884641">
        <ele>406.1</ele>
        <time>2015-06-06T06:21:23Z</time>
      </trkpt>
      <trkpt lat="31.6456715" lon="34.9884674">
        <ele>405.7</ele>
        <time>2015-06-06T06:21:27Z</time>
      </trkpt>
      <trkpt lat="31.6457891" lon="34.9884616">
        <ele>404.8</ele>
        <time>2015-06-06T06:21:30Z</time>
      </trkpt>
      <trkpt lat="31.6459065" lon="34.988426">
        <ele>404.6</ele>
        <time>2015-06-06T06:21:33Z</time>
      </trkpt>
      <trkpt lat="31.6459577" lon="34.9882784">
        <ele>404.0</ele>
        <time>2015-06-06T06:21:36Z</time>
      </trkpt>
      <trkpt lat="31.6460342" lon="34.9881233">
        <ele>403.3</ele>
        <time>2015-06-06T06:21:40Z</time>
      </trkpt>
      <trkpt lat="31.646075" lon="34.988085">
        <ele>402.9</ele>
        <time>2015-06-06T06:21:42Z</time>
      </trkpt>
      <trkpt lat="31.6461175" lon="34.9880501">
        <ele>402.9</ele>
        <time>2015-06-06T06:21:44Z</time>
      </trkpt>
      <trkpt lat="31.6461884" lon="34.9879462">
        <ele>402.6</ele>
        <time>2015-06-06T06:21:48Z</time>
      </trkpt>
      <trkpt lat="31.6463017" lon="34.9877825">
        <ele>402.2</ele>
        <time>2015-06-06T06:21:52Z</time>
      </trkpt>
      <trkpt lat="31.6463839" lon="34.9876947">
        <ele>400.9</ele>
        <time>2015-06-06T06:21:56Z</time>
      </trkpt>
      <trkpt lat="31.6462845" lon="34.9875428">
        <ele>400.7</ele>
        <time>2015-06-06T06:22:00Z</time>
      </trkpt>
      <trkpt lat="31.6461734" lon="34.9873356">
        <ele>400.4</ele>
        <time>2015-06-06T06:22:03Z</time>
      </trkpt>
      <trkpt lat="31.646092" lon="34.9871749">
        <ele>400.2</ele>
        <time>2015-06-06T06:22:06Z</time>
      </trkpt>
      <trkpt lat="31.6460298" lon="34.987252">
        <ele>400.0</ele>
        <time>2015-06-06T06:22:11Z</time>
      </trkpt>
      <trkpt lat="31.645978" lon="34.9872982">
        <ele>399.8</ele>
        <time>2015-06-06T06:22:15Z</time>
      </trkpt>
      <trkpt lat="31.6459771" lon="34.9873002">
        <ele>393.9</ele>
        <time>2015-06-06T06:22:19Z</time>
      </trkpt>
      <trkpt lat="31.6459771" lon="34.9873002">
        <time>2015-06-06T06:22:19Z</time>
      </trkpt>
    </trkseg>
    <trkseg>
      <trkpt lat="31.6459771" lon="34.9873002">
        <time>2015-06-06T06:22:28Z</time>
      </trkpt>
      <trkpt lat="31.6458738" lon="34.987411">
        <ele>398.9</ele>
        <time>2015-06-06T06:22:29Z</time>
      </trkpt>
      <trkpt lat="31.6457907" lon="34.987511">
        <ele>398.5</ele>
        <time>2015-06-06T06:22:34Z</time>
      </trkpt>
      <trkpt lat="31.6457454" lon="34.9875325">
        <ele>398.4</ele>
        <time>2015-06-06T06:22:36Z</time>
      </trkpt>
      <trkpt lat="31.6457056" lon="34.9875671">
        <ele>398.4</ele>
        <time>2015-06-06T06:22:38Z</time>
      </trkpt>
      <trkpt lat="31.6456755" lon="34.9876092">
        <ele>398.4</ele>
        <time>2015-06-06T06:22:40Z</time>
      </trkpt>
      <trkpt lat="31.6456075" lon="34.98776">
        <ele>398.4</ele>
        <time>2015-06-06T06:22:45Z</time>
      </trkpt>
      <trkpt lat="31.6455194" lon="34.9878836">
        <ele>398.4</ele>
        <time>2015-06-06T06:22:49Z</time>
      </trkpt>
      <trkpt lat="31.6454747" lon="34.9879215">
        <ele>398.3</ele>
        <time>2015-06-06T06:22:51Z</time>
      </trkpt>
      <trkpt lat="31.6454278" lon="34.9879509">
        <ele>398.3</ele>
        <time>2015-06-06T06:22:53Z</time>
      </trkpt>
      <trkpt lat="31.645341" lon="34.9879835">
        <ele>398.3</ele>
        <time>2015-06-06T06:22:56Z</time>
      </trkpt>
      <trkpt lat="31.6452267" lon="34.9880187">
        <ele>398.3</ele>
        <time>2015-06-06T06:23:00Z</time>
      </trkpt>
      <trkpt lat="31.6451228" lon="34.9880808">
        <ele>398.4</ele>
        <time>2015-06-06T06:23:04Z</time>
      </trkpt>
      <trkpt lat="31.6450425" lon="34.9881321">
        <ele>398.6</ele>
        <time>2015-06-06T06:23:07Z</time>
      </trkpt>
      <trkpt lat="31.6448978" lon="34.9882191">
        <ele>398.9</ele>
        <time>2015-06-06T06:23:12Z</time>
      </trkpt>
      <trkpt lat="31.6448011" lon="34.9882502">
        <ele>399.0</ele>
        <time>2015-06-06T06:23:15Z</time>
      </trkpt>
      <trkpt lat="31.6447149" lon="34.9883147">
        <ele>399.0</ele>
        <time>2015-06-06T06:23:18Z</time>
      </trkpt>
      <trkpt lat="31.6446108" lon="34.9884301">
        <ele>399.1</ele>
        <time>2015-06-06T06:23:22Z</time>
      </trkpt>
      <trkpt lat="31.6444917" lon="34.9885126">
        <ele>399.7</ele>
        <time>2015-06-06T06:23:26Z</time>
      </trkpt>
      <trkpt lat="31.64444" lon="34.9885232">
        <ele>400.4</ele>
        <time>2015-06-06T06:23:28Z</time>
      </trkpt>
      <trkpt lat="31.6443829" lon="34.9885241">
        <ele>400.4</ele>
        <time>2015-06-06T06:23:31Z</time>
      </trkpt>
      <trkpt lat="31.6443258" lon="34.9885103">
        <ele>400.7</ele>
        <time>2015-06-06T06:23:34Z</time>
      </trkpt>
      <trkpt lat="31.6442221" lon="34.9884638">
        <ele>401.3</ele>
        <time>2015-06-06T06:23:41Z</time>
      </trkpt>
      <trkpt lat="31.6441679" lon="34.9884709">
        <ele>401.5</ele>
        <time>2015-06-06T06:23:44Z</time>
      </trkpt>
      <trkpt lat="31.6441221" lon="34.9884701">
        <ele>401.5</ele>
        <time>2015-06-06T06:23:47Z</time>
      </trkpt>
      <trkpt lat="31.6440701" lon="34.9884776">
        <ele>401.9</ele>
        <time>2015-06-06T06:23:50Z</time>
      </trkpt>
      <trkpt lat="31.64402" lon="34.9884954">
        <ele>401.9</ele>
        <time>2015-06-06T06:23:52Z</time>
      </trkpt>
      <trkpt lat="31.6439187" lon="34.9885834">
        <ele>402.6</ele>
        <time>2015-06-06T06:23:57Z</time>
      </trkpt>
      <trkpt lat="31.6438154" lon="34.9886135">
        <ele>403.7</ele>
        <time>2015-06-06T06:24:01Z</time>
      </trkpt>
      <trkpt lat="31.6437099" lon="34.9886691">
        <ele>404.5</ele>
        <time>2015-06-06T06:24:05Z</time>
      </trkpt>
      <trkpt lat="31.6435874" lon="34.9887139">
        <ele>405.5</ele>
        <time>2015-06-06T06:24:09Z</time>
      </trkpt>
      <trkpt lat="31.6434306" lon="34.9887841">
        <ele>406.6</ele>
        <time>2015-06-06T06:24:14Z</time>
      </trkpt>
      <trkpt lat="31.6433227" lon="34.9888241">
        <ele>406.8</ele>
        <time>2015-06-06T06:24:17Z</time>
      </trkpt>
      <trkpt lat="31.6432436" lon="34.9888621">
        <ele>406.8</ele>
        <time>2015-06-06T06:24:19Z</time>
      </trkpt>
      <trkpt lat="31.643113" lon="34.9890053">
        <ele>406.9</ele>
        <time>2015-06-06T06:24:23Z</time>
      </trkpt>
      <trkpt lat="31.6430032" lon="34.9891479">
        <ele>406.9</ele>
        <time>2015-06-06T06:24:27Z</time>
      </trkpt>
      <trkpt lat="31.6428993" lon="34.9892683">
        <ele>406.9</ele>
        <time>2015-06-06T06:24:31Z</time>
      </trkpt>
      <trkpt lat="31.6428376" lon="34.989361">
        <ele>407.0</ele>
        <time>2015-06-06T06:24:34Z</time>
      </trkpt>
      <trkpt lat="31.642793" lon="34.989406">
        <ele>407.0</ele>
        <time>2015-06-06T06:24:36Z</time>
      </trkpt>
      <trkpt lat="31.642657" lon="34.9894943">
        <ele>407.1</ele>
        <time>2015-06-06T06:24:41Z</time>
      </trkpt>
      <trkpt lat="31.6425501" lon="34.9895511">
        <ele>407.2</ele>
        <time>2015-06-06T06:24:45Z</time>
      </trkpt>
      <trkpt lat="31.642421" lon="34.9896158">
        <ele>407.3</ele>
        <time>2015-06-06T06:24:50Z</time>
      </trkpt>
      <trkpt lat="31.6422634" lon="34.9897115">
        <ele>407.4</ele>
        <time>2015-06-06T06:24:56Z</time>
      </trkpt>
      <trkpt lat="31.6422169" lon="34.9897509">
        <ele>407.6</ele>
        <time>2015-06-06T06:24:58Z</time>
      </trkpt>
      <trkpt lat="31.6421769" lon="34.989797">
        <ele>407.6</ele>
        <time>2015-06-06T06:25:00Z</time>
      </trkpt>
      <trkpt lat="31.6421417" lon="34.9898484">
        <ele>407.6</ele>
        <time>2015-06-06T06:25:02Z</time>
      </trkpt>
      <trkpt lat="31.6420468" lon="34.9899924">
        <ele>408.4</ele>
        <time>2015-06-06T06:25:08Z</time>
      </trkpt>
      <trkpt lat="31.6419131" lon="34.9901224">
        <ele>409.0</ele>
        <time>2015-06-06T06:25:14Z</time>
      </trkpt>
      <trkpt lat="31.6418409" lon="34.9902039">
        <ele>409.7</ele>
        <time>2015-06-06T06:25:18Z</time>
      </trkpt>
      <trkpt lat="31.6418047" lon="34.9902474">
        <ele>409.9</ele>
        <time>2015-06-06T06:25:20Z</time>
      </trkpt>
      <trkpt lat="31.6417458" lon="34.9903077">
        <ele>409.9</ele>
        <time>2015-06-06T06:25:23Z</time>
      </trkpt>
      <trkpt lat="31.6416334" lon="34.990406">
        <ele>410.8</ele>
        <time>2015-06-06T06:25:28Z</time>
      </trkpt>
      <trkpt lat="31.6415822" lon="34.9904535">
        <ele>411.8</ele>
        <time>2015-06-06T06:25:30Z</time>
      </trkpt>
      <trkpt lat="31.6415297" lon="34.9904897">
        <ele>411.8</ele>
        <time>2015-06-06T06:25:32Z</time>
      </trkpt>
      <trkpt lat="31.6414305" lon="34.9905466">
        <ele>412.3</ele>
        <time>2015-06-06T06:25:36Z</time>
      </trkpt>
      <trkpt lat="31.6413248" lon="34.9905897">
        <ele>412.7</ele>
        <time>2015-06-06T06:25:41Z</time>
      </trkpt>
      <trkpt lat="31.6411775" lon="34.9906363">
        <ele>413.1</ele>
        <time>2015-06-06T06:25:47Z</time>
      </trkpt>
      <trkpt lat="31.6410912" lon="34.9906714">
        <ele>413.4</ele>
        <time>2015-06-06T06:25:51Z</time>
      </trkpt>
      <trkpt lat="31.6409875" lon="34.9906995">
        <ele>413.6</ele>
        <time>2015-06-06T06:25:56Z</time>
      </trkpt>
      <trkpt lat="31.640943" lon="34.990718">
        <ele>413.8</ele>
        <time>2015-06-06T06:25:58Z</time>
      </trkpt>
      <trkpt lat="31.6408962" lon="34.9907429">
        <ele>413.8</ele>
        <time>2015-06-06T06:26:00Z</time>
      </trkpt>
      <trkpt lat="31.6408489" lon="34.9907715">
        <ele>413.8</ele>
        <time>2015-06-06T06:26:02Z</time>
      </trkpt>
      <trkpt lat="31.6407299" lon="34.9908652">
        <ele>413.9</ele>
        <time>2015-06-06T06:26:07Z</time>
      </trkpt>
      <trkpt lat="31.6406532" lon="34.9909605">
        <ele>414.3</ele>
        <time>2015-06-06T06:26:11Z</time>
      </trkpt>
      <trkpt lat="31.6406222" lon="34.991003">
        <ele>414.7</ele>
        <time>2015-06-06T06:26:13Z</time>
      </trkpt>
      <trkpt lat="31.6405697" lon="34.9910232">
        <ele>414.7</ele>
        <time>2015-06-06T06:26:16Z</time>
      </trkpt>
      <trkpt lat="31.6404901" lon="34.9910118">
        <ele>415.8</ele>
        <time>2015-06-06T06:26:20Z</time>
      </trkpt>
      <trkpt lat="31.6404413" lon="34.9910158">
        <ele>415.8</ele>
        <time>2015-06-06T06:26:23Z</time>
      </trkpt>
      <trkpt lat="31.6403489" lon="34.9910561">
        <ele>416.7</ele>
        <time>2015-06-06T06:26:29Z</time>
      </trkpt>
      <trkpt lat="31.6402963" lon="34.9910785">
        <ele>417.3</ele>
        <time>2015-06-06T06:26:32Z</time>
      </trkpt>
      <trkpt lat="31.6402499" lon="34.991088">
        <ele>417.3</ele>
        <time>2015-06-06T06:26:37Z</time>
      </trkpt>
      <trkpt lat="31.6402011" lon="34.9911004">
        <ele>417.5</ele>
        <time>2015-06-06T06:26:40Z</time>
      </trkpt>
      <trkpt lat="31.6401122" lon="34.9911608">
        <ele>418.1</ele>
        <time>2015-06-06T06:26:47Z</time>
      </trkpt>
      <trkpt lat="31.640046" lon="34.9911679">
        <ele>419.4</ele>
        <time>2015-06-06T06:26:50Z</time>
      </trkpt>
      <trkpt lat="31.6399913" lon="34.9911605">
        <ele>420.4</ele>
        <time>2015-06-06T06:26:53Z</time>
      </trkpt>
      <trkpt lat="31.6399915" lon="34.9911056">
        <ele>421.2</ele>
        <time>2015-06-06T06:26:57Z</time>
      </trkpt>
      <trkpt lat="31.6400546" lon="34.991012">
        <ele>421.8</ele>
        <time>2015-06-06T06:27:02Z</time>
      </trkpt>
      <trkpt lat="31.6400681" lon="34.9909432">
        <ele>422.9</ele>
        <time>2015-06-06T06:27:06Z</time>
      </trkpt>
      <trkpt lat="31.6401014" lon="34.9908919">
        <ele>422.9</ele>
        <time>2015-06-06T06:27:09Z</time>
      </trkpt>
      <trkpt lat="31.6402106" lon="34.9907684">
        <ele>423.6</ele>
        <time>2015-06-06T06:27:17Z</time>
      </trkpt>
      <trkpt lat="31.6403328" lon="34.9906649">
        <ele>425.7</ele>
        <time>2015-06-06T06:27:24Z</time>
      </trkpt>
      <trkpt lat="31.6404069" lon="34.9905989">
        <ele>425.8</ele>
        <time>2015-06-06T06:27:28Z</time>
      </trkpt>
      <trkpt lat="31.6404754" lon="34.9905089">
        <ele>426.1</ele>
        <time>2015-06-06T06:27:33Z</time>
      </trkpt>
      <trkpt lat="31.6405324" lon="34.9903543">
        <ele>426.5</ele>
        <time>2015-06-06T06:27:41Z</time>
      </trkpt>
      <trkpt lat="31.6405446" lon="34.9902869">
        <ele>426.6</ele>
        <time>2015-06-06T06:27:44Z</time>
      </trkpt>
      <trkpt lat="31.6405349" lon="34.9902164">
        <ele>426.6</ele>
        <time>2015-06-06T06:27:47Z</time>
      </trkpt>
      <trkpt lat="31.6405395" lon="34.9901592">
        <ele>427.0</ele>
        <time>2015-06-06T06:27:50Z</time>
      </trkpt>
      <trkpt lat="31.6405558" lon="34.9901063">
        <ele>427.3</ele>
        <time>2015-06-06T06:27:53Z</time>
      </trkpt>
      <trkpt lat="31.6405664" lon="34.9900417">
        <ele>427.3</ele>
        <time>2015-06-06T06:27:57Z</time>
      </trkpt>
      <trkpt lat="31.6405999" lon="34.9899894">
        <ele>427.9</ele>
        <time>2015-06-06T06:28:01Z</time>
      </trkpt>
      <trkpt lat="31.6406511" lon="34.9899007">
        <ele>429.7</ele>
        <time>2015-06-06T06:28:08Z</time>
      </trkpt>
      <trkpt lat="31.6406765" lon="34.9898351">
        <ele>430.5</ele>
        <time>2015-06-06T06:28:12Z</time>
      </trkpt>
      <trkpt lat="31.6407186" lon="34.9897806">
        <ele>431.5</ele>
        <time>2015-06-06T06:28:15Z</time>
      </trkpt>
      <trkpt lat="31.6407786" lon="34.9896815">
        <ele>432.8</ele>
        <time>2015-06-06T06:28:21Z</time>
      </trkpt>
      <trkpt lat="31.6408181" lon="34.9896358">
        <ele>433.9</ele>
        <time>2015-06-06T06:28:24Z</time>
      </trkpt>
      <trkpt lat="31.640836" lon="34.9895802">
        <ele>433.9</ele>
        <time>2015-06-06T06:28:27Z</time>
      </trkpt>
      <trkpt lat="31.6408437" lon="34.9895272">
        <ele>435.0</ele>
        <time>2015-06-06T06:28:30Z</time>
      </trkpt>
      <trkpt lat="31.6408663" lon="34.9894786">
        <ele>435.0</ele>
        <time>2015-06-06T06:28:34Z</time>
      </trkpt>
      <trkpt lat="31.6408802" lon="34.9894242">
        <ele>436.7</ele>
        <time>2015-06-06T06:28:38Z</time>
      </trkpt>
      <trkpt lat="31.6409573" lon="34.9893591">
        <ele>438.0</ele>
        <time>2015-06-06T06:28:46Z</time>
      </trkpt>
      <trkpt lat="31.6409711" lon="34.9892944">
        <ele>438.9</ele>
        <time>2015-06-06T06:28:51Z</time>
      </trkpt>
      <trkpt lat="31.6409801" lon="34.9892333">
        <ele>439.4</ele>
        <time>2015-06-06T06:28:54Z</time>
      </trkpt>
      <trkpt lat="31.6410233" lon="34.9891019">
        <ele>440.9</ele>
        <time>2015-06-06T06:29:01Z</time>
      </trkpt>
      <trkpt lat="31.6410168" lon="34.9889385">
        <ele>441.7</ele>
        <time>2015-06-06T06:29:11Z</time>
      </trkpt>
      <trkpt lat="31.6410411" lon="34.9888343">
        <ele>442.1</ele>
        <time>2015-06-06T06:29:16Z</time>
      </trkpt>
      <trkpt lat="31.6410365" lon="34.9887803">
        <ele>442.9</ele>
        <time>2015-06-06T06:29:19Z</time>
      </trkpt>
      <trkpt lat="31.6410214" lon="34.9887249">
        <ele>442.9</ele>
        <time>2015-06-06T06:29:22Z</time>
      </trkpt>
      <trkpt lat="31.6410061" lon="34.9886619">
        <ele>443.3</ele>
        <time>2015-06-06T06:29:26Z</time>
      </trkpt>
      <trkpt lat="31.64096" lon="34.9885536">
        <ele>444.1</ele>
        <time>2015-06-06T06:29:33Z</time>
      </trkpt>
      <trkpt lat="31.6409353" lon="34.9885022">
        <ele>444.6</ele>
        <time>2015-06-06T06:29:36Z</time>
      </trkpt>
      <trkpt lat="31.6408914" lon="34.988476">
        <ele>444.6</ele>
        <time>2015-06-06T06:29:38Z</time>
      </trkpt>
      <trkpt lat="31.6407612" lon="34.9884274">
        <ele>445.1</ele>
        <time>2015-06-06T06:29:46Z</time>
      </trkpt>
      <trkpt lat="31.6407252" lon="34.9883885">
        <ele>445.4</ele>
        <time>2015-06-06T06:29:49Z</time>
      </trkpt>
      <trkpt lat="31.6406725" lon="34.9883741">
        <ele>445.4</ele>
        <time>2015-06-06T06:29:51Z</time>
      </trkpt>
      <trkpt lat="31.6405691" lon="34.9883782">
        <ele>445.8</ele>
        <time>2015-06-06T06:29:56Z</time>
      </trkpt>
      <trkpt lat="31.6405083" lon="34.9883456">
        <ele>446.0</ele>
        <time>2015-06-06T06:29:59Z</time>
      </trkpt>
      <trkpt lat="31.6404618" lon="34.9883513">
        <ele>446.0</ele>
        <time>2015-06-06T06:30:01Z</time>
      </trkpt>
      <trkpt lat="31.6403996" lon="34.9883524">
        <ele>446.1</ele>
        <time>2015-06-06T06:30:04Z</time>
      </trkpt>
      <trkpt lat="31.6403518" lon="34.9883366">
        <ele>446.1</ele>
        <time>2015-06-06T06:30:06Z</time>
      </trkpt>
      <trkpt lat="31.6402526" lon="34.9882906">
        <ele>446.1</ele>
        <time>2015-06-06T06:30:10Z</time>
      </trkpt>
      <trkpt lat="31.6401523" lon="34.9882901">
        <ele>446.2</ele>
        <time>2015-06-06T06:30:14Z</time>
      </trkpt>
      <trkpt lat="31.6400867" lon="34.9882864">
        <ele>446.2</ele>
        <time>2015-06-06T06:30:17Z</time>
      </trkpt>
      <trkpt lat="31.6400416" lon="34.9882713">
        <ele>446.2</ele>
        <time>2015-06-06T06:30:19Z</time>
      </trkpt>
      <trkpt lat="31.6399928" lon="34.9882554">
        <ele>446.3</ele>
        <time>2015-06-06T06:30:21Z</time>
      </trkpt>
      <trkpt lat="31.6399442" lon="34.9882706">
        <ele>446.3</ele>
        <time>2015-06-06T06:30:23Z</time>
      </trkpt>
      <trkpt lat="31.6398817" lon="34.9884217">
        <ele>446.4</ele>
        <time>2015-06-06T06:30:31Z</time>
      </trkpt>
      <trkpt lat="31.639835" lon="34.988494">
        <ele>446.5</ele>
        <time>2015-06-06T06:30:35Z</time>
      </trkpt>
      <trkpt lat="31.6397793" lon="34.9885015">
        <ele>446.5</ele>
        <time>2015-06-06T06:30:38Z</time>
      </trkpt>
      <trkpt lat="31.6397311" lon="34.988489">
        <ele>446.7</ele>
        <time>2015-06-06T06:30:40Z</time>
      </trkpt>
      <trkpt lat="31.6396676" lon="34.9884927">
        <ele>446.7</ele>
        <time>2015-06-06T06:30:43Z</time>
      </trkpt>
      <trkpt lat="31.6396022" lon="34.9885074">
        <ele>446.8</ele>
        <time>2015-06-06T06:30:46Z</time>
      </trkpt>
      <trkpt lat="31.6395514" lon="34.9885388">
        <ele>446.8</ele>
        <time>2015-06-06T06:30:49Z</time>
      </trkpt>
      <trkpt lat="31.6395048" lon="34.9885554">
        <ele>447.4</ele>
        <time>2015-06-06T06:30:53Z</time>
      </trkpt>
      <trkpt lat="31.639413" lon="34.9885297">
        <ele>448.5</ele>
        <time>2015-06-06T06:30:59Z</time>
      </trkpt>
      <trkpt lat="31.6393146" lon="34.9885153">
        <ele>449.5</ele>
        <time>2015-06-06T06:31:05Z</time>
      </trkpt>
      <trkpt lat="31.6392533" lon="34.9885046">
        <ele>450.2</ele>
        <time>2015-06-06T06:31:08Z</time>
      </trkpt>
      <trkpt lat="31.6391894" lon="34.9885058">
        <ele>450.2</ele>
        <time>2015-06-06T06:31:11Z</time>
      </trkpt>
      <trkpt lat="31.6390455" lon="34.9885503">
        <ele>451.0</ele>
        <time>2015-06-06T06:31:19Z</time>
      </trkpt>
      <trkpt lat="31.6389969" lon="34.9885414">
        <ele>452.3</ele>
        <time>2015-06-06T06:31:22Z</time>
      </trkpt>
      <trkpt lat="31.6389515" lon="34.9885395">
        <ele>452.3</ele>
        <time>2015-06-06T06:31:24Z</time>
      </trkpt>
      <trkpt lat="31.6388973" lon="34.988548">
        <ele>453.0</ele>
        <time>2015-06-06T06:31:27Z</time>
      </trkpt>
      <trkpt lat="31.6388328" lon="34.9885707">
        <ele>453.0</ele>
        <time>2015-06-06T06:31:30Z</time>
      </trkpt>
      <trkpt lat="31.6387944" lon="34.9886194">
        <ele>453.3</ele>
        <time>2015-06-06T06:31:33Z</time>
      </trkpt>
      <trkpt lat="31.6388029" lon="34.9886733">
        <ele>453.3</ele>
        <time>2015-06-06T06:31:36Z</time>
      </trkpt>
      <trkpt lat="31.6388041" lon="34.9886796">
        <ele>453.3</ele>
        <time>2015-06-06T06:31:37Z</time>
      </trkpt>
      <trkpt lat="31.6388041" lon="34.9886796">
        <ele>455.1</ele>
        <time>2015-06-06T06:31:39Z</time>
      </trkpt>
      <trkpt lat="31.6388041" lon="34.9886796">
        <time>2015-06-06T06:31:39Z</time>
      </trkpt>
    </trkseg>
    <trkseg>
      <trkpt lat="31.6388041" lon="34.9886796">
        <time>2015-06-06T06:32:50Z</time>
      </trkpt>
      <trkpt lat="31.6387176" lon="34.9887602">
        <ele>458.0</ele>
        <time>2015-06-06T06:32:51Z</time>
      </trkpt>
      <trkpt lat="31.6385777" lon="34.9886979">
        <ele>458.1</ele>
        <time>2015-06-06T06:32:57Z</time>
      </trkpt>
      <trkpt lat="31.6384786" lon="34.9887096">
        <ele>458.1</ele>
        <time>2015-06-06T06:33:01Z</time>
      </trkpt>
      <trkpt lat="31.6384222" lon="34.988701">
        <ele>458.2</ele>
        <time>2015-06-06T06:33:03Z</time>
      </trkpt>
      <trkpt lat="31.6383541" lon="34.9887105">
        <ele>458.2</ele>
        <time>2015-06-06T06:33:05Z</time>
      </trkpt>
      <trkpt lat="31.6382646" lon="34.9887767">
        <ele>458.2</ele>
        <time>2015-06-06T06:33:10Z</time>
      </trkpt>
      <trkpt lat="31.6381636" lon="34.9887771">
        <ele>458.3</ele>
        <time>2015-06-06T06:33:14Z</time>
      </trkpt>
      <trkpt lat="31.6380787" lon="34.9887052">
        <ele>458.3</ele>
        <time>2015-06-06T06:33:17Z</time>
      </trkpt>
      <trkpt lat="31.6379263" lon="34.9887544">
        <ele>458.3</ele>
        <time>2015-06-06T06:33:22Z</time>
      </trkpt>
      <trkpt lat="31.6378665" lon="34.9887733">
        <ele>458.3</ele>
        <time>2015-06-06T06:33:24Z</time>
      </trkpt>
      <trkpt lat="31.6378041" lon="34.9887516">
        <ele>458.3</ele>
        <time>2015-06-06T06:33:26Z</time>
      </trkpt>
      <trkpt lat="31.6377387" lon="34.9886532">
        <ele>458.3</ele>
        <time>2015-06-06T06:33:29Z</time>
      </trkpt>
      <trkpt lat="31.6376951" lon="34.9884846">
        <ele>458.3</ele>
        <time>2015-06-06T06:33:33Z</time>
      </trkpt>
      <trkpt lat="31.6376726" lon="34.9882968">
        <ele>458.3</ele>
        <time>2015-06-06T06:33:37Z</time>
      </trkpt>
      <trkpt lat="31.63752" lon="34.9881987">
        <ele>458.3</ele>
        <time>2015-06-06T06:33:41Z</time>
      </trkpt>
      <trkpt lat="31.6375058" lon="34.9880854">
        <ele>458.3</ele>
        <time>2015-06-06T06:33:45Z</time>
      </trkpt>
      <trkpt lat="31.6376202" lon="34.9880167">
        <ele>458.0</ele>
        <time>2015-06-06T06:33:49Z</time>
      </trkpt>
      <trkpt lat="31.637673" lon="34.9879227">
        <ele>457.7</ele>
        <time>2015-06-06T06:33:52Z</time>
      </trkpt>
      <trkpt lat="31.6377122" lon="34.9877887">
        <ele>456.9</ele>
        <time>2015-06-06T06:33:56Z</time>
      </trkpt>
      <trkpt lat="31.6377093" lon="34.9875646">
        <ele>455.8</ele>
        <time>2015-06-06T06:34:00Z</time>
      </trkpt>
      <trkpt lat="31.6375985" lon="34.9874625">
        <ele>453.7</ele>
        <time>2015-06-06T06:34:05Z</time>
      </trkpt>
      <trkpt lat="31.6375004" lon="34.9874192">
        <ele>453.0</ele>
        <time>2015-06-06T06:34:08Z</time>
      </trkpt>
      <trkpt lat="31.6374935" lon="34.9872148">
        <ele>450.7</ele>
        <time>2015-06-06T06:34:12Z</time>
      </trkpt>
      <trkpt lat="31.6374734" lon="34.9870448">
        <ele>449.4</ele>
        <time>2015-06-06T06:34:15Z</time>
      </trkpt>
      <trkpt lat="31.6374751" lon="34.9868802">
        <ele>448.5</ele>
        <time>2015-06-06T06:34:19Z</time>
      </trkpt>
      <trkpt lat="31.6375118" lon="34.986765">
        <ele>447.5</ele>
        <time>2015-06-06T06:34:24Z</time>
      </trkpt>
      <trkpt lat="31.6375526" lon="34.9866674">
        <ele>444.4</ele>
        <time>2015-06-06T06:34:29Z</time>
      </trkpt>
      <trkpt lat="31.6375741" lon="34.9866046">
        <ele>443.0</ele>
        <time>2015-06-06T06:34:33Z</time>
      </trkpt>
      <trkpt lat="31.6376051" lon="34.9865491">
        <ele>442.8</ele>
        <time>2015-06-06T06:34:37Z</time>
      </trkpt>
      <trkpt lat="31.6376225" lon="34.9864538">
        <ele>442.7</ele>
        <time>2015-06-06T06:34:44Z</time>
      </trkpt>
      <trkpt lat="31.6376154" lon="34.9863476">
        <ele>442.7</ele>
        <time>2015-06-06T06:34:51Z</time>
      </trkpt>
      <trkpt lat="31.6376218" lon="34.986185">
        <ele>442.7</ele>
        <time>2015-06-06T06:34:59Z</time>
      </trkpt>
      <trkpt lat="31.6376148" lon="34.9861217">
        <ele>442.7</ele>
        <time>2015-06-06T06:35:03Z</time>
      </trkpt>
      <trkpt lat="31.6376347" lon="34.986069">
        <ele>442.7</ele>
        <time>2015-06-06T06:35:06Z</time>
      </trkpt>
      <trkpt lat="31.6376416" lon="34.9860032">
        <ele>443.4</ele>
        <time>2015-06-06T06:35:09Z</time>
      </trkpt>
      <trkpt lat="31.6376329" lon="34.9858434">
        <ele>444.4</ele>
        <time>2015-06-06T06:35:18Z</time>
      </trkpt>
      <trkpt lat="31.6376367" lon="34.9857349">
        <ele>444.9</ele>
        <time>2015-06-06T06:35:23Z</time>
      </trkpt>
      <trkpt lat="31.6376112" lon="34.9856074">
        <ele>445.3</ele>
        <time>2015-06-06T06:35:28Z</time>
      </trkpt>
      <trkpt lat="31.6375582" lon="34.9855169">
        <ele>445.6</ele>
        <time>2015-06-06T06:35:32Z</time>
      </trkpt>
      <trkpt lat="31.6375269" lon="34.9854273">
        <ele>445.8</ele>
        <time>2015-06-06T06:35:35Z</time>
      </trkpt>
      <trkpt lat="31.6375206" lon="34.9853711">
        <ele>445.8</ele>
        <time>2015-06-06T06:35:37Z</time>
      </trkpt>
      <trkpt lat="31.6375554" lon="34.9852001">
        <ele>445.9</ele>
        <time>2015-06-06T06:35:43Z</time>
      </trkpt>
      <trkpt lat="31.6374794" lon="34.9850507">
        <ele>446.0</ele>
        <time>2015-06-06T06:35:48Z</time>
      </trkpt>
      <trkpt lat="31.637396" lon="34.9849705">
        <ele>446.1</ele>
        <time>2015-06-06T06:35:53Z</time>
      </trkpt>
      <trkpt lat="31.6373679" lon="34.9848983">
        <ele>446.2</ele>
        <time>2015-06-06T06:35:56Z</time>
      </trkpt>
      <trkpt lat="31.6373644" lon="34.9848285">
        <ele>446.2</ele>
        <time>2015-06-06T06:35:58Z</time>
      </trkpt>
      <trkpt lat="31.6373367" lon="34.9846855">
        <ele>446.4</ele>
        <time>2015-06-06T06:36:03Z</time>
      </trkpt>
      <trkpt lat="31.6373043" lon="34.984574">
        <ele>446.6</ele>
        <time>2015-06-06T06:36:09Z</time>
      </trkpt>
      <trkpt lat="31.6373058" lon="34.9845005">
        <ele>447.4</ele>
        <time>2015-06-06T06:36:12Z</time>
      </trkpt>
      <trkpt lat="31.6373227" lon="34.9844426">
        <ele>447.7</ele>
        <time>2015-06-06T06:36:15Z</time>
      </trkpt>
      <trkpt lat="31.6372767" lon="34.9843861">
        <ele>447.7</ele>
        <time>2015-06-06T06:36:18Z</time>
      </trkpt>
      <trkpt lat="31.6372566" lon="34.9843146">
        <ele>448.1</ele>
        <time>2015-06-06T06:36:20Z</time>
      </trkpt>
      <trkpt lat="31.6372795" lon="34.9842461">
        <ele>448.1</ele>
        <time>2015-06-06T06:36:22Z</time>
      </trkpt>
      <trkpt lat="31.6373772" lon="34.9840917">
        <ele>448.1</ele>
        <time>2015-06-06T06:36:26Z</time>
      </trkpt>
      <trkpt lat="31.6373527" lon="34.9838951">
        <ele>448.1</ele>
        <time>2015-06-06T06:36:30Z</time>
      </trkpt>
      <trkpt lat="31.6373298" lon="34.9837299">
        <ele>448.1</ele>
        <time>2015-06-06T06:36:34Z</time>
      </trkpt>
      <trkpt lat="31.6372913" lon="34.9835689">
        <ele>448.1</ele>
        <time>2015-06-06T06:36:39Z</time>
      </trkpt>
      <trkpt lat="31.6372193" lon="34.9834971">
        <ele>448.2</ele>
        <time>2015-06-06T06:36:44Z</time>
      </trkpt>
      <trkpt lat="31.6372044" lon="34.9834421">
        <ele>448.1</ele>
        <time>2015-06-06T06:36:46Z</time>
      </trkpt>
      <trkpt lat="31.6371782" lon="34.9833986">
        <ele>448.1</ele>
        <time>2015-06-06T06:36:48Z</time>
      </trkpt>
      <trkpt lat="31.6371263" lon="34.9833645">
        <ele>448.1</ele>
        <time>2015-06-06T06:36:50Z</time>
      </trkpt>
      <trkpt lat="31.637064" lon="34.9832536">
        <ele>448.2</ele>
        <time>2015-06-06T06:36:54Z</time>
      </trkpt>
      <trkpt lat="31.6370771" lon="34.9831032">
        <ele>448.0</ele>
        <time>2015-06-06T06:36:58Z</time>
      </trkpt>
      <trkpt lat="31.6370962" lon="34.9829799">
        <ele>447.9</ele>
        <time>2015-06-06T06:37:02Z</time>
      </trkpt>
      <trkpt lat="31.6370742" lon="34.9829178">
        <ele>447.7</ele>
        <time>2015-06-06T06:37:04Z</time>
      </trkpt>
      <trkpt lat="31.6370145" lon="34.9827973">
        <ele>447.7</ele>
        <time>2015-06-06T06:37:08Z</time>
      </trkpt>
      <trkpt lat="31.6369428" lon="34.9827025">
        <ele>447.6</ele>
        <time>2015-06-06T06:37:12Z</time>
      </trkpt>
      <trkpt lat="31.6368514" lon="34.982633">
        <ele>447.6</ele>
        <time>2015-06-06T06:37:16Z</time>
      </trkpt>
      <trkpt lat="31.6367321" lon="34.9825296">
        <ele>447.5</ele>
        <time>2015-06-06T06:37:20Z</time>
      </trkpt>
      <trkpt lat="31.6367084" lon="34.9823579">
        <ele>447.4</ele>
        <time>2015-06-06T06:37:24Z</time>
      </trkpt>
      <trkpt lat="31.6366806" lon="34.982163">
        <ele>447.4</ele>
        <time>2015-06-06T06:37:28Z</time>
      </trkpt>
      <trkpt lat="31.6365656" lon="34.9820564">
        <ele>447.4</ele>
        <time>2015-06-06T06:37:32Z</time>
      </trkpt>
      <trkpt lat="31.6364428" lon="34.9819528">
        <ele>447.2</ele>
        <time>2015-06-06T06:37:36Z</time>
      </trkpt>
      <trkpt lat="31.6363746" lon="34.9820198">
        <ele>446.5</ele>
        <time>2015-06-06T06:37:38Z</time>
      </trkpt>
      <trkpt lat="31.6363311" lon="34.9820827">
        <ele>446.5</ele>
        <time>2015-06-06T06:37:40Z</time>
      </trkpt>
      <trkpt lat="31.6363002" lon="34.9821392">
        <ele>446.5</ele>
        <time>2015-06-06T06:37:42Z</time>
      </trkpt>
      <trkpt lat="31.6362636" lon="34.9822652">
        <ele>445.7</ele>
        <time>2015-06-06T06:37:47Z</time>
      </trkpt>
      <trkpt lat="31.6362345" lon="34.9823148">
        <ele>443.7</ele>
        <time>2015-06-06T06:37:49Z</time>
      </trkpt>
      <trkpt lat="31.6361771" lon="34.9823436">
        <ele>443.7</ele>
        <time>2015-06-06T06:37:51Z</time>
      </trkpt>
      <trkpt lat="31.6360647" lon="34.9824378">
        <ele>442.6</ele>
        <time>2015-06-06T06:37:55Z</time>
      </trkpt>
      <trkpt lat="31.6360522" lon="34.9825661">
        <ele>440.7</ele>
        <time>2015-06-06T06:37:59Z</time>
      </trkpt>
      <trkpt lat="31.6360298" lon="34.9826155">
        <ele>438.5</ele>
        <time>2015-06-06T06:38:01Z</time>
      </trkpt>
      <trkpt lat="31.6359973" lon="34.9826667">
        <ele>438.5</ele>
        <time>2015-06-06T06:38:03Z</time>
      </trkpt>
      <trkpt lat="31.6359546" lon="34.9826947">
        <ele>436.9</ele>
        <time>2015-06-06T06:38:05Z</time>
      </trkpt>
      <trkpt lat="31.6358838" lon="34.9827089">
        <ele>436.9</ele>
        <time>2015-06-06T06:38:07Z</time>
      </trkpt>
      <trkpt lat="31.6357428" lon="34.9827134">
        <ele>435.9</ele>
        <time>2015-06-06T06:38:12Z</time>
      </trkpt>
      <trkpt lat="31.6356891" lon="34.9828222">
        <ele>435.6</ele>
        <time>2015-06-06T06:38:15Z</time>
      </trkpt>
      <trkpt lat="31.6356445" lon="34.982856">
        <ele>435.5</ele>
        <time>2015-06-06T06:38:17Z</time>
      </trkpt>
      <trkpt lat="31.6355861" lon="34.9828667">
        <ele>435.5</ele>
        <time>2015-06-06T06:38:19Z</time>
      </trkpt>
      <trkpt lat="31.6355713" lon="34.9828686">
        <ele>435.1</ele>
        <time>2015-06-06T06:38:20Z</time>
      </trkpt>
      <trkpt lat="31.6355713" lon="34.9828686">
        <ele>429.0</ele>
        <time>2015-06-06T06:38:24Z</time>
      </trkpt>
      <trkpt lat="31.6355713" lon="34.9828686">
        <time>2015-06-06T06:38:24Z</time>
      </trkpt>
    </trkseg>
    <trkseg>
      <trkpt lat="31.6355713" lon="34.9828686">
        <time>2015-06-06T06:40:07Z</time>
      </trkpt>
      <trkpt lat="31.6354765" lon="34.9827492">
        <ele>424.6</ele>
        <time>2015-06-06T06:40:08Z</time>
      </trkpt>
      <trkpt lat="31.6354583" lon="34.9826845">
        <ele>424.5</ele>
        <time>2015-06-06T06:40:10Z</time>
      </trkpt>
      <trkpt lat="31.6354641" lon="34.9826262">
        <ele>424.5</ele>
        <time>2015-06-06T06:40:12Z</time>
      </trkpt>
      <trkpt lat="31.6355072" lon="34.9825223">
        <ele>424.4</ele>
        <time>2015-06-06T06:40:17Z</time>
      </trkpt>
      <trkpt lat="31.6355218" lon="34.9824558">
        <ele>424.4</ele>
        <time>2015-06-06T06:40:19Z</time>
      </trkpt>
      <trkpt lat="31.6355333" lon="34.9823682">
        <ele>424.2</ele>
        <time>2015-06-06T06:40:21Z</time>
      </trkpt>
      <trkpt lat="31.6355572" lon="34.9823034">
        <ele>424.2</ele>
        <time>2015-06-06T06:40:23Z</time>
      </trkpt>
      <trkpt lat="31.6355908" lon="34.9821366">
        <ele>424.1</ele>
        <time>2015-06-06T06:40:28Z</time>
      </trkpt>
      <trkpt lat="31.6355524" lon="34.9819711">
        <ele>423.8</ele>
        <time>2015-06-06T06:40:31Z</time>
      </trkpt>
      <trkpt lat="31.6355845" lon="34.9818033">
        <ele>423.7</ele>
        <time>2015-06-06T06:40:34Z</time>
      </trkpt>
      <trkpt lat="31.6356074" lon="34.981617">
        <ele>422.8</ele>
        <time>2015-06-06T06:40:38Z</time>
      </trkpt>
      <trkpt lat="31.6356021" lon="34.9814567">
        <ele>422.2</ele>
        <time>2015-06-06T06:40:41Z</time>
      </trkpt>
      <trkpt lat="31.6355709" lon="34.9812931">
        <ele>421.9</ele>
        <time>2015-06-06T06:40:44Z</time>
      </trkpt>
      <trkpt lat="31.6354954" lon="34.9811386">
        <ele>421.7</ele>
        <time>2015-06-06T06:40:47Z</time>
      </trkpt>
      <trkpt lat="31.6353322" lon="34.9811584">
        <ele>421.5</ele>
        <time>2015-06-06T06:40:52Z</time>
      </trkpt>
      <trkpt lat="31.6352405" lon="34.981081">
        <ele>421.3</ele>
        <time>2015-06-06T06:40:55Z</time>
      </trkpt>
      <trkpt lat="31.6351709" lon="34.9808968">
        <ele>420.9</ele>
        <time>2015-06-06T06:40:59Z</time>
      </trkpt>
      <trkpt lat="31.6351595" lon="34.9808375">
        <ele>420.3</ele>
        <time>2015-06-06T06:41:01Z</time>
      </trkpt>
      <trkpt lat="31.6351811" lon="34.9807785">
        <ele>420.3</ele>
        <time>2015-06-06T06:41:03Z</time>
      </trkpt>
      <trkpt lat="31.6352111" lon="34.9807355">
        <ele>420.0</ele>
        <time>2015-06-06T06:41:05Z</time>
      </trkpt>
      <trkpt lat="31.6352455" lon="34.9806946">
        <ele>420.0</ele>
        <time>2015-06-06T06:41:08Z</time>
      </trkpt>
      <trkpt lat="31.6352699" lon="34.9806443">
        <ele>419.2</ele>
        <time>2015-06-06T06:41:11Z</time>
      </trkpt>
      <trkpt lat="31.6352774" lon="34.980579">
        <ele>419.2</ele>
        <time>2015-06-06T06:41:14Z</time>
      </trkpt>
      <trkpt lat="31.635281" lon="34.9805057">
        <ele>417.1</ele>
        <time>2015-06-06T06:41:18Z</time>
      </trkpt>
      <trkpt lat="31.6353074" lon="34.9804537">
        <ele>416.2</ele>
        <time>2015-06-06T06:41:21Z</time>
      </trkpt>
      <trkpt lat="31.6353734" lon="34.9803647">
        <ele>416.1</ele>
        <time>2015-06-06T06:41:27Z</time>
      </trkpt>
      <trkpt lat="31.6354099" lon="34.9803155">
        <ele>416.1</ele>
        <time>2015-06-06T06:41:31Z</time>
      </trkpt>
      <trkpt lat="31.6354385" lon="34.9802693">
        <ele>416.1</ele>
        <time>2015-06-06T06:41:34Z</time>
      </trkpt>
      <trkpt lat="31.6354616" lon="34.9801013">
        <ele>416.1</ele>
        <time>2015-06-06T06:41:42Z</time>
      </trkpt>
      <trkpt lat="31.6354268" lon="34.979984">
        <ele>416.1</ele>
        <time>2015-06-06T06:41:46Z</time>
      </trkpt>
      <trkpt lat="31.6354302" lon="34.9799278">
        <ele>416.3</ele>
        <time>2015-06-06T06:41:48Z</time>
      </trkpt>
      <trkpt lat="31.6354576" lon="34.9798777">
        <ele>416.3</ele>
        <time>2015-06-06T06:41:50Z</time>
      </trkpt>
      <trkpt lat="31.6355051" lon="34.9797604">
        <ele>417.3</ele>
        <time>2015-06-06T06:41:55Z</time>
      </trkpt>
      <trkpt lat="31.6355242" lon="34.9796466">
        <ele>417.8</ele>
        <time>2015-06-06T06:41:59Z</time>
      </trkpt>
      <trkpt lat="31.635543" lon="34.9795943">
        <ele>418.4</ele>
        <time>2015-06-06T06:42:01Z</time>
      </trkpt>
      <trkpt lat="31.6355756" lon="34.9795331">
        <ele>418.4</ele>
        <time>2015-06-06T06:42:04Z</time>
      </trkpt>
      <trkpt lat="31.6355902" lon="34.9794773">
        <ele>419.2</ele>
        <time>2015-06-06T06:42:06Z</time>
      </trkpt>
      <trkpt lat="31.6355716" lon="34.9794103">
        <ele>419.2</ele>
        <time>2015-06-06T06:42:08Z</time>
      </trkpt>
      <trkpt lat="31.6355198" lon="34.9793481">
        <ele>419.2</ele>
        <time>2015-06-06T06:42:10Z</time>
      </trkpt>
      <trkpt lat="31.6354471" lon="34.9791896">
        <ele>419.4</ele>
        <time>2015-06-06T06:42:14Z</time>
      </trkpt>
      <trkpt lat="31.6353964" lon="34.9791535">
        <ele>419.5</ele>
        <time>2015-06-06T06:42:16Z</time>
      </trkpt>
      <trkpt lat="31.6353453" lon="34.979182">
        <ele>419.5</ele>
        <time>2015-06-06T06:42:18Z</time>
      </trkpt>
      <trkpt lat="31.6353044" lon="34.9792536">
        <ele>419.5</ele>
        <time>2015-06-06T06:42:20Z</time>
      </trkpt>
      <trkpt lat="31.6352704" lon="34.9794383">
        <ele>419.5</ele>
        <time>2015-06-06T06:42:24Z</time>
      </trkpt>
      <trkpt lat="31.63528" lon="34.9795084">
        <ele>419.5</ele>
        <time>2015-06-06T06:42:26Z</time>
      </trkpt>
      <trkpt lat="31.635267" lon="34.979561">
        <ele>419.5</ele>
        <time>2015-06-06T06:42:28Z</time>
      </trkpt>
      <trkpt lat="31.6351533" lon="34.9797026">
        <ele>419.5</ele>
        <time>2015-06-06T06:42:33Z</time>
      </trkpt>
      <trkpt lat="31.6350645" lon="34.9798505">
        <ele>419.5</ele>
        <time>2015-06-06T06:42:37Z</time>
      </trkpt>
      <trkpt lat="31.6350153" lon="34.9798894">
        <ele>419.5</ele>
        <time>2015-06-06T06:42:39Z</time>
      </trkpt>
      <trkpt lat="31.6349627" lon="34.9798269">
        <ele>419.5</ele>
        <time>2015-06-06T06:42:41Z</time>
      </trkpt>
      <trkpt lat="31.634952" lon="34.9797756">
        <ele>419.5</ele>
        <time>2015-06-06T06:42:42Z</time>
      </trkpt>
      <trkpt lat="31.634912" lon="34.9796135">
        <ele>419.3</ele>
        <time>2015-06-06T06:42:46Z</time>
      </trkpt>
      <trkpt lat="31.6348845" lon="34.979493">
        <ele>418.6</ele>
        <time>2015-06-06T06:42:50Z</time>
      </trkpt>
      <trkpt lat="31.6348697" lon="34.9793821">
        <ele>418.2</ele>
        <time>2015-06-06T06:42:53Z</time>
      </trkpt>
      <trkpt lat="31.6347731" lon="34.9793584">
        <ele>417.4</ele>
        <time>2015-06-06T06:42:58Z</time>
      </trkpt>
      <trkpt lat="31.634712" lon="34.9792405">
        <ele>416.9</ele>
        <time>2015-06-06T06:43:01Z</time>
      </trkpt>
      <trkpt lat="31.6346572" lon="34.979139">
        <ele>415.9</ele>
        <time>2015-06-06T06:43:04Z</time>
      </trkpt>
      <trkpt lat="31.6345964" lon="34.9790552">
        <ele>415.2</ele>
        <time>2015-06-06T06:43:10Z</time>
      </trkpt>
      <trkpt lat="31.6345886" lon="34.978996">
        <ele>413.8</ele>
        <time>2015-06-06T06:43:16Z</time>
      </trkpt>
      <trkpt lat="31.6345982" lon="34.9788726">
        <ele>412.9</ele>
        <time>2015-06-06T06:43:20Z</time>
      </trkpt>
      <trkpt lat="31.6346069" lon="34.978799">
        <ele>410.9</ele>
        <time>2015-06-06T06:43:22Z</time>
      </trkpt>
      <trkpt lat="31.6346056" lon="34.9787396">
        <ele>410.9</ele>
        <time>2015-06-06T06:43:24Z</time>
      </trkpt>
      <trkpt lat="31.6346044" lon="34.9787305">
        <ele>409.8</ele>
        <time>2015-06-06T06:43:25Z</time>
      </trkpt>
      <trkpt lat="31.6345999" lon="34.9787246">
        <ele>404.6</ele>
        <time>2015-06-06T06:43:28Z</time>
      </trkpt>
      <trkpt lat="31.6345999" lon="34.9787246">
        <time>2015-06-06T06:43:28Z</time>
      </trkpt>
    </trkseg>
    <trkseg>
      <trkpt lat="31.6345999" lon="34.9787246">
        <time>2015-06-06T07:18:13Z</time>
      </trkpt>
      <trkpt lat="31.6346346" lon="34.9786072">
        <ele>405.2</ele>
        <time>2015-06-06T07:18:14Z</time>
      </trkpt>
      <trkpt lat="31.6346399" lon="34.9785002">
        <ele>405.2</ele>
        <time>2015-06-06T07:18:25Z</time>
      </trkpt>
      <trkpt lat="31.6346738" lon="34.9783299">
        <ele>405.2</ele>
        <time>2015-06-06T07:18:35Z</time>
      </trkpt>
      <trkpt lat="31.6346456" lon="34.9782852">
        <ele>405.2</ele>
        <time>2015-06-06T07:18:37Z</time>
      </trkpt>
      <trkpt lat="31.6346297" lon="34.978222">
        <ele>405.2</ele>
        <time>2015-06-06T07:18:39Z</time>
      </trkpt>
      <trkpt lat="31.6346784" lon="34.9780588">
        <ele>405.2</ele>
        <time>2015-06-06T07:18:43Z</time>
      </trkpt>
      <trkpt lat="31.6347531" lon="34.9779918">
        <ele>405.2</ele>
        <time>2015-06-06T07:18:48Z</time>
      </trkpt>
      <trkpt lat="31.6348134" lon="34.9779123">
        <ele>405.2</ele>
        <time>2015-06-06T07:18:53Z</time>
      </trkpt>
      <trkpt lat="31.634863" lon="34.9778086">
        <ele>405.2</ele>
        <time>2015-06-06T07:18:58Z</time>
      </trkpt>
      <trkpt lat="31.6349228" lon="34.9777122">
        <ele>405.1</ele>
        <time>2015-06-06T07:19:03Z</time>
      </trkpt>
      <trkpt lat="31.6349542" lon="34.9776575">
        <ele>405.1</ele>
        <time>2015-06-06T07:19:05Z</time>
      </trkpt>
      <trkpt lat="31.6349981" lon="34.9775907">
        <ele>405.1</ele>
        <time>2015-06-06T07:19:08Z</time>
      </trkpt>
      <trkpt lat="31.6350303" lon="34.9775206">
        <ele>405.1</ele>
        <time>2015-06-06T07:19:11Z</time>
      </trkpt>
      <trkpt lat="31.6350507" lon="34.977449">
        <ele>405.1</ele>
        <time>2015-06-06T07:19:13Z</time>
      </trkpt>
      <trkpt lat="31.635089" lon="34.9772923">
        <ele>405.0</ele>
        <time>2015-06-06T07:19:16Z</time>
      </trkpt>
      <trkpt lat="31.6351804" lon="34.9771591">
        <ele>404.8</ele>
        <time>2015-06-06T07:19:19Z</time>
      </trkpt>
      <trkpt lat="31.6352521" lon="34.9770145">
        <ele>404.6</ele>
        <time>2015-06-06T07:19:23Z</time>
      </trkpt>
      <trkpt lat="31.6353723" lon="34.9769026">
        <ele>404.4</ele>
        <time>2015-06-06T07:19:28Z</time>
      </trkpt>
      <trkpt lat="31.6354835" lon="34.9768062">
        <ele>404.2</ele>
        <time>2015-06-06T07:19:32Z</time>
      </trkpt>
      <trkpt lat="31.6355867" lon="34.9767377">
        <ele>404.0</ele>
        <time>2015-06-06T07:19:36Z</time>
      </trkpt>
      <trkpt lat="31.6356315" lon="34.9767127">
        <ele>403.5</ele>
        <time>2015-06-06T07:19:38Z</time>
      </trkpt>
      <trkpt lat="31.635686" lon="34.9766938">
        <ele>403.5</ele>
        <time>2015-06-06T07:19:40Z</time>
      </trkpt>
      <trkpt lat="31.6357781" lon="34.9766474">
        <ele>403.3</ele>
        <time>2015-06-06T07:19:43Z</time>
      </trkpt>
      <trkpt lat="31.6358892" lon="34.9765214">
        <ele>402.2</ele>
        <time>2015-06-06T07:19:47Z</time>
      </trkpt>
      <trkpt lat="31.6360258" lon="34.9764925">
        <ele>401.6</ele>
        <time>2015-06-06T07:19:50Z</time>
      </trkpt>
      <trkpt lat="31.6361144" lon="34.9763501">
        <ele>401.1</ele>
        <time>2015-06-06T07:19:53Z</time>
      </trkpt>
      <trkpt lat="31.6361475" lon="34.9761797">
        <ele>400.9</ele>
        <time>2015-06-06T07:19:56Z</time>
      </trkpt>
      <trkpt lat="31.6361112" lon="34.976002">
        <ele>400.7</ele>
        <time>2015-06-06T07:20:00Z</time>
      </trkpt>
      <trkpt lat="31.6361415" lon="34.9759007">
        <ele>400.5</ele>
        <time>2015-06-06T07:20:03Z</time>
      </trkpt>
      <trkpt lat="31.6361999" lon="34.9758127">
        <ele>400.4</ele>
        <time>2015-06-06T07:20:07Z</time>
      </trkpt>
      <trkpt lat="31.6363172" lon="34.9757303">
        <ele>400.3</ele>
        <time>2015-06-06T07:20:13Z</time>
      </trkpt>
      <trkpt lat="31.6363771" lon="34.9756908">
        <ele>399.5</ele>
        <time>2015-06-06T07:20:16Z</time>
      </trkpt>
      <trkpt lat="31.636425" lon="34.975681">
        <ele>399.5</ele>
        <time>2015-06-06T07:20:18Z</time>
      </trkpt>
      <trkpt lat="31.6365151" lon="34.9756461">
        <ele>399.3</ele>
        <time>2015-06-06T07:20:22Z</time>
      </trkpt>
      <trkpt lat="31.6366362" lon="34.9755538">
        <ele>399.2</ele>
        <time>2015-06-06T07:20:27Z</time>
      </trkpt>
      <trkpt lat="31.636718" lon="34.9754834">
        <ele>399.2</ele>
        <time>2015-06-06T07:20:30Z</time>
      </trkpt>
      <trkpt lat="31.636757" lon="34.975444">
        <ele>399.2</ele>
        <time>2015-06-06T07:20:32Z</time>
      </trkpt>
      <trkpt lat="31.6367839" lon="34.9753943">
        <ele>399.2</ele>
        <time>2015-06-06T07:20:34Z</time>
      </trkpt>
      <trkpt lat="31.6368128" lon="34.9753487">
        <ele>399.2</ele>
        <time>2015-06-06T07:20:36Z</time>
      </trkpt>
      <trkpt lat="31.6368829" lon="34.9752676">
        <ele>399.2</ele>
        <time>2015-06-06T07:20:41Z</time>
      </trkpt>
      <trkpt lat="31.6369874" lon="34.9752121">
        <ele>399.2</ele>
        <time>2015-06-06T07:20:45Z</time>
      </trkpt>
      <trkpt lat="31.6370275" lon="34.9751654">
        <ele>399.4</ele>
        <time>2015-06-06T07:20:47Z</time>
      </trkpt>
      <trkpt lat="31.6370497" lon="34.9751048">
        <ele>399.4</ele>
        <time>2015-06-06T07:20:50Z</time>
      </trkpt>
      <trkpt lat="31.6370906" lon="34.9750685">
        <ele>399.5</ele>
        <time>2015-06-06T07:20:53Z</time>
      </trkpt>
      <trkpt lat="31.6371662" lon="34.9750829">
        <ele>399.5</ele>
        <time>2015-06-06T07:20:55Z</time>
      </trkpt>
      <trkpt lat="31.6372594" lon="34.9750291">
        <ele>399.7</ele>
        <time>2015-06-06T07:20:58Z</time>
      </trkpt>
      <trkpt lat="31.6373099" lon="34.9748686">
        <ele>400.0</ele>
        <time>2015-06-06T07:21:03Z</time>
      </trkpt>
      <trkpt lat="31.6373935" lon="34.9747858">
        <ele>400.3</ele>
        <time>2015-06-06T07:21:08Z</time>
      </trkpt>
      <trkpt lat="31.6375008" lon="34.974718">
        <ele>400.4</ele>
        <time>2015-06-06T07:21:11Z</time>
      </trkpt>
      <trkpt lat="31.6376713" lon="34.9746678">
        <ele>400.5</ele>
        <time>2015-06-06T07:21:15Z</time>
      </trkpt>
      <trkpt lat="31.6377516" lon="34.9745861">
        <ele>400.6</ele>
        <time>2015-06-06T07:21:18Z</time>
      </trkpt>
      <trkpt lat="31.6378618" lon="34.9745424">
        <ele>400.7</ele>
        <time>2015-06-06T07:21:23Z</time>
      </trkpt>
      <trkpt lat="31.6379103" lon="34.9745161">
        <ele>400.7</ele>
        <time>2015-06-06T07:21:25Z</time>
      </trkpt>
      <trkpt lat="31.6379581" lon="34.9744975">
        <ele>400.7</ele>
        <time>2015-06-06T07:21:27Z</time>
      </trkpt>
      <trkpt lat="31.6380642" lon="34.9744541">
        <ele>400.9</ele>
        <time>2015-06-06T07:21:31Z</time>
      </trkpt>
      <trkpt lat="31.638187" lon="34.9743859">
        <ele>401.0</ele>
        <time>2015-06-06T07:21:38Z</time>
      </trkpt>
      <trkpt lat="31.6382529" lon="34.9743081">
        <ele>401.0</ele>
        <time>2015-06-06T07:21:43Z</time>
      </trkpt>
      <trkpt lat="31.6383101" lon="34.9742739">
        <ele>401.2</ele>
        <time>2015-06-06T07:21:46Z</time>
      </trkpt>
      <trkpt lat="31.6383569" lon="34.974256">
        <ele>401.2</ele>
        <time>2015-06-06T07:21:48Z</time>
      </trkpt>
      <trkpt lat="31.6384095" lon="34.9742209">
        <ele>401.2</ele>
        <time>2015-06-06T07:21:51Z</time>
      </trkpt>
      <trkpt lat="31.6384508" lon="34.9741733">
        <ele>401.2</ele>
        <time>2015-06-06T07:21:54Z</time>
      </trkpt>
      <trkpt lat="31.6385024" lon="34.9741437">
        <ele>401.2</ele>
        <time>2015-06-06T07:21:57Z</time>
      </trkpt>
      <trkpt lat="31.6386036" lon="34.9741252">
        <ele>401.6</ele>
        <time>2015-06-06T07:22:01Z</time>
      </trkpt>
      <trkpt lat="31.6387222" lon="34.9740102">
        <ele>402.1</ele>
        <time>2015-06-06T07:22:08Z</time>
      </trkpt>
      <trkpt lat="31.6387884" lon="34.9739311">
        <ele>402.6</ele>
        <time>2015-06-06T07:22:12Z</time>
      </trkpt>
      <trkpt lat="31.638796" lon="34.9738573">
        <ele>403.2</ele>
        <time>2015-06-06T07:22:15Z</time>
      </trkpt>
      <trkpt lat="31.6387973" lon="34.9737844">
        <ele>403.2</ele>
        <time>2015-06-06T07:22:18Z</time>
      </trkpt>
      <trkpt lat="31.6387957" lon="34.9737227">
        <ele>403.7</ele>
        <time>2015-06-06T07:22:21Z</time>
      </trkpt>
      <trkpt lat="31.6387893" lon="34.97366">
        <ele>403.7</ele>
        <time>2015-06-06T07:22:24Z</time>
      </trkpt>
      <trkpt lat="31.6387797" lon="34.973504">
        <ele>404.3</ele>
        <time>2015-06-06T07:22:32Z</time>
      </trkpt>
      <trkpt lat="31.6387662" lon="34.9734462">
        <ele>404.6</ele>
        <time>2015-06-06T07:22:35Z</time>
      </trkpt>
      <trkpt lat="31.6387605" lon="34.9733829">
        <ele>404.7</ele>
        <time>2015-06-06T07:22:38Z</time>
      </trkpt>
      <trkpt lat="31.6387733" lon="34.973221">
        <ele>405.9</ele>
        <time>2015-06-06T07:22:47Z</time>
      </trkpt>
      <trkpt lat="31.6387785" lon="34.9731083">
        <ele>406.7</ele>
        <time>2015-06-06T07:22:52Z</time>
      </trkpt>
      <trkpt lat="31.6387938" lon="34.973041">
        <ele>407.6</ele>
        <time>2015-06-06T07:22:55Z</time>
      </trkpt>
      <trkpt lat="31.6388224" lon="34.9729831">
        <ele>408.4</ele>
        <time>2015-06-06T07:22:58Z</time>
      </trkpt>
      <trkpt lat="31.6388179" lon="34.9729222">
        <ele>408.4</ele>
        <time>2015-06-06T07:23:01Z</time>
      </trkpt>
      <trkpt lat="31.638812" lon="34.9728624">
        <ele>409.0</ele>
        <time>2015-06-06T07:23:04Z</time>
      </trkpt>
      <trkpt lat="31.6388117" lon="34.9728082">
        <ele>409.5</ele>
        <time>2015-06-06T07:23:07Z</time>
      </trkpt>
      <trkpt lat="31.638822" lon="34.9726983">
        <ele>410.2</ele>
        <time>2015-06-06T07:23:12Z</time>
      </trkpt>
      <trkpt lat="31.6387951" lon="34.9726435">
        <ele>410.6</ele>
        <time>2015-06-06T07:23:15Z</time>
      </trkpt>
      <trkpt lat="31.6387509" lon="34.9726075">
        <ele>410.6</ele>
        <time>2015-06-06T07:23:18Z</time>
      </trkpt>
      <trkpt lat="31.6387309" lon="34.972552">
        <ele>411.2</ele>
        <time>2015-06-06T07:23:22Z</time>
      </trkpt>
      <trkpt lat="31.638733" lon="34.9724969">
        <ele>411.7</ele>
        <time>2015-06-06T07:23:25Z</time>
      </trkpt>
      <trkpt lat="31.6387427" lon="34.9724326">
        <ele>412.2</ele>
        <time>2015-06-06T07:23:28Z</time>
      </trkpt>
      <trkpt lat="31.6387384" lon="34.972363">
        <ele>412.2</ele>
        <time>2015-06-06T07:23:31Z</time>
      </trkpt>
      <trkpt lat="31.6387335" lon="34.9722913">
        <ele>412.5</ele>
        <time>2015-06-06T07:23:34Z</time>
      </trkpt>
      <trkpt lat="31.6387685" lon="34.9722434">
        <ele>412.5</ele>
        <time>2015-06-06T07:23:36Z</time>
      </trkpt>
      <trkpt lat="31.6389065" lon="34.9721282">
        <ele>412.6</ele>
        <time>2015-06-06T07:23:41Z</time>
      </trkpt>
      <trkpt lat="31.6390416" lon="34.9720397">
        <ele>412.7</ele>
        <time>2015-06-06T07:23:45Z</time>
      </trkpt>
      <trkpt lat="31.639154" lon="34.9720454">
        <ele>412.7</ele>
        <time>2015-06-06T07:23:48Z</time>
      </trkpt>
      <trkpt lat="31.6392628" lon="34.9720273">
        <ele>412.7</ele>
        <time>2015-06-06T07:23:51Z</time>
      </trkpt>
      <trkpt lat="31.6393687" lon="34.9719875">
        <ele>412.7</ele>
        <time>2015-06-06T07:23:54Z</time>
      </trkpt>
      <trkpt lat="31.6394623" lon="34.9719438">
        <ele>412.7</ele>
        <time>2015-06-06T07:23:57Z</time>
      </trkpt>
      <trkpt lat="31.6394903" lon="34.971906">
        <ele>412.7</ele>
        <time>2015-06-06T07:23:59Z</time>
      </trkpt>
      <trkpt lat="31.6394903" lon="34.971906">
        <ele>409.1</ele>
        <time>2015-06-06T07:24:03Z</time>
      </trkpt>
      <trkpt lat="31.6394903" lon="34.971906">
        <time>2015-06-06T07:24:03Z</time>
      </trkpt>
    </trkseg>
    <trkseg>
      <trkpt lat="31.6394903" lon="34.971906">
        <time>2015-06-06T07:24:11Z</time>
      </trkpt>
      <trkpt lat="31.6394928" lon="34.9717052">
        <ele>412.3</ele>
        <time>2015-06-06T07:24:12Z</time>
      </trkpt>
      <trkpt lat="31.639529" lon="34.9715315">
        <ele>411.2</ele>
        <time>2015-06-06T07:24:16Z</time>
      </trkpt>
      <trkpt lat="31.639652" lon="34.9714599">
        <ele>410.5</ele>
        <time>2015-06-06T07:24:20Z</time>
      </trkpt>
      <trkpt lat="31.6397571" lon="34.9714119">
        <ele>409.9</ele>
        <time>2015-06-06T07:24:24Z</time>
      </trkpt>
      <trkpt lat="31.63984" lon="34.9713241">
        <ele>409.5</ele>
        <time>2015-06-06T07:24:28Z</time>
      </trkpt>
      <trkpt lat="31.639893" lon="34.9712863">
        <ele>409.3</ele>
        <time>2015-06-06T07:24:30Z</time>
      </trkpt>
      <trkpt lat="31.6399474" lon="34.9712742">
        <ele>409.3</ele>
        <time>2015-06-06T07:24:32Z</time>
      </trkpt>
      <trkpt lat="31.6399939" lon="34.9712968">
        <ele>409.2</ele>
        <time>2015-06-06T07:24:34Z</time>
      </trkpt>
      <trkpt lat="31.6400223" lon="34.9713457">
        <ele>409.2</ele>
        <time>2015-06-06T07:24:36Z</time>
      </trkpt>
      <trkpt lat="31.6399937" lon="34.9714743">
        <ele>409.2</ele>
        <time>2015-06-06T07:24:40Z</time>
      </trkpt>
      <trkpt lat="31.6399878" lon="34.9715408">
        <ele>409.2</ele>
        <time>2015-06-06T07:24:42Z</time>
      </trkpt>
      <trkpt lat="31.6400028" lon="34.9715996">
        <ele>409.2</ele>
        <time>2015-06-06T07:24:44Z</time>
      </trkpt>
      <trkpt lat="31.6400222" lon="34.9716593">
        <ele>409.2</ele>
        <time>2015-06-06T07:24:46Z</time>
      </trkpt>
      <trkpt lat="31.6400192" lon="34.9717327">
        <ele>409.2</ele>
        <time>2015-06-06T07:24:48Z</time>
      </trkpt>
      <trkpt lat="31.6399886" lon="34.9717922">
        <ele>409.2</ele>
        <time>2015-06-06T07:24:50Z</time>
      </trkpt>
      <trkpt lat="31.6399479" lon="34.9718519">
        <ele>409.2</ele>
        <time>2015-06-06T07:24:52Z</time>
      </trkpt>
      <trkpt lat="31.6399217" lon="34.9719206">
        <ele>409.2</ele>
        <time>2015-06-06T07:24:54Z</time>
      </trkpt>
      <trkpt lat="31.6399052" lon="34.9719858">
        <ele>409.2</ele>
        <time>2015-06-06T07:24:56Z</time>
      </trkpt>
      <trkpt lat="31.6398845" lon="34.9720441">
        <ele>409.2</ele>
        <time>2015-06-06T07:24:58Z</time>
      </trkpt>
      <trkpt lat="31.6398845" lon="34.9721122">
        <ele>409.2</ele>
        <time>2015-06-06T07:25:00Z</time>
      </trkpt>
      <trkpt lat="31.6399068" lon="34.9721844">
        <ele>409.2</ele>
        <time>2015-06-06T07:25:02Z</time>
      </trkpt>
      <trkpt lat="31.639942" lon="34.9722484">
        <ele>409.3</ele>
        <time>2015-06-06T07:25:04Z</time>
      </trkpt>
      <trkpt lat="31.6399824" lon="34.9723049">
        <ele>409.3</ele>
        <time>2015-06-06T07:25:06Z</time>
      </trkpt>
      <trkpt lat="31.6400193" lon="34.9723489">
        <ele>409.3</ele>
        <time>2015-06-06T07:25:08Z</time>
      </trkpt>
      <trkpt lat="31.6400544" lon="34.9723978">
        <ele>410.1</ele>
        <time>2015-06-06T07:25:10Z</time>
      </trkpt>
      <trkpt lat="31.640077" lon="34.9724528">
        <ele>410.1</ele>
        <time>2015-06-06T07:25:12Z</time>
      </trkpt>
      <trkpt lat="31.640106" lon="34.9725576">
        <ele>411.4</ele>
        <time>2015-06-06T07:25:16Z</time>
      </trkpt>
      <trkpt lat="31.640131" lon="34.9726054">
        <ele>411.6</ele>
        <time>2015-06-06T07:25:18Z</time>
      </trkpt>
      <trkpt lat="31.6401848" lon="34.9726327">
        <ele>411.6</ele>
        <time>2015-06-06T07:25:20Z</time>
      </trkpt>
      <trkpt lat="31.6402308" lon="34.9726469">
        <ele>411.6</ele>
        <time>2015-06-06T07:25:22Z</time>
      </trkpt>
      <trkpt lat="31.6402714" lon="34.9727074">
        <ele>411.8</ele>
        <time>2015-06-06T07:25:25Z</time>
      </trkpt>
      <trkpt lat="31.6402897" lon="34.9727646">
        <ele>411.8</ele>
        <time>2015-06-06T07:25:27Z</time>
      </trkpt>
      <trkpt lat="31.6403183" lon="34.9729037">
        <ele>411.9</ele>
        <time>2015-06-06T07:25:31Z</time>
      </trkpt>
      <trkpt lat="31.6403978" lon="34.973032">
        <ele>412.2</ele>
        <time>2015-06-06T07:25:36Z</time>
      </trkpt>
      <trkpt lat="31.6404316" lon="34.9730911">
        <ele>412.6</ele>
        <time>2015-06-06T07:25:38Z</time>
      </trkpt>
      <trkpt lat="31.6404772" lon="34.9731451">
        <ele>412.6</ele>
        <time>2015-06-06T07:25:40Z</time>
      </trkpt>
      <trkpt lat="31.6405213" lon="34.9731979">
        <ele>412.6</ele>
        <time>2015-06-06T07:25:42Z</time>
      </trkpt>
      <trkpt lat="31.6405496" lon="34.973304">
        <ele>412.6</ele>
        <time>2015-06-06T07:25:45Z</time>
      </trkpt>
      <trkpt lat="31.640647" lon="34.9734469">
        <ele>412.6</ele>
        <time>2015-06-06T07:25:49Z</time>
      </trkpt>
      <trkpt lat="31.6407611" lon="34.9734906">
        <ele>412.6</ele>
        <time>2015-06-06T07:25:52Z</time>
      </trkpt>
      <trkpt lat="31.640882" lon="34.9735984">
        <ele>412.6</ele>
        <time>2015-06-06T07:25:56Z</time>
      </trkpt>
      <trkpt lat="31.6410397" lon="34.97363">
        <ele>412.6</ele>
        <time>2015-06-06T07:26:02Z</time>
      </trkpt>
      <trkpt lat="31.6411352" lon="34.9736175">
        <ele>412.6</ele>
        <time>2015-06-06T07:26:06Z</time>
      </trkpt>
      <trkpt lat="31.6412309" lon="34.9736569">
        <ele>412.6</ele>
        <time>2015-06-06T07:26:09Z</time>
      </trkpt>
      <trkpt lat="31.6413272" lon="34.9736439">
        <ele>412.6</ele>
        <time>2015-06-06T07:26:12Z</time>
      </trkpt>
      <trkpt lat="31.6414682" lon="34.9736535">
        <ele>411.4</ele>
        <time>2015-06-06T07:26:17Z</time>
      </trkpt>
      <trkpt lat="31.64157" lon="34.9736341">
        <ele>410.3</ele>
        <time>2015-06-06T07:26:20Z</time>
      </trkpt>
      <trkpt lat="31.6416271" lon="34.9736176">
        <ele>409.7</ele>
        <time>2015-06-06T07:26:22Z</time>
      </trkpt>
      <trkpt lat="31.6416789" lon="34.9736149">
        <ele>409.7</ele>
        <time>2015-06-06T07:26:24Z</time>
      </trkpt>
      <trkpt lat="31.641746" lon="34.9736363">
        <ele>409.1</ele>
        <time>2015-06-06T07:26:27Z</time>
      </trkpt>
      <trkpt lat="31.6417994" lon="34.973661">
        <ele>409.1</ele>
        <time>2015-06-06T07:26:29Z</time>
      </trkpt>
      <trkpt lat="31.6419052" lon="34.9736792">
        <ele>408.8</ele>
        <time>2015-06-06T07:26:32Z</time>
      </trkpt>
      <trkpt lat="31.6419534" lon="34.9736865">
        <ele>408.2</ele>
        <time>2015-06-06T07:26:34Z</time>
      </trkpt>
      <trkpt lat="31.6420155" lon="34.9737025">
        <ele>408.2</ele>
        <time>2015-06-06T07:26:36Z</time>
      </trkpt>
      <trkpt lat="31.6421341" lon="34.9737096">
        <ele>408.2</ele>
        <time>2015-06-06T07:26:39Z</time>
      </trkpt>
      <trkpt lat="31.6422285" lon="34.9736448">
        <ele>408.1</ele>
        <time>2015-06-06T07:26:42Z</time>
      </trkpt>
      <trkpt lat="31.64233" lon="34.973528">
        <ele>407.9</ele>
        <time>2015-06-06T07:26:47Z</time>
      </trkpt>
      <trkpt lat="31.6423948" lon="34.9734311">
        <ele>407.6</ele>
        <time>2015-06-06T07:26:53Z</time>
      </trkpt>
      <trkpt lat="31.6424338" lon="34.9733927">
        <ele>407.3</ele>
        <time>2015-06-06T07:26:55Z</time>
      </trkpt>
      <trkpt lat="31.6424671" lon="34.973342">
        <ele>407.3</ele>
        <time>2015-06-06T07:26:57Z</time>
      </trkpt>
      <trkpt lat="31.6424972" lon="34.9732898">
        <ele>407.3</ele>
        <time>2015-06-06T07:26:59Z</time>
      </trkpt>
      <trkpt lat="31.6425456" lon="34.9732523">
        <ele>406.9</ele>
        <time>2015-06-06T07:27:02Z</time>
      </trkpt>
      <trkpt lat="31.6426701" lon="34.9733181">
        <ele>406.7</ele>
        <time>2015-06-06T07:27:08Z</time>
      </trkpt>
      <trkpt lat="31.642776" lon="34.9732959">
        <ele>406.5</ele>
        <time>2015-06-06T07:27:11Z</time>
      </trkpt>
      <trkpt lat="31.6428587" lon="34.9731427">
        <ele>406.3</ele>
        <time>2015-06-06T07:27:18Z</time>
      </trkpt>
      <trkpt lat="31.6429066" lon="34.9730372">
        <ele>406.0</ele>
        <time>2015-06-06T07:27:23Z</time>
      </trkpt>
      <trkpt lat="31.642991" lon="34.9729736">
        <ele>405.7</ele>
        <time>2015-06-06T07:27:27Z</time>
      </trkpt>
      <trkpt lat="31.6430299" lon="34.9729411">
        <ele>405.1</ele>
        <time>2015-06-06T07:27:29Z</time>
      </trkpt>
      <trkpt lat="31.6430712" lon="34.9729022">
        <ele>405.1</ele>
        <time>2015-06-06T07:27:31Z</time>
      </trkpt>
      <trkpt lat="31.6431077" lon="34.9728562">
        <ele>405.1</ele>
        <time>2015-06-06T07:27:33Z</time>
      </trkpt>
      <trkpt lat="31.6431197" lon="34.972796">
        <ele>404.4</ele>
        <time>2015-06-06T07:27:35Z</time>
      </trkpt>
      <trkpt lat="31.6430988" lon="34.9727359">
        <ele>404.4</ele>
        <time>2015-06-06T07:27:38Z</time>
      </trkpt>
      <trkpt lat="31.6430904" lon="34.9726792">
        <ele>403.0</ele>
        <time>2015-06-06T07:27:41Z</time>
      </trkpt>
      <trkpt lat="31.6431039" lon="34.9726288">
        <ele>403.0</ele>
        <time>2015-06-06T07:27:43Z</time>
      </trkpt>
      <trkpt lat="31.6431065" lon="34.9725756">
        <ele>402.2</ele>
        <time>2015-06-06T07:27:45Z</time>
      </trkpt>
      <trkpt lat="31.6430898" lon="34.9725186">
        <ele>402.2</ele>
        <time>2015-06-06T07:27:47Z</time>
      </trkpt>
      <trkpt lat="31.6430731" lon="34.9724694">
        <ele>402.2</ele>
        <time>2015-06-06T07:27:49Z</time>
      </trkpt>
      <trkpt lat="31.6430594" lon="34.9723423">
        <ele>401.5</ele>
        <time>2015-06-06T07:27:54Z</time>
      </trkpt>
      <trkpt lat="31.6431061" lon="34.9723027">
        <ele>398.3</ele>
        <time>2015-06-06T07:27:59Z</time>
      </trkpt>
      <trkpt lat="31.6431142" lon="34.9722836">
        <ele>395.8</ele>
        <time>2015-06-06T07:28:03Z</time>
      </trkpt>
      <trkpt lat="31.6431142" lon="34.9722836">
        <time>2015-06-06T07:28:03Z</time>
      </trkpt>
    </trkseg>
    <trkseg>
      <trkpt lat="31.6431142" lon="34.9722836">
        <time>2015-06-06T07:30:28Z</time>
      </trkpt>
      <trkpt lat="31.6430673" lon="34.9721902">
        <ele>397.4</ele>
        <time>2015-06-06T07:30:29Z</time>
      </trkpt>
      <trkpt lat="31.6430504" lon="34.9721309">
        <ele>397.4</ele>
        <time>2015-06-06T07:30:32Z</time>
      </trkpt>
      <trkpt lat="31.6430492" lon="34.9720728">
        <ele>397.4</ele>
        <time>2015-06-06T07:30:34Z</time>
      </trkpt>
      <trkpt lat="31.6430784" lon="34.97196">
        <ele>397.4</ele>
        <time>2015-06-06T07:30:42Z</time>
      </trkpt>
      <trkpt lat="31.6431076" lon="34.9719119">
        <ele>397.0</ele>
        <time>2015-06-06T07:30:45Z</time>
      </trkpt>
      <trkpt lat="31.6430915" lon="34.9718512">
        <ele>397.0</ele>
        <time>2015-06-06T07:30:47Z</time>
      </trkpt>
      <trkpt lat="31.6430115" lon="34.971727">
        <ele>396.3</ele>
        <time>2015-06-06T07:30:51Z</time>
      </trkpt>
      <trkpt lat="31.6429811" lon="34.9716595">
        <ele>395.2</ele>
        <time>2015-06-06T07:30:53Z</time>
      </trkpt>
      <trkpt lat="31.6429645" lon="34.9716052">
        <ele>395.2</ele>
        <time>2015-06-06T07:30:55Z</time>
      </trkpt>
      <trkpt lat="31.6429606" lon="34.971545">
        <ele>394.9</ele>
        <time>2015-06-06T07:30:57Z</time>
      </trkpt>
      <trkpt lat="31.6429814" lon="34.9714899">
        <ele>394.9</ele>
        <time>2015-06-06T07:30:59Z</time>
      </trkpt>
      <trkpt lat="31.6431092" lon="34.9714103">
        <ele>394.6</ele>
        <time>2015-06-06T07:31:03Z</time>
      </trkpt>
      <trkpt lat="31.6432345" lon="34.9714179">
        <ele>393.7</ele>
        <time>2015-06-06T07:31:07Z</time>
      </trkpt>
      <trkpt lat="31.643357" lon="34.9715003">
        <ele>392.9</ele>
        <time>2015-06-06T07:31:12Z</time>
      </trkpt>
      <trkpt lat="31.6434277" lon="34.9715849">
        <ele>392.3</ele>
        <time>2015-06-06T07:31:16Z</time>
      </trkpt>
      <trkpt lat="31.6435499" lon="34.9717014">
        <ele>391.8</ele>
        <time>2015-06-06T07:31:22Z</time>
      </trkpt>
      <trkpt lat="31.6436582" lon="34.9718147">
        <ele>391.7</ele>
        <time>2015-06-06T07:31:25Z</time>
      </trkpt>
      <trkpt lat="31.6438512" lon="34.9718404">
        <ele>391.6</ele>
        <time>2015-06-06T07:31:28Z</time>
      </trkpt>
      <trkpt lat="31.6440844" lon="34.9718981">
        <ele>391.4</ele>
        <time>2015-06-06T07:31:32Z</time>
      </trkpt>
      <trkpt lat="31.6441929" lon="34.9718584">
        <ele>390.9</ele>
        <time>2015-06-06T07:31:34Z</time>
      </trkpt>
      <trkpt lat="31.644358" lon="34.9717991">
        <ele>390.5</ele>
        <time>2015-06-06T07:31:37Z</time>
      </trkpt>
      <trkpt lat="31.6444722" lon="34.9717427">
        <ele>389.5</ele>
        <time>2015-06-06T07:31:39Z</time>
      </trkpt>
      <trkpt lat="31.6446018" lon="34.9716413">
        <ele>388.1</ele>
        <time>2015-06-06T07:31:43Z</time>
      </trkpt>
      <trkpt lat="31.6446831" lon="34.9715915">
        <ele>387.4</ele>
        <time>2015-06-06T07:31:45Z</time>
      </trkpt>
      <trkpt lat="31.6448294" lon="34.9715131">
        <ele>385.4</ele>
        <time>2015-06-06T07:31:49Z</time>
      </trkpt>
      <trkpt lat="31.6449757" lon="34.9714188">
        <ele>383.9</ele>
        <time>2015-06-06T07:31:53Z</time>
      </trkpt>
      <trkpt lat="31.6450973" lon="34.971386">
        <ele>381.0</ele>
        <time>2015-06-06T07:31:57Z</time>
      </trkpt>
      <trkpt lat="31.6451899" lon="34.9713134">
        <ele>380.0</ele>
        <time>2015-06-06T07:31:59Z</time>
      </trkpt>
      <trkpt lat="31.6453321" lon="34.9711834">
        <ele>379.0</ele>
        <time>2015-06-06T07:32:02Z</time>
      </trkpt>
      <trkpt lat="31.6454815" lon="34.9711191">
        <ele>378.5</ele>
        <time>2015-06-06T07:32:05Z</time>
      </trkpt>
      <trkpt lat="31.6456079" lon="34.9710471">
        <ele>378.3</ele>
        <time>2015-06-06T07:32:08Z</time>
      </trkpt>
      <trkpt lat="31.6457265" lon="34.9709498">
        <ele>378.1</ele>
        <time>2015-06-06T07:32:11Z</time>
      </trkpt>
      <trkpt lat="31.6458617" lon="34.9708788">
        <ele>377.8</ele>
        <time>2015-06-06T07:32:14Z</time>
      </trkpt>
      <trkpt lat="31.6459835" lon="34.9707744">
        <ele>377.1</ele>
        <time>2015-06-06T07:32:17Z</time>
      </trkpt>
      <trkpt lat="31.6460625" lon="34.970704">
        <ele>376.5</ele>
        <time>2015-06-06T07:32:20Z</time>
      </trkpt>
      <trkpt lat="31.6461445" lon="34.9706131">
        <ele>375.5</ele>
        <time>2015-06-06T07:32:25Z</time>
      </trkpt>
      <trkpt lat="31.646224" lon="34.9705314">
        <ele>374.7</ele>
        <time>2015-06-06T07:32:29Z</time>
      </trkpt>
      <trkpt lat="31.6463125" lon="34.9704046">
        <ele>374.4</ele>
        <time>2015-06-06T07:32:34Z</time>
      </trkpt>
      <trkpt lat="31.6463648" lon="34.9702425">
        <ele>373.5</ele>
        <time>2015-06-06T07:32:40Z</time>
      </trkpt>
      <trkpt lat="31.6464037" lon="34.9701858">
        <ele>372.4</ele>
        <time>2015-06-06T07:32:44Z</time>
      </trkpt>
      <trkpt lat="31.646536" lon="34.970098">
        <ele>371.4</ele>
        <time>2015-06-06T07:32:48Z</time>
      </trkpt>
      <trkpt lat="31.646624" lon="34.969939">
        <ele>370.9</ele>
        <time>2015-06-06T07:32:52Z</time>
      </trkpt>
      <trkpt lat="31.646757" lon="34.9698487">
        <ele>370.7</ele>
        <time>2015-06-06T07:32:56Z</time>
      </trkpt>
      <trkpt lat="31.6468258" lon="34.9696737">
        <ele>370.3</ele>
        <time>2015-06-06T07:33:00Z</time>
      </trkpt>
      <trkpt lat="31.6468531" lon="34.96951">
        <ele>369.6</ele>
        <time>2015-06-06T07:33:05Z</time>
      </trkpt>
      <trkpt lat="31.6469764" lon="34.9693673">
        <ele>368.3</ele>
        <time>2015-06-06T07:33:09Z</time>
      </trkpt>
      <trkpt lat="31.6470784" lon="34.969227">
        <ele>367.8</ele>
        <time>2015-06-06T07:33:12Z</time>
      </trkpt>
      <trkpt lat="31.6472434" lon="34.9691607">
        <ele>367.3</ele>
        <time>2015-06-06T07:33:15Z</time>
      </trkpt>
      <trkpt lat="31.6473664" lon="34.9691267">
        <ele>365.6</ele>
        <time>2015-06-06T07:33:17Z</time>
      </trkpt>
      <trkpt lat="31.6474968" lon="34.9691184">
        <ele>365.6</ele>
        <time>2015-06-06T07:33:19Z</time>
      </trkpt>
      <trkpt lat="31.6475531" lon="34.969084">
        <ele>365.3</ele>
        <time>2015-06-06T07:33:21Z</time>
      </trkpt>
      <trkpt lat="31.6475583" lon="34.9690636">
        <ele>365.3</ele>
        <time>2015-06-06T07:33:22Z</time>
      </trkpt>
      <trkpt lat="31.6475583" lon="34.9690636">
        <ele>356.3</ele>
        <time>2015-06-06T07:33:26Z</time>
      </trkpt>
      <trkpt lat="31.6475583" lon="34.9690636">
        <time>2015-06-06T07:33:26Z</time>
      </trkpt>
    </trkseg>
    <trkseg>
      <trkpt lat="31.6475583" lon="34.9690636">
        <time>2015-06-06T07:33:38Z</time>
      </trkpt>
      <trkpt lat="31.6475412" lon="34.9688959">
        <ele>362.6</ele>
        <time>2015-06-06T07:33:39Z</time>
      </trkpt>
      <trkpt lat="31.6475449" lon="34.9687363">
        <ele>360.3</ele>
        <time>2015-06-06T07:33:43Z</time>
      </trkpt>
      <trkpt lat="31.6475738" lon="34.9685664">
        <ele>360.0</ele>
        <time>2015-06-06T07:33:47Z</time>
      </trkpt>
      <trkpt lat="31.6476173" lon="34.968382">
        <ele>359.6</ele>
        <time>2015-06-06T07:33:51Z</time>
      </trkpt>
      <trkpt lat="31.6476474" lon="34.9682264">
        <ele>359.4</ele>
        <time>2015-06-06T07:33:54Z</time>
      </trkpt>
      <trkpt lat="31.6476752" lon="34.9680494">
        <ele>358.5</ele>
        <time>2015-06-06T07:33:57Z</time>
      </trkpt>
      <trkpt lat="31.6477219" lon="34.967867">
        <ele>357.9</ele>
        <time>2015-06-06T07:34:00Z</time>
      </trkpt>
      <trkpt lat="31.647776" lon="34.9676852">
        <ele>357.5</ele>
        <time>2015-06-06T07:34:03Z</time>
      </trkpt>
      <trkpt lat="31.6478626" lon="34.9675145">
        <ele>357.3</ele>
        <time>2015-06-06T07:34:06Z</time>
      </trkpt>
      <trkpt lat="31.6479626" lon="34.967366">
        <ele>356.9</ele>
        <time>2015-06-06T07:34:09Z</time>
      </trkpt>
      <trkpt lat="31.6480836" lon="34.9672202">
        <ele>356.7</ele>
        <time>2015-06-06T07:34:13Z</time>
      </trkpt>
      <trkpt lat="31.648229" lon="34.9671141">
        <ele>356.8</ele>
        <time>2015-06-06T07:34:17Z</time>
      </trkpt>
      <trkpt lat="31.648355" lon="34.9670308">
        <ele>357.3</ele>
        <time>2015-06-06T07:34:21Z</time>
      </trkpt>
      <trkpt lat="31.6484512" lon="34.9669023">
        <ele>357.6</ele>
        <time>2015-06-06T07:34:25Z</time>
      </trkpt>
      <trkpt lat="31.6485608" lon="34.9667502">
        <ele>358.3</ele>
        <time>2015-06-06T07:34:29Z</time>
      </trkpt>
      <trkpt lat="31.6486435" lon="34.9665768">
        <ele>358.6</ele>
        <time>2015-06-06T07:34:33Z</time>
      </trkpt>
      <trkpt lat="31.6487237" lon="34.9664258">
        <ele>358.6</ele>
        <time>2015-06-06T07:34:37Z</time>
      </trkpt>
      <trkpt lat="31.6488187" lon="34.9662793">
        <ele>358.6</ele>
        <time>2015-06-06T07:34:41Z</time>
      </trkpt>
      <trkpt lat="31.6488643" lon="34.9662187">
        <ele>358.6</ele>
        <time>2015-06-06T07:34:43Z</time>
      </trkpt>
      <trkpt lat="31.6489112" lon="34.9661973">
        <ele>358.6</ele>
        <time>2015-06-06T07:34:45Z</time>
      </trkpt>
      <trkpt lat="31.6489652" lon="34.9662258">
        <ele>359.0</ele>
        <time>2015-06-06T07:34:48Z</time>
      </trkpt>
      <trkpt lat="31.6490915" lon="34.9663442">
        <ele>359.5</ele>
        <time>2015-06-06T07:34:55Z</time>
      </trkpt>
      <trkpt lat="31.6491344" lon="34.9663825">
        <ele>359.8</ele>
        <time>2015-06-06T07:34:58Z</time>
      </trkpt>
      <trkpt lat="31.64918" lon="34.9664006">
        <ele>359.8</ele>
        <time>2015-06-06T07:35:01Z</time>
      </trkpt>
      <trkpt lat="31.6492768" lon="34.966439">
        <ele>360.7</ele>
        <time>2015-06-06T07:35:07Z</time>
      </trkpt>
      <trkpt lat="31.6493286" lon="34.966462">
        <ele>361.7</ele>
        <time>2015-06-06T07:35:10Z</time>
      </trkpt>
      <trkpt lat="31.6494133" lon="34.9665099">
        <ele>362.7</ele>
        <time>2015-06-06T07:35:15Z</time>
      </trkpt>
      <trkpt lat="31.6495119" lon="34.9665506">
        <ele>363.6</ele>
        <time>2015-06-06T07:35:20Z</time>
      </trkpt>
      <trkpt lat="31.649588" lon="34.9665984">
        <ele>364.4</ele>
        <time>2015-06-06T07:35:24Z</time>
      </trkpt>
      <trkpt lat="31.6496979" lon="34.9666878">
        <ele>365.1</ele>
        <time>2015-06-06T07:35:29Z</time>
      </trkpt>
      <trkpt lat="31.6497367" lon="34.9667313">
        <ele>365.7</ele>
        <time>2015-06-06T07:35:31Z</time>
      </trkpt>
      <trkpt lat="31.6497964" lon="34.9668068">
        <ele>365.7</ele>
        <time>2015-06-06T07:35:34Z</time>
      </trkpt>
      <trkpt lat="31.6498741" lon="34.9669439">
        <ele>366.6</ele>
        <time>2015-06-06T07:35:39Z</time>
      </trkpt>
      <trkpt lat="31.6499309" lon="34.9670193">
        <ele>367.0</ele>
        <time>2015-06-06T07:35:42Z</time>
      </trkpt>
      <trkpt lat="31.6499757" lon="34.9670656">
        <ele>367.0</ele>
        <time>2015-06-06T07:35:44Z</time>
      </trkpt>
      <trkpt lat="31.6500703" lon="34.9671818">
        <ele>367.4</ele>
        <time>2015-06-06T07:35:48Z</time>
      </trkpt>
      <trkpt lat="31.6501915" lon="34.9673054">
        <ele>367.7</ele>
        <time>2015-06-06T07:35:52Z</time>
      </trkpt>
      <trkpt lat="31.6503048" lon="34.9673714">
        <ele>367.7</ele>
        <time>2015-06-06T07:35:55Z</time>
      </trkpt>
      <trkpt lat="31.6504969" lon="34.9674231">
        <ele>367.7</ele>
        <time>2015-06-06T07:35:59Z</time>
      </trkpt>
      <trkpt lat="31.6505423" lon="34.9674291">
        <ele>367.7</ele>
        <time>2015-06-06T07:36:00Z</time>
      </trkpt>
      <trkpt lat="31.6505943" lon="34.9674405">
        <ele>367.7</ele>
        <time>2015-06-06T07:36:01Z</time>
      </trkpt>
      <trkpt lat="31.6506459" lon="34.9674602">
        <ele>367.7</ele>
        <time>2015-06-06T07:36:02Z</time>
      </trkpt>
      <trkpt lat="31.650701" lon="34.9674832">
        <ele>367.7</ele>
        <time>2015-06-06T07:36:03Z</time>
      </trkpt>
      <trkpt lat="31.6507586" lon="34.9675069">
        <ele>367.7</ele>
        <time>2015-06-06T07:36:04Z</time>
      </trkpt>
      <trkpt lat="31.6508776" lon="34.9675739">
        <ele>367.7</ele>
        <time>2015-06-06T07:36:06Z</time>
      </trkpt>
      <trkpt lat="31.6510088" lon="34.9676512">
        <ele>367.7</ele>
        <time>2015-06-06T07:36:08Z</time>
      </trkpt>
      <trkpt lat="31.6511646" lon="34.9677371">
        <ele>367.7</ele>
        <time>2015-06-06T07:36:10Z</time>
      </trkpt>
      <trkpt lat="31.6513937" lon="34.9678754">
        <ele>367.7</ele>
        <time>2015-06-06T07:36:13Z</time>
      </trkpt>
      <trkpt lat="31.6515643" lon="34.9679478">
        <ele>367.7</ele>
        <time>2015-06-06T07:36:15Z</time>
      </trkpt>
      <trkpt lat="31.6519351" lon="34.9681002">
        <ele>367.7</ele>
        <time>2015-06-06T07:36:19Z</time>
      </trkpt>
      <trkpt lat="31.6521466" lon="34.9681645">
        <ele>367.5</ele>
        <time>2015-06-06T07:36:21Z</time>
      </trkpt>
      <trkpt lat="31.652365" lon="34.9682061">
        <ele>367.1</ele>
        <time>2015-06-06T07:36:23Z</time>
      </trkpt>
      <trkpt lat="31.652473" lon="34.9682173">
        <ele>365.9</ele>
        <time>2015-06-06T07:36:24Z</time>
      </trkpt>
      <trkpt lat="31.6525811" lon="34.9682328">
        <ele>365.9</ele>
        <time>2015-06-06T07:36:25Z</time>
      </trkpt>
      <trkpt lat="31.652669" lon="34.9682505">
        <ele>365.9</ele>
        <time>2015-06-06T07:36:26Z</time>
      </trkpt>
      <trkpt lat="31.6527745" lon="34.9682791">
        <ele>365.9</ele>
        <time>2015-06-06T07:36:27Z</time>
      </trkpt>
      <trkpt lat="31.6528789" lon="34.9683057">
        <ele>365.9</ele>
        <time>2015-06-06T07:36:28Z</time>
      </trkpt>
      <trkpt lat="31.6533041" lon="34.9683559">
        <ele>364.3</ele>
        <time>2015-06-06T07:36:32Z</time>
      </trkpt>
      <trkpt lat="31.6535168" lon="34.9683792">
        <ele>363.1</ele>
        <time>2015-06-06T07:36:34Z</time>
      </trkpt>
      <trkpt lat="31.6537335" lon="34.96836">
        <ele>362.2</ele>
        <time>2015-06-06T07:36:36Z</time>
      </trkpt>
      <trkpt lat="31.6539692" lon="34.9683261">
        <ele>361.1</ele>
        <time>2015-06-06T07:36:38Z</time>
      </trkpt>
      <trkpt lat="31.6540791" lon="34.9683006">
        <ele>358.1</ele>
        <time>2015-06-06T07:36:39Z</time>
      </trkpt>
      <trkpt lat="31.6541894" lon="34.968285">
        <ele>358.1</ele>
        <time>2015-06-06T07:36:40Z</time>
      </trkpt>
      <trkpt lat="31.6542791" lon="34.9682694">
        <ele>358.1</ele>
        <time>2015-06-06T07:36:41Z</time>
      </trkpt>
      <trkpt lat="31.6543723" lon="34.9682653">
        <ele>358.1</ele>
        <time>2015-06-06T07:36:42Z</time>
      </trkpt>
      <trkpt lat="31.6544555" lon="34.9682856">
        <ele>358.1</ele>
        <time>2015-06-06T07:36:43Z</time>
      </trkpt>
      <trkpt lat="31.6545791" lon="34.9683547">
        <ele>357.4</ele>
        <time>2015-06-06T07:36:45Z</time>
      </trkpt>
      <trkpt lat="31.6546162" lon="34.9684281">
        <ele>354.8</ele>
        <time>2015-06-06T07:36:47Z</time>
      </trkpt>
      <trkpt lat="31.6546187" lon="34.9685048">
        <ele>354.8</ele>
        <time>2015-06-06T07:36:49Z</time>
      </trkpt>
      <trkpt lat="31.6545984" lon="34.9685534">
        <ele>354.8</ele>
        <time>2015-06-06T07:36:50Z</time>
      </trkpt>
      <trkpt lat="31.6546103" lon="34.9687286">
        <ele>350.9</ele>
        <time>2015-06-06T07:36:54Z</time>
      </trkpt>
      <trkpt lat="31.6546248" lon="34.9688132">
        <ele>348.6</ele>
        <time>2015-06-06T07:36:56Z</time>
      </trkpt>
      <trkpt lat="31.6546254" lon="34.9688855">
        <ele>348.6</ele>
        <time>2015-06-06T07:36:58Z</time>
      </trkpt>
      <trkpt lat="31.6546268" lon="34.9689941">
        <ele>344.5</ele>
        <time>2015-06-06T07:37:01Z</time>
      </trkpt>
      <trkpt lat="31.6546359" lon="34.9690597">
        <ele>344.5</ele>
        <time>2015-06-06T07:37:03Z</time>
      </trkpt>
      <trkpt lat="31.6546639" lon="34.9692191">
        <ele>343.2</ele>
        <time>2015-06-06T07:37:08Z</time>
      </trkpt>
      <trkpt lat="31.65467" lon="34.9692787">
        <ele>342.9</ele>
        <time>2015-06-06T07:37:10Z</time>
      </trkpt>
      <trkpt lat="31.654666" lon="34.9693409">
        <ele>342.9</ele>
        <time>2015-06-06T07:37:12Z</time>
      </trkpt>
      <trkpt lat="31.6546468" lon="34.9694522">
        <ele>342.9</ele>
        <time>2015-06-06T07:37:15Z</time>
      </trkpt>
      <trkpt lat="31.6546434" lon="34.9695293">
        <ele>342.9</ele>
        <time>2015-06-06T07:37:17Z</time>
      </trkpt>
      <trkpt lat="31.6546561" lon="34.9696007">
        <ele>342.9</ele>
        <time>2015-06-06T07:37:19Z</time>
      </trkpt>
      <trkpt lat="31.6546627" lon="34.9696722">
        <ele>342.9</ele>
        <time>2015-06-06T07:37:21Z</time>
      </trkpt>
      <trkpt lat="31.6546756" lon="34.969784">
        <ele>342.9</ele>
        <time>2015-06-06T07:37:24Z</time>
      </trkpt>
      <trkpt lat="31.6546941" lon="34.9698542">
        <ele>342.9</ele>
        <time>2015-06-06T07:37:26Z</time>
      </trkpt>
      <trkpt lat="31.65474" lon="34.9699466">
        <ele>342.9</ele>
        <time>2015-06-06T07:37:29Z</time>
      </trkpt>
      <trkpt lat="31.6547752" lon="34.9699981">
        <ele>343.0</ele>
        <time>2015-06-06T07:37:31Z</time>
      </trkpt>
      <trkpt lat="31.654825" lon="34.9700172">
        <ele>343.0</ele>
        <time>2015-06-06T07:37:33Z</time>
      </trkpt>
      <trkpt lat="31.6548791" lon="34.9700092">
        <ele>343.0</ele>
        <time>2015-06-06T07:37:35Z</time>
      </trkpt>
      <trkpt lat="31.6549227" lon="34.9699932">
        <ele>343.3</ele>
        <time>2015-06-06T07:37:37Z</time>
      </trkpt>
      <trkpt lat="31.6549825" lon="34.969956">
        <ele>343.3</ele>
        <time>2015-06-06T07:37:40Z</time>
      </trkpt>
      <trkpt lat="31.6550638" lon="34.9698805">
        <ele>343.5</ele>
        <time>2015-06-06T07:37:45Z</time>
      </trkpt>
      <trkpt lat="31.6551127" lon="34.9698466">
        <ele>343.5</ele>
        <time>2015-06-06T07:37:48Z</time>
      </trkpt>
      <trkpt lat="31.6552123" lon="34.9698558">
        <ele>343.7</ele>
        <time>2015-06-06T07:37:53Z</time>
      </trkpt>
      <trkpt lat="31.6552973" lon="34.9698933">
        <ele>344.1</ele>
        <time>2015-06-06T07:37:57Z</time>
      </trkpt>
      <trkpt lat="31.6553457" lon="34.9699298">
        <ele>344.7</ele>
        <time>2015-06-06T07:38:00Z</time>
      </trkpt>
      <trkpt lat="31.6554299" lon="34.9700668">
        <ele>345.5</ele>
        <time>2015-06-06T07:38:07Z</time>
      </trkpt>
      <trkpt lat="31.6554603" lon="34.9701336">
        <ele>346.6</ele>
        <time>2015-06-06T07:38:10Z</time>
      </trkpt>
      <trkpt lat="31.6554676" lon="34.9701894">
        <ele>346.6</ele>
        <time>2015-06-06T07:38:12Z</time>
      </trkpt>
      <trkpt lat="31.6554758" lon="34.9702427">
        <ele>347.4</ele>
        <time>2015-06-06T07:38:14Z</time>
      </trkpt>
      <trkpt lat="31.6554998" lon="34.9703125">
        <ele>347.4</ele>
        <time>2015-06-06T07:38:17Z</time>
      </trkpt>
      <trkpt lat="31.6555797" lon="34.9704276">
        <ele>347.9</ele>
        <time>2015-06-06T07:38:22Z</time>
      </trkpt>
      <trkpt lat="31.6555995" lon="34.9704856">
        <ele>348.2</ele>
        <time>2015-06-06T07:38:24Z</time>
      </trkpt>
      <trkpt lat="31.6555924" lon="34.9705601">
        <ele>348.2</ele>
        <time>2015-06-06T07:38:27Z</time>
      </trkpt>
      <trkpt lat="31.6555663" lon="34.9706123">
        <ele>348.3</ele>
        <time>2015-06-06T07:38:29Z</time>
      </trkpt>
      <trkpt lat="31.6555308" lon="34.9706455">
        <ele>348.3</ele>
        <time>2015-06-06T07:38:31Z</time>
      </trkpt>
      <trkpt lat="31.6554893" lon="34.9707027">
        <ele>348.4</ele>
        <time>2015-06-06T07:38:34Z</time>
      </trkpt>
      <trkpt lat="31.6554779" lon="34.9707449">
        <ele>348.5</ele>
        <time>2015-06-06T07:38:36Z</time>
      </trkpt>
      <trkpt lat="31.65548" lon="34.9707452">
        <ele>349.7</ele>
        <time>2015-06-06T07:38:40Z</time>
      </trkpt>
      <trkpt lat="31.65548" lon="34.9707452">
        <time>2015-06-06T07:38:40Z</time>
      </trkpt>
    </trkseg>
    <trkseg>
      <trkpt lat="31.65548" lon="34.9707452">
        <time>2015-06-06T07:38:49Z</time>
      </trkpt>
      <trkpt lat="31.655359" lon="34.9708113">
        <ele>348.7</ele>
        <time>2015-06-06T07:38:50Z</time>
      </trkpt>
      <trkpt lat="31.6553123" lon="34.9708503">
        <ele>348.8</ele>
        <time>2015-06-06T07:38:52Z</time>
      </trkpt>
      <trkpt lat="31.6552712" lon="34.9708914">
        <ele>348.8</ele>
        <time>2015-06-06T07:38:54Z</time>
      </trkpt>
      <trkpt lat="31.6552358" lon="34.9709337">
        <ele>348.8</ele>
        <time>2015-06-06T07:38:56Z</time>
      </trkpt>
      <trkpt lat="31.65521" lon="34.9709826">
        <ele>349.2</ele>
        <time>2015-06-06T07:38:58Z</time>
      </trkpt>
      <trkpt lat="31.6551918" lon="34.9710323">
        <ele>349.2</ele>
        <time>2015-06-06T07:39:00Z</time>
      </trkpt>
      <trkpt lat="31.6551814" lon="34.971085">
        <ele>349.2</ele>
        <time>2015-06-06T07:39:02Z</time>
      </trkpt>
      <trkpt lat="31.6551599" lon="34.9711581">
        <ele>349.5</ele>
        <time>2015-06-06T07:39:05Z</time>
      </trkpt>
      <trkpt lat="31.6551269" lon="34.9712272">
        <ele>349.6</ele>
        <time>2015-06-06T07:39:08Z</time>
      </trkpt>
      <trkpt lat="31.6550992" lon="34.9712786">
        <ele>349.6</ele>
        <time>2015-06-06T07:39:10Z</time>
      </trkpt>
      <trkpt lat="31.6550538" lon="34.97133">
        <ele>349.7</ele>
        <time>2015-06-06T07:39:13Z</time>
      </trkpt>
      <trkpt lat="31.6550145" lon="34.9713584">
        <ele>349.7</ele>
        <time>2015-06-06T07:39:15Z</time>
      </trkpt>
      <trkpt lat="31.6549545" lon="34.9713978">
        <ele>349.8</ele>
        <time>2015-06-06T07:39:18Z</time>
      </trkpt>
      <trkpt lat="31.6549121" lon="34.9714404">
        <ele>349.8</ele>
        <time>2015-06-06T07:39:20Z</time>
      </trkpt>
      <trkpt lat="31.6548725" lon="34.9714857">
        <ele>349.8</ele>
        <time>2015-06-06T07:39:22Z</time>
      </trkpt>
      <trkpt lat="31.6548326" lon="34.9715237">
        <ele>349.8</ele>
        <time>2015-06-06T07:39:24Z</time>
      </trkpt>
      <trkpt lat="31.654792" lon="34.9715585">
        <ele>350.1</ele>
        <time>2015-06-06T07:39:26Z</time>
      </trkpt>
      <trkpt lat="31.6547532" lon="34.9716013">
        <ele>350.1</ele>
        <time>2015-06-06T07:39:28Z</time>
      </trkpt>
      <trkpt lat="31.6547168" lon="34.9716508">
        <ele>350.1</ele>
        <time>2015-06-06T07:39:30Z</time>
      </trkpt>
      <trkpt lat="31.6546631" lon="34.9717342">
        <ele>350.9</ele>
        <time>2015-06-06T07:39:33Z</time>
      </trkpt>
      <trkpt lat="31.6546134" lon="34.9718238">
        <ele>350.9</ele>
        <time>2015-06-06T07:39:36Z</time>
      </trkpt>
      <trkpt lat="31.6545434" lon="34.971971">
        <ele>351.3</ele>
        <time>2015-06-06T07:39:42Z</time>
      </trkpt>
      <trkpt lat="31.6545168" lon="34.972035">
        <ele>351.5</ele>
        <time>2015-06-06T07:39:45Z</time>
      </trkpt>
      <trkpt lat="31.6544536" lon="34.9721392">
        <ele>351.7</ele>
        <time>2015-06-06T07:39:50Z</time>
      </trkpt>
      <trkpt lat="31.6544359" lon="34.9722093">
        <ele>351.7</ele>
        <time>2015-06-06T07:39:53Z</time>
      </trkpt>
      <trkpt lat="31.6544274" lon="34.9722855">
        <ele>351.7</ele>
        <time>2015-06-06T07:39:56Z</time>
      </trkpt>
      <trkpt lat="31.6544086" lon="34.972354">
        <ele>351.9</ele>
        <time>2015-06-06T07:39:59Z</time>
      </trkpt>
      <trkpt lat="31.6543896" lon="34.9724122">
        <ele>352.2</ele>
        <time>2015-06-06T07:40:02Z</time>
      </trkpt>
      <trkpt lat="31.6543821" lon="34.9724677">
        <ele>352.2</ele>
        <time>2015-06-06T07:40:05Z</time>
      </trkpt>
      <trkpt lat="31.6543803" lon="34.9726359">
        <ele>353.5</ele>
        <time>2015-06-06T07:40:13Z</time>
      </trkpt>
      <trkpt lat="31.6543924" lon="34.972756">
        <ele>353.8</ele>
        <time>2015-06-06T07:40:19Z</time>
      </trkpt>
      <trkpt lat="31.6544067" lon="34.9728112">
        <ele>354.1</ele>
        <time>2015-06-06T07:40:23Z</time>
      </trkpt>
      <trkpt lat="31.654417" lon="34.972864">
        <ele>354.7</ele>
        <time>2015-06-06T07:40:27Z</time>
      </trkpt>
      <trkpt lat="31.654423" lon="34.9729167">
        <ele>355.1</ele>
        <time>2015-06-06T07:40:31Z</time>
      </trkpt>
      <trkpt lat="31.6544235" lon="34.9729713">
        <ele>355.9</ele>
        <time>2015-06-06T07:40:35Z</time>
      </trkpt>
      <trkpt lat="31.6544338" lon="34.9730326">
        <ele>355.9</ele>
        <time>2015-06-06T07:40:39Z</time>
      </trkpt>
      <trkpt lat="31.654465" lon="34.9731871">
        <ele>358.0</ele>
        <time>2015-06-06T07:40:48Z</time>
      </trkpt>
      <trkpt lat="31.6544965" lon="34.9732615">
        <ele>359.0</ele>
        <time>2015-06-06T07:40:53Z</time>
      </trkpt>
      <trkpt lat="31.6545085" lon="34.9733157">
        <ele>359.0</ele>
        <time>2015-06-06T07:40:56Z</time>
      </trkpt>
      <trkpt lat="31.6545364" lon="34.9734326">
        <ele>359.9</ele>
        <time>2015-06-06T07:41:03Z</time>
      </trkpt>
      <trkpt lat="31.6546045" lon="34.9735007">
        <ele>361.4</ele>
        <time>2015-06-06T07:41:09Z</time>
      </trkpt>
      <trkpt lat="31.6546346" lon="34.9735463">
        <ele>361.4</ele>
        <time>2015-06-06T07:41:12Z</time>
      </trkpt>
      <trkpt lat="31.6546634" lon="34.9735956">
        <ele>362.7</ele>
        <time>2015-06-06T07:41:15Z</time>
      </trkpt>
      <trkpt lat="31.6547004" lon="34.9736476">
        <ele>362.7</ele>
        <time>2015-06-06T07:41:18Z</time>
      </trkpt>
      <trkpt lat="31.6547316" lon="34.9736999">
        <ele>363.6</ele>
        <time>2015-06-06T07:41:21Z</time>
      </trkpt>
      <trkpt lat="31.6547594" lon="34.9737608">
        <ele>364.0</ele>
        <time>2015-06-06T07:41:24Z</time>
      </trkpt>
      <trkpt lat="31.6547822" lon="34.9738159">
        <ele>364.0</ele>
        <time>2015-06-06T07:41:26Z</time>
      </trkpt>
      <trkpt lat="31.654811" lon="34.973863">
        <ele>364.8</ele>
        <time>2015-06-06T07:41:28Z</time>
      </trkpt>
      <trkpt lat="31.6548498" lon="34.9738988">
        <ele>364.8</ele>
        <time>2015-06-06T07:41:30Z</time>
      </trkpt>
      <trkpt lat="31.6549345" lon="34.973939">
        <ele>365.0</ele>
        <time>2015-06-06T07:41:34Z</time>
      </trkpt>
      <trkpt lat="31.6549982" lon="34.9739578">
        <ele>365.7</ele>
        <time>2015-06-06T07:41:37Z</time>
      </trkpt>
      <trkpt lat="31.6550599" lon="34.973963">
        <ele>365.7</ele>
        <time>2015-06-06T07:41:40Z</time>
      </trkpt>
      <trkpt lat="31.6551114" lon="34.9740076">
        <ele>366.8</ele>
        <time>2015-06-06T07:41:43Z</time>
      </trkpt>
      <trkpt lat="31.655148" lon="34.9740649">
        <ele>366.8</ele>
        <time>2015-06-06T07:41:45Z</time>
      </trkpt>
      <trkpt lat="31.6552122" lon="34.9742378">
        <ele>367.2</ele>
        <time>2015-06-06T07:41:49Z</time>
      </trkpt>
      <trkpt lat="31.655288" lon="34.9744233">
        <ele>367.3</ele>
        <time>2015-06-06T07:41:53Z</time>
      </trkpt>
      <trkpt lat="31.6553457" lon="34.9745764">
        <ele>367.3</ele>
        <time>2015-06-06T07:41:56Z</time>
      </trkpt>
      <trkpt lat="31.6554466" lon="34.9747022">
        <ele>367.3</ele>
        <time>2015-06-06T07:41:59Z</time>
      </trkpt>
      <trkpt lat="31.6555514" lon="34.9747388">
        <ele>367.3</ele>
        <time>2015-06-06T07:42:02Z</time>
      </trkpt>
      <trkpt lat="31.6556605" lon="34.974776">
        <ele>367.4</ele>
        <time>2015-06-06T07:42:05Z</time>
      </trkpt>
      <trkpt lat="31.6557469" lon="34.974807">
        <ele>367.5</ele>
        <time>2015-06-06T07:42:08Z</time>
      </trkpt>
      <trkpt lat="31.655884" lon="34.9748454">
        <ele>367.6</ele>
        <time>2015-06-06T07:42:13Z</time>
      </trkpt>
      <trkpt lat="31.6560051" lon="34.9749593">
        <ele>367.7</ele>
        <time>2015-06-06T07:42:17Z</time>
      </trkpt>
      <trkpt lat="31.6561305" lon="34.9750964">
        <ele>367.7</ele>
        <time>2015-06-06T07:42:21Z</time>
      </trkpt>
      <trkpt lat="31.6561717" lon="34.9751527">
        <ele>367.6</ele>
        <time>2015-06-06T07:42:23Z</time>
      </trkpt>
      <trkpt lat="31.6561934" lon="34.9752137">
        <ele>367.6</ele>
        <time>2015-06-06T07:42:25Z</time>
      </trkpt>
      <trkpt lat="31.6562259" lon="34.9752664">
        <ele>367.5</ele>
        <time>2015-06-06T07:42:27Z</time>
      </trkpt>
      <trkpt lat="31.6562702" lon="34.9752964">
        <ele>367.5</ele>
        <time>2015-06-06T07:42:29Z</time>
      </trkpt>
      <trkpt lat="31.656318" lon="34.9753132">
        <ele>367.5</ele>
        <time>2015-06-06T07:42:31Z</time>
      </trkpt>
      <trkpt lat="31.6564138" lon="34.9753509">
        <ele>367.0</ele>
        <time>2015-06-06T07:42:35Z</time>
      </trkpt>
      <trkpt lat="31.6564585" lon="34.975372">
        <ele>366.3</ele>
        <time>2015-06-06T07:42:37Z</time>
      </trkpt>
      <trkpt lat="31.6565281" lon="34.9753676">
        <ele>366.3</ele>
        <time>2015-06-06T07:42:40Z</time>
      </trkpt>
      <trkpt lat="31.6566146" lon="34.9753138">
        <ele>365.8</ele>
        <time>2015-06-06T07:42:44Z</time>
      </trkpt>
      <trkpt lat="31.6567354" lon="34.9752201">
        <ele>365.5</ele>
        <time>2015-06-06T07:42:51Z</time>
      </trkpt>
      <trkpt lat="31.6567968" lon="34.9752128">
        <ele>365.5</ele>
        <time>2015-06-06T07:42:54Z</time>
      </trkpt>
      <trkpt lat="31.6568567" lon="34.9752284">
        <ele>365.6</ele>
        <time>2015-06-06T07:42:57Z</time>
      </trkpt>
      <trkpt lat="31.6569086" lon="34.9752805">
        <ele>365.6</ele>
        <time>2015-06-06T07:43:00Z</time>
      </trkpt>
      <trkpt lat="31.6569574" lon="34.9753336">
        <ele>365.6</ele>
        <time>2015-06-06T07:43:03Z</time>
      </trkpt>
      <trkpt lat="31.6569978" lon="34.9753657">
        <ele>365.6</ele>
        <time>2015-06-06T07:43:05Z</time>
      </trkpt>
      <trkpt lat="31.6570361" lon="34.9753943">
        <ele>365.6</ele>
        <time>2015-06-06T07:43:07Z</time>
      </trkpt>
      <trkpt lat="31.6570781" lon="34.9754157">
        <ele>365.6</ele>
        <time>2015-06-06T07:43:09Z</time>
      </trkpt>
      <trkpt lat="31.6571376" lon="34.9754329">
        <ele>365.6</ele>
        <time>2015-06-06T07:43:12Z</time>
      </trkpt>
      <trkpt lat="31.657184" lon="34.9754312">
        <ele>365.6</ele>
        <time>2015-06-06T07:43:15Z</time>
      </trkpt>
      <trkpt lat="31.6572345" lon="34.9754214">
        <ele>366.5</ele>
        <time>2015-06-06T07:43:19Z</time>
      </trkpt>
      <trkpt lat="31.6573772" lon="34.9754601">
        <ele>367.7</ele>
        <time>2015-06-06T07:43:26Z</time>
      </trkpt>
      <trkpt lat="31.6574295" lon="34.9755044">
        <ele>368.0</ele>
        <time>2015-06-06T07:43:29Z</time>
      </trkpt>
      <trkpt lat="31.6574613" lon="34.9755425">
        <ele>368.0</ele>
        <time>2015-06-06T07:43:31Z</time>
      </trkpt>
      <trkpt lat="31.6574936" lon="34.9755834">
        <ele>368.4</ele>
        <time>2015-06-06T07:43:33Z</time>
      </trkpt>
      <trkpt lat="31.6575362" lon="34.9756277">
        <ele>368.4</ele>
        <time>2015-06-06T07:43:35Z</time>
      </trkpt>
      <trkpt lat="31.65758" lon="34.9756766">
        <ele>368.4</ele>
        <time>2015-06-06T07:43:37Z</time>
      </trkpt>
      <trkpt lat="31.657625" lon="34.9757238">
        <ele>369.0</ele>
        <time>2015-06-06T07:43:39Z</time>
      </trkpt>
      <trkpt lat="31.6577027" lon="34.9757905">
        <ele>369.0</ele>
        <time>2015-06-06T07:43:43Z</time>
      </trkpt>
      <trkpt lat="31.6578093" lon="34.9758589">
        <ele>369.6</ele>
        <time>2015-06-06T07:43:48Z</time>
      </trkpt>
      <trkpt lat="31.657896" lon="34.9759217">
        <ele>370.0</ele>
        <time>2015-06-06T07:43:53Z</time>
      </trkpt>
      <trkpt lat="31.658004" lon="34.9760296">
        <ele>370.2</ele>
        <time>2015-06-06T07:44:00Z</time>
      </trkpt>
      <trkpt lat="31.6580502" lon="34.9760849">
        <ele>370.3</ele>
        <time>2015-06-06T07:44:03Z</time>
      </trkpt>
      <trkpt lat="31.658074" lon="34.9761413">
        <ele>370.3</ele>
        <time>2015-06-06T07:44:05Z</time>
      </trkpt>
      <trkpt lat="31.6580867" lon="34.9762047">
        <ele>370.4</ele>
        <time>2015-06-06T07:44:07Z</time>
      </trkpt>
      <trkpt lat="31.6580891" lon="34.976262">
        <ele>370.4</ele>
        <time>2015-06-06T07:44:09Z</time>
      </trkpt>
      <trkpt lat="31.6581099" lon="34.9763832">
        <ele>370.7</ele>
        <time>2015-06-06T07:44:15Z</time>
      </trkpt>
      <trkpt lat="31.6582092" lon="34.9763845">
        <ele>371.3</ele>
        <time>2015-06-06T07:44:19Z</time>
      </trkpt>
      <trkpt lat="31.658298" lon="34.9763304">
        <ele>372.0</ele>
        <time>2015-06-06T07:44:23Z</time>
      </trkpt>
      <trkpt lat="31.6583787" lon="34.9762615">
        <ele>373.1</ele>
        <time>2015-06-06T07:44:27Z</time>
      </trkpt>
      <trkpt lat="31.6584696" lon="34.9762044">
        <ele>373.3</ele>
        <time>2015-06-06T07:44:31Z</time>
      </trkpt>
      <trkpt lat="31.6586023" lon="34.9762605">
        <ele>373.6</ele>
        <time>2015-06-06T07:44:38Z</time>
      </trkpt>
      <trkpt lat="31.6587396" lon="34.9763439">
        <ele>374.0</ele>
        <time>2015-06-06T07:44:43Z</time>
      </trkpt>
      <trkpt lat="31.6587947" lon="34.9763762">
        <ele>374.3</ele>
        <time>2015-06-06T07:44:45Z</time>
      </trkpt>
      <trkpt lat="31.6588342" lon="34.9764111">
        <ele>374.3</ele>
        <time>2015-06-06T07:44:47Z</time>
      </trkpt>
      <trkpt lat="31.6588765" lon="34.976512">
        <ele>374.7</ele>
        <time>2015-06-06T07:44:51Z</time>
      </trkpt>
      <trkpt lat="31.6589317" lon="34.9766135">
        <ele>375.3</ele>
        <time>2015-06-06T07:44:55Z</time>
      </trkpt>
      <trkpt lat="31.6589575" lon="34.9766589">
        <ele>376.0</ele>
        <time>2015-06-06T07:44:57Z</time>
      </trkpt>
      <trkpt lat="31.65898" lon="34.9767271">
        <ele>376.0</ele>
        <time>2015-06-06T07:45:00Z</time>
      </trkpt>
      <trkpt lat="31.6590294" lon="34.9768279">
        <ele>376.9</ele>
        <time>2015-06-06T07:45:05Z</time>
      </trkpt>
      <trkpt lat="31.6590777" lon="34.9769882">
        <ele>378.0</ele>
        <time>2015-06-06T07:45:14Z</time>
      </trkpt>
      <trkpt lat="31.6591233" lon="34.9771481">
        <ele>378.9</ele>
        <time>2015-06-06T07:45:23Z</time>
      </trkpt>
      <trkpt lat="31.6591685" lon="34.9772534">
        <ele>379.5</ele>
        <time>2015-06-06T07:45:29Z</time>
      </trkpt>
      <trkpt lat="31.6592428" lon="34.9771778">
        <ele>380.2</ele>
        <time>2015-06-06T07:45:34Z</time>
      </trkpt>
      <trkpt lat="31.6592912" lon="34.9770752">
        <ele>380.8</ele>
        <time>2015-06-06T07:45:39Z</time>
      </trkpt>
      <trkpt lat="31.6593529" lon="34.9769942">
        <ele>381.5</ele>
        <time>2015-06-06T07:45:44Z</time>
      </trkpt>
      <trkpt lat="31.6594147" lon="34.9769089">
        <ele>382.3</ele>
        <time>2015-06-06T07:45:50Z</time>
      </trkpt>
      <trkpt lat="31.6595019" lon="34.976939">
        <ele>384.7</ele>
        <time>2015-06-06T07:45:56Z</time>
      </trkpt>
      <trkpt lat="31.6595248" lon="34.976997">
        <ele>384.7</ele>
        <time>2015-06-06T07:45:59Z</time>
      </trkpt>
      <trkpt lat="31.6595659" lon="34.9770976">
        <ele>385.3</ele>
        <time>2015-06-06T07:46:05Z</time>
      </trkpt>
      <trkpt lat="31.6595647" lon="34.9772279">
        <ele>386.0</ele>
        <time>2015-06-06T07:46:11Z</time>
      </trkpt>
      <trkpt lat="31.6595804" lon="34.9772843">
        <ele>386.8</ele>
        <time>2015-06-06T07:46:14Z</time>
      </trkpt>
      <trkpt lat="31.6596068" lon="34.9773276">
        <ele>386.8</ele>
        <time>2015-06-06T07:46:17Z</time>
      </trkpt>
      <trkpt lat="31.6596342" lon="34.9773827">
        <ele>387.6</ele>
        <time>2015-06-06T07:46:21Z</time>
      </trkpt>
      <trkpt lat="31.6596387" lon="34.9774385">
        <ele>388.3</ele>
        <time>2015-06-06T07:46:24Z</time>
      </trkpt>
      <trkpt lat="31.6596242" lon="34.9775062">
        <ele>389.3</ele>
        <time>2015-06-06T07:46:28Z</time>
      </trkpt>
      <trkpt lat="31.6596245" lon="34.9775691">
        <ele>389.3</ele>
        <time>2015-06-06T07:46:31Z</time>
      </trkpt>
      <trkpt lat="31.6596231" lon="34.9776295">
        <ele>390.2</ele>
        <time>2015-06-06T07:46:34Z</time>
      </trkpt>
      <trkpt lat="31.6596122" lon="34.9776819">
        <ele>390.4</ele>
        <time>2015-06-06T07:46:37Z</time>
      </trkpt>
      <trkpt lat="31.6596237" lon="34.9777337">
        <ele>390.4</ele>
        <time>2015-06-06T07:46:40Z</time>
      </trkpt>
      <trkpt lat="31.6596024" lon="34.9777943">
        <ele>390.8</ele>
        <time>2015-06-06T07:46:44Z</time>
      </trkpt>
      <trkpt lat="31.6595878" lon="34.9778579">
        <ele>391.4</ele>
        <time>2015-06-06T07:46:47Z</time>
      </trkpt>
      <trkpt lat="31.6595866" lon="34.9779196">
        <ele>391.4</ele>
        <time>2015-06-06T07:46:50Z</time>
      </trkpt>
      <trkpt lat="31.6596083" lon="34.9780432">
        <ele>392.5</ele>
        <time>2015-06-06T07:46:56Z</time>
      </trkpt>
      <trkpt lat="31.6596159" lon="34.9781057">
        <ele>393.1</ele>
        <time>2015-06-06T07:46:59Z</time>
      </trkpt>
      <trkpt lat="31.6596376" lon="34.9782161">
        <ele>394.0</ele>
        <time>2015-06-06T07:47:05Z</time>
      </trkpt>
      <trkpt lat="31.6596738" lon="34.9783147">
        <ele>394.9</ele>
        <time>2015-06-06T07:47:11Z</time>
      </trkpt>
      <trkpt lat="31.6596897" lon="34.9783798">
        <ele>395.1</ele>
        <time>2015-06-06T07:47:15Z</time>
      </trkpt>
      <trkpt lat="31.6596812" lon="34.9784858">
        <ele>395.3</ele>
        <time>2015-06-06T07:47:21Z</time>
      </trkpt>
      <trkpt lat="31.6596949" lon="34.9786021">
        <ele>396.1</ele>
        <time>2015-06-06T07:47:27Z</time>
      </trkpt>
      <trkpt lat="31.6596812" lon="34.978718">
        <ele>396.7</ele>
        <time>2015-06-06T07:47:33Z</time>
      </trkpt>
      <trkpt lat="31.6597085" lon="34.9788754">
        <ele>398.1</ele>
        <time>2015-06-06T07:47:41Z</time>
      </trkpt>
      <trkpt lat="31.6596826" lon="34.9789624">
        <ele>399.3</ele>
        <time>2015-06-06T07:47:45Z</time>
      </trkpt>
      <trkpt lat="31.6596771" lon="34.9790188">
        <ele>399.3</ele>
        <time>2015-06-06T07:47:48Z</time>
      </trkpt>
      <trkpt lat="31.6596701" lon="34.9791432">
        <ele>399.9</ele>
        <time>2015-06-06T07:47:54Z</time>
      </trkpt>
      <trkpt lat="31.6596381" lon="34.9791949">
        <ele>400.2</ele>
        <time>2015-06-06T07:47:57Z</time>
      </trkpt>
      <trkpt lat="31.6595959" lon="34.9792354">
        <ele>400.2</ele>
        <time>2015-06-06T07:48:00Z</time>
      </trkpt>
      <trkpt lat="31.6595461" lon="34.97927">
        <ele>400.3</ele>
        <time>2015-06-06T07:48:03Z</time>
      </trkpt>
      <trkpt lat="31.6595013" lon="34.9792901">
        <ele>401.1</ele>
        <time>2015-06-06T07:48:06Z</time>
      </trkpt>
      <trkpt lat="31.6594813" lon="34.9793395">
        <ele>401.1</ele>
        <time>2015-06-06T07:48:09Z</time>
      </trkpt>
      <trkpt lat="31.6594373" lon="34.9794369">
        <ele>401.4</ele>
        <time>2015-06-06T07:48:15Z</time>
      </trkpt>
      <trkpt lat="31.6594076" lon="34.9794946">
        <ele>402.1</ele>
        <time>2015-06-06T07:48:18Z</time>
      </trkpt>
      <trkpt lat="31.6593818" lon="34.9795572">
        <ele>402.2</ele>
        <time>2015-06-06T07:48:22Z</time>
      </trkpt>
      <trkpt lat="31.659347" lon="34.979614">
        <ele>402.2</ele>
        <time>2015-06-06T07:48:26Z</time>
      </trkpt>
      <trkpt lat="31.6593141" lon="34.9796644">
        <ele>402.5</ele>
        <time>2015-06-06T07:48:29Z</time>
      </trkpt>
      <trkpt lat="31.6592905" lon="34.9797185">
        <ele>402.5</ele>
        <time>2015-06-06T07:48:32Z</time>
      </trkpt>
      <trkpt lat="31.6593228" lon="34.9797571">
        <ele>402.9</ele>
        <time>2015-06-06T07:48:35Z</time>
      </trkpt>
      <trkpt lat="31.6593553" lon="34.979757">
        <ele>403.4</ele>
        <time>2015-06-06T07:48:37Z</time>
      </trkpt>
      <trkpt lat="31.6593622" lon="34.9797539">
        <ele>405.1</ele>
        <time>2015-06-06T07:48:41Z</time>
      </trkpt>
      <trkpt lat="31.6593622" lon="34.9797539">
        <time>2015-06-06T07:48:41Z</time>
      </trkpt>
    </trkseg>
    <trkseg>
      <trkpt lat="31.6593622" lon="34.9797539">
        <time>2015-06-06T07:51:38Z</time>
      </trkpt>
      <trkpt lat="31.6594613" lon="34.9797657">
        <ele>405.2</ele>
        <time>2015-06-06T07:51:39Z</time>
      </trkpt>
      <trkpt lat="31.6595694" lon="34.9797628">
        <ele>405.3</ele>
        <time>2015-06-06T07:51:51Z</time>
      </trkpt>
      <trkpt lat="31.6596716" lon="34.9797331">
        <ele>405.3</ele>
        <time>2015-06-06T07:51:55Z</time>
      </trkpt>
      <trkpt lat="31.659759" lon="34.979701">
        <ele>405.3</ele>
        <time>2015-06-06T07:51:59Z</time>
      </trkpt>
      <trkpt lat="31.6598528" lon="34.9796717">
        <ele>405.4</ele>
        <time>2015-06-06T07:52:03Z</time>
      </trkpt>
      <trkpt lat="31.6599009" lon="34.9796525">
        <ele>405.4</ele>
        <time>2015-06-06T07:52:06Z</time>
      </trkpt>
      <trkpt lat="31.6599114" lon="34.9796451">
        <ele>405.5</ele>
        <time>2015-06-06T07:52:07Z</time>
      </trkpt>
      <trkpt lat="31.6599118" lon="34.9796407">
        <ele>407.2</ele>
        <time>2015-06-06T07:52:11Z</time>
      </trkpt>
      <trkpt lat="31.6599118" lon="34.9796407">
        <time>2015-06-06T07:52:11Z</time>
      </trkpt>
    </trkseg>
    <trkseg>
      <trkpt lat="31.6599118" lon="34.9796407">
        <time>2015-06-06T07:52:51Z</time>
      </trkpt>
      <trkpt lat="31.6599898" lon="34.9795141">
        <ele>408.0</ele>
        <time>2015-06-06T07:52:52Z</time>
      </trkpt>
      <trkpt lat="31.6600522" lon="34.9793586">
        <ele>408.6</ele>
        <time>2015-06-06T07:52:57Z</time>
      </trkpt>
      <trkpt lat="31.6601011" lon="34.9791945">
        <ele>408.9</ele>
        <time>2015-06-06T07:53:03Z</time>
      </trkpt>
      <trkpt lat="31.6601137" lon="34.9790709">
        <ele>409.5</ele>
        <time>2015-06-06T07:53:07Z</time>
      </trkpt>
      <trkpt lat="31.6601394" lon="34.9789122">
        <ele>409.6</ele>
        <time>2015-06-06T07:53:11Z</time>
      </trkpt>
      <trkpt lat="31.6601313" lon="34.9787124">
        <ele>409.9</ele>
        <time>2015-06-06T07:53:15Z</time>
      </trkpt>
      <trkpt lat="31.6601535" lon="34.9784933">
        <ele>410.3</ele>
        <time>2015-06-06T07:53:19Z</time>
      </trkpt>
      <trkpt lat="31.6601993" lon="34.9782936">
        <ele>410.3</ele>
        <time>2015-06-06T07:53:22Z</time>
      </trkpt>
      <trkpt lat="31.6602138" lon="34.978098">
        <ele>410.3</ele>
        <time>2015-06-06T07:53:25Z</time>
      </trkpt>
      <trkpt lat="31.6602353" lon="34.9779368">
        <ele>410.3</ele>
        <time>2015-06-06T07:53:28Z</time>
      </trkpt>
      <trkpt lat="31.6602156" lon="34.9777702">
        <ele>410.3</ele>
        <time>2015-06-06T07:53:32Z</time>
      </trkpt>
      <trkpt lat="31.6602257" lon="34.9776027">
        <ele>410.3</ele>
        <time>2015-06-06T07:53:35Z</time>
      </trkpt>
      <trkpt lat="31.6602356" lon="34.977414">
        <ele>410.3</ele>
        <time>2015-06-06T07:53:38Z</time>
      </trkpt>
      <trkpt lat="31.6602353" lon="34.9772128">
        <ele>410.3</ele>
        <time>2015-06-06T07:53:41Z</time>
      </trkpt>
      <trkpt lat="31.660224" lon="34.9770097">
        <ele>410.3</ele>
        <time>2015-06-06T07:53:44Z</time>
      </trkpt>
      <trkpt lat="31.6602601" lon="34.9768261">
        <ele>410.3</ele>
        <time>2015-06-06T07:53:48Z</time>
      </trkpt>
      <trkpt lat="31.6602442" lon="34.9766287">
        <ele>409.9</ele>
        <time>2015-06-06T07:53:53Z</time>
      </trkpt>
      <trkpt lat="31.6602806" lon="34.9764416">
        <ele>409.7</ele>
        <time>2015-06-06T07:53:57Z</time>
      </trkpt>
      <trkpt lat="31.6603392" lon="34.9762684">
        <ele>409.4</ele>
        <time>2015-06-06T07:54:01Z</time>
      </trkpt>
      <trkpt lat="31.6604074" lon="34.9761141">
        <ele>408.5</ele>
        <time>2015-06-06T07:54:05Z</time>
      </trkpt>
      <trkpt lat="31.6603993" lon="34.9759538">
        <ele>408.0</ele>
        <time>2015-06-06T07:54:09Z</time>
      </trkpt>
      <trkpt lat="31.660355" lon="34.9757738">
        <ele>407.3</ele>
        <time>2015-06-06T07:54:13Z</time>
      </trkpt>
      <trkpt lat="31.6603646" lon="34.975582">
        <ele>406.8</ele>
        <time>2015-06-06T07:54:17Z</time>
      </trkpt>
      <trkpt lat="31.6603623" lon="34.9753907">
        <ele>406.6</ele>
        <time>2015-06-06T07:54:21Z</time>
      </trkpt>
      <trkpt lat="31.6603215" lon="34.9752335">
        <ele>406.4</ele>
        <time>2015-06-06T07:54:25Z</time>
      </trkpt>
      <trkpt lat="31.6602021" lon="34.9751221">
        <ele>406.2</ele>
        <time>2015-06-06T07:54:29Z</time>
      </trkpt>
      <trkpt lat="31.6601419" lon="34.9750192">
        <ele>406.2</ele>
        <time>2015-06-06T07:54:32Z</time>
      </trkpt>
      <trkpt lat="31.6600312" lon="34.9748626">
        <ele>406.1</ele>
        <time>2015-06-06T07:54:36Z</time>
      </trkpt>
      <trkpt lat="31.6599861" lon="34.9747108">
        <ele>406.1</ele>
        <time>2015-06-06T07:54:39Z</time>
      </trkpt>
      <trkpt lat="31.6599157" lon="34.9745603">
        <ele>405.9</ele>
        <time>2015-06-06T07:54:42Z</time>
      </trkpt>
      <trkpt lat="31.6598794" lon="34.9744072">
        <ele>405.8</ele>
        <time>2015-06-06T07:54:45Z</time>
      </trkpt>
      <trkpt lat="31.6598758" lon="34.9742254">
        <ele>405.6</ele>
        <time>2015-06-06T07:54:48Z</time>
      </trkpt>
      <trkpt lat="31.6598407" lon="34.974034">
        <ele>405.3</ele>
        <time>2015-06-06T07:54:51Z</time>
      </trkpt>
      <trkpt lat="31.6597742" lon="34.9738346">
        <ele>405.2</ele>
        <time>2015-06-06T07:54:55Z</time>
      </trkpt>
      <trkpt lat="31.6597321" lon="34.9736678">
        <ele>404.8</ele>
        <time>2015-06-06T07:54:58Z</time>
      </trkpt>
      <trkpt lat="31.6597046" lon="34.9734855">
        <ele>403.4</ele>
        <time>2015-06-06T07:55:02Z</time>
      </trkpt>
      <trkpt lat="31.6597056" lon="34.9733127">
        <ele>401.3</ele>
        <time>2015-06-06T07:55:07Z</time>
      </trkpt>
      <trkpt lat="31.6597134" lon="34.973137">
        <ele>400.4</ele>
        <time>2015-06-06T07:55:12Z</time>
      </trkpt>
      <trkpt lat="31.6597185" lon="34.9730737">
        <ele>399.1</ele>
        <time>2015-06-06T07:55:14Z</time>
      </trkpt>
      <trkpt lat="31.6597286" lon="34.9730134">
        <ele>399.1</ele>
        <time>2015-06-06T07:55:16Z</time>
      </trkpt>
      <trkpt lat="31.659751" lon="34.9729432">
        <ele>398.8</ele>
        <time>2015-06-06T07:55:19Z</time>
      </trkpt>
      <trkpt lat="31.6597698" lon="34.9728545">
        <ele>398.8</ele>
        <time>2015-06-06T07:55:23Z</time>
      </trkpt>
      <trkpt lat="31.6597628" lon="34.9727439">
        <ele>398.8</ele>
        <time>2015-06-06T07:55:28Z</time>
      </trkpt>
      <trkpt lat="31.6597936" lon="34.9726372">
        <ele>398.8</ele>
        <time>2015-06-06T07:55:32Z</time>
      </trkpt>
      <trkpt lat="31.6598182" lon="34.9724979">
        <ele>398.8</ele>
        <time>2015-06-06T07:55:37Z</time>
      </trkpt>
      <trkpt lat="31.6598178" lon="34.9724318">
        <ele>398.8</ele>
        <time>2015-06-06T07:55:39Z</time>
      </trkpt>
      <trkpt lat="31.659797" lon="34.9723597">
        <ele>398.8</ele>
        <time>2015-06-06T07:55:42Z</time>
      </trkpt>
      <trkpt lat="31.6598023" lon="34.9722822">
        <ele>398.9</ele>
        <time>2015-06-06T07:55:45Z</time>
      </trkpt>
      <trkpt lat="31.6598275" lon="34.9722189">
        <ele>398.9</ele>
        <time>2015-06-06T07:55:47Z</time>
      </trkpt>
      <trkpt lat="31.6598574" lon="34.9720791">
        <ele>399.8</ele>
        <time>2015-06-06T07:55:51Z</time>
      </trkpt>
      <trkpt lat="31.6599011" lon="34.9720117">
        <ele>400.0</ele>
        <time>2015-06-06T07:55:53Z</time>
      </trkpt>
      <trkpt lat="31.659943" lon="34.9719567">
        <ele>400.0</ele>
        <time>2015-06-06T07:55:55Z</time>
      </trkpt>
      <trkpt lat="31.6599947" lon="34.9719048">
        <ele>400.0</ele>
        <time>2015-06-06T07:55:57Z</time>
      </trkpt>
      <trkpt lat="31.660045" lon="34.9718641">
        <ele>400.0</ele>
        <time>2015-06-06T07:55:59Z</time>
      </trkpt>
      <trkpt lat="31.6601665" lon="34.9717571">
        <ele>400.0</ele>
        <time>2015-06-06T07:56:04Z</time>
      </trkpt>
      <trkpt lat="31.6602767" lon="34.9716589">
        <ele>400.0</ele>
        <time>2015-06-06T07:56:08Z</time>
      </trkpt>
      <trkpt lat="31.6603883" lon="34.9715597">
        <ele>400.0</ele>
        <time>2015-06-06T07:56:11Z</time>
      </trkpt>
      <trkpt lat="31.6605259" lon="34.9714833">
        <ele>400.0</ele>
        <time>2015-06-06T07:56:14Z</time>
      </trkpt>
      <trkpt lat="31.6606402" lon="34.9714207">
        <ele>400.0</ele>
        <time>2015-06-06T07:56:16Z</time>
      </trkpt>
      <trkpt lat="31.6607484" lon="34.971349">
        <ele>400.0</ele>
        <time>2015-06-06T07:56:18Z</time>
      </trkpt>
      <trkpt lat="31.6608942" lon="34.9712142">
        <ele>400.0</ele>
        <time>2015-06-06T07:56:21Z</time>
      </trkpt>
      <trkpt lat="31.6610251" lon="34.9710586">
        <ele>400.0</ele>
        <time>2015-06-06T07:56:24Z</time>
      </trkpt>
      <trkpt lat="31.6611142" lon="34.9709076">
        <ele>399.9</ele>
        <time>2015-06-06T07:56:27Z</time>
      </trkpt>
      <trkpt lat="31.6611405" lon="34.970739">
        <ele>399.9</ele>
        <time>2015-06-06T07:56:32Z</time>
      </trkpt>
      <trkpt lat="31.6611577" lon="34.9705586">
        <ele>399.7</ele>
        <time>2015-06-06T07:56:36Z</time>
      </trkpt>
      <trkpt lat="31.6611907" lon="34.9703675">
        <ele>399.2</ele>
        <time>2015-06-06T07:56:40Z</time>
      </trkpt>
      <trkpt lat="31.6612177" lon="34.9701552">
        <ele>398.3</ele>
        <time>2015-06-06T07:56:44Z</time>
      </trkpt>
      <trkpt lat="31.6612374" lon="34.9699972">
        <ele>396.9</ele>
        <time>2015-06-06T07:56:48Z</time>
      </trkpt>
      <trkpt lat="31.6612861" lon="34.9698442">
        <ele>396.5</ele>
        <time>2015-06-06T07:56:51Z</time>
      </trkpt>
      <trkpt lat="31.6613301" lon="34.9696469">
        <ele>396.5</ele>
        <time>2015-06-06T07:56:55Z</time>
      </trkpt>
      <trkpt lat="31.6613527" lon="34.9694457">
        <ele>396.5</ele>
        <time>2015-06-06T07:56:59Z</time>
      </trkpt>
      <trkpt lat="31.661396" lon="34.9692423">
        <ele>396.5</ele>
        <time>2015-06-06T07:57:03Z</time>
      </trkpt>
      <trkpt lat="31.6614178" lon="34.969043">
        <ele>396.5</ele>
        <time>2015-06-06T07:57:07Z</time>
      </trkpt>
      <trkpt lat="31.6614552" lon="34.9688654">
        <ele>396.5</ele>
        <time>2015-06-06T07:57:13Z</time>
      </trkpt>
      <trkpt lat="31.6614526" lon="34.9688115">
        <ele>396.6</ele>
        <time>2015-06-06T07:57:15Z</time>
      </trkpt>
      <trkpt lat="31.6614595" lon="34.9687475">
        <ele>396.6</ele>
        <time>2015-06-06T07:57:18Z</time>
      </trkpt>
      <trkpt lat="31.6615084" lon="34.9685697">
        <ele>397.4</ele>
        <time>2015-06-06T07:57:25Z</time>
      </trkpt>
      <trkpt lat="31.6615839" lon="34.9683962">
        <ele>397.5</ele>
        <time>2015-06-06T07:57:29Z</time>
      </trkpt>
      <trkpt lat="31.6616981" lon="34.9682898">
        <ele>397.5</ele>
        <time>2015-06-06T07:57:33Z</time>
      </trkpt>
      <trkpt lat="31.6618195" lon="34.9681551">
        <ele>397.5</ele>
        <time>2015-06-06T07:57:37Z</time>
      </trkpt>
      <trkpt lat="31.6619137" lon="34.968022">
        <ele>397.5</ele>
        <time>2015-06-06T07:57:41Z</time>
      </trkpt>
      <trkpt lat="31.6619991" lon="34.9678569">
        <ele>397.5</ele>
        <time>2015-06-06T07:57:46Z</time>
      </trkpt>
      <trkpt lat="31.6621154" lon="34.9677284">
        <ele>397.5</ele>
        <time>2015-06-06T07:57:50Z</time>
      </trkpt>
      <trkpt lat="31.6622043" lon="34.9675897">
        <ele>397.4</ele>
        <time>2015-06-06T07:57:55Z</time>
      </trkpt>
      <trkpt lat="31.6622165" lon="34.9675249">
        <ele>396.6</ele>
        <time>2015-06-06T07:57:57Z</time>
      </trkpt>
      <trkpt lat="31.6622517" lon="34.9674697">
        <ele>396.6</ele>
        <time>2015-06-06T07:57:59Z</time>
      </trkpt>
      <trkpt lat="31.6623564" lon="34.967378">
        <ele>396.4</ele>
        <time>2015-06-06T07:58:03Z</time>
      </trkpt>
      <trkpt lat="31.662452" lon="34.9673305">
        <ele>395.8</ele>
        <time>2015-06-06T07:58:06Z</time>
      </trkpt>
      <trkpt lat="31.6625342" lon="34.9672547">
        <ele>395.3</ele>
        <time>2015-06-06T07:58:09Z</time>
      </trkpt>
      <trkpt lat="31.662605" lon="34.967083">
        <ele>395.0</ele>
        <time>2015-06-06T07:58:14Z</time>
      </trkpt>
      <trkpt lat="31.662693" lon="34.9669628">
        <ele>394.4</ele>
        <time>2015-06-06T07:58:18Z</time>
      </trkpt>
      <trkpt lat="31.6628088" lon="34.9668633">
        <ele>393.9</ele>
        <time>2015-06-06T07:58:22Z</time>
      </trkpt>
      <trkpt lat="31.6629159" lon="34.9667933">
        <ele>393.4</ele>
        <time>2015-06-06T07:58:25Z</time>
      </trkpt>
      <trkpt lat="31.6630215" lon="34.9666669">
        <ele>392.9</ele>
        <time>2015-06-06T07:58:28Z</time>
      </trkpt>
      <trkpt lat="31.6631516" lon="34.9665148">
        <ele>392.6</ele>
        <time>2015-06-06T07:58:32Z</time>
      </trkpt>
      <trkpt lat="31.6631786" lon="34.9663498">
        <ele>391.7</ele>
        <time>2015-06-06T07:58:37Z</time>
      </trkpt>
      <trkpt lat="31.6632813" lon="34.9662028">
        <ele>391.2</ele>
        <time>2015-06-06T07:58:41Z</time>
      </trkpt>
      <trkpt lat="31.6634183" lon="34.9660857">
        <ele>390.8</ele>
        <time>2015-06-06T07:58:45Z</time>
      </trkpt>
      <trkpt lat="31.6635519" lon="34.9659891">
        <ele>390.4</ele>
        <time>2015-06-06T07:58:48Z</time>
      </trkpt>
      <trkpt lat="31.66367" lon="34.9658622">
        <ele>389.8</ele>
        <time>2015-06-06T07:58:51Z</time>
      </trkpt>
      <trkpt lat="31.6637165" lon="34.9657055">
        <ele>389.2</ele>
        <time>2015-06-06T07:58:54Z</time>
      </trkpt>
      <trkpt lat="31.6637687" lon="34.9655274">
        <ele>388.3</ele>
        <time>2015-06-06T07:58:57Z</time>
      </trkpt>
      <trkpt lat="31.6638441" lon="34.9653661">
        <ele>387.9</ele>
        <time>2015-06-06T07:59:00Z</time>
      </trkpt>
      <trkpt lat="31.6639241" lon="34.9652112">
        <ele>387.7</ele>
        <time>2015-06-06T07:59:04Z</time>
      </trkpt>
      <trkpt lat="31.6640014" lon="34.9650605">
        <ele>387.1</ele>
        <time>2015-06-06T07:59:08Z</time>
      </trkpt>
      <trkpt lat="31.6640598" lon="34.9649207">
        <ele>386.5</ele>
        <time>2015-06-06T07:59:12Z</time>
      </trkpt>
      <trkpt lat="31.664083" lon="34.9648523">
        <ele>386.1</ele>
        <time>2015-06-06T07:59:14Z</time>
      </trkpt>
      <trkpt lat="31.6641112" lon="34.9647901">
        <ele>386.1</ele>
        <time>2015-06-06T07:59:16Z</time>
      </trkpt>
      <trkpt lat="31.664139" lon="34.9647328">
        <ele>385.1</ele>
        <time>2015-06-06T07:59:18Z</time>
      </trkpt>
      <trkpt lat="31.6641862" lon="34.9646171">
        <ele>385.1</ele>
        <time>2015-06-06T07:59:22Z</time>
      </trkpt>
      <trkpt lat="31.6642499" lon="34.9644355">
        <ele>384.2</ele>
        <time>2015-06-06T07:59:27Z</time>
      </trkpt>
      <trkpt lat="31.6643175" lon="34.9642737">
        <ele>383.7</ele>
        <time>2015-06-06T07:59:30Z</time>
      </trkpt>
      <trkpt lat="31.6644091" lon="34.9641008">
        <ele>383.5</ele>
        <time>2015-06-06T07:59:33Z</time>
      </trkpt>
      <trkpt lat="31.6645701" lon="34.9639608">
        <ele>383.4</ele>
        <time>2015-06-06T07:59:36Z</time>
      </trkpt>
      <trkpt lat="31.6646772" lon="34.9638587">
        <ele>383.4</ele>
        <time>2015-06-06T07:59:38Z</time>
      </trkpt>
      <trkpt lat="31.6647857" lon="34.9637481">
        <ele>383.2</ele>
        <time>2015-06-06T07:59:40Z</time>
      </trkpt>
      <trkpt lat="31.6649399" lon="34.9635991">
        <ele>383.1</ele>
        <time>2015-06-06T07:59:43Z</time>
      </trkpt>
      <trkpt lat="31.6650567" lon="34.9634935">
        <ele>382.9</ele>
        <time>2015-06-06T07:59:46Z</time>
      </trkpt>
      <trkpt lat="31.6651636" lon="34.9633809">
        <ele>382.7</ele>
        <time>2015-06-06T07:59:49Z</time>
      </trkpt>
      <trkpt lat="31.6652556" lon="34.9632461">
        <ele>382.6</ele>
        <time>2015-06-06T07:59:53Z</time>
      </trkpt>
      <trkpt lat="31.6653347" lon="34.9630801">
        <ele>382.3</ele>
        <time>2015-06-06T07:59:57Z</time>
      </trkpt>
      <trkpt lat="31.6653977" lon="34.9629287">
        <ele>382.2</ele>
        <time>2015-06-06T08:00:01Z</time>
      </trkpt>
      <trkpt lat="31.665467" lon="34.9627739">
        <ele>382.2</ele>
        <time>2015-06-06T08:00:05Z</time>
      </trkpt>
      <trkpt lat="31.6655343" lon="34.9625988">
        <ele>382.2</ele>
        <time>2015-06-06T08:00:09Z</time>
      </trkpt>
      <trkpt lat="31.6656277" lon="34.9624393">
        <ele>382.2</ele>
        <time>2015-06-06T08:00:13Z</time>
      </trkpt>
      <trkpt lat="31.6657378" lon="34.9623234">
        <ele>382.2</ele>
        <time>2015-06-06T08:00:17Z</time>
      </trkpt>
      <trkpt lat="31.6658845" lon="34.9622635">
        <ele>382.2</ele>
        <time>2015-06-06T08:00:21Z</time>
      </trkpt>
      <trkpt lat="31.6660304" lon="34.9621971">
        <ele>381.8</ele>
        <time>2015-06-06T08:00:25Z</time>
      </trkpt>
      <trkpt lat="31.666158" lon="34.962174">
        <ele>381.2</ele>
        <time>2015-06-06T08:00:28Z</time>
      </trkpt>
      <trkpt lat="31.6662513" lon="34.9621495">
        <ele>381.2</ele>
        <time>2015-06-06T08:00:30Z</time>
      </trkpt>
      <trkpt lat="31.6663808" lon="34.962092">
        <ele>381.1</ele>
        <time>2015-06-06T08:00:33Z</time>
      </trkpt>
      <trkpt lat="31.6664716" lon="34.9620947">
        <ele>381.1</ele>
        <time>2015-06-06T08:00:35Z</time>
      </trkpt>
      <trkpt lat="31.6666453" lon="34.9621605">
        <ele>381.1</ele>
        <time>2015-06-06T08:00:39Z</time>
      </trkpt>
      <trkpt lat="31.6666574" lon="34.9620908">
        <ele>381.1</ele>
        <time>2015-06-06T08:00:42Z</time>
      </trkpt>
      <trkpt lat="31.6666105" lon="34.9620217">
        <ele>381.1</ele>
        <time>2015-06-06T08:00:45Z</time>
      </trkpt>
      <trkpt lat="31.6665935" lon="34.9619677">
        <ele>381.1</ele>
        <time>2015-06-06T08:00:47Z</time>
      </trkpt>
      <trkpt lat="31.6665982" lon="34.9618709">
        <ele>381.1</ele>
        <time>2015-06-06T08:00:49Z</time>
      </trkpt>
      <trkpt lat="31.6665956" lon="34.9618081">
        <ele>381.1</ele>
        <time>2015-06-06T08:00:50Z</time>
      </trkpt>
      <trkpt lat="31.6665796" lon="34.9616042">
        <ele>381.0</ele>
        <time>2015-06-06T08:00:54Z</time>
      </trkpt>
      <trkpt lat="31.6666245" lon="34.9614277">
        <ele>380.2</ele>
        <time>2015-06-06T08:00:57Z</time>
      </trkpt>
      <trkpt lat="31.6666513" lon="34.9613669">
        <ele>378.3</ele>
        <time>2015-06-06T08:00:58Z</time>
      </trkpt>
      <trkpt lat="31.6667024" lon="34.9613198">
        <ele>378.3</ele>
        <time>2015-06-06T08:01:00Z</time>
      </trkpt>
      <trkpt lat="31.6667393" lon="34.9613543">
        <ele>378.3</ele>
        <time>2015-06-06T08:01:02Z</time>
      </trkpt>
      <trkpt lat="31.666881" lon="34.9614189">
        <ele>376.1</ele>
        <time>2015-06-06T08:01:06Z</time>
      </trkpt>
      <trkpt lat="31.6669766" lon="34.9614515">
        <ele>375.6</ele>
        <time>2015-06-06T08:01:08Z</time>
      </trkpt>
      <trkpt lat="31.6671239" lon="34.9614576">
        <ele>375.2</ele>
        <time>2015-06-06T08:01:10Z</time>
      </trkpt>
      <trkpt lat="31.6672317" lon="34.9614118">
        <ele>374.2</ele>
        <time>2015-06-06T08:01:13Z</time>
      </trkpt>
      <trkpt lat="31.6672549" lon="34.961255">
        <ele>373.2</ele>
        <time>2015-06-06T08:01:16Z</time>
      </trkpt>
      <trkpt lat="31.6673054" lon="34.9610606">
        <ele>371.9</ele>
        <time>2015-06-06T08:01:20Z</time>
      </trkpt>
      <trkpt lat="31.6673682" lon="34.9609147">
        <ele>369.7</ele>
        <time>2015-06-06T08:01:24Z</time>
      </trkpt>
      <trkpt lat="31.6674636" lon="34.9607927">
        <ele>367.9</ele>
        <time>2015-06-06T08:01:28Z</time>
      </trkpt>
      <trkpt lat="31.667503" lon="34.9607468">
        <ele>365.9</ele>
        <time>2015-06-06T08:01:30Z</time>
      </trkpt>
      <trkpt lat="31.6675427" lon="34.9607205">
        <ele>365.9</ele>
        <time>2015-06-06T08:01:32Z</time>
      </trkpt>
      <trkpt lat="31.6676295" lon="34.9606871">
        <ele>365.2</ele>
        <time>2015-06-06T08:01:36Z</time>
      </trkpt>
      <trkpt lat="31.6677001" lon="34.960621">
        <ele>361.4</ele>
        <time>2015-06-06T08:01:40Z</time>
      </trkpt>
      <trkpt lat="31.6677598" lon="34.9606051">
        <ele>359.3</ele>
        <time>2015-06-06T08:01:43Z</time>
      </trkpt>
      <trkpt lat="31.667785" lon="34.9605595">
        <ele>359.3</ele>
        <time>2015-06-06T08:01:45Z</time>
      </trkpt>
      <trkpt lat="31.6678182" lon="34.960394">
        <ele>358.0</ele>
        <time>2015-06-06T08:01:49Z</time>
      </trkpt>
      <trkpt lat="31.6679206" lon="34.9602801">
        <ele>356.2</ele>
        <time>2015-06-06T08:01:52Z</time>
      </trkpt>
      <trkpt lat="31.668033" lon="34.9601873">
        <ele>354.9</ele>
        <time>2015-06-06T08:01:55Z</time>
      </trkpt>
      <trkpt lat="31.6680756" lon="34.9601688">
        <ele>352.9</ele>
        <time>2015-06-06T08:01:56Z</time>
      </trkpt>
      <trkpt lat="31.6681419" lon="34.960155">
        <ele>352.9</ele>
        <time>2015-06-06T08:01:58Z</time>
      </trkpt>
      <trkpt lat="31.668202" lon="34.9601382">
        <ele>352.9</ele>
        <time>2015-06-06T08:02:00Z</time>
      </trkpt>
      <trkpt lat="31.6682624" lon="34.9600527">
        <ele>352.1</ele>
        <time>2015-06-06T08:02:03Z</time>
      </trkpt>
      <trkpt lat="31.6683035" lon="34.9599962">
        <ele>351.7</ele>
        <time>2015-06-06T08:02:05Z</time>
      </trkpt>
      <trkpt lat="31.6683625" lon="34.9599535">
        <ele>351.7</ele>
        <time>2015-06-06T08:02:07Z</time>
      </trkpt>
      <trkpt lat="31.6684756" lon="34.9597908">
        <ele>351.0</ele>
        <time>2015-06-06T08:02:11Z</time>
      </trkpt>
      <trkpt lat="31.6685834" lon="34.9596449">
        <ele>350.5</ele>
        <time>2015-06-06T08:02:15Z</time>
      </trkpt>
      <trkpt lat="31.6686587" lon="34.9595487">
        <ele>347.9</ele>
        <time>2015-06-06T08:02:19Z</time>
      </trkpt>
      <trkpt lat="31.6686991" lon="34.9594923">
        <ele>344.3</ele>
        <time>2015-06-06T08:02:23Z</time>
      </trkpt>
      <trkpt lat="31.6687491" lon="34.9593803">
        <ele>341.5</ele>
        <time>2015-06-06T08:02:28Z</time>
      </trkpt>
      <trkpt lat="31.6687852" lon="34.9592689">
        <ele>340.2</ele>
        <time>2015-06-06T08:02:33Z</time>
      </trkpt>
      <trkpt lat="31.6688334" lon="34.9592315">
        <ele>336.9</ele>
        <time>2015-06-06T08:02:36Z</time>
      </trkpt>
      <trkpt lat="31.6689245" lon="34.9591795">
        <ele>336.6</ele>
        <time>2015-06-06T08:02:40Z</time>
      </trkpt>
      <trkpt lat="31.6689803" lon="34.9591516">
        <ele>336.5</ele>
        <time>2015-06-06T08:02:43Z</time>
      </trkpt>
      <trkpt lat="31.6691414" lon="34.9591831">
        <ele>336.5</ele>
        <time>2015-06-06T08:02:49Z</time>
      </trkpt>
      <trkpt lat="31.6692471" lon="34.9591588">
        <ele>336.3</ele>
        <time>2015-06-06T08:02:52Z</time>
      </trkpt>
      <trkpt lat="31.6693326" lon="34.9590725">
        <ele>336.2</ele>
        <time>2015-06-06T08:02:56Z</time>
      </trkpt>
      <trkpt lat="31.669365" lon="34.9590249">
        <ele>336.2</ele>
        <time>2015-06-06T08:02:59Z</time>
      </trkpt>
      <trkpt lat="31.6694195" lon="34.9589827">
        <ele>336.1</ele>
        <time>2015-06-06T08:03:02Z</time>
      </trkpt>
      <trkpt lat="31.6694701" lon="34.9589632">
        <ele>336.1</ele>
        <time>2015-06-06T08:03:04Z</time>
      </trkpt>
      <trkpt lat="31.6695846" lon="34.9589302">
        <ele>336.1</ele>
        <time>2015-06-06T08:03:08Z</time>
      </trkpt>
      <trkpt lat="31.6696673" lon="34.9588014">
        <ele>336.1</ele>
        <time>2015-06-06T08:03:13Z</time>
      </trkpt>
      <trkpt lat="31.6698008" lon="34.958744">
        <ele>336.1</ele>
        <time>2015-06-06T08:03:17Z</time>
      </trkpt>
      <trkpt lat="31.6699319" lon="34.9588167">
        <ele>336.1</ele>
        <time>2015-06-06T08:03:20Z</time>
      </trkpt>
      <trkpt lat="31.6700597" lon="34.9587914">
        <ele>336.1</ele>
        <time>2015-06-06T08:03:23Z</time>
      </trkpt>
      <trkpt lat="31.6701824" lon="34.9586807">
        <ele>336.1</ele>
        <time>2015-06-06T08:03:26Z</time>
      </trkpt>
      <trkpt lat="31.6702874" lon="34.9585449">
        <ele>336.1</ele>
        <time>2015-06-06T08:03:29Z</time>
      </trkpt>
      <trkpt lat="31.6704035" lon="34.9584874">
        <ele>336.0</ele>
        <time>2015-06-06T08:03:32Z</time>
      </trkpt>
      <trkpt lat="31.670504" lon="34.9583615">
        <ele>335.8</ele>
        <time>2015-06-06T08:03:35Z</time>
      </trkpt>
      <trkpt lat="31.6705624" lon="34.9582588">
        <ele>335.0</ele>
        <time>2015-06-06T08:03:38Z</time>
      </trkpt>
      <trkpt lat="31.6706642" lon="34.9582392">
        <ele>334.9</ele>
        <time>2015-06-06T08:03:41Z</time>
      </trkpt>
      <trkpt lat="31.6707122" lon="34.9581985">
        <ele>333.6</ele>
        <time>2015-06-06T08:03:43Z</time>
      </trkpt>
      <trkpt lat="31.6707397" lon="34.958128">
        <ele>333.6</ele>
        <time>2015-06-06T08:03:46Z</time>
      </trkpt>
      <trkpt lat="31.6707802" lon="34.9580596">
        <ele>332.3</ele>
        <time>2015-06-06T08:03:48Z</time>
      </trkpt>
      <trkpt lat="31.6708144" lon="34.9580075">
        <ele>332.3</ele>
        <time>2015-06-06T08:03:50Z</time>
      </trkpt>
      <trkpt lat="31.6709119" lon="34.9578936">
        <ele>331.4</ele>
        <time>2015-06-06T08:03:54Z</time>
      </trkpt>
      <trkpt lat="31.6709953" lon="34.957756">
        <ele>329.3</ele>
        <time>2015-06-06T08:03:59Z</time>
      </trkpt>
      <trkpt lat="31.6710463" lon="34.9576874">
        <ele>327.8</ele>
        <time>2015-06-06T08:04:02Z</time>
      </trkpt>
      <trkpt lat="31.6710845" lon="34.9576529">
        <ele>327.8</ele>
        <time>2015-06-06T08:04:04Z</time>
      </trkpt>
      <trkpt lat="31.6711855" lon="34.9575372">
        <ele>327.1</ele>
        <time>2015-06-06T08:04:09Z</time>
      </trkpt>
      <trkpt lat="31.6713005" lon="34.9574141">
        <ele>326.9</ele>
        <time>2015-06-06T08:04:13Z</time>
      </trkpt>
      <trkpt lat="31.6714511" lon="34.9572845">
        <ele>326.8</ele>
        <time>2015-06-06T08:04:18Z</time>
      </trkpt>
      <trkpt lat="31.671568" lon="34.9571418">
        <ele>326.7</ele>
        <time>2015-06-06T08:04:22Z</time>
      </trkpt>
      <trkpt lat="31.6716432" lon="34.9569449">
        <ele>326.6</ele>
        <time>2015-06-06T08:04:26Z</time>
      </trkpt>
      <trkpt lat="31.6716667" lon="34.9567823">
        <ele>326.6</ele>
        <time>2015-06-06T08:04:30Z</time>
      </trkpt>
      <trkpt lat="31.6716756" lon="34.9566636">
        <ele>326.5</ele>
        <time>2015-06-06T08:04:34Z</time>
      </trkpt>
      <trkpt lat="31.6715958" lon="34.9565151">
        <ele>326.1</ele>
        <time>2015-06-06T08:04:41Z</time>
      </trkpt>
      <trkpt lat="31.6715061" lon="34.9564315">
        <ele>325.2</ele>
        <time>2015-06-06T08:04:45Z</time>
      </trkpt>
      <trkpt lat="31.671467" lon="34.9563777">
        <ele>324.6</ele>
        <time>2015-06-06T08:04:47Z</time>
      </trkpt>
      <trkpt lat="31.6714428" lon="34.956314">
        <ele>324.6</ele>
        <time>2015-06-06T08:04:49Z</time>
      </trkpt>
      <trkpt lat="31.6714396" lon="34.9562349">
        <ele>324.4</ele>
        <time>2015-06-06T08:04:51Z</time>
      </trkpt>
      <trkpt lat="31.6714556" lon="34.9561705">
        <ele>324.4</ele>
        <time>2015-06-06T08:04:53Z</time>
      </trkpt>
      <trkpt lat="31.6715" lon="34.9560322">
        <ele>324.3</ele>
        <time>2015-06-06T08:04:58Z</time>
      </trkpt>
      <trkpt lat="31.6715736" lon="34.9558985">
        <ele>324.2</ele>
        <time>2015-06-06T08:05:03Z</time>
      </trkpt>
      <trkpt lat="31.6715176" lon="34.9557572">
        <ele>324.1</ele>
        <time>2015-06-06T08:05:07Z</time>
      </trkpt>
      <trkpt lat="31.6715036" lon="34.9555864">
        <ele>324.0</ele>
        <time>2015-06-06T08:05:11Z</time>
      </trkpt>
      <trkpt lat="31.6715049" lon="34.9555041">
        <ele>323.9</ele>
        <time>2015-06-06T08:05:13Z</time>
      </trkpt>
      <trkpt lat="31.6715118" lon="34.9554309">
        <ele>323.9</ele>
        <time>2015-06-06T08:05:15Z</time>
      </trkpt>
      <trkpt lat="31.6715221" lon="34.9553729">
        <ele>323.8</ele>
        <time>2015-06-06T08:05:17Z</time>
      </trkpt>
      <trkpt lat="31.6715005" lon="34.9552984">
        <ele>323.8</ele>
        <time>2015-06-06T08:05:20Z</time>
      </trkpt>
      <trkpt lat="31.671465" lon="34.9551769">
        <ele>323.8</ele>
        <time>2015-06-06T08:05:24Z</time>
      </trkpt>
      <trkpt lat="31.6714088" lon="34.9550593">
        <ele>323.8</ele>
        <time>2015-06-06T08:05:28Z</time>
      </trkpt>
      <trkpt lat="31.6714145" lon="34.9548618">
        <ele>323.8</ele>
        <time>2015-06-06T08:05:33Z</time>
      </trkpt>
      <trkpt lat="31.6714249" lon="34.954672">
        <ele>323.7</ele>
        <time>2015-06-06T08:05:37Z</time>
      </trkpt>
      <trkpt lat="31.6714568" lon="34.9545073">
        <ele>323.5</ele>
        <time>2015-06-06T08:05:41Z</time>
      </trkpt>
      <trkpt lat="31.6714799" lon="34.9543433">
        <ele>323.4</ele>
        <time>2015-06-06T08:05:45Z</time>
      </trkpt>
      <trkpt lat="31.6715634" lon="34.9542005">
        <ele>323.3</ele>
        <time>2015-06-06T08:05:49Z</time>
      </trkpt>
      <trkpt lat="31.6716492" lon="34.9540749">
        <ele>323.1</ele>
        <time>2015-06-06T08:05:53Z</time>
      </trkpt>
      <trkpt lat="31.6717643" lon="34.9539521">
        <ele>321.8</ele>
        <time>2015-06-06T08:05:57Z</time>
      </trkpt>
      <trkpt lat="31.6718601" lon="34.9538215">
        <ele>320.5</ele>
        <time>2015-06-06T08:06:01Z</time>
      </trkpt>
      <trkpt lat="31.6719628" lon="34.9537046">
        <ele>320.0</ele>
        <time>2015-06-06T08:06:06Z</time>
      </trkpt>
      <trkpt lat="31.6720085" lon="34.9536026">
        <ele>319.9</ele>
        <time>2015-06-06T08:06:10Z</time>
      </trkpt>
      <trkpt lat="31.6720969" lon="34.9534567">
        <ele>319.9</ele>
        <time>2015-06-06T08:06:17Z</time>
      </trkpt>
      <trkpt lat="31.6721922" lon="34.9534069">
        <ele>319.9</ele>
        <time>2015-06-06T08:06:22Z</time>
      </trkpt>
      <trkpt lat="31.6722839" lon="34.9532696">
        <ele>319.9</ele>
        <time>2015-06-06T08:06:27Z</time>
      </trkpt>
      <trkpt lat="31.6723291" lon="34.9532354">
        <ele>319.9</ele>
        <time>2015-06-06T08:06:29Z</time>
      </trkpt>
      <trkpt lat="31.6724046" lon="34.9531864">
        <ele>319.9</ele>
        <time>2015-06-06T08:06:32Z</time>
      </trkpt>
      <trkpt lat="31.6724501" lon="34.9531624">
        <ele>320.2</ele>
        <time>2015-06-06T08:06:34Z</time>
      </trkpt>
      <trkpt lat="31.6725163" lon="34.9531558">
        <ele>320.2</ele>
        <time>2015-06-06T08:06:37Z</time>
      </trkpt>
      <trkpt lat="31.6726193" lon="34.9531478">
        <ele>320.6</ele>
        <time>2015-06-06T08:06:41Z</time>
      </trkpt>
      <trkpt lat="31.6726901" lon="34.9531332">
        <ele>320.6</ele>
        <time>2015-06-06T08:06:43Z</time>
      </trkpt>
      <trkpt lat="31.6727596" lon="34.9531349">
        <ele>320.6</ele>
        <time>2015-06-06T08:06:45Z</time>
      </trkpt>
      <trkpt lat="31.6728564" lon="34.9532062">
        <ele>320.6</ele>
        <time>2015-06-06T08:06:49Z</time>
      </trkpt>
      <trkpt lat="31.6729481" lon="34.9532256">
        <ele>320.6</ele>
        <time>2015-06-06T08:06:52Z</time>
      </trkpt>
      <trkpt lat="31.673005" lon="34.9532571">
        <ele>320.6</ele>
        <time>2015-06-06T08:06:54Z</time>
      </trkpt>
      <trkpt lat="31.673054" lon="34.9533052">
        <ele>320.6</ele>
        <time>2015-06-06T08:06:56Z</time>
      </trkpt>
      <trkpt lat="31.6731591" lon="34.9534141">
        <ele>320.6</ele>
        <time>2015-06-06T08:07:01Z</time>
      </trkpt>
      <trkpt lat="31.6732343" lon="34.9534774">
        <ele>320.7</ele>
        <time>2015-06-06T08:07:05Z</time>
      </trkpt>
      <trkpt lat="31.6732837" lon="34.9535072">
        <ele>320.7</ele>
        <time>2015-06-06T08:07:07Z</time>
      </trkpt>
      <trkpt lat="31.673384" lon="34.9535456">
        <ele>320.7</ele>
        <time>2015-06-06T08:07:11Z</time>
      </trkpt>
      <trkpt lat="31.6734847" lon="34.9536037">
        <ele>320.8</ele>
        <time>2015-06-06T08:07:16Z</time>
      </trkpt>
      <trkpt lat="31.6735241" lon="34.9536404">
        <ele>320.8</ele>
        <time>2015-06-06T08:07:19Z</time>
      </trkpt>
      <trkpt lat="31.6735728" lon="34.9536731">
        <ele>320.8</ele>
        <time>2015-06-06T08:07:22Z</time>
      </trkpt>
      <trkpt lat="31.6736603" lon="34.953763">
        <ele>320.8</ele>
        <time>2015-06-06T08:07:28Z</time>
      </trkpt>
      <trkpt lat="31.6736939" lon="34.9538153">
        <ele>321.1</ele>
        <time>2015-06-06T08:07:31Z</time>
      </trkpt>
      <trkpt lat="31.673731" lon="34.9538542">
        <ele>321.1</ele>
        <time>2015-06-06T08:07:34Z</time>
      </trkpt>
      <trkpt lat="31.6738507" lon="34.9538351">
        <ele>321.6</ele>
        <time>2015-06-06T08:07:38Z</time>
      </trkpt>
      <trkpt lat="31.674069" lon="34.9538212">
        <ele>322.0</ele>
        <time>2015-06-06T08:07:42Z</time>
      </trkpt>
      <trkpt lat="31.6741695" lon="34.9538025">
        <ele>322.1</ele>
        <time>2015-06-06T08:07:44Z</time>
      </trkpt>
      <trkpt lat="31.6742733" lon="34.9537928">
        <ele>322.1</ele>
        <time>2015-06-06T08:07:46Z</time>
      </trkpt>
      <trkpt lat="31.6744332" lon="34.9537397">
        <ele>322.1</ele>
        <time>2015-06-06T08:07:49Z</time>
      </trkpt>
      <trkpt lat="31.6745547" lon="34.9536419">
        <ele>322.1</ele>
        <time>2015-06-06T08:07:52Z</time>
      </trkpt>
      <trkpt lat="31.6746766" lon="34.9535504">
        <ele>322.1</ele>
        <time>2015-06-06T08:07:55Z</time>
      </trkpt>
      <trkpt lat="31.6747754" lon="34.9534155">
        <ele>322.1</ele>
        <time>2015-06-06T08:07:59Z</time>
      </trkpt>
      <trkpt lat="31.6747865" lon="34.9533628">
        <ele>322.1</ele>
        <time>2015-06-06T08:08:01Z</time>
      </trkpt>
      <trkpt lat="31.6747724" lon="34.9532966">
        <ele>322.1</ele>
        <time>2015-06-06T08:08:04Z</time>
      </trkpt>
      <trkpt lat="31.6747686" lon="34.9532262">
        <ele>322.1</ele>
        <time>2015-06-06T08:08:08Z</time>
      </trkpt>
      <trkpt lat="31.6747888" lon="34.9531159">
        <ele>322.4</ele>
        <time>2015-06-06T08:08:15Z</time>
      </trkpt>
      <trkpt lat="31.6748439" lon="34.9530878">
        <ele>322.5</ele>
        <time>2015-06-06T08:08:18Z</time>
      </trkpt>
      <trkpt lat="31.6749375" lon="34.9530787">
        <ele>322.5</ele>
        <time>2015-06-06T08:08:23Z</time>
      </trkpt>
      <trkpt lat="31.6750402" lon="34.953016">
        <ele>322.5</ele>
        <time>2015-06-06T08:08:30Z</time>
      </trkpt>
      <trkpt lat="31.6751384" lon="34.9529902">
        <ele>322.5</ele>
        <time>2015-06-06T08:08:35Z</time>
      </trkpt>
      <trkpt lat="31.6752166" lon="34.9529227">
        <ele>322.5</ele>
        <time>2015-06-06T08:08:41Z</time>
      </trkpt>
      <trkpt lat="31.6752751" lon="34.9528402">
        <ele>324.2</ele>
        <time>2015-06-06T08:08:47Z</time>
      </trkpt>
      <trkpt lat="31.6753572" lon="34.9527785">
        <ele>324.7</ele>
        <time>2015-06-06T08:08:53Z</time>
      </trkpt>
      <trkpt lat="31.6753852" lon="34.9527278">
        <ele>325.4</ele>
        <time>2015-06-06T08:08:57Z</time>
      </trkpt>
      <trkpt lat="31.675386" lon="34.9526589">
        <ele>325.4</ele>
        <time>2015-06-06T08:09:00Z</time>
      </trkpt>
      <trkpt lat="31.6753696" lon="34.952593">
        <ele>326.0</ele>
        <time>2015-06-06T08:09:03Z</time>
      </trkpt>
      <trkpt lat="31.6753233" lon="34.9525568">
        <ele>326.0</ele>
        <time>2015-06-06T08:09:06Z</time>
      </trkpt>
      <trkpt lat="31.6752927" lon="34.9525029">
        <ele>326.5</ele>
        <time>2015-06-06T08:09:09Z</time>
      </trkpt>
      <trkpt lat="31.6752763" lon="34.9524437">
        <ele>326.5</ele>
        <time>2015-06-06T08:09:11Z</time>
      </trkpt>
      <trkpt lat="31.6752481" lon="34.9523227">
        <ele>327.1</ele>
        <time>2015-06-06T08:09:15Z</time>
      </trkpt>
      <trkpt lat="31.6752928" lon="34.952215">
        <ele>327.1</ele>
        <time>2015-06-06T08:09:19Z</time>
      </trkpt>
      <trkpt lat="31.6753401" lon="34.9520906">
        <ele>327.1</ele>
        <time>2015-06-06T08:09:23Z</time>
      </trkpt>
      <trkpt lat="31.6753749" lon="34.9520212">
        <ele>327.1</ele>
        <time>2015-06-06T08:09:26Z</time>
      </trkpt>
      <trkpt lat="31.675324" lon="34.9519848">
        <ele>327.1</ele>
        <time>2015-06-06T08:09:31Z</time>
      </trkpt>
      <trkpt lat="31.6752778" lon="34.9519437">
        <ele>327.1</ele>
        <time>2015-06-06T08:09:34Z</time>
      </trkpt>
      <trkpt lat="31.675279" lon="34.9518884">
        <ele>327.1</ele>
        <time>2015-06-06T08:09:36Z</time>
      </trkpt>
      <trkpt lat="31.6753071" lon="34.9518356">
        <ele>327.1</ele>
        <time>2015-06-06T08:09:38Z</time>
      </trkpt>
      <trkpt lat="31.6753584" lon="34.9517938">
        <ele>327.1</ele>
        <time>2015-06-06T08:09:40Z</time>
      </trkpt>
      <trkpt lat="31.6754366" lon="34.9517358">
        <ele>327.1</ele>
        <time>2015-06-06T08:09:43Z</time>
      </trkpt>
      <trkpt lat="31.6755386" lon="34.951612">
        <ele>326.5</ele>
        <time>2015-06-06T08:09:47Z</time>
      </trkpt>
      <trkpt lat="31.6755476" lon="34.9514458">
        <ele>325.5</ele>
        <time>2015-06-06T08:09:50Z</time>
      </trkpt>
      <trkpt lat="31.6755826" lon="34.9512858">
        <ele>324.3</ele>
        <time>2015-06-06T08:09:53Z</time>
      </trkpt>
      <trkpt lat="31.6757398" lon="34.9512114">
        <ele>322.4</ele>
        <time>2015-06-06T08:09:57Z</time>
      </trkpt>
      <trkpt lat="31.6758832" lon="34.9511872">
        <ele>321.1</ele>
        <time>2015-06-06T08:10:04Z</time>
      </trkpt>
      <trkpt lat="31.6759372" lon="34.9511486">
        <ele>319.5</ele>
        <time>2015-06-06T08:10:07Z</time>
      </trkpt>
      <trkpt lat="31.6759875" lon="34.951142">
        <ele>319.5</ele>
        <time>2015-06-06T08:10:09Z</time>
      </trkpt>
      <trkpt lat="31.6760787" lon="34.9510937">
        <ele>318.9</ele>
        <time>2015-06-06T08:10:13Z</time>
      </trkpt>
      <trkpt lat="31.6761666" lon="34.9510182">
        <ele>318.3</ele>
        <time>2015-06-06T08:10:17Z</time>
      </trkpt>
      <trkpt lat="31.6762532" lon="34.9509702">
        <ele>317.4</ele>
        <time>2015-06-06T08:10:21Z</time>
      </trkpt>
      <trkpt lat="31.676311" lon="34.9508185">
        <ele>316.7</ele>
        <time>2015-06-06T08:10:26Z</time>
      </trkpt>
      <trkpt lat="31.676328" lon="34.9507058">
        <ele>316.6</ele>
        <time>2015-06-06T08:10:29Z</time>
      </trkpt>
      <trkpt lat="31.6763356" lon="34.9506287">
        <ele>316.5</ele>
        <time>2015-06-06T08:10:31Z</time>
      </trkpt>
      <trkpt lat="31.6763144" lon="34.95058">
        <ele>316.5</ele>
        <time>2015-06-06T08:10:33Z</time>
      </trkpt>
      <trkpt lat="31.6762428" lon="34.9505573">
        <ele>316.5</ele>
        <time>2015-06-06T08:10:35Z</time>
      </trkpt>
      <trkpt lat="31.6761268" lon="34.9505555">
        <ele>316.2</ele>
        <time>2015-06-06T08:10:38Z</time>
      </trkpt>
      <trkpt lat="31.6760697" lon="34.9504584">
        <ele>315.9</ele>
        <time>2015-06-06T08:10:41Z</time>
      </trkpt>
      <trkpt lat="31.6760575" lon="34.950277">
        <ele>315.6</ele>
        <time>2015-06-06T08:10:45Z</time>
      </trkpt>
      <trkpt lat="31.675992" lon="34.9502667">
        <ele>315.4</ele>
        <time>2015-06-06T08:10:48Z</time>
      </trkpt>
      <trkpt lat="31.6759292" lon="34.950302">
        <ele>315.4</ele>
        <time>2015-06-06T08:10:50Z</time>
      </trkpt>
      <trkpt lat="31.6758284" lon="34.9504374">
        <ele>315.4</ele>
        <time>2015-06-06T08:10:54Z</time>
      </trkpt>
      <trkpt lat="31.6757873" lon="34.9504951">
        <ele>315.4</ele>
        <time>2015-06-06T08:10:56Z</time>
      </trkpt>
      <trkpt lat="31.6757451" lon="34.9504711">
        <ele>315.4</ele>
        <time>2015-06-06T08:10:58Z</time>
      </trkpt>
      <trkpt lat="31.675685" lon="34.9503202">
        <ele>315.4</ele>
        <time>2015-06-06T08:11:02Z</time>
      </trkpt>
      <trkpt lat="31.6755977" lon="34.9502478">
        <ele>314.0</ele>
        <time>2015-06-06T08:11:05Z</time>
      </trkpt>
      <trkpt lat="31.6754759" lon="34.9503798">
        <ele>313.4</ele>
        <time>2015-06-06T08:11:10Z</time>
      </trkpt>
      <trkpt lat="31.675326" lon="34.9504211">
        <ele>312.2</ele>
        <time>2015-06-06T08:11:14Z</time>
      </trkpt>
      <trkpt lat="31.6752764" lon="34.9502873">
        <ele>311.5</ele>
        <time>2015-06-06T08:11:16Z</time>
      </trkpt>
      <trkpt lat="31.6752579" lon="34.9502289">
        <ele>310.9</ele>
        <time>2015-06-06T08:11:17Z</time>
      </trkpt>
      <trkpt lat="31.6753056" lon="34.9501924">
        <ele>310.9</ele>
        <time>2015-06-06T08:11:19Z</time>
      </trkpt>
      <trkpt lat="31.6753677" lon="34.9501927">
        <ele>310.9</ele>
        <time>2015-06-06T08:11:21Z</time>
      </trkpt>
      <trkpt lat="31.6754884" lon="34.9500982">
        <ele>310.1</ele>
        <time>2015-06-06T08:11:27Z</time>
      </trkpt>
      <trkpt lat="31.6754613" lon="34.9500336">
        <ele>309.6</ele>
        <time>2015-06-06T08:11:29Z</time>
      </trkpt>
      <trkpt lat="31.6753889" lon="34.9498949">
        <ele>309.6</ele>
        <time>2015-06-06T08:11:33Z</time>
      </trkpt>
      <trkpt lat="31.6753586" lon="34.949826">
        <ele>308.4</ele>
        <time>2015-06-06T08:11:35Z</time>
      </trkpt>
      <trkpt lat="31.6753675" lon="34.9497609">
        <ele>308.4</ele>
        <time>2015-06-06T08:11:37Z</time>
      </trkpt>
      <trkpt lat="31.6754845" lon="34.949663">
        <ele>308.1</ele>
        <time>2015-06-06T08:11:41Z</time>
      </trkpt>
      <trkpt lat="31.6756256" lon="34.9497195">
        <ele>307.1</ele>
        <time>2015-06-06T08:11:44Z</time>
      </trkpt>
      <trkpt lat="31.67577" lon="34.9497824">
        <ele>306.8</ele>
        <time>2015-06-06T08:11:47Z</time>
      </trkpt>
      <trkpt lat="31.6758966" lon="34.9497846">
        <ele>306.5</ele>
        <time>2015-06-06T08:11:50Z</time>
      </trkpt>
      <trkpt lat="31.6760062" lon="34.9497361">
        <ele>306.2</ele>
        <time>2015-06-06T08:11:53Z</time>
      </trkpt>
      <trkpt lat="31.6761372" lon="34.9496887">
        <ele>306.1</ele>
        <time>2015-06-06T08:11:56Z</time>
      </trkpt>
      <trkpt lat="31.676232" lon="34.9496922">
        <ele>305.8</ele>
        <time>2015-06-06T08:11:58Z</time>
      </trkpt>
      <trkpt lat="31.6762462" lon="34.9495781">
        <ele>305.2</ele>
        <time>2015-06-06T08:12:03Z</time>
      </trkpt>
      <trkpt lat="31.6761495" lon="34.9494583">
        <ele>304.8</ele>
        <time>2015-06-06T08:12:07Z</time>
      </trkpt>
      <trkpt lat="31.6760173" lon="34.9493776">
        <ele>304.6</ele>
        <time>2015-06-06T08:12:10Z</time>
      </trkpt>
      <trkpt lat="31.6759545" lon="34.9493016">
        <ele>303.2</ele>
        <time>2015-06-06T08:12:12Z</time>
      </trkpt>
      <trkpt lat="31.6758494" lon="34.9491913">
        <ele>303.1</ele>
        <time>2015-06-06T08:12:15Z</time>
      </trkpt>
      <trkpt lat="31.675727" lon="34.9490204">
        <ele>303.1</ele>
        <time>2015-06-06T08:12:18Z</time>
      </trkpt>
      <trkpt lat="31.6756873" lon="34.9489628">
        <ele>302.4</ele>
        <time>2015-06-06T08:12:19Z</time>
      </trkpt>
      <trkpt lat="31.6756825" lon="34.9488998">
        <ele>302.4</ele>
        <time>2015-06-06T08:12:21Z</time>
      </trkpt>
      <trkpt lat="31.6757469" lon="34.9489054">
        <ele>302.4</ele>
        <time>2015-06-06T08:12:23Z</time>
      </trkpt>
      <trkpt lat="31.6758984" lon="34.9489596">
        <ele>301.7</ele>
        <time>2015-06-06T08:12:27Z</time>
      </trkpt>
      <trkpt lat="31.6760008" lon="34.9489955">
        <ele>301.3</ele>
        <time>2015-06-06T08:12:30Z</time>
      </trkpt>
      <trkpt lat="31.6759441" lon="34.9488269">
        <ele>300.5</ele>
        <time>2015-06-06T08:12:34Z</time>
      </trkpt>
      <trkpt lat="31.6758694" lon="34.9486915">
        <ele>299.0</ele>
        <time>2015-06-06T08:12:37Z</time>
      </trkpt>
      <trkpt lat="31.6758576" lon="34.9486329">
        <ele>297.0</ele>
        <time>2015-06-06T08:12:38Z</time>
      </trkpt>
      <trkpt lat="31.6758724" lon="34.9485784">
        <ele>297.0</ele>
        <time>2015-06-06T08:12:40Z</time>
      </trkpt>
      <trkpt lat="31.6759081" lon="34.9486324">
        <ele>297.0</ele>
        <time>2015-06-06T08:12:42Z</time>
      </trkpt>
      <trkpt lat="31.6760637" lon="34.9487201">
        <ele>293.9</ele>
        <time>2015-06-06T08:12:47Z</time>
      </trkpt>
      <trkpt lat="31.6761813" lon="34.9487225">
        <ele>292.8</ele>
        <time>2015-06-06T08:12:50Z</time>
      </trkpt>
      <trkpt lat="31.6762812" lon="34.9487503">
        <ele>291.5</ele>
        <time>2015-06-06T08:12:54Z</time>
      </trkpt>
      <trkpt lat="31.6761675" lon="34.948551">
        <ele>290.0</ele>
        <time>2015-06-06T08:12:59Z</time>
      </trkpt>
      <trkpt lat="31.6760789" lon="34.9483621">
        <ele>289.6</ele>
        <time>2015-06-06T08:13:02Z</time>
      </trkpt>
      <trkpt lat="31.676071" lon="34.9481644">
        <ele>288.8</ele>
        <time>2015-06-06T08:13:05Z</time>
      </trkpt>
      <trkpt lat="31.6760271" lon="34.9479767">
        <ele>286.7</ele>
        <time>2015-06-06T08:13:08Z</time>
      </trkpt>
      <trkpt lat="31.6760607" lon="34.9478711">
        <ele>284.6</ele>
        <time>2015-06-06T08:13:11Z</time>
      </trkpt>
      <trkpt lat="31.6760265" lon="34.9477005">
        <ele>284.3</ele>
        <time>2015-06-06T08:13:15Z</time>
      </trkpt>
      <trkpt lat="31.6759996" lon="34.9475091">
        <ele>283.9</ele>
        <time>2015-06-06T08:13:19Z</time>
      </trkpt>
      <trkpt lat="31.6759676" lon="34.9473988">
        <ele>283.0</ele>
        <time>2015-06-06T08:13:22Z</time>
      </trkpt>
      <trkpt lat="31.6760615" lon="34.9473326">
        <ele>282.1</ele>
        <time>2015-06-06T08:13:26Z</time>
      </trkpt>
      <trkpt lat="31.6760505" lon="34.9472861">
        <ele>280.0</ele>
        <time>2015-06-06T08:13:29Z</time>
      </trkpt>
      <trkpt lat="31.6760476" lon="34.9472984">
        <ele>270.4</ele>
        <time>2015-06-06T08:13:33Z</time>
      </trkpt>
      <trkpt lat="31.6760476" lon="34.9472984">
        <time>2015-06-06T08:13:33Z</time>
      </trkpt>
    </trkseg>
    <trkseg>
      <trkpt lat="31.6760476" lon="34.9472984">
        <time>2015-06-06T08:14:40Z</time>
      </trkpt>
      <trkpt lat="31.6759952" lon="34.9471545">
        <ele>269.7</ele>
        <time>2015-06-06T08:14:41Z</time>
      </trkpt>
      <trkpt lat="31.6758993" lon="34.9470366">
        <ele>269.6</ele>
        <time>2015-06-06T08:14:45Z</time>
      </trkpt>
      <trkpt lat="31.675795" lon="34.9468742">
        <ele>269.3</ele>
        <time>2015-06-06T08:14:49Z</time>
      </trkpt>
      <trkpt lat="31.6756843" lon="34.946722">
        <ele>269.0</ele>
        <time>2015-06-06T08:14:53Z</time>
      </trkpt>
      <trkpt lat="31.6756052" lon="34.9465782">
        <ele>268.9</ele>
        <time>2015-06-06T08:14:57Z</time>
      </trkpt>
      <trkpt lat="31.6756043" lon="34.9465131">
        <ele>268.8</ele>
        <time>2015-06-06T08:14:59Z</time>
      </trkpt>
      <trkpt lat="31.6756347" lon="34.9464553">
        <ele>268.8</ele>
        <time>2015-06-06T08:15:01Z</time>
      </trkpt>
      <trkpt lat="31.6757441" lon="34.9463334">
        <ele>268.8</ele>
        <time>2015-06-06T08:15:05Z</time>
      </trkpt>
      <trkpt lat="31.6758742" lon="34.9462384">
        <ele>268.7</ele>
        <time>2015-06-06T08:15:08Z</time>
      </trkpt>
      <trkpt lat="31.6760182" lon="34.9461331">
        <ele>268.7</ele>
        <time>2015-06-06T08:15:11Z</time>
      </trkpt>
      <trkpt lat="31.6761193" lon="34.9461229">
        <ele>268.6</ele>
        <time>2015-06-06T08:15:13Z</time>
      </trkpt>
      <trkpt lat="31.6761824" lon="34.9461329">
        <ele>268.3</ele>
        <time>2015-06-06T08:15:14Z</time>
      </trkpt>
      <trkpt lat="31.6762357" lon="34.9461633">
        <ele>268.3</ele>
        <time>2015-06-06T08:15:15Z</time>
      </trkpt>
      <trkpt lat="31.6762871" lon="34.9462047">
        <ele>268.3</ele>
        <time>2015-06-06T08:15:16Z</time>
      </trkpt>
      <trkpt lat="31.6763349" lon="34.9462536">
        <ele>268.3</ele>
        <time>2015-06-06T08:15:17Z</time>
      </trkpt>
      <trkpt lat="31.6763718" lon="34.9463086">
        <ele>268.3</ele>
        <time>2015-06-06T08:15:18Z</time>
      </trkpt>
      <trkpt lat="31.6764854" lon="34.9464926">
        <ele>268.2</ele>
        <time>2015-06-06T08:15:21Z</time>
      </trkpt>
      <trkpt lat="31.6765814" lon="34.9466629">
        <ele>268.1</ele>
        <time>2015-06-06T08:15:24Z</time>
      </trkpt>
      <trkpt lat="31.6767061" lon="34.9468163">
        <ele>267.9</ele>
        <time>2015-06-06T08:15:27Z</time>
      </trkpt>
      <trkpt lat="31.6768225" lon="34.9469238">
        <ele>267.7</ele>
        <time>2015-06-06T08:15:30Z</time>
      </trkpt>
      <trkpt lat="31.6769949" lon="34.9470057">
        <ele>267.6</ele>
        <time>2015-06-06T08:15:34Z</time>
      </trkpt>
      <trkpt lat="31.6771302" lon="34.9470191">
        <ele>267.5</ele>
        <time>2015-06-06T08:15:37Z</time>
      </trkpt>
      <trkpt lat="31.6772626" lon="34.9470259">
        <ele>267.3</ele>
        <time>2015-06-06T08:15:40Z</time>
      </trkpt>
      <trkpt lat="31.6773565" lon="34.9470276">
        <ele>266.4</ele>
        <time>2015-06-06T08:15:42Z</time>
      </trkpt>
      <trkpt lat="31.6774544" lon="34.9470433">
        <ele>265.6</ele>
        <time>2015-06-06T08:15:44Z</time>
      </trkpt>
      <trkpt lat="31.6775909" lon="34.9470445">
        <ele>264.1</ele>
        <time>2015-06-06T08:15:47Z</time>
      </trkpt>
      <trkpt lat="31.6777147" lon="34.9470502">
        <ele>263.2</ele>
        <time>2015-06-06T08:15:50Z</time>
      </trkpt>
      <trkpt lat="31.6778533" lon="34.9470622">
        <ele>262.3</ele>
        <time>2015-06-06T08:15:53Z</time>
      </trkpt>
      <trkpt lat="31.6779485" lon="34.9470634">
        <ele>261.7</ele>
        <time>2015-06-06T08:15:55Z</time>
      </trkpt>
      <trkpt lat="31.6780424" lon="34.9470675">
        <ele>261.4</ele>
        <time>2015-06-06T08:15:57Z</time>
      </trkpt>
      <trkpt lat="31.6781384" lon="34.9470787">
        <ele>261.3</ele>
        <time>2015-06-06T08:15:59Z</time>
      </trkpt>
      <trkpt lat="31.6782294" lon="34.947102">
        <ele>260.9</ele>
        <time>2015-06-06T08:16:01Z</time>
      </trkpt>
      <trkpt lat="31.6783236" lon="34.9471057">
        <ele>260.8</ele>
        <time>2015-06-06T08:16:03Z</time>
      </trkpt>
      <trkpt lat="31.6784412" lon="34.9470853">
        <ele>260.4</ele>
        <time>2015-06-06T08:16:05Z</time>
      </trkpt>
      <trkpt lat="31.6785783" lon="34.9470853">
        <ele>260.1</ele>
        <time>2015-06-06T08:16:08Z</time>
      </trkpt>
      <trkpt lat="31.6788008" lon="34.9470686">
        <ele>259.8</ele>
        <time>2015-06-06T08:16:12Z</time>
      </trkpt>
      <trkpt lat="31.6788975" lon="34.9470815">
        <ele>259.6</ele>
        <time>2015-06-06T08:16:14Z</time>
      </trkpt>
      <trkpt lat="31.6790984" lon="34.9470959">
        <ele>259.3</ele>
        <time>2015-06-06T08:16:18Z</time>
      </trkpt>
      <trkpt lat="31.6792565" lon="34.9470889">
        <ele>259.2</ele>
        <time>2015-06-06T08:16:21Z</time>
      </trkpt>
      <trkpt lat="31.679355" lon="34.9471046">
        <ele>259.2</ele>
        <time>2015-06-06T08:16:23Z</time>
      </trkpt>
      <trkpt lat="31.6794478" lon="34.9470818">
        <ele>259.1</ele>
        <time>2015-06-06T08:16:25Z</time>
      </trkpt>
      <trkpt lat="31.6795037" lon="34.9470545">
        <ele>258.9</ele>
        <time>2015-06-06T08:16:26Z</time>
      </trkpt>
      <trkpt lat="31.6795704" lon="34.9470329">
        <ele>258.9</ele>
        <time>2015-06-06T08:16:27Z</time>
      </trkpt>
      <trkpt lat="31.6796289" lon="34.9470213">
        <ele>258.9</ele>
        <time>2015-06-06T08:16:28Z</time>
      </trkpt>
      <trkpt lat="31.6796833" lon="34.9470055">
        <ele>258.9</ele>
        <time>2015-06-06T08:16:29Z</time>
      </trkpt>
      <trkpt lat="31.6797428" lon="34.9469976">
        <ele>258.9</ele>
        <time>2015-06-06T08:16:30Z</time>
      </trkpt>
      <trkpt lat="31.6799166" lon="34.9469649">
        <ele>258.8</ele>
        <time>2015-06-06T08:16:33Z</time>
      </trkpt>
      <trkpt lat="31.6800175" lon="34.9469216">
        <ele>258.8</ele>
        <time>2015-06-06T08:16:35Z</time>
      </trkpt>
      <trkpt lat="31.680065" lon="34.9469007">
        <ele>258.6</ele>
        <time>2015-06-06T08:16:36Z</time>
      </trkpt>
      <trkpt lat="31.680113" lon="34.9468867">
        <ele>258.6</ele>
        <time>2015-06-06T08:16:37Z</time>
      </trkpt>
      <trkpt lat="31.6801634" lon="34.9468775">
        <ele>258.6</ele>
        <time>2015-06-06T08:16:38Z</time>
      </trkpt>
      <trkpt lat="31.6802085" lon="34.9468676">
        <ele>258.6</ele>
        <time>2015-06-06T08:16:39Z</time>
      </trkpt>
      <trkpt lat="31.680261" lon="34.9468594">
        <ele>258.6</ele>
        <time>2015-06-06T08:16:40Z</time>
      </trkpt>
      <trkpt lat="31.680349" lon="34.9468243">
        <ele>258.6</ele>
        <time>2015-06-06T08:16:42Z</time>
      </trkpt>
      <trkpt lat="31.6804852" lon="34.9468017">
        <ele>258.6</ele>
        <time>2015-06-06T08:16:46Z</time>
      </trkpt>
      <trkpt lat="31.6805452" lon="34.9466553">
        <ele>258.4</ele>
        <time>2015-06-06T08:16:52Z</time>
      </trkpt>
      <trkpt lat="31.6805883" lon="34.9466147">
        <ele>258.4</ele>
        <time>2015-06-06T08:16:55Z</time>
      </trkpt>
      <trkpt lat="31.6807288" lon="34.946631">
        <ele>258.3</ele>
        <time>2015-06-06T08:17:00Z</time>
      </trkpt>
      <trkpt lat="31.6808314" lon="34.9466406">
        <ele>258.3</ele>
        <time>2015-06-06T08:17:03Z</time>
      </trkpt>
      <trkpt lat="31.6809282" lon="34.9466456">
        <ele>258.3</ele>
        <time>2015-06-06T08:17:06Z</time>
      </trkpt>
      <trkpt lat="31.6810622" lon="34.9466587">
        <ele>258.3</ele>
        <time>2015-06-06T08:17:09Z</time>
      </trkpt>
      <trkpt lat="31.6812149" lon="34.9466751">
        <ele>258.3</ele>
        <time>2015-06-06T08:17:12Z</time>
      </trkpt>
      <trkpt lat="31.6813149" lon="34.9466835">
        <ele>258.3</ele>
        <time>2015-06-06T08:17:14Z</time>
      </trkpt>
      <trkpt lat="31.6814686" lon="34.9467185">
        <ele>258.3</ele>
        <time>2015-06-06T08:17:17Z</time>
      </trkpt>
      <trkpt lat="31.6815956" lon="34.9467401">
        <ele>258.3</ele>
        <time>2015-06-06T08:17:20Z</time>
      </trkpt>
      <trkpt lat="31.6817361" lon="34.9467767">
        <ele>258.3</ele>
        <time>2015-06-06T08:17:23Z</time>
      </trkpt>
      <trkpt lat="31.6818684" lon="34.9467959">
        <ele>258.4</ele>
        <time>2015-06-06T08:17:26Z</time>
      </trkpt>
      <trkpt lat="31.6820461" lon="34.9467881">
        <ele>258.4</ele>
        <time>2015-06-06T08:17:30Z</time>
      </trkpt>
      <trkpt lat="31.6821408" lon="34.9468212">
        <ele>258.5</ele>
        <time>2015-06-06T08:17:32Z</time>
      </trkpt>
      <trkpt lat="31.6822363" lon="34.9468205">
        <ele>258.5</ele>
        <time>2015-06-06T08:17:34Z</time>
      </trkpt>
      <trkpt lat="31.6823637" lon="34.9468421">
        <ele>258.5</ele>
        <time>2015-06-06T08:17:37Z</time>
      </trkpt>
      <trkpt lat="31.6824956" lon="34.9468521">
        <ele>258.6</ele>
        <time>2015-06-06T08:17:40Z</time>
      </trkpt>
      <trkpt lat="31.6826383" lon="34.9468525">
        <ele>258.7</ele>
        <time>2015-06-06T08:17:44Z</time>
      </trkpt>
      <trkpt lat="31.6827681" lon="34.946885">
        <ele>258.8</ele>
        <time>2015-06-06T08:17:48Z</time>
      </trkpt>
      <trkpt lat="31.6828773" lon="34.9469043">
        <ele>258.9</ele>
        <time>2015-06-06T08:17:51Z</time>
      </trkpt>
      <trkpt lat="31.683014" lon="34.9469164">
        <ele>259.2</ele>
        <time>2015-06-06T08:17:55Z</time>
      </trkpt>
      <trkpt lat="31.6830842" lon="34.9469248">
        <ele>259.6</ele>
        <time>2015-06-06T08:17:57Z</time>
      </trkpt>
      <trkpt lat="31.6831776" lon="34.9469426">
        <ele>259.6</ele>
        <time>2015-06-06T08:18:00Z</time>
      </trkpt>
      <trkpt lat="31.6832685" lon="34.9469483">
        <ele>259.9</ele>
        <time>2015-06-06T08:18:03Z</time>
      </trkpt>
      <trkpt lat="31.6834262" lon="34.9469509">
        <ele>260.6</ele>
        <time>2015-06-06T08:18:08Z</time>
      </trkpt>
      <trkpt lat="31.6834887" lon="34.9469536">
        <ele>261.1</ele>
        <time>2015-06-06T08:18:10Z</time>
      </trkpt>
      <trkpt lat="31.6835807" lon="34.9469635">
        <ele>261.1</ele>
        <time>2015-06-06T08:18:13Z</time>
      </trkpt>
      <trkpt lat="31.6836766" lon="34.9469741">
        <ele>261.3</ele>
        <time>2015-06-06T08:18:16Z</time>
      </trkpt>
      <trkpt lat="31.6837706" lon="34.9469841">
        <ele>261.7</ele>
        <time>2015-06-06T08:18:19Z</time>
      </trkpt>
      <trkpt lat="31.6839234" lon="34.947001">
        <ele>262.0</ele>
        <time>2015-06-06T08:18:24Z</time>
      </trkpt>
      <trkpt lat="31.6840426" lon="34.9470236">
        <ele>262.2</ele>
        <time>2015-06-06T08:18:28Z</time>
      </trkpt>
      <trkpt lat="31.6841013" lon="34.9470376">
        <ele>262.6</ele>
        <time>2015-06-06T08:18:30Z</time>
      </trkpt>
      <trkpt lat="31.6841578" lon="34.9470623">
        <ele>262.6</ele>
        <time>2015-06-06T08:18:32Z</time>
      </trkpt>
      <trkpt lat="31.6842671" lon="34.9471018">
        <ele>263.1</ele>
        <time>2015-06-06T08:18:36Z</time>
      </trkpt>
      <trkpt lat="31.6844122" lon="34.9471115">
        <ele>263.8</ele>
        <time>2015-06-06T08:18:41Z</time>
      </trkpt>
      <trkpt lat="31.6844989" lon="34.9471307">
        <ele>264.1</ele>
        <time>2015-06-06T08:18:44Z</time>
      </trkpt>
      <trkpt lat="31.6845567" lon="34.9471508">
        <ele>264.1</ele>
        <time>2015-06-06T08:18:46Z</time>
      </trkpt>
      <trkpt lat="31.6846584" lon="34.9471838">
        <ele>264.3</ele>
        <time>2015-06-06T08:18:50Z</time>
      </trkpt>
      <trkpt lat="31.6847576" lon="34.9472032">
        <ele>264.7</ele>
        <time>2015-06-06T08:18:54Z</time>
      </trkpt>
      <trkpt lat="31.6848493" lon="34.9472213">
        <ele>264.8</ele>
        <time>2015-06-06T08:18:58Z</time>
      </trkpt>
      <trkpt lat="31.6850028" lon="34.947229">
        <ele>265.0</ele>
        <time>2015-06-06T08:19:04Z</time>
      </trkpt>
      <trkpt lat="31.6851054" lon="34.947201">
        <ele>265.4</ele>
        <time>2015-06-06T08:19:10Z</time>
      </trkpt>
      <trkpt lat="31.6851567" lon="34.9471879">
        <ele>265.8</ele>
        <time>2015-06-06T08:19:13Z</time>
      </trkpt>
      <trkpt lat="31.6852968" lon="34.9471888">
        <ele>266.1</ele>
        <time>2015-06-06T08:19:21Z</time>
      </trkpt>
      <trkpt lat="31.6854494" lon="34.9472133">
        <ele>267.6</ele>
        <time>2015-06-06T08:19:31Z</time>
      </trkpt>
      <trkpt lat="31.6854996" lon="34.9472157">
        <ele>269.8</ele>
        <time>2015-06-06T08:19:37Z</time>
      </trkpt>
      <trkpt lat="31.6854922" lon="34.9472203">
        <ele>270.1</ele>
        <time>2015-06-06T08:19:38Z</time>
      </trkpt>
      <trkpt lat="31.6854835" lon="34.9472291">
        <ele>274.4</ele>
        <time>2015-06-06T08:19:42Z</time>
      </trkpt>
      <trkpt lat="31.6854835" lon="34.9472291">
        <time>2015-06-06T08:19:42Z</time>
      </trkpt>
    </trkseg>
    <trkseg>
      <trkpt lat="31.6854835" lon="34.9472291">
        <time>2015-06-06T08:24:49Z</time>
      </trkpt>
    </trkseg>
  </trk>
</gpx>